<?xml version="1.0" encoding="UTF-8" standalone="no" ?>
<gpx xmlns="http://www.topografix.com/GPX/1/1" xmlns:xsi="http://www.w3.org/2001/XMLSchema-instance" xsi:schemaLocation="http://www.topografix.com/GPX/1/1 http://www.topografix.com/GPX/1/1/gpx.xsd" version="1.1" creator="VisuGPX - https://www.visugpx.com">
  <metadata>
    <name>Rando des Badrais 2019</name>
  </metadata>
  <trk>
    <name><![CDATA[Rando des Badrais]]></name>
    <extensions>
      <line xmlns="http://www.topografix.com/GPX/gpx_style/0/2">
        <color>0000FF</color>
        <width>4</width>
      </line>
    </extensions>
    <trkseg>
      <trkpt lat="45.60067" lon="4.60437">
        <ele>540.6</ele>
        <time>2019-04-28T06:24:09Z</time>
      </trkpt>
      <trkpt lat="45.6007" lon="4.60423">
        <ele>542.2</ele>
        <time>2019-04-28T06:24:16Z</time>
      </trkpt>
      <trkpt lat="45.60071" lon="4.60418">
        <ele>542.6</ele>
        <time>2019-04-28T06:24:18Z</time>
      </trkpt>
      <trkpt lat="45.60072" lon="4.60417">
        <ele>542.8</ele>
        <time>2019-04-28T06:24:19Z</time>
      </trkpt>
      <trkpt lat="45.60073" lon="4.60411">
        <ele>543.3</ele>
        <time>2019-04-28T06:24:22Z</time>
      </trkpt>
      <trkpt lat="45.60074" lon="4.60396">
        <ele>544.5</ele>
        <time>2019-04-28T06:24:28Z</time>
      </trkpt>
      <trkpt lat="45.60075" lon="4.60386">
        <ele>545.3</ele>
        <time>2019-04-28T06:24:32Z</time>
      </trkpt>
      <trkpt lat="45.60075" lon="4.60381">
        <ele>545.7</ele>
        <time>2019-04-28T06:24:34Z</time>
      </trkpt>
      <trkpt lat="45.60076" lon="4.60372">
        <ele>546.5</ele>
        <time>2019-04-28T06:24:38Z</time>
      </trkpt>
      <trkpt lat="45.60076" lon="4.6037">
        <ele>546.7</ele>
        <time>2019-04-28T06:24:39Z</time>
      </trkpt>
      <trkpt lat="45.60077" lon="4.60366">
        <ele>547.1</ele>
        <time>2019-04-28T06:24:41Z</time>
      </trkpt>
      <trkpt lat="45.60079" lon="4.60357">
        <ele>548</ele>
        <time>2019-04-28T06:24:45Z</time>
      </trkpt>
      <trkpt lat="45.6008" lon="4.60349">
        <ele>548.4</ele>
        <time>2019-04-28T06:24:49Z</time>
      </trkpt>
      <trkpt lat="45.60079" lon="4.60342">
        <ele>548.7</ele>
        <time>2019-04-28T06:24:52Z</time>
      </trkpt>
      <trkpt lat="45.60076" lon="4.60332">
        <ele>550.6</ele>
        <time>2019-04-28T06:24:57Z</time>
      </trkpt>
      <trkpt lat="45.60076" lon="4.60327">
        <ele>551.3</ele>
        <time>2019-04-28T06:24:59Z</time>
      </trkpt>
      <trkpt lat="45.60075" lon="4.60316">
        <ele>552.7</ele>
        <time>2019-04-28T06:25:04Z</time>
      </trkpt>
      <trkpt lat="45.60075" lon="4.60305">
        <ele>553.7</ele>
        <time>2019-04-28T06:25:09Z</time>
      </trkpt>
      <trkpt lat="45.60075" lon="4.60298">
        <ele>554.2</ele>
        <time>2019-04-28T06:25:12Z</time>
      </trkpt>
      <trkpt lat="45.60074" lon="4.60294">
        <ele>554.5</ele>
        <time>2019-04-28T06:25:14Z</time>
      </trkpt>
      <trkpt lat="45.60072" lon="4.60283">
        <ele>555.2</ele>
        <time>2019-04-28T06:25:19Z</time>
      </trkpt>
      <trkpt lat="45.60072" lon="4.60278">
        <ele>555.4</ele>
        <time>2019-04-28T06:25:21Z</time>
      </trkpt>
      <trkpt lat="45.60069" lon="4.6027">
        <ele>555.8</ele>
        <time>2019-04-28T06:25:25Z</time>
      </trkpt>
      <trkpt lat="45.60063" lon="4.60255">
        <ele>556.8</ele>
        <time>2019-04-28T06:25:32Z</time>
      </trkpt>
      <trkpt lat="45.60059" lon="4.60248">
        <ele>557.3</ele>
        <time>2019-04-28T06:25:35Z</time>
      </trkpt>
      <trkpt lat="45.60051" lon="4.6023">
        <ele>558.8</ele>
        <time>2019-04-28T06:25:44Z</time>
      </trkpt>
      <trkpt lat="45.60051" lon="4.60228">
        <ele>558.9</ele>
        <time>2019-04-28T06:25:45Z</time>
      </trkpt>
      <trkpt lat="45.60049" lon="4.60222">
        <ele>559.4</ele>
        <time>2019-04-28T06:25:48Z</time>
      </trkpt>
      <trkpt lat="45.60049" lon="4.60221">
        <ele>559.6</ele>
        <time>2019-04-28T06:25:49Z</time>
      </trkpt>
      <trkpt lat="45.60048" lon="4.60213">
        <ele>560.2</ele>
        <time>2019-04-28T06:25:53Z</time>
      </trkpt>
      <trkpt lat="45.60048" lon="4.60206">
        <ele>560.8</ele>
        <time>2019-04-28T06:25:56Z</time>
      </trkpt>
      <trkpt lat="45.60051" lon="4.60183">
        <ele>562.8</ele>
        <time>2019-04-28T06:26:05Z</time>
      </trkpt>
      <trkpt lat="45.60052" lon="4.60168">
        <ele>564.2</ele>
        <time>2019-04-28T06:26:11Z</time>
      </trkpt>
      <trkpt lat="45.60051" lon="4.60161">
        <ele>564.8</ele>
        <time>2019-04-28T06:26:13Z</time>
      </trkpt>
      <trkpt lat="45.60051" lon="4.60158">
        <ele>565.1</ele>
        <time>2019-04-28T06:26:14Z</time>
      </trkpt>
      <trkpt lat="45.60051" lon="4.60153">
        <ele>565.7</ele>
        <time>2019-04-28T06:26:16Z</time>
      </trkpt>
      <trkpt lat="45.6005" lon="4.60143">
        <ele>566.7</ele>
        <time>2019-04-28T06:26:20Z</time>
      </trkpt>
      <trkpt lat="45.60049" lon="4.60134">
        <ele>567.6</ele>
        <time>2019-04-28T06:26:24Z</time>
      </trkpt>
      <trkpt lat="45.60048" lon="4.60127">
        <ele>568.3</ele>
        <time>2019-04-28T06:26:27Z</time>
      </trkpt>
      <trkpt lat="45.60047" lon="4.60122">
        <ele>568.7</ele>
        <time>2019-04-28T06:26:29Z</time>
      </trkpt>
      <trkpt lat="45.60044" lon="4.60113">
        <ele>569.5</ele>
        <time>2019-04-28T06:26:33Z</time>
      </trkpt>
      <trkpt lat="45.60042" lon="4.60108">
        <ele>569.9</ele>
        <time>2019-04-28T06:26:35Z</time>
      </trkpt>
      <trkpt lat="45.6004" lon="4.60104">
        <ele>570.2</ele>
        <time>2019-04-28T06:26:37Z</time>
      </trkpt>
      <trkpt lat="45.60036" lon="4.60086">
        <ele>571.4</ele>
        <time>2019-04-28T06:26:44Z</time>
      </trkpt>
      <trkpt lat="45.60035" lon="4.6008">
        <ele>571.8</ele>
        <time>2019-04-28T06:26:46Z</time>
      </trkpt>
      <trkpt lat="45.60036" lon="4.60067">
        <ele>572.4</ele>
        <time>2019-04-28T06:26:51Z</time>
      </trkpt>
      <trkpt lat="45.60036" lon="4.60064">
        <ele>572.5</ele>
        <time>2019-04-28T06:26:52Z</time>
      </trkpt>
      <trkpt lat="45.60041" lon="4.60036">
        <ele>573.8</ele>
        <time>2019-04-28T06:27:01Z</time>
      </trkpt>
      <trkpt lat="45.60049" lon="4.60012">
        <ele>574.3</ele>
        <time>2019-04-28T06:27:08Z</time>
      </trkpt>
      <trkpt lat="45.60057" lon="4.59983">
        <ele>574.9</ele>
        <time>2019-04-28T06:27:16Z</time>
      </trkpt>
      <trkpt lat="45.60058" lon="4.59979">
        <ele>575</ele>
        <time>2019-04-28T06:27:17Z</time>
      </trkpt>
      <trkpt lat="45.60061" lon="4.59969">
        <ele>575.3</ele>
        <time>2019-04-28T06:27:20Z</time>
      </trkpt>
      <trkpt lat="45.60068" lon="4.59947">
        <ele>576</ele>
        <time>2019-04-28T06:27:27Z</time>
      </trkpt>
      <trkpt lat="45.60069" lon="4.59943">
        <ele>576.1</ele>
        <time>2019-04-28T06:27:28Z</time>
      </trkpt>
      <trkpt lat="45.60074" lon="4.59925">
        <ele>576.8</ele>
        <time>2019-04-28T06:27:34Z</time>
      </trkpt>
      <trkpt lat="45.60076" lon="4.59919">
        <ele>577.2</ele>
        <time>2019-04-28T06:27:36Z</time>
      </trkpt>
      <trkpt lat="45.60081" lon="4.599">
        <ele>578.8</ele>
        <time>2019-04-28T06:27:43Z</time>
      </trkpt>
      <trkpt lat="45.60084" lon="4.59889">
        <ele>580.3</ele>
        <time>2019-04-28T06:27:48Z</time>
      </trkpt>
      <trkpt lat="45.60085" lon="4.59884">
        <ele>580.9</ele>
        <time>2019-04-28T06:27:50Z</time>
      </trkpt>
      <trkpt lat="45.60085" lon="4.5988">
        <ele>581.4</ele>
        <time>2019-04-28T06:27:52Z</time>
      </trkpt>
      <trkpt lat="45.60084" lon="4.59868">
        <ele>582.2</ele>
        <time>2019-04-28T06:27:57Z</time>
      </trkpt>
      <trkpt lat="45.60082" lon="4.59857">
        <ele>583</ele>
        <time>2019-04-28T06:28:02Z</time>
      </trkpt>
      <trkpt lat="45.60082" lon="4.59855">
        <ele>583.2</ele>
        <time>2019-04-28T06:28:03Z</time>
      </trkpt>
      <trkpt lat="45.60081" lon="4.59849">
        <ele>583.6</ele>
        <time>2019-04-28T06:28:06Z</time>
      </trkpt>
      <trkpt lat="45.60079" lon="4.59841">
        <ele>584.1</ele>
        <time>2019-04-28T06:28:10Z</time>
      </trkpt>
      <trkpt lat="45.60079" lon="4.59839">
        <ele>584.3</ele>
        <time>2019-04-28T06:28:11Z</time>
      </trkpt>
      <trkpt lat="45.60077" lon="4.5983">
        <ele>585.2</ele>
        <time>2019-04-28T06:28:15Z</time>
      </trkpt>
      <trkpt lat="45.60074" lon="4.59823">
        <ele>585.6</ele>
        <time>2019-04-28T06:28:19Z</time>
      </trkpt>
      <trkpt lat="45.60064" lon="4.59816">
        <ele>586.3</ele>
        <time>2019-04-28T06:28:25Z</time>
      </trkpt>
      <trkpt lat="45.60058" lon="4.5981">
        <ele>586.6</ele>
        <time>2019-04-28T06:28:29Z</time>
      </trkpt>
      <trkpt lat="45.60053" lon="4.59804">
        <ele>586.9</ele>
        <time>2019-04-28T06:28:32Z</time>
      </trkpt>
      <trkpt lat="45.60048" lon="4.59798">
        <ele>587.2</ele>
        <time>2019-04-28T06:28:35Z</time>
      </trkpt>
      <trkpt lat="45.60044" lon="4.59787">
        <ele>587.6</ele>
        <time>2019-04-28T06:28:39Z</time>
      </trkpt>
      <trkpt lat="45.60033" lon="4.59771">
        <ele>588.7</ele>
        <time>2019-04-28T06:28:46Z</time>
      </trkpt>
      <trkpt lat="45.60017" lon="4.5975">
        <ele>589.8</ele>
        <time>2019-04-28T06:28:53Z</time>
      </trkpt>
      <trkpt lat="45.60013" lon="4.59744">
        <ele>589.9</ele>
        <time>2019-04-28T06:28:55Z</time>
      </trkpt>
      <trkpt lat="45.60004" lon="4.59728">
        <ele>590.1</ele>
        <time>2019-04-28T06:29:00Z</time>
      </trkpt>
      <trkpt lat="45.59994" lon="4.59707">
        <ele>590.4</ele>
        <time>2019-04-28T06:29:06Z</time>
      </trkpt>
      <trkpt lat="45.59992" lon="4.59703">
        <ele>590.5</ele>
        <time>2019-04-28T06:29:07Z</time>
      </trkpt>
      <trkpt lat="45.5998" lon="4.59676">
        <ele>592</ele>
        <time>2019-04-28T06:29:15Z</time>
      </trkpt>
      <trkpt lat="45.59973" lon="4.5966">
        <ele>593.3</ele>
        <time>2019-04-28T06:29:21Z</time>
      </trkpt>
      <trkpt lat="45.59972" lon="4.59657">
        <ele>593.6</ele>
        <time>2019-04-28T06:29:22Z</time>
      </trkpt>
      <trkpt lat="45.5996" lon="4.5964">
        <ele>595.3</ele>
        <time>2019-04-28T06:29:29Z</time>
      </trkpt>
      <trkpt lat="45.59942" lon="4.59622">
        <ele>595.9</ele>
        <time>2019-04-28T06:29:35Z</time>
      </trkpt>
      <trkpt lat="45.59939" lon="4.59618">
        <ele>595.8</ele>
        <time>2019-04-28T06:29:36Z</time>
      </trkpt>
      <trkpt lat="45.59924" lon="4.59598">
        <ele>595.1</ele>
        <time>2019-04-28T06:29:40Z</time>
      </trkpt>
      <trkpt lat="45.599" lon="4.59575">
        <ele>593.8</ele>
        <time>2019-04-28T06:29:44Z</time>
      </trkpt>
      <trkpt lat="45.5989" lon="4.59566">
        <ele>593.4</ele>
        <time>2019-04-28T06:29:46Z</time>
      </trkpt>
      <trkpt lat="45.59882" lon="4.59561">
        <ele>593.3</ele>
        <time>2019-04-28T06:29:48Z</time>
      </trkpt>
      <trkpt lat="45.59871" lon="4.59554">
        <ele>593.9</ele>
        <time>2019-04-28T06:29:53Z</time>
      </trkpt>
      <trkpt lat="45.59867" lon="4.59551">
        <ele>594.3</ele>
        <time>2019-04-28T06:29:55Z</time>
      </trkpt>
      <trkpt lat="45.59862" lon="4.59548">
        <ele>594.8</ele>
        <time>2019-04-28T06:29:58Z</time>
      </trkpt>
      <trkpt lat="45.59858" lon="4.59545">
        <ele>595.4</ele>
        <time>2019-04-28T06:30:01Z</time>
      </trkpt>
      <trkpt lat="45.59852" lon="4.59542">
        <ele>596.1</ele>
        <time>2019-04-28T06:30:05Z</time>
      </trkpt>
      <trkpt lat="45.59847" lon="4.59538">
        <ele>596.8</ele>
        <time>2019-04-28T06:30:09Z</time>
      </trkpt>
      <trkpt lat="45.59845" lon="4.59538">
        <ele>597</ele>
        <time>2019-04-28T06:30:10Z</time>
      </trkpt>
      <trkpt lat="45.5984" lon="4.59538">
        <ele>597.6</ele>
        <time>2019-04-28T06:30:13Z</time>
      </trkpt>
      <trkpt lat="45.59837" lon="4.59539">
        <ele>598</ele>
        <time>2019-04-28T06:30:16Z</time>
      </trkpt>
      <trkpt lat="45.59836" lon="4.5954">
        <ele>598.1</ele>
        <time>2019-04-28T06:30:17Z</time>
      </trkpt>
      <trkpt lat="45.59833" lon="4.59548">
        <ele>598.7</ele>
        <time>2019-04-28T06:30:21Z</time>
      </trkpt>
      <trkpt lat="45.59831" lon="4.59553">
        <ele>599.1</ele>
        <time>2019-04-28T06:30:23Z</time>
      </trkpt>
      <trkpt lat="45.59829" lon="4.59558">
        <ele>599.5</ele>
        <time>2019-04-28T06:30:25Z</time>
      </trkpt>
      <trkpt lat="45.59824" lon="4.59567">
        <ele>600.2</ele>
        <time>2019-04-28T06:30:29Z</time>
      </trkpt>
      <trkpt lat="45.59817" lon="4.59577">
        <ele>601</ele>
        <time>2019-04-28T06:30:34Z</time>
      </trkpt>
      <trkpt lat="45.59811" lon="4.59585">
        <ele>601.8</ele>
        <time>2019-04-28T06:30:39Z</time>
      </trkpt>
      <trkpt lat="45.59807" lon="4.59589">
        <ele>602.2</ele>
        <time>2019-04-28T06:30:42Z</time>
      </trkpt>
      <trkpt lat="45.59803" lon="4.59593">
        <ele>602.7</ele>
        <time>2019-04-28T06:30:45Z</time>
      </trkpt>
      <trkpt lat="45.59797" lon="4.59597">
        <ele>603.3</ele>
        <time>2019-04-28T06:30:49Z</time>
      </trkpt>
      <trkpt lat="45.59791" lon="4.59601">
        <ele>603.8</ele>
        <time>2019-04-28T06:30:52Z</time>
      </trkpt>
      <trkpt lat="45.59786" lon="4.59606">
        <ele>604.2</ele>
        <time>2019-04-28T06:30:55Z</time>
      </trkpt>
      <trkpt lat="45.59776" lon="4.59612">
        <ele>604.8</ele>
        <time>2019-04-28T06:31:00Z</time>
      </trkpt>
      <trkpt lat="45.59759" lon="4.59628">
        <ele>605.8</ele>
        <time>2019-04-28T06:31:09Z</time>
      </trkpt>
      <trkpt lat="45.59747" lon="4.59641">
        <ele>606.6</ele>
        <time>2019-04-28T06:31:16Z</time>
      </trkpt>
      <trkpt lat="45.59736" lon="4.59647">
        <ele>607.4</ele>
        <time>2019-04-28T06:31:22Z</time>
      </trkpt>
      <trkpt lat="45.59734" lon="4.59646">
        <ele>607.6</ele>
        <time>2019-04-28T06:31:23Z</time>
      </trkpt>
      <trkpt lat="45.59724" lon="4.59641">
        <ele>608.4</ele>
        <time>2019-04-28T06:31:28Z</time>
      </trkpt>
      <trkpt lat="45.59716" lon="4.59639">
        <ele>609.1</ele>
        <time>2019-04-28T06:31:32Z</time>
      </trkpt>
      <trkpt lat="45.59714" lon="4.59638">
        <ele>609.3</ele>
        <time>2019-04-28T06:31:33Z</time>
      </trkpt>
      <trkpt lat="45.59705" lon="4.59633">
        <ele>610.1</ele>
        <time>2019-04-28T06:31:38Z</time>
      </trkpt>
      <trkpt lat="45.59703" lon="4.59632">
        <ele>610.3</ele>
        <time>2019-04-28T06:31:39Z</time>
      </trkpt>
      <trkpt lat="45.59692" lon="4.59627">
        <ele>611.1</ele>
        <time>2019-04-28T06:31:44Z</time>
      </trkpt>
      <trkpt lat="45.5969" lon="4.59625">
        <ele>611.2</ele>
        <time>2019-04-28T06:31:45Z</time>
      </trkpt>
      <trkpt lat="45.59679" lon="4.59616">
        <ele>611.9</ele>
        <time>2019-04-28T06:31:51Z</time>
      </trkpt>
      <trkpt lat="45.59673" lon="4.5961">
        <ele>612.2</ele>
        <time>2019-04-28T06:31:54Z</time>
      </trkpt>
      <trkpt lat="45.5966" lon="4.59598">
        <ele>612.8</ele>
        <time>2019-04-28T06:32:01Z</time>
      </trkpt>
      <trkpt lat="45.59654" lon="4.59592">
        <ele>613.1</ele>
        <time>2019-04-28T06:32:04Z</time>
      </trkpt>
      <trkpt lat="45.5965" lon="4.59583">
        <ele>613.4</ele>
        <time>2019-04-28T06:32:07Z</time>
      </trkpt>
      <trkpt lat="45.5965" lon="4.59577">
        <ele>613.6</ele>
        <time>2019-04-28T06:32:09Z</time>
      </trkpt>
      <trkpt lat="45.5965" lon="4.59569">
        <ele>614.7</ele>
        <time>2019-04-28T06:32:12Z</time>
      </trkpt>
      <trkpt lat="45.59652" lon="4.59564">
        <ele>615.1</ele>
        <time>2019-04-28T06:32:14Z</time>
      </trkpt>
      <trkpt lat="45.59656" lon="4.59549">
        <ele>616.4</ele>
        <time>2019-04-28T06:32:20Z</time>
      </trkpt>
      <trkpt lat="45.59656" lon="4.59547">
        <ele>616.5</ele>
        <time>2019-04-28T06:32:21Z</time>
      </trkpt>
      <trkpt lat="45.59658" lon="4.59539">
        <ele>617.2</ele>
        <time>2019-04-28T06:32:24Z</time>
      </trkpt>
      <trkpt lat="45.5966" lon="4.59528">
        <ele>618.2</ele>
        <time>2019-04-28T06:32:29Z</time>
      </trkpt>
      <trkpt lat="45.59661" lon="4.59526">
        <ele>618.4</ele>
        <time>2019-04-28T06:32:30Z</time>
      </trkpt>
      <trkpt lat="45.59664" lon="4.59515">
        <ele>619.8</ele>
        <time>2019-04-28T06:32:35Z</time>
      </trkpt>
      <trkpt lat="45.59667" lon="4.59504">
        <ele>621</ele>
        <time>2019-04-28T06:32:40Z</time>
      </trkpt>
      <trkpt lat="45.59669" lon="4.59497">
        <ele>622</ele>
        <time>2019-04-28T06:32:44Z</time>
      </trkpt>
      <trkpt lat="45.5967" lon="4.59494">
        <ele>622.2</ele>
        <time>2019-04-28T06:32:45Z</time>
      </trkpt>
      <trkpt lat="45.59671" lon="4.59485">
        <ele>623.3</ele>
        <time>2019-04-28T06:32:49Z</time>
      </trkpt>
      <trkpt lat="45.59672" lon="4.59479">
        <ele>624</ele>
        <time>2019-04-28T06:32:52Z</time>
      </trkpt>
      <trkpt lat="45.59673" lon="4.59475">
        <ele>624.5</ele>
        <time>2019-04-28T06:32:54Z</time>
      </trkpt>
      <trkpt lat="45.59674" lon="4.59467">
        <ele>625.5</ele>
        <time>2019-04-28T06:32:58Z</time>
      </trkpt>
      <trkpt lat="45.59675" lon="4.5946">
        <ele>626.2</ele>
        <time>2019-04-28T06:33:01Z</time>
      </trkpt>
      <trkpt lat="45.59675" lon="4.59458">
        <ele>626.5</ele>
        <time>2019-04-28T06:33:02Z</time>
      </trkpt>
      <trkpt lat="45.59676" lon="4.5945">
        <ele>627.8</ele>
        <time>2019-04-28T06:33:06Z</time>
      </trkpt>
      <trkpt lat="45.59677" lon="4.59443">
        <ele>628.7</ele>
        <time>2019-04-28T06:33:09Z</time>
      </trkpt>
      <trkpt lat="45.59677" lon="4.59442">
        <ele>629</ele>
        <time>2019-04-28T06:33:10Z</time>
      </trkpt>
      <trkpt lat="45.59678" lon="4.59434">
        <ele>630.3</ele>
        <time>2019-04-28T06:33:14Z</time>
      </trkpt>
      <trkpt lat="45.59679" lon="4.59427">
        <ele>631.5</ele>
        <time>2019-04-28T06:33:18Z</time>
      </trkpt>
      <trkpt lat="45.5968" lon="4.59419">
        <ele>632.8</ele>
        <time>2019-04-28T06:33:22Z</time>
      </trkpt>
      <trkpt lat="45.59681" lon="4.59412">
        <ele>633.9</ele>
        <time>2019-04-28T06:33:26Z</time>
      </trkpt>
      <trkpt lat="45.59681" lon="4.5941">
        <ele>634.2</ele>
        <time>2019-04-28T06:33:27Z</time>
      </trkpt>
      <trkpt lat="45.59681" lon="4.59405">
        <ele>635.2</ele>
        <time>2019-04-28T06:33:30Z</time>
      </trkpt>
      <trkpt lat="45.59681" lon="4.594">
        <ele>637</ele>
        <time>2019-04-28T06:33:33Z</time>
      </trkpt>
      <trkpt lat="45.59682" lon="4.59398">
        <ele>637</ele>
        <time>2019-04-28T06:33:34Z</time>
      </trkpt>
      <trkpt lat="45.59683" lon="4.59393">
        <ele>637.2</ele>
        <time>2019-04-28T06:33:38Z</time>
      </trkpt>
      <trkpt lat="45.59684" lon="4.59393">
        <ele>637.2</ele>
        <time>2019-04-28T06:33:39Z</time>
      </trkpt>
      <trkpt lat="45.5969" lon="4.59395">
        <ele>637.5</ele>
        <time>2019-04-28T06:33:44Z</time>
      </trkpt>
      <trkpt lat="45.59692" lon="4.59395">
        <ele>637.7</ele>
        <time>2019-04-28T06:33:46Z</time>
      </trkpt>
      <trkpt lat="45.59695" lon="4.59394">
        <ele>637.8</ele>
        <time>2019-04-28T06:33:48Z</time>
      </trkpt>
      <trkpt lat="45.59701" lon="4.59391">
        <ele>638.5</ele>
        <time>2019-04-28T06:33:52Z</time>
      </trkpt>
      <trkpt lat="45.59713" lon="4.59382">
        <ele>640.1</ele>
        <time>2019-04-28T06:34:00Z</time>
      </trkpt>
      <trkpt lat="45.59714" lon="4.59381">
        <ele>640.3</ele>
        <time>2019-04-28T06:34:01Z</time>
      </trkpt>
      <trkpt lat="45.59722" lon="4.59371">
        <ele>641.7</ele>
        <time>2019-04-28T06:34:07Z</time>
      </trkpt>
      <trkpt lat="45.59726" lon="4.59364">
        <ele>642.4</ele>
        <time>2019-04-28T06:34:11Z</time>
      </trkpt>
      <trkpt lat="45.59728" lon="4.5936">
        <ele>642.9</ele>
        <time>2019-04-28T06:34:13Z</time>
      </trkpt>
      <trkpt lat="45.59732" lon="4.59349">
        <ele>643.7</ele>
        <time>2019-04-28T06:34:18Z</time>
      </trkpt>
      <trkpt lat="45.59734" lon="4.5934">
        <ele>644.2</ele>
        <time>2019-04-28T06:34:21Z</time>
      </trkpt>
      <trkpt lat="45.59738" lon="4.59323">
        <ele>645.5</ele>
        <time>2019-04-28T06:34:28Z</time>
      </trkpt>
      <trkpt lat="45.59738" lon="4.5932">
        <ele>645.6</ele>
        <time>2019-04-28T06:34:29Z</time>
      </trkpt>
      <trkpt lat="45.5974" lon="4.593">
        <ele>646.9</ele>
        <time>2019-04-28T06:34:36Z</time>
      </trkpt>
      <trkpt lat="45.59741" lon="4.59292">
        <ele>647.5</ele>
        <time>2019-04-28T06:34:39Z</time>
      </trkpt>
      <trkpt lat="45.59743" lon="4.59272">
        <ele>649.2</ele>
        <time>2019-04-28T06:34:46Z</time>
      </trkpt>
      <trkpt lat="45.59744" lon="4.59265">
        <ele>650</ele>
        <time>2019-04-28T06:34:49Z</time>
      </trkpt>
      <trkpt lat="45.59744" lon="4.59259">
        <ele>650.5</ele>
        <time>2019-04-28T06:34:51Z</time>
      </trkpt>
      <trkpt lat="45.59746" lon="4.59246">
        <ele>651.9</ele>
        <time>2019-04-28T06:34:56Z</time>
      </trkpt>
      <trkpt lat="45.59747" lon="4.59241">
        <ele>652.5</ele>
        <time>2019-04-28T06:34:58Z</time>
      </trkpt>
      <trkpt lat="45.59748" lon="4.59225">
        <ele>654.1</ele>
        <time>2019-04-28T06:35:04Z</time>
      </trkpt>
      <trkpt lat="45.59748" lon="4.59222">
        <ele>654.4</ele>
        <time>2019-04-28T06:35:05Z</time>
      </trkpt>
      <trkpt lat="45.5975" lon="4.59208">
        <ele>655.6</ele>
        <time>2019-04-28T06:35:10Z</time>
      </trkpt>
      <trkpt lat="45.5975" lon="4.59197">
        <ele>656.6</ele>
        <time>2019-04-28T06:35:14Z</time>
      </trkpt>
      <trkpt lat="45.5975" lon="4.59193">
        <ele>657</ele>
        <time>2019-04-28T06:35:16Z</time>
      </trkpt>
      <trkpt lat="45.59751" lon="4.59179">
        <ele>658.2</ele>
        <time>2019-04-28T06:35:21Z</time>
      </trkpt>
      <trkpt lat="45.59753" lon="4.59165">
        <ele>659.6</ele>
        <time>2019-04-28T06:35:26Z</time>
      </trkpt>
      <trkpt lat="45.59756" lon="4.59149">
        <ele>661.4</ele>
        <time>2019-04-28T06:35:32Z</time>
      </trkpt>
      <trkpt lat="45.59759" lon="4.59141">
        <ele>662.2</ele>
        <time>2019-04-28T06:35:35Z</time>
      </trkpt>
      <trkpt lat="45.59762" lon="4.59131">
        <ele>663</ele>
        <time>2019-04-28T06:35:39Z</time>
      </trkpt>
      <trkpt lat="45.59767" lon="4.59121">
        <ele>664</ele>
        <time>2019-04-28T06:35:44Z</time>
      </trkpt>
      <trkpt lat="45.59768" lon="4.59119">
        <ele>664.1</ele>
        <time>2019-04-28T06:35:45Z</time>
      </trkpt>
      <trkpt lat="45.59772" lon="4.59112">
        <ele>664.6</ele>
        <time>2019-04-28T06:35:48Z</time>
      </trkpt>
      <trkpt lat="45.59779" lon="4.59106">
        <ele>665.6</ele>
        <time>2019-04-28T06:35:52Z</time>
      </trkpt>
      <trkpt lat="45.5978" lon="4.59105">
        <ele>665.8</ele>
        <time>2019-04-28T06:35:53Z</time>
      </trkpt>
      <trkpt lat="45.59791" lon="4.59095">
        <ele>667.6</ele>
        <time>2019-04-28T06:36:00Z</time>
      </trkpt>
      <trkpt lat="45.598" lon="4.59087">
        <ele>669.2</ele>
        <time>2019-04-28T06:36:06Z</time>
      </trkpt>
      <trkpt lat="45.59807" lon="4.59081">
        <ele>670.2</ele>
        <time>2019-04-28T06:36:10Z</time>
      </trkpt>
      <trkpt lat="45.59809" lon="4.5908">
        <ele>670.4</ele>
        <time>2019-04-28T06:36:11Z</time>
      </trkpt>
      <trkpt lat="45.59821" lon="4.59072">
        <ele>671.5</ele>
        <time>2019-04-28T06:36:18Z</time>
      </trkpt>
      <trkpt lat="45.59823" lon="4.59071">
        <ele>671.7</ele>
        <time>2019-04-28T06:36:19Z</time>
      </trkpt>
      <trkpt lat="45.59832" lon="4.5907">
        <ele>672.5</ele>
        <time>2019-04-28T06:36:24Z</time>
      </trkpt>
      <trkpt lat="45.5984" lon="4.59071">
        <ele>673.2</ele>
        <time>2019-04-28T06:36:28Z</time>
      </trkpt>
      <trkpt lat="45.59842" lon="4.59072">
        <ele>673.4</ele>
        <time>2019-04-28T06:36:29Z</time>
      </trkpt>
      <trkpt lat="45.59849" lon="4.59076">
        <ele>674.3</ele>
        <time>2019-04-28T06:36:33Z</time>
      </trkpt>
      <trkpt lat="45.59854" lon="4.5908">
        <ele>674.9</ele>
        <time>2019-04-28T06:36:36Z</time>
      </trkpt>
      <trkpt lat="45.59857" lon="4.59083">
        <ele>675.3</ele>
        <time>2019-04-28T06:36:38Z</time>
      </trkpt>
      <trkpt lat="45.59864" lon="4.59089">
        <ele>676.1</ele>
        <time>2019-04-28T06:36:42Z</time>
      </trkpt>
      <trkpt lat="45.59866" lon="4.59091">
        <ele>676.3</ele>
        <time>2019-04-28T06:36:43Z</time>
      </trkpt>
      <trkpt lat="45.59874" lon="4.59101">
        <ele>677.5</ele>
        <time>2019-04-28T06:36:48Z</time>
      </trkpt>
      <trkpt lat="45.59881" lon="4.5911">
        <ele>678.6</ele>
        <time>2019-04-28T06:36:53Z</time>
      </trkpt>
      <trkpt lat="45.59887" lon="4.59116">
        <ele>679.2</ele>
        <time>2019-04-28T06:36:56Z</time>
      </trkpt>
      <trkpt lat="45.59895" lon="4.59125">
        <ele>680.1</ele>
        <time>2019-04-28T06:37:01Z</time>
      </trkpt>
      <trkpt lat="45.59909" lon="4.59136">
        <ele>681.4</ele>
        <time>2019-04-28T06:37:09Z</time>
      </trkpt>
      <trkpt lat="45.59911" lon="4.59137">
        <ele>681.6</ele>
        <time>2019-04-28T06:37:10Z</time>
      </trkpt>
      <trkpt lat="45.59916" lon="4.59141">
        <ele>682.2</ele>
        <time>2019-04-28T06:37:13Z</time>
      </trkpt>
      <trkpt lat="45.59928" lon="4.59146">
        <ele>683.6</ele>
        <time>2019-04-28T06:37:19Z</time>
      </trkpt>
      <trkpt lat="45.59943" lon="4.59143">
        <ele>685.5</ele>
        <time>2019-04-28T06:37:27Z</time>
      </trkpt>
      <trkpt lat="45.59944" lon="4.59141">
        <ele>685.7</ele>
        <time>2019-04-28T06:37:28Z</time>
      </trkpt>
      <trkpt lat="45.59953" lon="4.59133">
        <ele>687.1</ele>
        <time>2019-04-28T06:37:34Z</time>
      </trkpt>
      <trkpt lat="45.59957" lon="4.5913">
        <ele>687.8</ele>
        <time>2019-04-28T06:37:37Z</time>
      </trkpt>
      <trkpt lat="45.59962" lon="4.59125">
        <ele>688.6</ele>
        <time>2019-04-28T06:37:40Z</time>
      </trkpt>
      <trkpt lat="45.59966" lon="4.59122">
        <ele>689.2</ele>
        <time>2019-04-28T06:37:42Z</time>
      </trkpt>
      <trkpt lat="45.59967" lon="4.59121">
        <ele>689.5</ele>
        <time>2019-04-28T06:37:43Z</time>
      </trkpt>
      <trkpt lat="45.59978" lon="4.59112">
        <ele>691.3</ele>
        <time>2019-04-28T06:37:49Z</time>
      </trkpt>
      <trkpt lat="45.59981" lon="4.59109">
        <ele>691.9</ele>
        <time>2019-04-28T06:37:51Z</time>
      </trkpt>
      <trkpt lat="45.59984" lon="4.59106">
        <ele>692.5</ele>
        <time>2019-04-28T06:37:53Z</time>
      </trkpt>
      <trkpt lat="45.59993" lon="4.59098">
        <ele>694.1</ele>
        <time>2019-04-28T06:37:58Z</time>
      </trkpt>
      <trkpt lat="45.59994" lon="4.59097">
        <ele>694.3</ele>
        <time>2019-04-28T06:37:59Z</time>
      </trkpt>
      <trkpt lat="45.6" lon="4.59091">
        <ele>695.2</ele>
        <time>2019-04-28T06:38:03Z</time>
      </trkpt>
      <trkpt lat="45.60007" lon="4.59085">
        <ele>696.2</ele>
        <time>2019-04-28T06:38:07Z</time>
      </trkpt>
      <trkpt lat="45.60009" lon="4.59083">
        <ele>696.5</ele>
        <time>2019-04-28T06:38:08Z</time>
      </trkpt>
      <trkpt lat="45.60017" lon="4.59075">
        <ele>697.6</ele>
        <time>2019-04-28T06:38:13Z</time>
      </trkpt>
      <trkpt lat="45.60024" lon="4.59069">
        <ele>698.5</ele>
        <time>2019-04-28T06:38:17Z</time>
      </trkpt>
      <trkpt lat="45.60027" lon="4.59066">
        <ele>698.9</ele>
        <time>2019-04-28T06:38:19Z</time>
      </trkpt>
      <trkpt lat="45.60034" lon="4.5906">
        <ele>699.8</ele>
        <time>2019-04-28T06:38:23Z</time>
      </trkpt>
      <trkpt lat="45.6004" lon="4.59054">
        <ele>700.5</ele>
        <time>2019-04-28T06:38:27Z</time>
      </trkpt>
      <trkpt lat="45.60042" lon="4.59052">
        <ele>700.7</ele>
        <time>2019-04-28T06:38:28Z</time>
      </trkpt>
      <trkpt lat="45.60049" lon="4.59046">
        <ele>701.4</ele>
        <time>2019-04-28T06:38:32Z</time>
      </trkpt>
      <trkpt lat="45.6006" lon="4.59038">
        <ele>702.5</ele>
        <time>2019-04-28T06:38:38Z</time>
      </trkpt>
      <trkpt lat="45.60072" lon="4.59027">
        <ele>703.8</ele>
        <time>2019-04-28T06:38:45Z</time>
      </trkpt>
      <trkpt lat="45.60074" lon="4.59026">
        <ele>704</ele>
        <time>2019-04-28T06:38:46Z</time>
      </trkpt>
      <trkpt lat="45.60084" lon="4.59017">
        <ele>705</ele>
        <time>2019-04-28T06:38:52Z</time>
      </trkpt>
      <trkpt lat="45.60095" lon="4.59005">
        <ele>706.3</ele>
        <time>2019-04-28T06:38:59Z</time>
      </trkpt>
      <trkpt lat="45.60099" lon="4.59002">
        <ele>706.7</ele>
        <time>2019-04-28T06:39:01Z</time>
      </trkpt>
      <trkpt lat="45.60103" lon="4.58994">
        <ele>707.2</ele>
        <time>2019-04-28T06:39:04Z</time>
      </trkpt>
      <trkpt lat="45.60109" lon="4.58986">
        <ele>707.9</ele>
        <time>2019-04-28T06:39:08Z</time>
      </trkpt>
      <trkpt lat="45.6011" lon="4.58984">
        <ele>708.1</ele>
        <time>2019-04-28T06:39:09Z</time>
      </trkpt>
      <trkpt lat="45.60117" lon="4.58974">
        <ele>708.9</ele>
        <time>2019-04-28T06:39:14Z</time>
      </trkpt>
      <trkpt lat="45.60119" lon="4.58971">
        <ele>709.1</ele>
        <time>2019-04-28T06:39:15Z</time>
      </trkpt>
      <trkpt lat="45.60123" lon="4.58959">
        <ele>709.8</ele>
        <time>2019-04-28T06:39:20Z</time>
      </trkpt>
      <trkpt lat="45.60125" lon="4.58957">
        <ele>709.9</ele>
        <time>2019-04-28T06:39:21Z</time>
      </trkpt>
      <trkpt lat="45.60132" lon="4.58943">
        <ele>710.7</ele>
        <time>2019-04-28T06:39:27Z</time>
      </trkpt>
      <trkpt lat="45.60133" lon="4.58937">
        <ele>711</ele>
        <time>2019-04-28T06:39:29Z</time>
      </trkpt>
      <trkpt lat="45.60135" lon="4.58932">
        <ele>711.4</ele>
        <time>2019-04-28T06:39:31Z</time>
      </trkpt>
      <trkpt lat="45.60135" lon="4.58922">
        <ele>711.4</ele>
        <time>2019-04-28T06:39:35Z</time>
      </trkpt>
      <trkpt lat="45.60134" lon="4.58918">
        <ele>711.4</ele>
        <time>2019-04-28T06:39:37Z</time>
      </trkpt>
      <trkpt lat="45.6014" lon="4.58906">
        <ele>711.9</ele>
        <time>2019-04-28T06:39:43Z</time>
      </trkpt>
      <trkpt lat="45.60141" lon="4.58905">
        <ele>711.9</ele>
        <time>2019-04-28T06:39:44Z</time>
      </trkpt>
      <trkpt lat="45.60147" lon="4.58904">
        <ele>712.5</ele>
        <time>2019-04-28T06:39:51Z</time>
      </trkpt>
      <trkpt lat="45.60151" lon="4.58903">
        <ele>712.8</ele>
        <time>2019-04-28T06:39:54Z</time>
      </trkpt>
      <trkpt lat="45.60153" lon="4.58903">
        <ele>712.9</ele>
        <time>2019-04-28T06:39:55Z</time>
      </trkpt>
      <trkpt lat="45.6016" lon="4.58904">
        <ele>713.5</ele>
        <time>2019-04-28T06:40:01Z</time>
      </trkpt>
      <trkpt lat="45.60174" lon="4.58907">
        <ele>715.1</ele>
        <time>2019-04-28T06:40:09Z</time>
      </trkpt>
      <trkpt lat="45.60188" lon="4.58908">
        <ele>716.2</ele>
        <time>2019-04-28T06:40:17Z</time>
      </trkpt>
      <trkpt lat="45.60194" lon="4.58908">
        <ele>716.6</ele>
        <time>2019-04-28T06:40:21Z</time>
      </trkpt>
      <trkpt lat="45.602" lon="4.5891">
        <ele>716.9</ele>
        <time>2019-04-28T06:40:25Z</time>
      </trkpt>
      <trkpt lat="45.60203" lon="4.58911">
        <ele>717</ele>
        <time>2019-04-28T06:40:27Z</time>
      </trkpt>
      <trkpt lat="45.60205" lon="4.58911">
        <ele>717.1</ele>
        <time>2019-04-28T06:40:29Z</time>
      </trkpt>
      <trkpt lat="45.60209" lon="4.58912">
        <ele>717.2</ele>
        <time>2019-04-28T06:40:31Z</time>
      </trkpt>
      <trkpt lat="45.6021" lon="4.58913">
        <ele>717.3</ele>
        <time>2019-04-28T06:40:32Z</time>
      </trkpt>
      <trkpt lat="45.60216" lon="4.58916">
        <ele>717.5</ele>
        <time>2019-04-28T06:40:35Z</time>
      </trkpt>
      <trkpt lat="45.60228" lon="4.58923">
        <ele>719.3</ele>
        <time>2019-04-28T06:40:42Z</time>
      </trkpt>
      <trkpt lat="45.60237" lon="4.58925">
        <ele>720.5</ele>
        <time>2019-04-28T06:40:48Z</time>
      </trkpt>
      <trkpt lat="45.60241" lon="4.58927">
        <ele>721</ele>
        <time>2019-04-28T06:40:50Z</time>
      </trkpt>
      <trkpt lat="45.60242" lon="4.58927">
        <ele>721.2</ele>
        <time>2019-04-28T06:40:51Z</time>
      </trkpt>
      <trkpt lat="45.60248" lon="4.5893">
        <ele>722.3</ele>
        <time>2019-04-28T06:40:54Z</time>
      </trkpt>
      <trkpt lat="45.60253" lon="4.58932">
        <ele>723.2</ele>
        <time>2019-04-28T06:40:57Z</time>
      </trkpt>
      <trkpt lat="45.60259" lon="4.58934">
        <ele>724.4</ele>
        <time>2019-04-28T06:41:01Z</time>
      </trkpt>
      <trkpt lat="45.60265" lon="4.58936">
        <ele>725.6</ele>
        <time>2019-04-28T06:41:05Z</time>
      </trkpt>
      <trkpt lat="45.60266" lon="4.58937">
        <ele>725.9</ele>
        <time>2019-04-28T06:41:06Z</time>
      </trkpt>
      <trkpt lat="45.60273" lon="4.58939">
        <ele>727.3</ele>
        <time>2019-04-28T06:41:11Z</time>
      </trkpt>
      <trkpt lat="45.60274" lon="4.5894">
        <ele>727.5</ele>
        <time>2019-04-28T06:41:12Z</time>
      </trkpt>
      <trkpt lat="45.60279" lon="4.58944">
        <ele>728.2</ele>
        <time>2019-04-28T06:41:17Z</time>
      </trkpt>
      <trkpt lat="45.60283" lon="4.58945">
        <ele>728.6</ele>
        <time>2019-04-28T06:41:20Z</time>
      </trkpt>
      <trkpt lat="45.6029" lon="4.58948">
        <ele>729.6</ele>
        <time>2019-04-28T06:41:25Z</time>
      </trkpt>
      <trkpt lat="45.60295" lon="4.5895">
        <ele>730.3</ele>
        <time>2019-04-28T06:41:28Z</time>
      </trkpt>
      <trkpt lat="45.60301" lon="4.58952">
        <ele>731.2</ele>
        <time>2019-04-28T06:41:33Z</time>
      </trkpt>
      <trkpt lat="45.60304" lon="4.58953">
        <ele>731.5</ele>
        <time>2019-04-28T06:41:35Z</time>
      </trkpt>
      <trkpt lat="45.60309" lon="4.58953">
        <ele>732.4</ele>
        <time>2019-04-28T06:41:39Z</time>
      </trkpt>
      <trkpt lat="45.60311" lon="4.58953">
        <ele>732.8</ele>
        <time>2019-04-28T06:41:41Z</time>
      </trkpt>
      <trkpt lat="45.60313" lon="4.58954">
        <ele>733.1</ele>
        <time>2019-04-28T06:41:42Z</time>
      </trkpt>
      <trkpt lat="45.6032" lon="4.58957">
        <ele>734.1</ele>
        <time>2019-04-28T06:41:48Z</time>
      </trkpt>
      <trkpt lat="45.60327" lon="4.58958">
        <ele>735.2</ele>
        <time>2019-04-28T06:41:53Z</time>
      </trkpt>
      <trkpt lat="45.60332" lon="4.58959">
        <ele>736.1</ele>
        <time>2019-04-28T06:41:56Z</time>
      </trkpt>
      <trkpt lat="45.60336" lon="4.58961">
        <ele>736.8</ele>
        <time>2019-04-28T06:41:59Z</time>
      </trkpt>
      <trkpt lat="45.60337" lon="4.58962">
        <ele>737</ele>
        <time>2019-04-28T06:42:00Z</time>
      </trkpt>
      <trkpt lat="45.6034" lon="4.58961">
        <ele>737.5</ele>
        <time>2019-04-28T06:42:02Z</time>
      </trkpt>
      <trkpt lat="45.60342" lon="4.58961">
        <ele>737.7</ele>
        <time>2019-04-28T06:42:03Z</time>
      </trkpt>
      <trkpt lat="45.60346" lon="4.58959">
        <ele>738.2</ele>
        <time>2019-04-28T06:42:06Z</time>
      </trkpt>
      <trkpt lat="45.60349" lon="4.5896">
        <ele>738.6</ele>
        <time>2019-04-28T06:42:09Z</time>
      </trkpt>
      <trkpt lat="45.60357" lon="4.58961">
        <ele>739.4</ele>
        <time>2019-04-28T06:42:15Z</time>
      </trkpt>
      <trkpt lat="45.6036" lon="4.58961">
        <ele>739.7</ele>
        <time>2019-04-28T06:42:17Z</time>
      </trkpt>
      <trkpt lat="45.60365" lon="4.58961">
        <ele>740.1</ele>
        <time>2019-04-28T06:42:21Z</time>
      </trkpt>
      <trkpt lat="45.6037" lon="4.58961">
        <ele>740.6</ele>
        <time>2019-04-28T06:42:24Z</time>
      </trkpt>
      <trkpt lat="45.60372" lon="4.5896">
        <ele>740.8</ele>
        <time>2019-04-28T06:42:26Z</time>
      </trkpt>
      <trkpt lat="45.60378" lon="4.5896">
        <ele>741.4</ele>
        <time>2019-04-28T06:42:30Z</time>
      </trkpt>
      <trkpt lat="45.60382" lon="4.5896">
        <ele>741.8</ele>
        <time>2019-04-28T06:42:33Z</time>
      </trkpt>
      <trkpt lat="45.60388" lon="4.58959">
        <ele>742.4</ele>
        <time>2019-04-28T06:42:37Z</time>
      </trkpt>
      <trkpt lat="45.60401" lon="4.58955">
        <ele>744.7</ele>
        <time>2019-04-28T06:42:45Z</time>
      </trkpt>
      <trkpt lat="45.60408" lon="4.5895">
        <ele>746.1</ele>
        <time>2019-04-28T06:42:50Z</time>
      </trkpt>
      <trkpt lat="45.60414" lon="4.58945">
        <ele>747.3</ele>
        <time>2019-04-28T06:42:55Z</time>
      </trkpt>
      <trkpt lat="45.60417" lon="4.58944">
        <ele>747.7</ele>
        <time>2019-04-28T06:42:57Z</time>
      </trkpt>
      <trkpt lat="45.60425" lon="4.58945">
        <ele>748.5</ele>
        <time>2019-04-28T06:43:03Z</time>
      </trkpt>
      <trkpt lat="45.60427" lon="4.58946">
        <ele>748.6</ele>
        <time>2019-04-28T06:43:04Z</time>
      </trkpt>
      <trkpt lat="45.60431" lon="4.58945">
        <ele>749.1</ele>
        <time>2019-04-28T06:43:07Z</time>
      </trkpt>
      <trkpt lat="45.60433" lon="4.58945">
        <ele>749.3</ele>
        <time>2019-04-28T06:43:08Z</time>
      </trkpt>
      <trkpt lat="45.60443" lon="4.58944">
        <ele>750.5</ele>
        <time>2019-04-28T06:43:15Z</time>
      </trkpt>
      <trkpt lat="45.60446" lon="4.58944">
        <ele>750.8</ele>
        <time>2019-04-28T06:43:17Z</time>
      </trkpt>
      <trkpt lat="45.6045" lon="4.58943">
        <ele>751.2</ele>
        <time>2019-04-28T06:43:20Z</time>
      </trkpt>
      <trkpt lat="45.60457" lon="4.58942">
        <ele>751.9</ele>
        <time>2019-04-28T06:43:25Z</time>
      </trkpt>
      <trkpt lat="45.60463" lon="4.58942">
        <ele>752.4</ele>
        <time>2019-04-28T06:43:29Z</time>
      </trkpt>
      <trkpt lat="45.60471" lon="4.58941">
        <ele>753.2</ele>
        <time>2019-04-28T06:43:34Z</time>
      </trkpt>
      <trkpt lat="45.6048" lon="4.58937">
        <ele>754</ele>
        <time>2019-04-28T06:43:40Z</time>
      </trkpt>
      <trkpt lat="45.60485" lon="4.58936">
        <ele>754.3</ele>
        <time>2019-04-28T06:43:43Z</time>
      </trkpt>
      <trkpt lat="45.60499" lon="4.58931">
        <ele>755.9</ele>
        <time>2019-04-28T06:43:52Z</time>
      </trkpt>
      <trkpt lat="45.60502" lon="4.5893">
        <ele>756.2</ele>
        <time>2019-04-28T06:43:54Z</time>
      </trkpt>
      <trkpt lat="45.60511" lon="4.58928">
        <ele>757.5</ele>
        <time>2019-04-28T06:44:00Z</time>
      </trkpt>
      <trkpt lat="45.60514" lon="4.5893">
        <ele>757.9</ele>
        <time>2019-04-28T06:44:02Z</time>
      </trkpt>
      <trkpt lat="45.6052" lon="4.58932">
        <ele>758.5</ele>
        <time>2019-04-28T06:44:06Z</time>
      </trkpt>
      <trkpt lat="45.60526" lon="4.58933">
        <ele>759</ele>
        <time>2019-04-28T06:44:10Z</time>
      </trkpt>
      <trkpt lat="45.60527" lon="4.58934">
        <ele>759.2</ele>
        <time>2019-04-28T06:44:11Z</time>
      </trkpt>
      <trkpt lat="45.60538" lon="4.58935">
        <ele>760.1</ele>
        <time>2019-04-28T06:44:18Z</time>
      </trkpt>
      <trkpt lat="45.6054" lon="4.58935">
        <ele>760.2</ele>
        <time>2019-04-28T06:44:19Z</time>
      </trkpt>
      <trkpt lat="45.60547" lon="4.58935">
        <ele>761</ele>
        <time>2019-04-28T06:44:24Z</time>
      </trkpt>
      <trkpt lat="45.60548" lon="4.58935">
        <ele>761.1</ele>
        <time>2019-04-28T06:44:25Z</time>
      </trkpt>
      <trkpt lat="45.60556" lon="4.58935">
        <ele>762.2</ele>
        <time>2019-04-28T06:44:30Z</time>
      </trkpt>
      <trkpt lat="45.6056" lon="4.58931">
        <ele>762.8</ele>
        <time>2019-04-28T06:44:33Z</time>
      </trkpt>
      <trkpt lat="45.60563" lon="4.58926">
        <ele>763.5</ele>
        <time>2019-04-28T06:44:36Z</time>
      </trkpt>
      <trkpt lat="45.60567" lon="4.58921">
        <ele>764.1</ele>
        <time>2019-04-28T06:44:40Z</time>
      </trkpt>
      <trkpt lat="45.60571" lon="4.58914">
        <ele>764.9</ele>
        <time>2019-04-28T06:44:44Z</time>
      </trkpt>
      <trkpt lat="45.60574" lon="4.58904">
        <ele>765.7</ele>
        <time>2019-04-28T06:44:49Z</time>
      </trkpt>
      <trkpt lat="45.60577" lon="4.58894">
        <ele>766.6</ele>
        <time>2019-04-28T06:44:54Z</time>
      </trkpt>
      <trkpt lat="45.6058" lon="4.58888">
        <ele>767.2</ele>
        <time>2019-04-28T06:44:57Z</time>
      </trkpt>
      <trkpt lat="45.60581" lon="4.58883">
        <ele>767.6</ele>
        <time>2019-04-28T06:44:59Z</time>
      </trkpt>
      <trkpt lat="45.60585" lon="4.58874">
        <ele>768.5</ele>
        <time>2019-04-28T06:45:04Z</time>
      </trkpt>
      <trkpt lat="45.60588" lon="4.58866">
        <ele>769.2</ele>
        <time>2019-04-28T06:45:08Z</time>
      </trkpt>
      <trkpt lat="45.60591" lon="4.58861">
        <ele>769.8</ele>
        <time>2019-04-28T06:45:11Z</time>
      </trkpt>
      <trkpt lat="45.60593" lon="4.58856">
        <ele>770.2</ele>
        <time>2019-04-28T06:45:14Z</time>
      </trkpt>
      <trkpt lat="45.60596" lon="4.58848">
        <ele>771</ele>
        <time>2019-04-28T06:45:18Z</time>
      </trkpt>
      <trkpt lat="45.606" lon="4.58842">
        <ele>771.8</ele>
        <time>2019-04-28T06:45:22Z</time>
      </trkpt>
      <trkpt lat="45.60602" lon="4.58841">
        <ele>772</ele>
        <time>2019-04-28T06:45:23Z</time>
      </trkpt>
      <trkpt lat="45.60606" lon="4.58836">
        <ele>772.8</ele>
        <time>2019-04-28T06:45:27Z</time>
      </trkpt>
      <trkpt lat="45.60612" lon="4.58829">
        <ele>773.8</ele>
        <time>2019-04-28T06:45:32Z</time>
      </trkpt>
      <trkpt lat="45.60619" lon="4.58822">
        <ele>775.1</ele>
        <time>2019-04-28T06:45:39Z</time>
      </trkpt>
      <trkpt lat="45.60627" lon="4.5881">
        <ele>776.4</ele>
        <time>2019-04-28T06:45:47Z</time>
      </trkpt>
      <trkpt lat="45.60632" lon="4.58801">
        <ele>777.6</ele>
        <time>2019-04-28T06:45:53Z</time>
      </trkpt>
      <trkpt lat="45.60636" lon="4.58795">
        <ele>778.5</ele>
        <time>2019-04-28T06:45:57Z</time>
      </trkpt>
      <trkpt lat="45.60641" lon="4.5879">
        <ele>779.6</ele>
        <time>2019-04-28T06:46:01Z</time>
      </trkpt>
      <trkpt lat="45.60644" lon="4.58785">
        <ele>780.5</ele>
        <time>2019-04-28T06:46:04Z</time>
      </trkpt>
      <trkpt lat="45.60645" lon="4.5878">
        <ele>781.3</ele>
        <time>2019-04-28T06:46:07Z</time>
      </trkpt>
      <trkpt lat="45.60646" lon="4.58778">
        <ele>781.6</ele>
        <time>2019-04-28T06:46:08Z</time>
      </trkpt>
      <trkpt lat="45.60645" lon="4.58776">
        <ele>781.9</ele>
        <time>2019-04-28T06:46:09Z</time>
      </trkpt>
      <trkpt lat="45.6064" lon="4.58769">
        <ele>781.7</ele>
        <time>2019-04-28T06:46:13Z</time>
      </trkpt>
      <trkpt lat="45.60638" lon="4.58768">
        <ele>781.7</ele>
        <time>2019-04-28T06:46:14Z</time>
      </trkpt>
      <trkpt lat="45.60632" lon="4.58763">
        <ele>781.4</ele>
        <time>2019-04-28T06:46:18Z</time>
      </trkpt>
      <trkpt lat="45.60627" lon="4.58756">
        <ele>781.1</ele>
        <time>2019-04-28T06:46:22Z</time>
      </trkpt>
      <trkpt lat="45.60625" lon="4.58755">
        <ele>781.1</ele>
        <time>2019-04-28T06:46:23Z</time>
      </trkpt>
      <trkpt lat="45.60616" lon="4.58748">
        <ele>780.8</ele>
        <time>2019-04-28T06:48:32Z</time>
      </trkpt>
      <trkpt lat="45.60604" lon="4.58737">
        <ele>780.5</ele>
        <time>2019-04-28T06:48:36Z</time>
      </trkpt>
      <trkpt lat="45.60576" lon="4.5871">
        <ele>779.2</ele>
        <time>2019-04-28T06:48:44Z</time>
      </trkpt>
      <trkpt lat="45.6057" lon="4.58705">
        <ele>778.9</ele>
        <time>2019-04-28T06:48:46Z</time>
      </trkpt>
      <trkpt lat="45.60548" lon="4.58685">
        <ele>778.2</ele>
        <time>2019-04-28T06:48:52Z</time>
      </trkpt>
      <trkpt lat="45.60541" lon="4.58675">
        <ele>777.9</ele>
        <time>2019-04-28T06:48:54Z</time>
      </trkpt>
      <trkpt lat="45.6053" lon="4.58655">
        <ele>777.3</ele>
        <time>2019-04-28T06:48:57Z</time>
      </trkpt>
      <trkpt lat="45.60515" lon="4.58614">
        <ele>776.3</ele>
        <time>2019-04-28T06:49:02Z</time>
      </trkpt>
      <trkpt lat="45.60503" lon="4.58571">
        <ele>775</ele>
        <time>2019-04-28T06:49:07Z</time>
      </trkpt>
      <trkpt lat="45.60492" lon="4.58537">
        <ele>774</ele>
        <time>2019-04-28T06:49:11Z</time>
      </trkpt>
      <trkpt lat="45.60478" lon="4.58489">
        <ele>772.8</ele>
        <time>2019-04-28T06:49:17Z</time>
      </trkpt>
      <trkpt lat="45.60476" lon="4.58481">
        <ele>772.5</ele>
        <time>2019-04-28T06:49:18Z</time>
      </trkpt>
      <trkpt lat="45.60464" lon="4.58451">
        <ele>771.5</ele>
        <time>2019-04-28T06:49:22Z</time>
      </trkpt>
      <trkpt lat="45.6046" lon="4.58443">
        <ele>771.1</ele>
        <time>2019-04-28T06:49:23Z</time>
      </trkpt>
      <trkpt lat="45.60448" lon="4.58419">
        <ele>770.2</ele>
        <time>2019-04-28T06:49:26Z</time>
      </trkpt>
      <trkpt lat="45.60432" lon="4.58387">
        <ele>769.7</ele>
        <time>2019-04-28T06:49:30Z</time>
      </trkpt>
      <trkpt lat="45.60428" lon="4.58379">
        <ele>769.5</ele>
        <time>2019-04-28T06:49:31Z</time>
      </trkpt>
      <trkpt lat="45.6042" lon="4.58359">
        <ele>769.2</ele>
        <time>2019-04-28T06:49:34Z</time>
      </trkpt>
      <trkpt lat="45.6042" lon="4.58355">
        <ele>769.2</ele>
        <time>2019-04-28T06:49:35Z</time>
      </trkpt>
      <trkpt lat="45.60416" lon="4.58335">
        <ele>769.1</ele>
        <time>2019-04-28T06:49:39Z</time>
      </trkpt>
      <trkpt lat="45.60409" lon="4.58323">
        <ele>768.9</ele>
        <time>2019-04-28T06:49:41Z</time>
      </trkpt>
      <trkpt lat="45.60402" lon="4.58309">
        <ele>768.6</ele>
        <time>2019-04-28T06:49:43Z</time>
      </trkpt>
      <trkpt lat="45.60394" lon="4.58295">
        <ele>768.4</ele>
        <time>2019-04-28T06:49:45Z</time>
      </trkpt>
      <trkpt lat="45.60389" lon="4.58279">
        <ele>768.2</ele>
        <time>2019-04-28T06:49:47Z</time>
      </trkpt>
      <trkpt lat="45.60385" lon="4.58263">
        <ele>768</ele>
        <time>2019-04-28T06:49:49Z</time>
      </trkpt>
      <trkpt lat="45.60376" lon="4.5822">
        <ele>767.9</ele>
        <time>2019-04-28T06:49:55Z</time>
      </trkpt>
      <trkpt lat="45.60371" lon="4.582">
        <ele>767.8</ele>
        <time>2019-04-28T06:49:58Z</time>
      </trkpt>
      <trkpt lat="45.60366" lon="4.58182">
        <ele>767.5</ele>
        <time>2019-04-28T06:50:01Z</time>
      </trkpt>
      <trkpt lat="45.60363" lon="4.5817">
        <ele>767.2</ele>
        <time>2019-04-28T06:50:03Z</time>
      </trkpt>
      <trkpt lat="45.60359" lon="4.58146">
        <ele>766.5</ele>
        <time>2019-04-28T06:50:07Z</time>
      </trkpt>
      <trkpt lat="45.6035" lon="4.58111">
        <ele>765.5</ele>
        <time>2019-04-28T06:50:12Z</time>
      </trkpt>
      <trkpt lat="45.60334" lon="4.58066">
        <ele>763.5</ele>
        <time>2019-04-28T06:50:18Z</time>
      </trkpt>
      <trkpt lat="45.60321" lon="4.58027">
        <ele>761.7</ele>
        <time>2019-04-28T06:50:23Z</time>
      </trkpt>
      <trkpt lat="45.60313" lon="4.57998">
        <ele>760.7</ele>
        <time>2019-04-28T06:50:26Z</time>
      </trkpt>
      <trkpt lat="45.60311" lon="4.57987">
        <ele>760.4</ele>
        <time>2019-04-28T06:50:27Z</time>
      </trkpt>
      <trkpt lat="45.60305" lon="4.57957">
        <ele>759.7</ele>
        <time>2019-04-28T06:50:30Z</time>
      </trkpt>
      <trkpt lat="45.603" lon="4.57938">
        <ele>759.5</ele>
        <time>2019-04-28T06:50:32Z</time>
      </trkpt>
      <trkpt lat="45.60297" lon="4.57928">
        <ele>759.4</ele>
        <time>2019-04-28T06:50:33Z</time>
      </trkpt>
      <trkpt lat="45.60293" lon="4.57919">
        <ele>759.2</ele>
        <time>2019-04-28T06:50:34Z</time>
      </trkpt>
      <trkpt lat="45.60286" lon="4.57901">
        <ele>758.7</ele>
        <time>2019-04-28T06:50:36Z</time>
      </trkpt>
      <trkpt lat="45.60279" lon="4.57884">
        <ele>758.2</ele>
        <time>2019-04-28T06:50:38Z</time>
      </trkpt>
      <trkpt lat="45.60275" lon="4.57874">
        <ele>757.9</ele>
        <time>2019-04-28T06:50:39Z</time>
      </trkpt>
      <trkpt lat="45.60266" lon="4.57848">
        <ele>757.4</ele>
        <time>2019-04-28T06:50:42Z</time>
      </trkpt>
      <trkpt lat="45.6026" lon="4.57833">
        <ele>757</ele>
        <time>2019-04-28T06:50:44Z</time>
      </trkpt>
      <trkpt lat="45.60247" lon="4.57799">
        <ele>755.6</ele>
        <time>2019-04-28T06:50:49Z</time>
      </trkpt>
      <trkpt lat="45.60246" lon="4.57792">
        <ele>755.2</ele>
        <time>2019-04-28T06:50:50Z</time>
      </trkpt>
      <trkpt lat="45.60245" lon="4.57785">
        <ele>754.9</ele>
        <time>2019-04-28T06:50:51Z</time>
      </trkpt>
      <trkpt lat="45.60245" lon="4.57772">
        <ele>754.3</ele>
        <time>2019-04-28T06:50:53Z</time>
      </trkpt>
      <trkpt lat="45.60246" lon="4.57766">
        <ele>754.8</ele>
        <time>2019-04-28T06:50:54Z</time>
      </trkpt>
      <trkpt lat="45.60254" lon="4.57739">
        <ele>757.1</ele>
        <time>2019-04-28T06:50:59Z</time>
      </trkpt>
      <trkpt lat="45.60253" lon="4.57732">
        <ele>757.6</ele>
        <time>2019-04-28T06:51:00Z</time>
      </trkpt>
      <trkpt lat="45.60253" lon="4.57709">
        <ele>758.9</ele>
        <time>2019-04-28T06:51:03Z</time>
      </trkpt>
      <trkpt lat="45.60249" lon="4.57662">
        <ele>760.7</ele>
        <time>2019-04-28T06:51:09Z</time>
      </trkpt>
      <trkpt lat="45.60244" lon="4.57631">
        <ele>761.3</ele>
        <time>2019-04-28T06:51:14Z</time>
      </trkpt>
      <trkpt lat="45.60231" lon="4.57621">
        <ele>759.2</ele>
        <time>2019-04-28T06:51:17Z</time>
      </trkpt>
      <trkpt lat="45.60201" lon="4.57596">
        <ele>755.9</ele>
        <time>2019-04-28T06:51:22Z</time>
      </trkpt>
      <trkpt lat="45.60195" lon="4.5759">
        <ele>755.5</ele>
        <time>2019-04-28T06:51:23Z</time>
      </trkpt>
      <trkpt lat="45.60189" lon="4.57582">
        <ele>755</ele>
        <time>2019-04-28T06:51:24Z</time>
      </trkpt>
      <trkpt lat="45.60174" lon="4.57556">
        <ele>752.8</ele>
        <time>2019-04-28T06:51:27Z</time>
      </trkpt>
      <trkpt lat="45.60158" lon="4.57532">
        <ele>750.2</ele>
        <time>2019-04-28T06:51:30Z</time>
      </trkpt>
      <trkpt lat="45.60143" lon="4.57505">
        <ele>748.3</ele>
        <time>2019-04-28T06:51:33Z</time>
      </trkpt>
      <trkpt lat="45.60126" lon="4.57463">
        <ele>746.7</ele>
        <time>2019-04-28T06:51:37Z</time>
      </trkpt>
      <trkpt lat="45.60123" lon="4.57454">
        <ele>746</ele>
        <time>2019-04-28T06:51:38Z</time>
      </trkpt>
      <trkpt lat="45.60114" lon="4.5742">
        <ele>742.4</ele>
        <time>2019-04-28T06:51:42Z</time>
      </trkpt>
      <trkpt lat="45.60111" lon="4.57414">
        <ele>741.4</ele>
        <time>2019-04-28T06:51:43Z</time>
      </trkpt>
      <trkpt lat="45.60102" lon="4.57395">
        <ele>738.5</ele>
        <time>2019-04-28T06:51:46Z</time>
      </trkpt>
      <trkpt lat="45.60091" lon="4.57373">
        <ele>734.8</ele>
        <time>2019-04-28T06:51:49Z</time>
      </trkpt>
      <trkpt lat="45.60081" lon="4.57348">
        <ele>731.8</ele>
        <time>2019-04-28T06:51:52Z</time>
      </trkpt>
      <trkpt lat="45.60074" lon="4.57331">
        <ele>730.1</ele>
        <time>2019-04-28T06:51:54Z</time>
      </trkpt>
      <trkpt lat="45.60062" lon="4.57305">
        <ele>727.7</ele>
        <time>2019-04-28T06:51:57Z</time>
      </trkpt>
      <trkpt lat="45.60059" lon="4.57296">
        <ele>726.8</ele>
        <time>2019-04-28T06:51:58Z</time>
      </trkpt>
      <trkpt lat="45.60053" lon="4.57263">
        <ele>724.4</ele>
        <time>2019-04-28T06:52:01Z</time>
      </trkpt>
      <trkpt lat="45.60052" lon="4.57251">
        <ele>723.7</ele>
        <time>2019-04-28T06:52:02Z</time>
      </trkpt>
      <trkpt lat="45.60046" lon="4.57222">
        <ele>720.9</ele>
        <time>2019-04-28T06:52:05Z</time>
      </trkpt>
      <trkpt lat="45.6004" lon="4.57204">
        <ele>719.3</ele>
        <time>2019-04-28T06:52:07Z</time>
      </trkpt>
      <trkpt lat="45.60025" lon="4.57166">
        <ele>716.6</ele>
        <time>2019-04-28T06:52:11Z</time>
      </trkpt>
      <trkpt lat="45.60023" lon="4.5716">
        <ele>716</ele>
        <time>2019-04-28T06:52:12Z</time>
      </trkpt>
      <trkpt lat="45.60023" lon="4.57156">
        <ele>715.7</ele>
        <time>2019-04-28T06:52:14Z</time>
      </trkpt>
      <trkpt lat="45.60024" lon="4.57156">
        <ele>715.6</ele>
        <time>2019-04-28T06:52:16Z</time>
      </trkpt>
      <trkpt lat="45.60023" lon="4.57155">
        <ele>715.6</ele>
        <time>2019-04-28T06:52:18Z</time>
      </trkpt>
      <trkpt lat="45.60022" lon="4.57154">
        <ele>715.4</ele>
        <time>2019-04-28T06:52:19Z</time>
      </trkpt>
      <trkpt lat="45.6002" lon="4.57151">
        <ele>715</ele>
        <time>2019-04-28T06:52:20Z</time>
      </trkpt>
      <trkpt lat="45.60016" lon="4.57142">
        <ele>714.1</ele>
        <time>2019-04-28T06:52:22Z</time>
      </trkpt>
      <trkpt lat="45.60014" lon="4.57137">
        <ele>713.6</ele>
        <time>2019-04-28T06:52:23Z</time>
      </trkpt>
      <trkpt lat="45.60011" lon="4.5713">
        <ele>712.9</ele>
        <time>2019-04-28T06:52:24Z</time>
      </trkpt>
      <trkpt lat="45.60004" lon="4.57116">
        <ele>711.5</ele>
        <time>2019-04-28T06:52:26Z</time>
      </trkpt>
      <trkpt lat="45.59996" lon="4.571">
        <ele>710.1</ele>
        <time>2019-04-28T06:52:28Z</time>
      </trkpt>
      <trkpt lat="45.59989" lon="4.57081">
        <ele>709.1</ele>
        <time>2019-04-28T06:52:30Z</time>
      </trkpt>
      <trkpt lat="45.59981" lon="4.57065">
        <ele>708.3</ele>
        <time>2019-04-28T06:52:32Z</time>
      </trkpt>
      <trkpt lat="45.59978" lon="4.5706">
        <ele>708</ele>
        <time>2019-04-28T06:52:33Z</time>
      </trkpt>
      <trkpt lat="45.59975" lon="4.57058">
        <ele>707.3</ele>
        <time>2019-04-28T06:52:34Z</time>
      </trkpt>
      <trkpt lat="45.59972" lon="4.57055">
        <ele>707.1</ele>
        <time>2019-04-28T06:52:36Z</time>
      </trkpt>
      <trkpt lat="45.59972" lon="4.57051">
        <ele>707</ele>
        <time>2019-04-28T06:52:38Z</time>
      </trkpt>
      <trkpt lat="45.59976" lon="4.57054">
        <ele>706.8</ele>
        <time>2019-04-28T06:52:44Z</time>
      </trkpt>
      <trkpt lat="45.59976" lon="4.57056">
        <ele>706.7</ele>
        <time>2019-04-28T06:52:51Z</time>
      </trkpt>
      <trkpt lat="45.59968" lon="4.57051">
        <ele>706.3</ele>
        <time>2019-04-28T06:52:53Z</time>
      </trkpt>
      <trkpt lat="45.59964" lon="4.57048">
        <ele>706.1</ele>
        <time>2019-04-28T06:52:54Z</time>
      </trkpt>
      <trkpt lat="45.5996" lon="4.57044">
        <ele>705.4</ele>
        <time>2019-04-28T06:52:55Z</time>
      </trkpt>
      <trkpt lat="45.59953" lon="4.5704">
        <ele>704.9</ele>
        <time>2019-04-28T06:52:57Z</time>
      </trkpt>
      <trkpt lat="45.59947" lon="4.57037">
        <ele>704.5</ele>
        <time>2019-04-28T06:52:59Z</time>
      </trkpt>
      <trkpt lat="45.59946" lon="4.57033">
        <ele>703.1</ele>
        <time>2019-04-28T06:53:00Z</time>
      </trkpt>
      <trkpt lat="45.59943" lon="4.57026">
        <ele>703.1</ele>
        <time>2019-04-28T06:53:02Z</time>
      </trkpt>
      <trkpt lat="45.59937" lon="4.57025">
        <ele>703.1</ele>
        <time>2019-04-28T06:53:04Z</time>
      </trkpt>
      <trkpt lat="45.59934" lon="4.57027">
        <ele>702.5</ele>
        <time>2019-04-28T06:53:05Z</time>
      </trkpt>
      <trkpt lat="45.59929" lon="4.5703">
        <ele>702</ele>
        <time>2019-04-28T06:53:06Z</time>
      </trkpt>
      <trkpt lat="45.5992" lon="4.57044">
        <ele>700.6</ele>
        <time>2019-04-28T06:53:09Z</time>
      </trkpt>
      <trkpt lat="45.59906" lon="4.57061">
        <ele>698.8</ele>
        <time>2019-04-28T06:53:13Z</time>
      </trkpt>
      <trkpt lat="45.59892" lon="4.57074">
        <ele>697.3</ele>
        <time>2019-04-28T06:53:16Z</time>
      </trkpt>
      <trkpt lat="45.59886" lon="4.57077">
        <ele>696.8</ele>
        <time>2019-04-28T06:53:17Z</time>
      </trkpt>
      <trkpt lat="45.5986" lon="4.57082">
        <ele>694.8</ele>
        <time>2019-04-28T06:53:21Z</time>
      </trkpt>
      <trkpt lat="45.59841" lon="4.57087">
        <ele>693.9</ele>
        <time>2019-04-28T06:53:24Z</time>
      </trkpt>
      <trkpt lat="45.59829" lon="4.57093">
        <ele>693.4</ele>
        <time>2019-04-28T06:53:26Z</time>
      </trkpt>
      <trkpt lat="45.59824" lon="4.57096">
        <ele>693.2</ele>
        <time>2019-04-28T06:53:27Z</time>
      </trkpt>
      <trkpt lat="45.59818" lon="4.57099">
        <ele>693</ele>
        <time>2019-04-28T06:53:28Z</time>
      </trkpt>
      <trkpt lat="45.59801" lon="4.57109">
        <ele>692.4</ele>
        <time>2019-04-28T06:53:31Z</time>
      </trkpt>
      <trkpt lat="45.59789" lon="4.57115">
        <ele>692.1</ele>
        <time>2019-04-28T06:53:33Z</time>
      </trkpt>
      <trkpt lat="45.59782" lon="4.57116">
        <ele>692.3</ele>
        <time>2019-04-28T06:53:34Z</time>
      </trkpt>
      <trkpt lat="45.59763" lon="4.57115">
        <ele>692.6</ele>
        <time>2019-04-28T06:53:37Z</time>
      </trkpt>
      <trkpt lat="45.59752" lon="4.57113">
        <ele>692.7</ele>
        <time>2019-04-28T06:53:39Z</time>
      </trkpt>
      <trkpt lat="45.59737" lon="4.57109">
        <ele>692.8</ele>
        <time>2019-04-28T06:53:42Z</time>
      </trkpt>
      <trkpt lat="45.59716" lon="4.57104">
        <ele>692.6</ele>
        <time>2019-04-28T06:53:46Z</time>
      </trkpt>
      <trkpt lat="45.59703" lon="4.57101">
        <ele>692.3</ele>
        <time>2019-04-28T06:53:49Z</time>
      </trkpt>
      <trkpt lat="45.5968" lon="4.57099">
        <ele>693.2</ele>
        <time>2019-04-28T06:53:54Z</time>
      </trkpt>
      <trkpt lat="45.59666" lon="4.571">
        <ele>694.1</ele>
        <time>2019-04-28T06:53:57Z</time>
      </trkpt>
      <trkpt lat="45.59608" lon="4.57103">
        <ele>697.3</ele>
        <time>2019-04-28T06:54:09Z</time>
      </trkpt>
      <trkpt lat="45.59565" lon="4.57099">
        <ele>700.4</ele>
        <time>2019-04-28T06:54:19Z</time>
      </trkpt>
      <trkpt lat="45.59551" lon="4.57097">
        <ele>701.7</ele>
        <time>2019-04-28T06:54:23Z</time>
      </trkpt>
      <trkpt lat="45.59538" lon="4.57094">
        <ele>703.1</ele>
        <time>2019-04-28T06:54:27Z</time>
      </trkpt>
      <trkpt lat="45.59532" lon="4.57093">
        <ele>703.7</ele>
        <time>2019-04-28T06:54:29Z</time>
      </trkpt>
      <trkpt lat="45.59521" lon="4.5709">
        <ele>705</ele>
        <time>2019-04-28T06:54:33Z</time>
      </trkpt>
      <trkpt lat="45.59513" lon="4.57088">
        <ele>705.8</ele>
        <time>2019-04-28T06:54:36Z</time>
      </trkpt>
      <trkpt lat="45.59508" lon="4.57087">
        <ele>706.3</ele>
        <time>2019-04-28T06:54:38Z</time>
      </trkpt>
      <trkpt lat="45.59501" lon="4.57084">
        <ele>706.9</ele>
        <time>2019-04-28T06:54:41Z</time>
      </trkpt>
      <trkpt lat="45.59491" lon="4.57082">
        <ele>707.6</ele>
        <time>2019-04-28T06:54:45Z</time>
      </trkpt>
      <trkpt lat="45.59481" lon="4.57077">
        <ele>708.3</ele>
        <time>2019-04-28T06:54:50Z</time>
      </trkpt>
      <trkpt lat="45.59473" lon="4.57072">
        <ele>708.5</ele>
        <time>2019-04-28T06:54:54Z</time>
      </trkpt>
      <trkpt lat="45.59463" lon="4.57065">
        <ele>708.9</ele>
        <time>2019-04-28T06:54:59Z</time>
      </trkpt>
      <trkpt lat="45.59458" lon="4.57056">
        <ele>709.1</ele>
        <time>2019-04-28T06:55:03Z</time>
      </trkpt>
      <trkpt lat="45.59456" lon="4.5705">
        <ele>709.3</ele>
        <time>2019-04-28T06:55:05Z</time>
      </trkpt>
      <trkpt lat="45.59452" lon="4.57034">
        <ele>709.6</ele>
        <time>2019-04-28T06:55:11Z</time>
      </trkpt>
      <trkpt lat="45.59451" lon="4.57029">
        <ele>709.7</ele>
        <time>2019-04-28T06:55:13Z</time>
      </trkpt>
      <trkpt lat="45.59448" lon="4.57018">
        <ele>710</ele>
        <time>2019-04-28T06:55:17Z</time>
      </trkpt>
      <trkpt lat="45.59445" lon="4.57001">
        <ele>710.3</ele>
        <time>2019-04-28T06:55:23Z</time>
      </trkpt>
      <trkpt lat="45.59444" lon="4.56992">
        <ele>710.5</ele>
        <time>2019-04-28T06:55:26Z</time>
      </trkpt>
      <trkpt lat="45.59443" lon="4.56989">
        <ele>710.6</ele>
        <time>2019-04-28T06:55:27Z</time>
      </trkpt>
      <trkpt lat="45.59442" lon="4.56977">
        <ele>710.8</ele>
        <time>2019-04-28T06:55:31Z</time>
      </trkpt>
      <trkpt lat="45.59441" lon="4.56965">
        <ele>711</ele>
        <time>2019-04-28T06:55:35Z</time>
      </trkpt>
      <trkpt lat="45.59442" lon="4.56962">
        <ele>711.1</ele>
        <time>2019-04-28T06:55:36Z</time>
      </trkpt>
      <trkpt lat="45.59442" lon="4.5695">
        <ele>711.3</ele>
        <time>2019-04-28T06:55:40Z</time>
      </trkpt>
      <trkpt lat="45.59443" lon="4.56933">
        <ele>711.5</ele>
        <time>2019-04-28T06:55:46Z</time>
      </trkpt>
      <trkpt lat="45.59443" lon="4.5693">
        <ele>711.6</ele>
        <time>2019-04-28T06:55:47Z</time>
      </trkpt>
      <trkpt lat="45.59443" lon="4.5692">
        <ele>711.7</ele>
        <time>2019-04-28T06:55:50Z</time>
      </trkpt>
      <trkpt lat="45.59442" lon="4.56902">
        <ele>712.3</ele>
        <time>2019-04-28T06:55:56Z</time>
      </trkpt>
      <trkpt lat="45.59436" lon="4.5689">
        <ele>713.3</ele>
        <time>2019-04-28T06:56:01Z</time>
      </trkpt>
      <trkpt lat="45.59433" lon="4.56886">
        <ele>713.8</ele>
        <time>2019-04-28T06:56:03Z</time>
      </trkpt>
      <trkpt lat="45.59428" lon="4.56882">
        <ele>714.3</ele>
        <time>2019-04-28T06:56:06Z</time>
      </trkpt>
      <trkpt lat="45.59419" lon="4.56879">
        <ele>714.9</ele>
        <time>2019-04-28T06:56:10Z</time>
      </trkpt>
      <trkpt lat="45.59415" lon="4.5688">
        <ele>715.2</ele>
        <time>2019-04-28T06:56:12Z</time>
      </trkpt>
      <trkpt lat="45.59402" lon="4.56887">
        <ele>716.8</ele>
        <time>2019-04-28T06:56:18Z</time>
      </trkpt>
      <trkpt lat="45.59388" lon="4.5691">
        <ele>718.7</ele>
        <time>2019-04-28T06:56:26Z</time>
      </trkpt>
      <trkpt lat="45.59382" lon="4.56931">
        <ele>719.6</ele>
        <time>2019-04-28T06:56:31Z</time>
      </trkpt>
      <trkpt lat="45.59377" lon="4.56947">
        <ele>720.3</ele>
        <time>2019-04-28T06:56:35Z</time>
      </trkpt>
      <trkpt lat="45.59371" lon="4.56972">
        <ele>721.3</ele>
        <time>2019-04-28T06:56:41Z</time>
      </trkpt>
      <trkpt lat="45.59369" lon="4.56977">
        <ele>721.5</ele>
        <time>2019-04-28T06:56:42Z</time>
      </trkpt>
      <trkpt lat="45.59358" lon="4.56999">
        <ele>722.5</ele>
        <time>2019-04-28T06:56:48Z</time>
      </trkpt>
      <trkpt lat="45.59356" lon="4.56999">
        <ele>722.7</ele>
        <time>2019-04-28T06:56:49Z</time>
      </trkpt>
      <trkpt lat="45.59352" lon="4.56994">
        <ele>723</ele>
        <time>2019-04-28T06:56:51Z</time>
      </trkpt>
      <trkpt lat="45.59337" lon="4.56971">
        <ele>723.4</ele>
        <time>2019-04-28T06:56:56Z</time>
      </trkpt>
      <trkpt lat="45.59317" lon="4.56936">
        <ele>723.2</ele>
        <time>2019-04-28T06:57:02Z</time>
      </trkpt>
      <trkpt lat="45.59292" lon="4.56888">
        <ele>723</ele>
        <time>2019-04-28T06:57:09Z</time>
      </trkpt>
      <trkpt lat="45.59278" lon="4.56859">
        <ele>723</ele>
        <time>2019-04-28T06:57:13Z</time>
      </trkpt>
      <trkpt lat="45.59277" lon="4.5685">
        <ele>723</ele>
        <time>2019-04-28T06:57:14Z</time>
      </trkpt>
      <trkpt lat="45.59279" lon="4.56808">
        <ele>722.5</ele>
        <time>2019-04-28T06:57:19Z</time>
      </trkpt>
      <trkpt lat="45.59279" lon="4.5678">
        <ele>722.3</ele>
        <time>2019-04-28T06:57:23Z</time>
      </trkpt>
      <trkpt lat="45.59279" lon="4.56775">
        <ele>722.3</ele>
        <time>2019-04-28T06:57:24Z</time>
      </trkpt>
      <trkpt lat="45.59275" lon="4.56746">
        <ele>722.4</ele>
        <time>2019-04-28T06:57:30Z</time>
      </trkpt>
      <trkpt lat="45.59266" lon="4.5672">
        <ele>722.8</ele>
        <time>2019-04-28T06:57:36Z</time>
      </trkpt>
      <trkpt lat="45.5925" lon="4.56685">
        <ele>723.2</ele>
        <time>2019-04-28T06:57:44Z</time>
      </trkpt>
      <trkpt lat="45.59245" lon="4.56677">
        <ele>723.3</ele>
        <time>2019-04-28T06:57:46Z</time>
      </trkpt>
      <trkpt lat="45.59238" lon="4.56669">
        <ele>723.4</ele>
        <time>2019-04-28T06:57:48Z</time>
      </trkpt>
      <trkpt lat="45.59234" lon="4.56665">
        <ele>723.4</ele>
        <time>2019-04-28T06:57:49Z</time>
      </trkpt>
      <trkpt lat="45.59217" lon="4.56652">
        <ele>723.5</ele>
        <time>2019-04-28T06:57:53Z</time>
      </trkpt>
      <trkpt lat="45.59191" lon="4.56631">
        <ele>723.5</ele>
        <time>2019-04-28T06:58:00Z</time>
      </trkpt>
      <trkpt lat="45.59175" lon="4.56617">
        <ele>723.6</ele>
        <time>2019-04-28T06:58:04Z</time>
      </trkpt>
      <trkpt lat="45.59171" lon="4.56614">
        <ele>723.6</ele>
        <time>2019-04-28T06:58:05Z</time>
      </trkpt>
      <trkpt lat="45.59167" lon="4.56611">
        <ele>723.6</ele>
        <time>2019-04-28T06:58:06Z</time>
      </trkpt>
      <trkpt lat="45.59149" lon="4.56599">
        <ele>725.5</ele>
        <time>2019-04-28T06:58:11Z</time>
      </trkpt>
      <trkpt lat="45.59147" lon="4.56598">
        <ele>725.8</ele>
        <time>2019-04-28T06:58:12Z</time>
      </trkpt>
      <trkpt lat="45.59136" lon="4.56592">
        <ele>726.9</ele>
        <time>2019-04-28T06:58:17Z</time>
      </trkpt>
      <trkpt lat="45.59126" lon="4.56587">
        <ele>727.8</ele>
        <time>2019-04-28T06:58:22Z</time>
      </trkpt>
      <trkpt lat="45.59122" lon="4.56584">
        <ele>728.2</ele>
        <time>2019-04-28T06:58:24Z</time>
      </trkpt>
      <trkpt lat="45.5912" lon="4.56583">
        <ele>728.4</ele>
        <time>2019-04-28T06:58:25Z</time>
      </trkpt>
      <trkpt lat="45.59114" lon="4.56581">
        <ele>728.8</ele>
        <time>2019-04-28T06:58:27Z</time>
      </trkpt>
      <trkpt lat="45.59109" lon="4.56577">
        <ele>729.2</ele>
        <time>2019-04-28T06:58:29Z</time>
      </trkpt>
      <trkpt lat="45.59104" lon="4.56575">
        <ele>729.6</ele>
        <time>2019-04-28T06:58:31Z</time>
      </trkpt>
      <trkpt lat="45.59092" lon="4.56573">
        <ele>730.7</ele>
        <time>2019-04-28T06:58:35Z</time>
      </trkpt>
      <trkpt lat="45.59086" lon="4.56573">
        <ele>731.1</ele>
        <time>2019-04-28T06:58:37Z</time>
      </trkpt>
      <trkpt lat="45.5908" lon="4.56572">
        <ele>731.6</ele>
        <time>2019-04-28T06:58:39Z</time>
      </trkpt>
      <trkpt lat="45.59078" lon="4.56571">
        <ele>731.8</ele>
        <time>2019-04-28T06:58:40Z</time>
      </trkpt>
      <trkpt lat="45.59073" lon="4.5657">
        <ele>732.2</ele>
        <time>2019-04-28T06:58:42Z</time>
      </trkpt>
      <trkpt lat="45.59068" lon="4.56569">
        <ele>732.6</ele>
        <time>2019-04-28T06:58:44Z</time>
      </trkpt>
      <trkpt lat="45.59065" lon="4.56568">
        <ele>732.9</ele>
        <time>2019-04-28T06:58:46Z</time>
      </trkpt>
      <trkpt lat="45.59062" lon="4.56567">
        <ele>733</ele>
        <time>2019-04-28T06:58:47Z</time>
      </trkpt>
      <trkpt lat="45.5906" lon="4.56567">
        <ele>733.3</ele>
        <time>2019-04-28T06:58:48Z</time>
      </trkpt>
      <trkpt lat="45.59055" lon="4.56565">
        <ele>733.7</ele>
        <time>2019-04-28T06:58:50Z</time>
      </trkpt>
      <trkpt lat="45.5905" lon="4.56564">
        <ele>734</ele>
        <time>2019-04-28T06:58:52Z</time>
      </trkpt>
      <trkpt lat="45.59046" lon="4.56564">
        <ele>734.4</ele>
        <time>2019-04-28T06:58:54Z</time>
      </trkpt>
      <trkpt lat="45.59042" lon="4.56564">
        <ele>734.7</ele>
        <time>2019-04-28T06:58:56Z</time>
      </trkpt>
      <trkpt lat="45.59038" lon="4.56564">
        <ele>735</ele>
        <time>2019-04-28T06:58:58Z</time>
      </trkpt>
      <trkpt lat="45.59034" lon="4.56562">
        <ele>735.3</ele>
        <time>2019-04-28T06:59:00Z</time>
      </trkpt>
      <trkpt lat="45.59031" lon="4.56561">
        <ele>735.6</ele>
        <time>2019-04-28T06:59:02Z</time>
      </trkpt>
      <trkpt lat="45.59027" lon="4.56558">
        <ele>735.9</ele>
        <time>2019-04-28T06:59:04Z</time>
      </trkpt>
      <trkpt lat="45.59024" lon="4.56556">
        <ele>736.2</ele>
        <time>2019-04-28T06:59:06Z</time>
      </trkpt>
      <trkpt lat="45.59019" lon="4.56556">
        <ele>736.5</ele>
        <time>2019-04-28T06:59:08Z</time>
      </trkpt>
      <trkpt lat="45.59017" lon="4.56556">
        <ele>736.7</ele>
        <time>2019-04-28T06:59:09Z</time>
      </trkpt>
      <trkpt lat="45.59011" lon="4.56554">
        <ele>737.2</ele>
        <time>2019-04-28T06:59:11Z</time>
      </trkpt>
      <trkpt lat="45.59001" lon="4.56552">
        <ele>737.9</ele>
        <time>2019-04-28T06:59:15Z</time>
      </trkpt>
      <trkpt lat="45.58995" lon="4.56551">
        <ele>738.3</ele>
        <time>2019-04-28T06:59:17Z</time>
      </trkpt>
      <trkpt lat="45.58983" lon="4.56551">
        <ele>739.1</ele>
        <time>2019-04-28T06:59:22Z</time>
      </trkpt>
      <trkpt lat="45.58979" lon="4.5655">
        <ele>739.3</ele>
        <time>2019-04-28T06:59:24Z</time>
      </trkpt>
      <trkpt lat="45.58976" lon="4.5655">
        <ele>739.4</ele>
        <time>2019-04-28T06:59:25Z</time>
      </trkpt>
      <trkpt lat="45.58968" lon="4.56548">
        <ele>739.8</ele>
        <time>2019-04-28T06:59:28Z</time>
      </trkpt>
      <trkpt lat="45.58959" lon="4.56546">
        <ele>740.4</ele>
        <time>2019-04-28T06:59:32Z</time>
      </trkpt>
      <trkpt lat="45.58957" lon="4.56546">
        <ele>740.5</ele>
        <time>2019-04-28T06:59:33Z</time>
      </trkpt>
      <trkpt lat="45.58953" lon="4.56545">
        <ele>740.7</ele>
        <time>2019-04-28T06:59:35Z</time>
      </trkpt>
      <trkpt lat="45.58943" lon="4.56544">
        <ele>741.4</ele>
        <time>2019-04-28T06:59:40Z</time>
      </trkpt>
      <trkpt lat="45.58941" lon="4.56544">
        <ele>741.5</ele>
        <time>2019-04-28T06:59:41Z</time>
      </trkpt>
      <trkpt lat="45.58936" lon="4.56543">
        <ele>741.9</ele>
        <time>2019-04-28T06:59:43Z</time>
      </trkpt>
      <trkpt lat="45.5893" lon="4.56542">
        <ele>742.2</ele>
        <time>2019-04-28T06:59:45Z</time>
      </trkpt>
      <trkpt lat="45.58925" lon="4.56541">
        <ele>742.4</ele>
        <time>2019-04-28T06:59:47Z</time>
      </trkpt>
      <trkpt lat="45.58924" lon="4.56541">
        <ele>742.6</ele>
        <time>2019-04-28T06:59:48Z</time>
      </trkpt>
      <trkpt lat="45.58921" lon="4.56541">
        <ele>742.7</ele>
        <time>2019-04-28T06:59:49Z</time>
      </trkpt>
      <trkpt lat="45.58919" lon="4.56541">
        <ele>742.9</ele>
        <time>2019-04-28T06:59:50Z</time>
      </trkpt>
      <trkpt lat="45.58911" lon="4.56542">
        <ele>743.4</ele>
        <time>2019-04-28T06:59:53Z</time>
      </trkpt>
      <trkpt lat="45.58905" lon="4.56542">
        <ele>743.7</ele>
        <time>2019-04-28T06:59:55Z</time>
      </trkpt>
      <trkpt lat="45.589" lon="4.56542">
        <ele>744.2</ele>
        <time>2019-04-28T06:59:57Z</time>
      </trkpt>
      <trkpt lat="45.5888" lon="4.56544">
        <ele>746.1</ele>
        <time>2019-04-28T07:00:04Z</time>
      </trkpt>
      <trkpt lat="45.58872" lon="4.56546">
        <ele>746.9</ele>
        <time>2019-04-28T07:00:08Z</time>
      </trkpt>
      <trkpt lat="45.58863" lon="4.56548">
        <ele>747.5</ele>
        <time>2019-04-28T07:00:11Z</time>
      </trkpt>
      <trkpt lat="45.58843" lon="4.56552">
        <ele>749.1</ele>
        <time>2019-04-28T07:00:18Z</time>
      </trkpt>
      <trkpt lat="45.5883" lon="4.56553">
        <ele>749.9</ele>
        <time>2019-04-28T07:00:25Z</time>
      </trkpt>
      <trkpt lat="45.58823" lon="4.56554">
        <ele>750.2</ele>
        <time>2019-04-28T07:00:28Z</time>
      </trkpt>
      <trkpt lat="45.58814" lon="4.56555">
        <ele>750.7</ele>
        <time>2019-04-28T07:00:31Z</time>
      </trkpt>
      <trkpt lat="45.58796" lon="4.56554">
        <ele>751.5</ele>
        <time>2019-04-28T07:00:38Z</time>
      </trkpt>
      <trkpt lat="45.58791" lon="4.56552">
        <ele>751.8</ele>
        <time>2019-04-28T07:00:40Z</time>
      </trkpt>
      <trkpt lat="45.5878" lon="4.56549">
        <ele>752.3</ele>
        <time>2019-04-28T07:00:44Z</time>
      </trkpt>
      <trkpt lat="45.58765" lon="4.56548">
        <ele>753</ele>
        <time>2019-04-28T07:00:51Z</time>
      </trkpt>
      <trkpt lat="45.58755" lon="4.56545">
        <ele>753.6</ele>
        <time>2019-04-28T07:00:56Z</time>
      </trkpt>
      <trkpt lat="45.58742" lon="4.56543">
        <ele>754.4</ele>
        <time>2019-04-28T07:01:02Z</time>
      </trkpt>
      <trkpt lat="45.58727" lon="4.56546">
        <ele>755.3</ele>
        <time>2019-04-28T07:01:09Z</time>
      </trkpt>
      <trkpt lat="45.58725" lon="4.56546">
        <ele>755.4</ele>
        <time>2019-04-28T07:01:10Z</time>
      </trkpt>
      <trkpt lat="45.58717" lon="4.56546">
        <ele>755.8</ele>
        <time>2019-04-28T07:01:13Z</time>
      </trkpt>
      <trkpt lat="45.58711" lon="4.56545">
        <ele>756.1</ele>
        <time>2019-04-28T07:01:15Z</time>
      </trkpt>
      <trkpt lat="45.58708" lon="4.56544">
        <ele>756.3</ele>
        <time>2019-04-28T07:01:17Z</time>
      </trkpt>
      <trkpt lat="45.58697" lon="4.56544">
        <ele>756.9</ele>
        <time>2019-04-28T07:01:23Z</time>
      </trkpt>
      <trkpt lat="45.58685" lon="4.56538">
        <ele>757.4</ele>
        <time>2019-04-28T07:01:29Z</time>
      </trkpt>
      <trkpt lat="45.5868" lon="4.56536">
        <ele>757.7</ele>
        <time>2019-04-28T07:01:31Z</time>
      </trkpt>
      <trkpt lat="45.58665" lon="4.56531">
        <ele>758.4</ele>
        <time>2019-04-28T07:01:37Z</time>
      </trkpt>
      <trkpt lat="45.58657" lon="4.56527">
        <ele>758.7</ele>
        <time>2019-04-28T07:01:40Z</time>
      </trkpt>
      <trkpt lat="45.58647" lon="4.56524">
        <ele>759.1</ele>
        <time>2019-04-28T07:01:44Z</time>
      </trkpt>
      <trkpt lat="45.5863" lon="4.56517">
        <ele>759.8</ele>
        <time>2019-04-28T07:01:51Z</time>
      </trkpt>
      <trkpt lat="45.58624" lon="4.56515">
        <ele>760.1</ele>
        <time>2019-04-28T07:01:53Z</time>
      </trkpt>
      <trkpt lat="45.58611" lon="4.56507">
        <ele>760.9</ele>
        <time>2019-04-28T07:01:58Z</time>
      </trkpt>
      <trkpt lat="45.58604" lon="4.56502">
        <ele>761.4</ele>
        <time>2019-04-28T07:02:01Z</time>
      </trkpt>
      <trkpt lat="45.58591" lon="4.56496">
        <ele>762.3</ele>
        <time>2019-04-28T07:02:06Z</time>
      </trkpt>
      <trkpt lat="45.58588" lon="4.56495">
        <ele>762.4</ele>
        <time>2019-04-28T07:02:07Z</time>
      </trkpt>
      <trkpt lat="45.58578" lon="4.5649">
        <ele>763.1</ele>
        <time>2019-04-28T07:02:12Z</time>
      </trkpt>
      <trkpt lat="45.58577" lon="4.5649">
        <ele>763.2</ele>
        <time>2019-04-28T07:02:13Z</time>
      </trkpt>
      <trkpt lat="45.58567" lon="4.56487">
        <ele>763.9</ele>
        <time>2019-04-28T07:02:18Z</time>
      </trkpt>
      <trkpt lat="45.58564" lon="4.56486">
        <ele>764.1</ele>
        <time>2019-04-28T07:02:20Z</time>
      </trkpt>
      <trkpt lat="45.58552" lon="4.56481">
        <ele>765</ele>
        <time>2019-04-28T07:02:27Z</time>
      </trkpt>
      <trkpt lat="45.58547" lon="4.56481">
        <ele>765.3</ele>
        <time>2019-04-28T07:02:30Z</time>
      </trkpt>
      <trkpt lat="45.58545" lon="4.5648">
        <ele>765.5</ele>
        <time>2019-04-28T07:02:31Z</time>
      </trkpt>
      <trkpt lat="45.58532" lon="4.56472">
        <ele>766.4</ele>
        <time>2019-04-28T07:02:40Z</time>
      </trkpt>
      <trkpt lat="45.58522" lon="4.56464">
        <ele>767</ele>
        <time>2019-04-28T07:02:47Z</time>
      </trkpt>
      <trkpt lat="45.58507" lon="4.56455">
        <ele>767.9</ele>
        <time>2019-04-28T07:02:54Z</time>
      </trkpt>
      <trkpt lat="45.58505" lon="4.56453">
        <ele>768</ele>
        <time>2019-04-28T07:02:55Z</time>
      </trkpt>
      <trkpt lat="45.58493" lon="4.56439">
        <ele>768.9</ele>
        <time>2019-04-28T07:03:02Z</time>
      </trkpt>
      <trkpt lat="45.58455" lon="4.56393">
        <ele>771.7</ele>
        <time>2019-04-28T07:03:26Z</time>
      </trkpt>
      <trkpt lat="45.5845" lon="4.56385">
        <ele>772.1</ele>
        <time>2019-04-28T07:03:30Z</time>
      </trkpt>
      <trkpt lat="45.58441" lon="4.56372">
        <ele>772.7</ele>
        <time>2019-04-28T07:03:36Z</time>
      </trkpt>
      <trkpt lat="45.58438" lon="4.56368">
        <ele>772.9</ele>
        <time>2019-04-28T07:03:38Z</time>
      </trkpt>
      <trkpt lat="45.58424" lon="4.56354">
        <ele>773.4</ele>
        <time>2019-04-28T07:03:45Z</time>
      </trkpt>
      <trkpt lat="45.58412" lon="4.56338">
        <ele>773.9</ele>
        <time>2019-04-28T07:03:53Z</time>
      </trkpt>
      <trkpt lat="45.58398" lon="4.56323">
        <ele>774.6</ele>
        <time>2019-04-28T07:03:59Z</time>
      </trkpt>
      <trkpt lat="45.58384" lon="4.5631">
        <ele>775.5</ele>
        <time>2019-04-28T07:04:05Z</time>
      </trkpt>
      <trkpt lat="45.58366" lon="4.56296">
        <ele>776.7</ele>
        <time>2019-04-28T07:04:13Z</time>
      </trkpt>
      <trkpt lat="45.58364" lon="4.56294">
        <ele>776.8</ele>
        <time>2019-04-28T07:04:14Z</time>
      </trkpt>
      <trkpt lat="45.58354" lon="4.56288">
        <ele>777.4</ele>
        <time>2019-04-28T07:04:19Z</time>
      </trkpt>
      <trkpt lat="45.5834" lon="4.5628">
        <ele>778</ele>
        <time>2019-04-28T07:04:26Z</time>
      </trkpt>
      <trkpt lat="45.58325" lon="4.56265">
        <ele>778.9</ele>
        <time>2019-04-28T07:04:35Z</time>
      </trkpt>
      <trkpt lat="45.58323" lon="4.56263">
        <ele>779</ele>
        <time>2019-04-28T07:04:36Z</time>
      </trkpt>
      <trkpt lat="45.58313" lon="4.56251">
        <ele>779.8</ele>
        <time>2019-04-28T07:04:42Z</time>
      </trkpt>
      <trkpt lat="45.58305" lon="4.56241">
        <ele>780.4</ele>
        <time>2019-04-28T07:04:47Z</time>
      </trkpt>
      <trkpt lat="45.583" lon="4.56233">
        <ele>780.8</ele>
        <time>2019-04-28T07:04:50Z</time>
      </trkpt>
      <trkpt lat="45.58298" lon="4.5623">
        <ele>780.9</ele>
        <time>2019-04-28T07:04:51Z</time>
      </trkpt>
      <trkpt lat="45.58292" lon="4.56222">
        <ele>781.4</ele>
        <time>2019-04-28T07:04:55Z</time>
      </trkpt>
      <trkpt lat="45.58287" lon="4.56215">
        <ele>781.6</ele>
        <time>2019-04-28T07:04:58Z</time>
      </trkpt>
      <trkpt lat="45.58285" lon="4.56213">
        <ele>781.7</ele>
        <time>2019-04-28T07:04:59Z</time>
      </trkpt>
      <trkpt lat="45.58277" lon="4.56201">
        <ele>782</ele>
        <time>2019-04-28T07:05:04Z</time>
      </trkpt>
      <trkpt lat="45.58272" lon="4.56194">
        <ele>782.3</ele>
        <time>2019-04-28T07:05:07Z</time>
      </trkpt>
      <trkpt lat="45.58264" lon="4.56184">
        <ele>782.8</ele>
        <time>2019-04-28T07:05:11Z</time>
      </trkpt>
      <trkpt lat="45.58262" lon="4.56182">
        <ele>782.9</ele>
        <time>2019-04-28T07:05:12Z</time>
      </trkpt>
      <trkpt lat="45.58249" lon="4.56166">
        <ele>783.6</ele>
        <time>2019-04-28T07:05:19Z</time>
      </trkpt>
      <trkpt lat="45.58248" lon="4.56163">
        <ele>783.7</ele>
        <time>2019-04-28T07:05:20Z</time>
      </trkpt>
      <trkpt lat="45.58241" lon="4.5615">
        <ele>784.1</ele>
        <time>2019-04-28T07:05:25Z</time>
      </trkpt>
      <trkpt lat="45.58233" lon="4.56134">
        <ele>784.6</ele>
        <time>2019-04-28T07:05:31Z</time>
      </trkpt>
      <trkpt lat="45.5823" lon="4.56128">
        <ele>784.9</ele>
        <time>2019-04-28T07:05:33Z</time>
      </trkpt>
      <trkpt lat="45.58228" lon="4.56124">
        <ele>785.1</ele>
        <time>2019-04-28T07:05:34Z</time>
      </trkpt>
      <trkpt lat="45.58224" lon="4.56117">
        <ele>785.4</ele>
        <time>2019-04-28T07:05:36Z</time>
      </trkpt>
      <trkpt lat="45.58213" lon="4.56093">
        <ele>786.6</ele>
        <time>2019-04-28T07:05:43Z</time>
      </trkpt>
      <trkpt lat="45.58211" lon="4.56087">
        <ele>786.9</ele>
        <time>2019-04-28T07:05:45Z</time>
      </trkpt>
      <trkpt lat="45.58203" lon="4.56071">
        <ele>787.7</ele>
        <time>2019-04-28T07:05:50Z</time>
      </trkpt>
      <trkpt lat="45.58192" lon="4.5605">
        <ele>788.5</ele>
        <time>2019-04-28T07:05:57Z</time>
      </trkpt>
      <trkpt lat="45.58188" lon="4.56043">
        <ele>788.7</ele>
        <time>2019-04-28T07:05:59Z</time>
      </trkpt>
      <trkpt lat="45.58182" lon="4.56034">
        <ele>789</ele>
        <time>2019-04-28T07:06:02Z</time>
      </trkpt>
      <trkpt lat="45.58176" lon="4.56026">
        <ele>789.4</ele>
        <time>2019-04-28T07:06:05Z</time>
      </trkpt>
      <trkpt lat="45.58174" lon="4.56024">
        <ele>789.6</ele>
        <time>2019-04-28T07:06:06Z</time>
      </trkpt>
      <trkpt lat="45.58167" lon="4.56012">
        <ele>790.1</ele>
        <time>2019-04-28T07:06:10Z</time>
      </trkpt>
      <trkpt lat="45.58163" lon="4.56006">
        <ele>790.4</ele>
        <time>2019-04-28T07:06:12Z</time>
      </trkpt>
      <trkpt lat="45.5816" lon="4.56">
        <ele>790.6</ele>
        <time>2019-04-28T07:06:14Z</time>
      </trkpt>
      <trkpt lat="45.58153" lon="4.55984">
        <ele>791.1</ele>
        <time>2019-04-28T07:06:19Z</time>
      </trkpt>
      <trkpt lat="45.5815" lon="4.55977">
        <ele>791.3</ele>
        <time>2019-04-28T07:06:21Z</time>
      </trkpt>
      <trkpt lat="45.58137" lon="4.55952">
        <ele>792.2</ele>
        <time>2019-04-28T07:06:28Z</time>
      </trkpt>
      <trkpt lat="45.58122" lon="4.55925">
        <ele>793.4</ele>
        <time>2019-04-28T07:06:36Z</time>
      </trkpt>
      <trkpt lat="45.58113" lon="4.55912">
        <ele>794.1</ele>
        <time>2019-04-28T07:06:41Z</time>
      </trkpt>
      <trkpt lat="45.5811" lon="4.55906">
        <ele>794.3</ele>
        <time>2019-04-28T07:06:43Z</time>
      </trkpt>
      <trkpt lat="45.58102" lon="4.55888">
        <ele>795.2</ele>
        <time>2019-04-28T07:06:49Z</time>
      </trkpt>
      <trkpt lat="45.58101" lon="4.55885">
        <ele>795.4</ele>
        <time>2019-04-28T07:06:50Z</time>
      </trkpt>
      <trkpt lat="45.58096" lon="4.55875">
        <ele>795.9</ele>
        <time>2019-04-28T07:06:53Z</time>
      </trkpt>
      <trkpt lat="45.5809" lon="4.55861">
        <ele>796.4</ele>
        <time>2019-04-28T07:06:57Z</time>
      </trkpt>
      <trkpt lat="45.58088" lon="4.55858">
        <ele>796.6</ele>
        <time>2019-04-28T07:06:58Z</time>
      </trkpt>
      <trkpt lat="45.58081" lon="4.55835">
        <ele>797.2</ele>
        <time>2019-04-28T07:07:05Z</time>
      </trkpt>
      <trkpt lat="45.58079" lon="4.55832">
        <ele>797.3</ele>
        <time>2019-04-28T07:07:06Z</time>
      </trkpt>
      <trkpt lat="45.58075" lon="4.55818">
        <ele>797.9</ele>
        <time>2019-04-28T07:07:10Z</time>
      </trkpt>
      <trkpt lat="45.5807" lon="4.55806">
        <ele>798.4</ele>
        <time>2019-04-28T07:07:14Z</time>
      </trkpt>
      <trkpt lat="45.58065" lon="4.55797">
        <ele>798.8</ele>
        <time>2019-04-28T07:07:17Z</time>
      </trkpt>
      <trkpt lat="45.58057" lon="4.55788">
        <ele>799.4</ele>
        <time>2019-04-28T07:07:21Z</time>
      </trkpt>
      <trkpt lat="45.58043" lon="4.55771">
        <ele>801</ele>
        <time>2019-04-28T07:07:28Z</time>
      </trkpt>
      <trkpt lat="45.58039" lon="4.55767">
        <ele>801.3</ele>
        <time>2019-04-28T07:07:30Z</time>
      </trkpt>
      <trkpt lat="45.58035" lon="4.55761">
        <ele>801.9</ele>
        <time>2019-04-28T07:07:33Z</time>
      </trkpt>
      <trkpt lat="45.58028" lon="4.55753">
        <ele>802.6</ele>
        <time>2019-04-28T07:07:37Z</time>
      </trkpt>
      <trkpt lat="45.5802" lon="4.55746">
        <ele>803.5</ele>
        <time>2019-04-28T07:07:42Z</time>
      </trkpt>
      <trkpt lat="45.58016" lon="4.55744">
        <ele>803.9</ele>
        <time>2019-04-28T07:07:44Z</time>
      </trkpt>
      <trkpt lat="45.5801" lon="4.55738">
        <ele>804.6</ele>
        <time>2019-04-28T07:07:48Z</time>
      </trkpt>
      <trkpt lat="45.58002" lon="4.55731">
        <ele>805.4</ele>
        <time>2019-04-28T07:07:52Z</time>
      </trkpt>
      <trkpt lat="45.57997" lon="4.55727">
        <ele>806.1</ele>
        <time>2019-04-28T07:07:56Z</time>
      </trkpt>
      <trkpt lat="45.57992" lon="4.55726">
        <ele>806.6</ele>
        <time>2019-04-28T07:07:59Z</time>
      </trkpt>
      <trkpt lat="45.5799" lon="4.55725">
        <ele>806.4</ele>
        <time>2019-04-28T07:08:01Z</time>
      </trkpt>
      <trkpt lat="45.57986" lon="4.55721">
        <ele>806.2</ele>
        <time>2019-04-28T07:08:04Z</time>
      </trkpt>
      <trkpt lat="45.57985" lon="4.55719">
        <ele>806.2</ele>
        <time>2019-04-28T07:08:05Z</time>
      </trkpt>
      <trkpt lat="45.57981" lon="4.55712">
        <ele>805.8</ele>
        <time>2019-04-28T07:08:40Z</time>
      </trkpt>
      <trkpt lat="45.57979" lon="4.5571">
        <ele>805.7</ele>
        <time>2019-04-28T07:08:41Z</time>
      </trkpt>
      <trkpt lat="45.57967" lon="4.55688">
        <ele>804.2</ele>
        <time>2019-04-28T07:08:48Z</time>
      </trkpt>
      <trkpt lat="45.57957" lon="4.55667">
        <ele>802.9</ele>
        <time>2019-04-28T07:08:53Z</time>
      </trkpt>
      <trkpt lat="45.57951" lon="4.55654">
        <ele>802.7</ele>
        <time>2019-04-28T07:08:56Z</time>
      </trkpt>
      <trkpt lat="45.57937" lon="4.55618">
        <ele>803.3</ele>
        <time>2019-04-28T07:09:03Z</time>
      </trkpt>
      <trkpt lat="45.57923" lon="4.55595">
        <ele>804.3</ele>
        <time>2019-04-28T07:09:09Z</time>
      </trkpt>
      <trkpt lat="45.57922" lon="4.5559">
        <ele>804.5</ele>
        <time>2019-04-28T07:09:10Z</time>
      </trkpt>
      <trkpt lat="45.57921" lon="4.5558">
        <ele>804.6</ele>
        <time>2019-04-28T07:09:12Z</time>
      </trkpt>
      <trkpt lat="45.57916" lon="4.55567">
        <ele>804.7</ele>
        <time>2019-04-28T07:09:15Z</time>
      </trkpt>
      <trkpt lat="45.57914" lon="4.55558">
        <ele>804.8</ele>
        <time>2019-04-28T07:09:17Z</time>
      </trkpt>
      <trkpt lat="45.57914" lon="4.55553">
        <ele>804.9</ele>
        <time>2019-04-28T07:09:18Z</time>
      </trkpt>
      <trkpt lat="45.57914" lon="4.55535">
        <ele>805.1</ele>
        <time>2019-04-28T07:09:22Z</time>
      </trkpt>
      <trkpt lat="45.57913" lon="4.55527">
        <ele>805.1</ele>
        <time>2019-04-28T07:09:24Z</time>
      </trkpt>
      <trkpt lat="45.5791" lon="4.55514">
        <ele>805.3</ele>
        <time>2019-04-28T07:09:27Z</time>
      </trkpt>
      <trkpt lat="45.57905" lon="4.55487">
        <ele>805.6</ele>
        <time>2019-04-28T07:09:33Z</time>
      </trkpt>
      <trkpt lat="45.57904" lon="4.55477">
        <ele>805.6</ele>
        <time>2019-04-28T07:09:35Z</time>
      </trkpt>
      <trkpt lat="45.579" lon="4.55451">
        <ele>805.8</ele>
        <time>2019-04-28T07:09:41Z</time>
      </trkpt>
      <trkpt lat="45.57898" lon="4.55447">
        <ele>805.9</ele>
        <time>2019-04-28T07:09:42Z</time>
      </trkpt>
      <trkpt lat="45.57885" lon="4.55425">
        <ele>806.5</ele>
        <time>2019-04-28T07:09:48Z</time>
      </trkpt>
      <trkpt lat="45.57871" lon="4.55398">
        <ele>807.4</ele>
        <time>2019-04-28T07:09:55Z</time>
      </trkpt>
      <trkpt lat="45.5787" lon="4.55393">
        <ele>807.5</ele>
        <time>2019-04-28T07:09:56Z</time>
      </trkpt>
      <trkpt lat="45.57862" lon="4.5537">
        <ele>807.8</ele>
        <time>2019-04-28T07:10:02Z</time>
      </trkpt>
      <trkpt lat="45.57855" lon="4.5534">
        <ele>808.1</ele>
        <time>2019-04-28T07:10:09Z</time>
      </trkpt>
      <trkpt lat="45.57854" lon="4.55332">
        <ele>808.2</ele>
        <time>2019-04-28T07:10:11Z</time>
      </trkpt>
      <trkpt lat="45.57852" lon="4.55318">
        <ele>808.4</ele>
        <time>2019-04-28T07:10:14Z</time>
      </trkpt>
      <trkpt lat="45.57851" lon="4.55299">
        <ele>808.5</ele>
        <time>2019-04-28T07:10:18Z</time>
      </trkpt>
      <trkpt lat="45.57849" lon="4.55276">
        <ele>808.7</ele>
        <time>2019-04-28T07:10:23Z</time>
      </trkpt>
      <trkpt lat="45.57849" lon="4.55272">
        <ele>808.7</ele>
        <time>2019-04-28T07:10:24Z</time>
      </trkpt>
      <trkpt lat="45.57847" lon="4.55236">
        <ele>809.7</ele>
        <time>2019-04-28T07:10:32Z</time>
      </trkpt>
      <trkpt lat="45.57848" lon="4.55231">
        <ele>810.1</ele>
        <time>2019-04-28T07:10:33Z</time>
      </trkpt>
      <trkpt lat="45.57852" lon="4.55201">
        <ele>812</ele>
        <time>2019-04-28T07:10:39Z</time>
      </trkpt>
      <trkpt lat="45.57853" lon="4.5516">
        <ele>814</ele>
        <time>2019-04-28T07:10:47Z</time>
      </trkpt>
      <trkpt lat="45.57853" lon="4.55154">
        <ele>814.3</ele>
        <time>2019-04-28T07:10:48Z</time>
      </trkpt>
      <trkpt lat="45.57854" lon="4.55135">
        <ele>815.1</ele>
        <time>2019-04-28T07:10:51Z</time>
      </trkpt>
      <trkpt lat="45.57857" lon="4.55115">
        <ele>816.9</ele>
        <time>2019-04-28T07:10:55Z</time>
      </trkpt>
      <trkpt lat="45.57859" lon="4.55111">
        <ele>817.2</ele>
        <time>2019-04-28T07:10:56Z</time>
      </trkpt>
      <trkpt lat="45.57865" lon="4.55081">
        <ele>818.4</ele>
        <time>2019-04-28T07:11:02Z</time>
      </trkpt>
      <trkpt lat="45.57873" lon="4.55051">
        <ele>819.1</ele>
        <time>2019-04-28T07:11:09Z</time>
      </trkpt>
      <trkpt lat="45.5788" lon="4.55024">
        <ele>820</ele>
        <time>2019-04-28T07:11:16Z</time>
      </trkpt>
      <trkpt lat="45.57882" lon="4.55016">
        <ele>820.3</ele>
        <time>2019-04-28T07:11:18Z</time>
      </trkpt>
      <trkpt lat="45.57885" lon="4.55007">
        <ele>820.7</ele>
        <time>2019-04-28T07:11:20Z</time>
      </trkpt>
      <trkpt lat="45.5789" lon="4.54978">
        <ele>821.9</ele>
        <time>2019-04-28T07:11:27Z</time>
      </trkpt>
      <trkpt lat="45.57891" lon="4.54974">
        <ele>822.1</ele>
        <time>2019-04-28T07:11:28Z</time>
      </trkpt>
      <trkpt lat="45.57893" lon="4.54962">
        <ele>822.7</ele>
        <time>2019-04-28T07:11:31Z</time>
      </trkpt>
      <trkpt lat="45.57894" lon="4.54957">
        <ele>822.9</ele>
        <time>2019-04-28T07:11:32Z</time>
      </trkpt>
      <trkpt lat="45.57894" lon="4.54945">
        <ele>823.6</ele>
        <time>2019-04-28T07:11:35Z</time>
      </trkpt>
      <trkpt lat="45.57894" lon="4.5493">
        <ele>824.6</ele>
        <time>2019-04-28T07:11:39Z</time>
      </trkpt>
      <trkpt lat="45.57894" lon="4.54927">
        <ele>824.9</ele>
        <time>2019-04-28T07:11:40Z</time>
      </trkpt>
      <trkpt lat="45.57895" lon="4.54907">
        <ele>826</ele>
        <time>2019-04-28T07:11:45Z</time>
      </trkpt>
      <trkpt lat="45.57895" lon="4.54903">
        <ele>826.3</ele>
        <time>2019-04-28T07:11:46Z</time>
      </trkpt>
      <trkpt lat="45.57895" lon="4.54892">
        <ele>827.2</ele>
        <time>2019-04-28T07:11:49Z</time>
      </trkpt>
      <trkpt lat="45.57896" lon="4.54876">
        <ele>827.9</ele>
        <time>2019-04-28T07:11:53Z</time>
      </trkpt>
      <trkpt lat="45.57896" lon="4.54869">
        <ele>828.3</ele>
        <time>2019-04-28T07:11:55Z</time>
      </trkpt>
      <trkpt lat="45.57897" lon="4.54866">
        <ele>828.4</ele>
        <time>2019-04-28T07:11:56Z</time>
      </trkpt>
      <trkpt lat="45.57898" lon="4.54845">
        <ele>829.8</ele>
        <time>2019-04-28T07:12:02Z</time>
      </trkpt>
      <trkpt lat="45.57898" lon="4.54842">
        <ele>830</ele>
        <time>2019-04-28T07:12:03Z</time>
      </trkpt>
      <trkpt lat="45.57898" lon="4.54823">
        <ele>832.2</ele>
        <time>2019-04-28T07:12:10Z</time>
      </trkpt>
      <trkpt lat="45.57899" lon="4.5481">
        <ele>833.3</ele>
        <time>2019-04-28T07:12:34Z</time>
      </trkpt>
      <trkpt lat="45.57898" lon="4.54804">
        <ele>833.7</ele>
        <time>2019-04-28T07:12:36Z</time>
      </trkpt>
      <trkpt lat="45.579" lon="4.5478">
        <ele>835</ele>
        <time>2019-04-28T07:12:43Z</time>
      </trkpt>
      <trkpt lat="45.579" lon="4.54759">
        <ele>835.8</ele>
        <time>2019-04-28T07:12:49Z</time>
      </trkpt>
      <trkpt lat="45.57903" lon="4.5474">
        <ele>836.2</ele>
        <time>2019-04-28T07:12:55Z</time>
      </trkpt>
      <trkpt lat="45.57907" lon="4.54712">
        <ele>836.6</ele>
        <time>2019-04-28T07:13:02Z</time>
      </trkpt>
      <trkpt lat="45.57907" lon="4.54708">
        <ele>836.6</ele>
        <time>2019-04-28T07:13:03Z</time>
      </trkpt>
      <trkpt lat="45.57908" lon="4.54687">
        <ele>836.9</ele>
        <time>2019-04-28T07:13:09Z</time>
      </trkpt>
      <trkpt lat="45.57906" lon="4.5467">
        <ele>837</ele>
        <time>2019-04-28T07:13:13Z</time>
      </trkpt>
      <trkpt lat="45.57905" lon="4.54666">
        <ele>837</ele>
        <time>2019-04-28T07:13:14Z</time>
      </trkpt>
      <trkpt lat="45.57904" lon="4.54644">
        <ele>837</ele>
        <time>2019-04-28T07:13:19Z</time>
      </trkpt>
      <trkpt lat="45.57905" lon="4.5464">
        <ele>837</ele>
        <time>2019-04-28T07:13:20Z</time>
      </trkpt>
      <trkpt lat="45.57905" lon="4.54623">
        <ele>837.2</ele>
        <time>2019-04-28T07:13:24Z</time>
      </trkpt>
      <trkpt lat="45.57906" lon="4.54616">
        <ele>837.4</ele>
        <time>2019-04-28T07:13:26Z</time>
      </trkpt>
      <trkpt lat="45.57906" lon="4.54612">
        <ele>837.5</ele>
        <time>2019-04-28T07:13:27Z</time>
      </trkpt>
      <trkpt lat="45.57907" lon="4.54596">
        <ele>838.3</ele>
        <time>2019-04-28T07:13:31Z</time>
      </trkpt>
      <trkpt lat="45.57906" lon="4.54585">
        <ele>839</ele>
        <time>2019-04-28T07:13:34Z</time>
      </trkpt>
      <trkpt lat="45.57905" lon="4.54574">
        <ele>839.5</ele>
        <time>2019-04-28T07:13:37Z</time>
      </trkpt>
      <trkpt lat="45.57905" lon="4.54568">
        <ele>839.7</ele>
        <time>2019-04-28T07:13:39Z</time>
      </trkpt>
      <trkpt lat="45.57904" lon="4.54561">
        <ele>839.9</ele>
        <time>2019-04-28T07:13:41Z</time>
      </trkpt>
      <trkpt lat="45.57903" lon="4.54555">
        <ele>840</ele>
        <time>2019-04-28T07:13:43Z</time>
      </trkpt>
      <trkpt lat="45.57899" lon="4.54547">
        <ele>840.3</ele>
        <time>2019-04-28T07:13:46Z</time>
      </trkpt>
      <trkpt lat="45.57898" lon="4.54543">
        <ele>840.4</ele>
        <time>2019-04-28T07:13:47Z</time>
      </trkpt>
      <trkpt lat="45.57896" lon="4.54539">
        <ele>840.4</ele>
        <time>2019-04-28T07:13:48Z</time>
      </trkpt>
      <trkpt lat="45.57895" lon="4.54527">
        <ele>840.6</ele>
        <time>2019-04-28T07:13:51Z</time>
      </trkpt>
      <trkpt lat="45.57895" lon="4.54516">
        <ele>840.7</ele>
        <time>2019-04-28T07:13:54Z</time>
      </trkpt>
      <trkpt lat="45.57896" lon="4.54512">
        <ele>840.8</ele>
        <time>2019-04-28T07:13:55Z</time>
      </trkpt>
      <trkpt lat="45.57896" lon="4.54506">
        <ele>840.9</ele>
        <time>2019-04-28T07:13:57Z</time>
      </trkpt>
      <trkpt lat="45.57895" lon="4.545">
        <ele>841</ele>
        <time>2019-04-28T07:13:59Z</time>
      </trkpt>
      <trkpt lat="45.57894" lon="4.54496">
        <ele>841.1</ele>
        <time>2019-04-28T07:14:00Z</time>
      </trkpt>
      <trkpt lat="45.57892" lon="4.5449">
        <ele>841.3</ele>
        <time>2019-04-28T07:14:02Z</time>
      </trkpt>
      <trkpt lat="45.5789" lon="4.54487">
        <ele>841.4</ele>
        <time>2019-04-28T07:14:03Z</time>
      </trkpt>
      <trkpt lat="45.57887" lon="4.5448">
        <ele>841.6</ele>
        <time>2019-04-28T07:14:05Z</time>
      </trkpt>
      <trkpt lat="45.57886" lon="4.54477">
        <ele>841.8</ele>
        <time>2019-04-28T07:14:06Z</time>
      </trkpt>
      <trkpt lat="45.57884" lon="4.54474">
        <ele>841.9</ele>
        <time>2019-04-28T07:14:07Z</time>
      </trkpt>
      <trkpt lat="45.57882" lon="4.54469">
        <ele>842.1</ele>
        <time>2019-04-28T07:14:09Z</time>
      </trkpt>
      <trkpt lat="45.57877" lon="4.54459">
        <ele>842.6</ele>
        <time>2019-04-28T07:14:12Z</time>
      </trkpt>
      <trkpt lat="45.57875" lon="4.54454">
        <ele>843</ele>
        <time>2019-04-28T07:14:14Z</time>
      </trkpt>
      <trkpt lat="45.57868" lon="4.54442">
        <ele>844.3</ele>
        <time>2019-04-28T07:14:19Z</time>
      </trkpt>
      <trkpt lat="45.57866" lon="4.54439">
        <ele>844.7</ele>
        <time>2019-04-28T07:14:20Z</time>
      </trkpt>
      <trkpt lat="45.57864" lon="4.54433">
        <ele>845.6</ele>
        <time>2019-04-28T07:14:22Z</time>
      </trkpt>
      <trkpt lat="45.57856" lon="4.54421">
        <ele>847.4</ele>
        <time>2019-04-28T07:14:26Z</time>
      </trkpt>
      <trkpt lat="45.57842" lon="4.54408">
        <ele>849.2</ele>
        <time>2019-04-28T07:14:31Z</time>
      </trkpt>
      <trkpt lat="45.57835" lon="4.544">
        <ele>849.7</ele>
        <time>2019-04-28T07:14:34Z</time>
      </trkpt>
      <trkpt lat="45.57829" lon="4.54391">
        <ele>850</ele>
        <time>2019-04-28T07:14:38Z</time>
      </trkpt>
      <trkpt lat="45.57822" lon="4.54383">
        <ele>850.2</ele>
        <time>2019-04-28T07:14:42Z</time>
      </trkpt>
      <trkpt lat="45.57812" lon="4.54372">
        <ele>850.6</ele>
        <time>2019-04-28T07:14:47Z</time>
      </trkpt>
      <trkpt lat="45.57808" lon="4.54369">
        <ele>850.7</ele>
        <time>2019-04-28T07:14:49Z</time>
      </trkpt>
      <trkpt lat="45.57793" lon="4.54353">
        <ele>851.4</ele>
        <time>2019-04-28T07:14:56Z</time>
      </trkpt>
      <trkpt lat="45.57781" lon="4.54343">
        <ele>851.9</ele>
        <time>2019-04-28T07:15:02Z</time>
      </trkpt>
      <trkpt lat="45.57765" lon="4.54326">
        <ele>852.5</ele>
        <time>2019-04-28T07:15:09Z</time>
      </trkpt>
      <trkpt lat="45.57755" lon="4.54315">
        <ele>853</ele>
        <time>2019-04-28T07:15:13Z</time>
      </trkpt>
      <trkpt lat="45.57747" lon="4.54305">
        <ele>853.5</ele>
        <time>2019-04-28T07:15:17Z</time>
      </trkpt>
      <trkpt lat="45.57742" lon="4.54299">
        <ele>853.8</ele>
        <time>2019-04-28T07:15:19Z</time>
      </trkpt>
      <trkpt lat="45.57728" lon="4.54283">
        <ele>854.7</ele>
        <time>2019-04-28T07:15:25Z</time>
      </trkpt>
      <trkpt lat="45.5771" lon="4.54263">
        <ele>855.3</ele>
        <time>2019-04-28T07:15:33Z</time>
      </trkpt>
      <trkpt lat="45.577" lon="4.5425">
        <ele>855.8</ele>
        <time>2019-04-28T07:15:38Z</time>
      </trkpt>
      <trkpt lat="45.57697" lon="4.54248">
        <ele>855.9</ele>
        <time>2019-04-28T07:15:39Z</time>
      </trkpt>
      <trkpt lat="45.57681" lon="4.54233">
        <ele>856.6</ele>
        <time>2019-04-28T07:15:45Z</time>
      </trkpt>
      <trkpt lat="45.57661" lon="4.54214">
        <ele>857.5</ele>
        <time>2019-04-28T07:15:52Z</time>
      </trkpt>
      <trkpt lat="45.57649" lon="4.54205">
        <ele>857.9</ele>
        <time>2019-04-28T07:15:56Z</time>
      </trkpt>
      <trkpt lat="45.5764" lon="4.54198">
        <ele>858.2</ele>
        <time>2019-04-28T07:15:59Z</time>
      </trkpt>
      <trkpt lat="45.57628" lon="4.54182">
        <ele>858.5</ele>
        <time>2019-04-28T07:16:04Z</time>
      </trkpt>
      <trkpt lat="45.57623" lon="4.54176">
        <ele>858.6</ele>
        <time>2019-04-28T07:16:06Z</time>
      </trkpt>
      <trkpt lat="45.57611" lon="4.5416">
        <ele>858.6</ele>
        <time>2019-04-28T07:16:11Z</time>
      </trkpt>
      <trkpt lat="45.57605" lon="4.5415">
        <ele>858.4</ele>
        <time>2019-04-28T07:16:14Z</time>
      </trkpt>
      <trkpt lat="45.576" lon="4.5414">
        <ele>858</ele>
        <time>2019-04-28T07:16:16Z</time>
      </trkpt>
      <trkpt lat="45.57592" lon="4.54124">
        <ele>857.2</ele>
        <time>2019-04-28T07:16:19Z</time>
      </trkpt>
      <trkpt lat="45.57584" lon="4.54106">
        <ele>856.3</ele>
        <time>2019-04-28T07:16:22Z</time>
      </trkpt>
      <trkpt lat="45.57583" lon="4.54093">
        <ele>855.9</ele>
        <time>2019-04-28T07:16:24Z</time>
      </trkpt>
      <trkpt lat="45.57583" lon="4.54078">
        <ele>855.6</ele>
        <time>2019-04-28T07:16:26Z</time>
      </trkpt>
      <trkpt lat="45.57582" lon="4.54065">
        <ele>855.4</ele>
        <time>2019-04-28T07:16:28Z</time>
      </trkpt>
      <trkpt lat="45.57582" lon="4.54058">
        <ele>855.3</ele>
        <time>2019-04-28T07:16:29Z</time>
      </trkpt>
      <trkpt lat="45.5758" lon="4.54052">
        <ele>855.3</ele>
        <time>2019-04-28T07:16:30Z</time>
      </trkpt>
      <trkpt lat="45.57573" lon="4.54028">
        <ele>855.6</ele>
        <time>2019-04-28T07:16:34Z</time>
      </trkpt>
      <trkpt lat="45.57571" lon="4.54023">
        <ele>855.7</ele>
        <time>2019-04-28T07:16:35Z</time>
      </trkpt>
      <trkpt lat="45.57569" lon="4.54017">
        <ele>855.8</ele>
        <time>2019-04-28T07:16:36Z</time>
      </trkpt>
      <trkpt lat="45.57565" lon="4.54006">
        <ele>856.1</ele>
        <time>2019-04-28T07:16:38Z</time>
      </trkpt>
      <trkpt lat="45.57563" lon="4.54">
        <ele>856.2</ele>
        <time>2019-04-28T07:16:39Z</time>
      </trkpt>
      <trkpt lat="45.57556" lon="4.53978">
        <ele>856.8</ele>
        <time>2019-04-28T07:16:43Z</time>
      </trkpt>
      <trkpt lat="45.57551" lon="4.53962">
        <ele>857.2</ele>
        <time>2019-04-28T07:16:46Z</time>
      </trkpt>
      <trkpt lat="45.57549" lon="4.53957">
        <ele>857.4</ele>
        <time>2019-04-28T07:16:47Z</time>
      </trkpt>
      <trkpt lat="45.57543" lon="4.53944">
        <ele>858</ele>
        <time>2019-04-28T07:16:50Z</time>
      </trkpt>
      <trkpt lat="45.57541" lon="4.53939">
        <ele>858.2</ele>
        <time>2019-04-28T07:16:51Z</time>
      </trkpt>
      <trkpt lat="45.57536" lon="4.5393">
        <ele>858.7</ele>
        <time>2019-04-28T07:16:53Z</time>
      </trkpt>
      <trkpt lat="45.57532" lon="4.53923">
        <ele>859.2</ele>
        <time>2019-04-28T07:16:55Z</time>
      </trkpt>
      <trkpt lat="45.57526" lon="4.53915">
        <ele>859.7</ele>
        <time>2019-04-28T07:16:57Z</time>
      </trkpt>
      <trkpt lat="45.57522" lon="4.53905">
        <ele>860.2</ele>
        <time>2019-04-28T07:16:59Z</time>
      </trkpt>
      <trkpt lat="45.57517" lon="4.53896">
        <ele>860.7</ele>
        <time>2019-04-28T07:17:01Z</time>
      </trkpt>
      <trkpt lat="45.57515" lon="4.53892">
        <ele>860.9</ele>
        <time>2019-04-28T07:17:02Z</time>
      </trkpt>
      <trkpt lat="45.57509" lon="4.5388">
        <ele>861.6</ele>
        <time>2019-04-28T07:17:05Z</time>
      </trkpt>
      <trkpt lat="45.57505" lon="4.53873">
        <ele>862</ele>
        <time>2019-04-28T07:17:07Z</time>
      </trkpt>
      <trkpt lat="45.575" lon="4.53866">
        <ele>862.4</ele>
        <time>2019-04-28T07:17:09Z</time>
      </trkpt>
      <trkpt lat="45.57495" lon="4.53859">
        <ele>862.7</ele>
        <time>2019-04-28T07:17:11Z</time>
      </trkpt>
      <trkpt lat="45.57481" lon="4.53837">
        <ele>863.2</ele>
        <time>2019-04-28T07:17:17Z</time>
      </trkpt>
      <trkpt lat="45.57479" lon="4.53833">
        <ele>863.2</ele>
        <time>2019-04-28T07:17:18Z</time>
      </trkpt>
      <trkpt lat="45.57469" lon="4.53813">
        <ele>863.3</ele>
        <time>2019-04-28T07:17:24Z</time>
      </trkpt>
      <trkpt lat="45.57463" lon="4.53798">
        <ele>863</ele>
        <time>2019-04-28T07:17:28Z</time>
      </trkpt>
      <trkpt lat="45.57458" lon="4.53793">
        <ele>862.9</ele>
        <time>2019-04-28T07:17:30Z</time>
      </trkpt>
      <trkpt lat="45.57456" lon="4.53791">
        <ele>862.8</ele>
        <time>2019-04-28T07:17:31Z</time>
      </trkpt>
      <trkpt lat="45.57454" lon="4.53788">
        <ele>862.7</ele>
        <time>2019-04-28T07:17:32Z</time>
      </trkpt>
      <trkpt lat="45.5745" lon="4.53782">
        <ele>862.5</ele>
        <time>2019-04-28T07:17:34Z</time>
      </trkpt>
      <trkpt lat="45.57441" lon="4.5377">
        <ele>862</ele>
        <time>2019-04-28T07:17:38Z</time>
      </trkpt>
      <trkpt lat="45.57434" lon="4.53757">
        <ele>862.3</ele>
        <time>2019-04-28T07:17:42Z</time>
      </trkpt>
      <trkpt lat="45.57428" lon="4.53749">
        <ele>862.5</ele>
        <time>2019-04-28T07:17:45Z</time>
      </trkpt>
      <trkpt lat="45.57413" lon="4.53729">
        <ele>863</ele>
        <time>2019-04-28T07:17:52Z</time>
      </trkpt>
      <trkpt lat="45.57397" lon="4.5371">
        <ele>863.5</ele>
        <time>2019-04-28T07:17:59Z</time>
      </trkpt>
      <trkpt lat="45.57381" lon="4.5369">
        <ele>864</ele>
        <time>2019-04-28T07:18:06Z</time>
      </trkpt>
      <trkpt lat="45.57363" lon="4.5366">
        <ele>864.6</ele>
        <time>2019-04-28T07:18:14Z</time>
      </trkpt>
      <trkpt lat="45.57351" lon="4.5363">
        <ele>865.3</ele>
        <time>2019-04-28T07:18:21Z</time>
      </trkpt>
      <trkpt lat="45.57348" lon="4.53622">
        <ele>865.4</ele>
        <time>2019-04-28T07:18:23Z</time>
      </trkpt>
      <trkpt lat="45.57334" lon="4.53594">
        <ele>866.2</ele>
        <time>2019-04-28T07:18:30Z</time>
      </trkpt>
      <trkpt lat="45.57328" lon="4.53571">
        <ele>867</ele>
        <time>2019-04-28T07:18:36Z</time>
      </trkpt>
      <trkpt lat="45.57326" lon="4.53548">
        <ele>868</ele>
        <time>2019-04-28T07:18:41Z</time>
      </trkpt>
      <trkpt lat="45.57317" lon="4.53518">
        <ele>869</ele>
        <time>2019-04-28T07:18:48Z</time>
      </trkpt>
      <trkpt lat="45.57306" lon="4.53491">
        <ele>869.8</ele>
        <time>2019-04-28T07:18:55Z</time>
      </trkpt>
      <trkpt lat="45.57304" lon="4.53487">
        <ele>869.8</ele>
        <time>2019-04-28T07:18:56Z</time>
      </trkpt>
      <trkpt lat="45.57291" lon="4.53459">
        <ele>870</ele>
        <time>2019-04-28T07:19:03Z</time>
      </trkpt>
      <trkpt lat="45.57283" lon="4.53438">
        <ele>869.7</ele>
        <time>2019-04-28T07:19:08Z</time>
      </trkpt>
      <trkpt lat="45.57283" lon="4.53434">
        <ele>869.6</ele>
        <time>2019-04-28T07:19:09Z</time>
      </trkpt>
      <trkpt lat="45.57281" lon="4.53422">
        <ele>869.6</ele>
        <time>2019-04-28T07:19:12Z</time>
      </trkpt>
      <trkpt lat="45.57275" lon="4.53393">
        <ele>870.7</ele>
        <time>2019-04-28T07:19:19Z</time>
      </trkpt>
      <trkpt lat="45.57274" lon="4.53389">
        <ele>871</ele>
        <time>2019-04-28T07:19:20Z</time>
      </trkpt>
      <trkpt lat="45.57272" lon="4.53368">
        <ele>872.2</ele>
        <time>2019-04-28T07:19:25Z</time>
      </trkpt>
      <trkpt lat="45.57272" lon="4.53351">
        <ele>873.1</ele>
        <time>2019-04-28T07:19:29Z</time>
      </trkpt>
      <trkpt lat="45.57274" lon="4.53338">
        <ele>873.7</ele>
        <time>2019-04-28T07:19:32Z</time>
      </trkpt>
      <trkpt lat="45.57277" lon="4.53323">
        <ele>874</ele>
        <time>2019-04-28T07:19:35Z</time>
      </trkpt>
      <trkpt lat="45.57285" lon="4.5327">
        <ele>873.3</ele>
        <time>2019-04-28T07:19:46Z</time>
      </trkpt>
      <trkpt lat="45.57287" lon="4.5322">
        <ele>873.3</ele>
        <time>2019-04-28T07:19:56Z</time>
      </trkpt>
      <trkpt lat="45.57289" lon="4.53173">
        <ele>873.4</ele>
        <time>2019-04-28T07:20:04Z</time>
      </trkpt>
      <trkpt lat="45.57291" lon="4.53119">
        <ele>873.4</ele>
        <time>2019-04-28T07:20:13Z</time>
      </trkpt>
      <trkpt lat="45.5729" lon="4.53058">
        <ele>872.7</ele>
        <time>2019-04-28T07:20:24Z</time>
      </trkpt>
      <trkpt lat="45.57289" lon="4.53043">
        <ele>872.7</ele>
        <time>2019-04-28T07:20:27Z</time>
      </trkpt>
      <trkpt lat="45.57286" lon="4.53018">
        <ele>872.7</ele>
        <time>2019-04-28T07:20:32Z</time>
      </trkpt>
      <trkpt lat="45.57286" lon="4.53014">
        <ele>872.8</ele>
        <time>2019-04-28T07:20:33Z</time>
      </trkpt>
      <trkpt lat="45.57285" lon="4.52991">
        <ele>872.8</ele>
        <time>2019-04-28T07:20:38Z</time>
      </trkpt>
      <trkpt lat="45.57284" lon="4.52982">
        <ele>872.8</ele>
        <time>2019-04-28T07:20:40Z</time>
      </trkpt>
      <trkpt lat="45.57283" lon="4.52962">
        <ele>872.9</ele>
        <time>2019-04-28T07:20:44Z</time>
      </trkpt>
      <trkpt lat="45.57281" lon="4.52951">
        <ele>873</ele>
        <time>2019-04-28T07:20:46Z</time>
      </trkpt>
      <trkpt lat="45.57276" lon="4.52923">
        <ele>873.5</ele>
        <time>2019-04-28T07:20:51Z</time>
      </trkpt>
      <trkpt lat="45.57273" lon="4.52912">
        <ele>873.8</ele>
        <time>2019-04-28T07:20:54Z</time>
      </trkpt>
      <trkpt lat="45.5727" lon="4.52904">
        <ele>874</ele>
        <time>2019-04-28T07:20:56Z</time>
      </trkpt>
      <trkpt lat="45.57265" lon="4.52887">
        <ele>874.6</ele>
        <time>2019-04-28T07:21:00Z</time>
      </trkpt>
      <trkpt lat="45.57257" lon="4.52879">
        <ele>874.9</ele>
        <time>2019-04-28T07:21:04Z</time>
      </trkpt>
      <trkpt lat="45.57255" lon="4.52878">
        <ele>874.9</ele>
        <time>2019-04-28T07:21:05Z</time>
      </trkpt>
      <trkpt lat="45.57243" lon="4.52868">
        <ele>874.5</ele>
        <time>2019-04-28T07:21:09Z</time>
      </trkpt>
      <trkpt lat="45.5724" lon="4.52865">
        <ele>874.4</ele>
        <time>2019-04-28T07:21:10Z</time>
      </trkpt>
      <trkpt lat="45.57227" lon="4.52849">
        <ele>873.9</ele>
        <time>2019-04-28T07:21:14Z</time>
      </trkpt>
      <trkpt lat="45.57224" lon="4.52844">
        <ele>873.8</ele>
        <time>2019-04-28T07:21:15Z</time>
      </trkpt>
      <trkpt lat="45.57221" lon="4.52838">
        <ele>873.6</ele>
        <time>2019-04-28T07:21:16Z</time>
      </trkpt>
      <trkpt lat="45.57209" lon="4.5281">
        <ele>872.5</ele>
        <time>2019-04-28T07:21:20Z</time>
      </trkpt>
      <trkpt lat="45.57201" lon="4.52787">
        <ele>872.6</ele>
        <time>2019-04-28T07:21:23Z</time>
      </trkpt>
      <trkpt lat="45.57189" lon="4.52756">
        <ele>874.1</ele>
        <time>2019-04-28T07:21:27Z</time>
      </trkpt>
      <trkpt lat="45.57186" lon="4.52742">
        <ele>874.5</ele>
        <time>2019-04-28T07:21:29Z</time>
      </trkpt>
      <trkpt lat="45.57184" lon="4.52734">
        <ele>874.6</ele>
        <time>2019-04-28T07:21:30Z</time>
      </trkpt>
      <trkpt lat="45.57182" lon="4.5272">
        <ele>874.5</ele>
        <time>2019-04-28T07:21:32Z</time>
      </trkpt>
      <trkpt lat="45.57174" lon="4.52678">
        <ele>874.7</ele>
        <time>2019-04-28T07:21:37Z</time>
      </trkpt>
      <trkpt lat="45.57167" lon="4.52651">
        <ele>874.6</ele>
        <time>2019-04-28T07:21:40Z</time>
      </trkpt>
      <trkpt lat="45.57159" lon="4.52625">
        <ele>874.3</ele>
        <time>2019-04-28T07:21:43Z</time>
      </trkpt>
      <trkpt lat="45.57155" lon="4.52618">
        <ele>874.2</ele>
        <time>2019-04-28T07:21:44Z</time>
      </trkpt>
      <trkpt lat="45.57133" lon="4.52584">
        <ele>874.7</ele>
        <time>2019-04-28T07:21:49Z</time>
      </trkpt>
      <trkpt lat="45.5713" lon="4.52577">
        <ele>874.7</ele>
        <time>2019-04-28T07:21:50Z</time>
      </trkpt>
      <trkpt lat="45.57114" lon="4.52546">
        <ele>872.2</ele>
        <time>2019-04-28T07:21:55Z</time>
      </trkpt>
      <trkpt lat="45.57105" lon="4.52533">
        <ele>871.2</ele>
        <time>2019-04-28T07:21:57Z</time>
      </trkpt>
      <trkpt lat="45.57094" lon="4.5252">
        <ele>870.4</ele>
        <time>2019-04-28T07:21:59Z</time>
      </trkpt>
      <trkpt lat="45.57088" lon="4.52513">
        <ele>870.2</ele>
        <time>2019-04-28T07:22:00Z</time>
      </trkpt>
      <trkpt lat="45.57073" lon="4.52493">
        <ele>870.3</ele>
        <time>2019-04-28T07:22:03Z</time>
      </trkpt>
      <trkpt lat="45.57071" lon="4.52484">
        <ele>870.3</ele>
        <time>2019-04-28T07:22:04Z</time>
      </trkpt>
      <trkpt lat="45.57066" lon="4.52464">
        <ele>870.1</ele>
        <time>2019-04-28T07:22:07Z</time>
      </trkpt>
      <trkpt lat="45.57063" lon="4.52453">
        <ele>870.2</ele>
        <time>2019-04-28T07:22:09Z</time>
      </trkpt>
      <trkpt lat="45.57056" lon="4.52434">
        <ele>870.6</ele>
        <time>2019-04-28T07:22:14Z</time>
      </trkpt>
      <trkpt lat="45.57046" lon="4.52417">
        <ele>871.3</ele>
        <time>2019-04-28T07:22:20Z</time>
      </trkpt>
      <trkpt lat="45.57036" lon="4.52403">
        <ele>872.1</ele>
        <time>2019-04-28T07:22:25Z</time>
      </trkpt>
      <trkpt lat="45.57031" lon="4.52395">
        <ele>872.5</ele>
        <time>2019-04-28T07:22:28Z</time>
      </trkpt>
      <trkpt lat="45.57026" lon="4.52385">
        <ele>873.1</ele>
        <time>2019-04-28T07:22:32Z</time>
      </trkpt>
      <trkpt lat="45.57021" lon="4.52376">
        <ele>873.7</ele>
        <time>2019-04-28T07:22:36Z</time>
      </trkpt>
      <trkpt lat="45.57016" lon="4.52359">
        <ele>874.6</ele>
        <time>2019-04-28T07:22:43Z</time>
      </trkpt>
      <trkpt lat="45.57016" lon="4.52354">
        <ele>874.9</ele>
        <time>2019-04-28T07:22:45Z</time>
      </trkpt>
      <trkpt lat="45.57016" lon="4.5235">
        <ele>875.1</ele>
        <time>2019-04-28T07:22:47Z</time>
      </trkpt>
      <trkpt lat="45.57016" lon="4.52343">
        <ele>875.5</ele>
        <time>2019-04-28T07:22:50Z</time>
      </trkpt>
      <trkpt lat="45.57015" lon="4.52337">
        <ele>875.9</ele>
        <time>2019-04-28T07:22:53Z</time>
      </trkpt>
      <trkpt lat="45.57015" lon="4.52334">
        <ele>876.1</ele>
        <time>2019-04-28T07:22:54Z</time>
      </trkpt>
      <trkpt lat="45.57014" lon="4.52322">
        <ele>876.8</ele>
        <time>2019-04-28T07:22:59Z</time>
      </trkpt>
      <trkpt lat="45.57013" lon="4.5232">
        <ele>877</ele>
        <time>2019-04-28T07:23:00Z</time>
      </trkpt>
      <trkpt lat="45.57011" lon="4.52308">
        <ele>877.8</ele>
        <time>2019-04-28T07:23:05Z</time>
      </trkpt>
      <trkpt lat="45.5701" lon="4.52303">
        <ele>878.1</ele>
        <time>2019-04-28T07:23:07Z</time>
      </trkpt>
      <trkpt lat="45.57008" lon="4.52299">
        <ele>878.4</ele>
        <time>2019-04-28T07:23:09Z</time>
      </trkpt>
      <trkpt lat="45.57004" lon="4.52288">
        <ele>879</ele>
        <time>2019-04-28T07:23:14Z</time>
      </trkpt>
      <trkpt lat="45.57003" lon="4.52286">
        <ele>879.1</ele>
        <time>2019-04-28T07:23:15Z</time>
      </trkpt>
      <trkpt lat="45.57002" lon="4.52278">
        <ele>879.4</ele>
        <time>2019-04-28T07:23:19Z</time>
      </trkpt>
      <trkpt lat="45.57001" lon="4.52273">
        <ele>879.6</ele>
        <time>2019-04-28T07:23:22Z</time>
      </trkpt>
      <trkpt lat="45.57001" lon="4.52268">
        <ele>879.8</ele>
        <time>2019-04-28T07:23:24Z</time>
      </trkpt>
      <trkpt lat="45.57002" lon="4.52255">
        <ele>880.2</ele>
        <time>2019-04-28T07:23:31Z</time>
      </trkpt>
      <trkpt lat="45.57002" lon="4.52252">
        <ele>880.2</ele>
        <time>2019-04-28T07:23:32Z</time>
      </trkpt>
      <trkpt lat="45.57002" lon="4.52246">
        <ele>880.4</ele>
        <time>2019-04-28T07:23:34Z</time>
      </trkpt>
      <trkpt lat="45.57002" lon="4.52237">
        <ele>880.5</ele>
        <time>2019-04-28T07:23:37Z</time>
      </trkpt>
      <trkpt lat="45.57003" lon="4.52234">
        <ele>880.5</ele>
        <time>2019-04-28T07:23:38Z</time>
      </trkpt>
      <trkpt lat="45.57003" lon="4.52219">
        <ele>880.6</ele>
        <time>2019-04-28T07:23:44Z</time>
      </trkpt>
      <trkpt lat="45.57004" lon="4.52213">
        <ele>880.5</ele>
        <time>2019-04-28T07:23:46Z</time>
      </trkpt>
      <trkpt lat="45.57006" lon="4.5219">
        <ele>880.3</ele>
        <time>2019-04-28T07:23:51Z</time>
      </trkpt>
      <trkpt lat="45.57001" lon="4.52175">
        <ele>880.2</ele>
        <time>2019-04-28T07:23:55Z</time>
      </trkpt>
      <trkpt lat="45.56998" lon="4.52166">
        <ele>880</ele>
        <time>2019-04-28T07:23:57Z</time>
      </trkpt>
      <trkpt lat="45.56995" lon="4.52157">
        <ele>879.7</ele>
        <time>2019-04-28T07:23:59Z</time>
      </trkpt>
      <trkpt lat="45.56987" lon="4.52137">
        <ele>879.4</ele>
        <time>2019-04-28T07:24:03Z</time>
      </trkpt>
      <trkpt lat="45.56982" lon="4.52105">
        <ele>878.8</ele>
        <time>2019-04-28T07:24:08Z</time>
      </trkpt>
      <trkpt lat="45.56984" lon="4.52085">
        <ele>878.8</ele>
        <time>2019-04-28T07:24:11Z</time>
      </trkpt>
      <trkpt lat="45.56985" lon="4.52073">
        <ele>879</ele>
        <time>2019-04-28T07:24:13Z</time>
      </trkpt>
      <trkpt lat="45.56986" lon="4.52068">
        <ele>879.1</ele>
        <time>2019-04-28T07:24:14Z</time>
      </trkpt>
      <trkpt lat="45.56986" lon="4.52053">
        <ele>879.5</ele>
        <time>2019-04-28T07:24:18Z</time>
      </trkpt>
      <trkpt lat="45.56985" lon="4.52028">
        <ele>880.1</ele>
        <time>2019-04-28T07:24:23Z</time>
      </trkpt>
      <trkpt lat="45.56985" lon="4.52024">
        <ele>880.2</ele>
        <time>2019-04-28T07:24:24Z</time>
      </trkpt>
      <trkpt lat="45.56988" lon="4.52007">
        <ele>880.5</ele>
        <time>2019-04-28T07:24:28Z</time>
      </trkpt>
      <trkpt lat="45.56988" lon="4.52003">
        <ele>880.5</ele>
        <time>2019-04-28T07:24:29Z</time>
      </trkpt>
      <trkpt lat="45.56988" lon="4.51992">
        <ele>880.7</ele>
        <time>2019-04-28T07:24:32Z</time>
      </trkpt>
      <trkpt lat="45.5699" lon="4.5198">
        <ele>880.9</ele>
        <time>2019-04-28T07:24:35Z</time>
      </trkpt>
      <trkpt lat="45.56999" lon="4.51942">
        <ele>880.9</ele>
        <time>2019-04-28T07:24:45Z</time>
      </trkpt>
      <trkpt lat="45.57008" lon="4.51919">
        <ele>879.2</ele>
        <time>2019-04-28T07:24:50Z</time>
      </trkpt>
      <trkpt lat="45.57012" lon="4.51907">
        <ele>878</ele>
        <time>2019-04-28T07:24:52Z</time>
      </trkpt>
      <trkpt lat="45.57012" lon="4.51893">
        <ele>876.8</ele>
        <time>2019-04-28T07:24:54Z</time>
      </trkpt>
      <trkpt lat="45.5701" lon="4.51887">
        <ele>876.2</ele>
        <time>2019-04-28T07:24:55Z</time>
      </trkpt>
      <trkpt lat="45.57006" lon="4.51874">
        <ele>875</ele>
        <time>2019-04-28T07:24:57Z</time>
      </trkpt>
      <trkpt lat="45.57002" lon="4.51855">
        <ele>873</ele>
        <time>2019-04-28T07:25:00Z</time>
      </trkpt>
      <trkpt lat="45.56999" lon="4.51842">
        <ele>871.5</ele>
        <time>2019-04-28T07:25:02Z</time>
      </trkpt>
      <trkpt lat="45.56996" lon="4.51827">
        <ele>869.8</ele>
        <time>2019-04-28T07:25:04Z</time>
      </trkpt>
      <trkpt lat="45.56995" lon="4.51819">
        <ele>869.1</ele>
        <time>2019-04-28T07:25:05Z</time>
      </trkpt>
      <trkpt lat="45.56993" lon="4.51813">
        <ele>868.5</ele>
        <time>2019-04-28T07:25:06Z</time>
      </trkpt>
      <trkpt lat="45.56991" lon="4.51799">
        <ele>867.4</ele>
        <time>2019-04-28T07:25:08Z</time>
      </trkpt>
      <trkpt lat="45.56989" lon="4.51787">
        <ele>866.7</ele>
        <time>2019-04-28T07:25:10Z</time>
      </trkpt>
      <trkpt lat="45.56987" lon="4.51773">
        <ele>866.1</ele>
        <time>2019-04-28T07:25:12Z</time>
      </trkpt>
      <trkpt lat="45.56984" lon="4.5176">
        <ele>865.7</ele>
        <time>2019-04-28T07:25:14Z</time>
      </trkpt>
      <trkpt lat="45.56982" lon="4.51744">
        <ele>865.3</ele>
        <time>2019-04-28T07:25:16Z</time>
      </trkpt>
      <trkpt lat="45.5698" lon="4.51725">
        <ele>864.7</ele>
        <time>2019-04-28T07:25:18Z</time>
      </trkpt>
      <trkpt lat="45.5698" lon="4.51714">
        <ele>864.4</ele>
        <time>2019-04-28T07:25:19Z</time>
      </trkpt>
      <trkpt lat="45.56979" lon="4.51703">
        <ele>863.9</ele>
        <time>2019-04-28T07:25:20Z</time>
      </trkpt>
      <trkpt lat="45.56979" lon="4.51691">
        <ele>863.4</ele>
        <time>2019-04-28T07:25:21Z</time>
      </trkpt>
      <trkpt lat="45.56979" lon="4.5168">
        <ele>862.8</ele>
        <time>2019-04-28T07:25:22Z</time>
      </trkpt>
      <trkpt lat="45.5698" lon="4.51658">
        <ele>861.7</ele>
        <time>2019-04-28T07:25:24Z</time>
      </trkpt>
      <trkpt lat="45.56982" lon="4.51637">
        <ele>860.4</ele>
        <time>2019-04-28T07:25:26Z</time>
      </trkpt>
      <trkpt lat="45.56983" lon="4.51627">
        <ele>859.8</ele>
        <time>2019-04-28T07:25:27Z</time>
      </trkpt>
      <trkpt lat="45.56984" lon="4.51617">
        <ele>859.5</ele>
        <time>2019-04-28T07:25:28Z</time>
      </trkpt>
      <trkpt lat="45.56985" lon="4.51598">
        <ele>858.8</ele>
        <time>2019-04-28T07:25:30Z</time>
      </trkpt>
      <trkpt lat="45.56987" lon="4.5158">
        <ele>858.2</ele>
        <time>2019-04-28T07:25:32Z</time>
      </trkpt>
      <trkpt lat="45.56988" lon="4.51571">
        <ele>858</ele>
        <time>2019-04-28T07:25:33Z</time>
      </trkpt>
      <trkpt lat="45.56988" lon="4.51555">
        <ele>857.9</ele>
        <time>2019-04-28T07:25:35Z</time>
      </trkpt>
      <trkpt lat="45.5699" lon="4.51522">
        <ele>858.6</ele>
        <time>2019-04-28T07:25:39Z</time>
      </trkpt>
      <trkpt lat="45.5699" lon="4.51506">
        <ele>858.8</ele>
        <time>2019-04-28T07:25:41Z</time>
      </trkpt>
      <trkpt lat="45.5699" lon="4.51488">
        <ele>859.1</ele>
        <time>2019-04-28T07:25:43Z</time>
      </trkpt>
      <trkpt lat="45.56991" lon="4.5148">
        <ele>859.4</ele>
        <time>2019-04-28T07:25:44Z</time>
      </trkpt>
      <trkpt lat="45.56992" lon="4.51472">
        <ele>859.7</ele>
        <time>2019-04-28T07:25:45Z</time>
      </trkpt>
      <trkpt lat="45.56996" lon="4.51449">
        <ele>860.8</ele>
        <time>2019-04-28T07:25:48Z</time>
      </trkpt>
      <trkpt lat="45.57" lon="4.51437">
        <ele>861.4</ele>
        <time>2019-04-28T07:25:50Z</time>
      </trkpt>
      <trkpt lat="45.57017" lon="4.51411">
        <ele>862.2</ele>
        <time>2019-04-28T07:25:55Z</time>
      </trkpt>
      <trkpt lat="45.57021" lon="4.51395">
        <ele>862.9</ele>
        <time>2019-04-28T07:25:59Z</time>
      </trkpt>
      <trkpt lat="45.57022" lon="4.51369">
        <ele>864.1</ele>
        <time>2019-04-28T07:26:06Z</time>
      </trkpt>
      <trkpt lat="45.57024" lon="4.51355">
        <ele>864.6</ele>
        <time>2019-04-28T07:26:11Z</time>
      </trkpt>
      <trkpt lat="45.57025" lon="4.51347">
        <ele>864.9</ele>
        <time>2019-04-28T07:26:14Z</time>
      </trkpt>
      <trkpt lat="45.57026" lon="4.51343">
        <ele>865</ele>
        <time>2019-04-28T07:26:15Z</time>
      </trkpt>
      <trkpt lat="45.57028" lon="4.51328">
        <ele>865.5</ele>
        <time>2019-04-28T07:26:20Z</time>
      </trkpt>
      <trkpt lat="45.57028" lon="4.51318">
        <ele>865.6</ele>
        <time>2019-04-28T07:26:23Z</time>
      </trkpt>
      <trkpt lat="45.57029" lon="4.51309">
        <ele>865.7</ele>
        <time>2019-04-28T07:26:26Z</time>
      </trkpt>
      <trkpt lat="45.57029" lon="4.51283">
        <ele>865.7</ele>
        <time>2019-04-28T07:26:34Z</time>
      </trkpt>
      <trkpt lat="45.57029" lon="4.51279">
        <ele>865.6</ele>
        <time>2019-04-28T07:26:35Z</time>
      </trkpt>
      <trkpt lat="45.57028" lon="4.51254">
        <ele>865.3</ele>
        <time>2019-04-28T07:26:42Z</time>
      </trkpt>
      <trkpt lat="45.57024" lon="4.51221">
        <ele>864.7</ele>
        <time>2019-04-28T07:26:49Z</time>
      </trkpt>
      <trkpt lat="45.57016" lon="4.5118">
        <ele>864</ele>
        <time>2019-04-28T07:26:56Z</time>
      </trkpt>
      <trkpt lat="45.57009" lon="4.51155">
        <ele>863.6</ele>
        <time>2019-04-28T07:27:00Z</time>
      </trkpt>
      <trkpt lat="45.57" lon="4.51124">
        <ele>863.3</ele>
        <time>2019-04-28T07:27:05Z</time>
      </trkpt>
      <trkpt lat="45.56998" lon="4.51117">
        <ele>863.3</ele>
        <time>2019-04-28T07:27:06Z</time>
      </trkpt>
      <trkpt lat="45.5699" lon="4.51074">
        <ele>863.1</ele>
        <time>2019-04-28T07:27:12Z</time>
      </trkpt>
      <trkpt lat="45.56988" lon="4.51061">
        <ele>863.1</ele>
        <time>2019-04-28T07:27:14Z</time>
      </trkpt>
      <trkpt lat="45.56982" lon="4.51037">
        <ele>863.2</ele>
        <time>2019-04-28T07:27:18Z</time>
      </trkpt>
      <trkpt lat="45.56978" lon="4.50989">
        <ele>863.7</ele>
        <time>2019-04-28T07:27:26Z</time>
      </trkpt>
      <trkpt lat="45.56976" lon="4.50948">
        <ele>864.7</ele>
        <time>2019-04-28T07:27:33Z</time>
      </trkpt>
      <trkpt lat="45.56967" lon="4.50892">
        <ele>867.1</ele>
        <time>2019-04-28T07:27:43Z</time>
      </trkpt>
      <trkpt lat="45.56966" lon="4.50888">
        <ele>867.3</ele>
        <time>2019-04-28T07:27:44Z</time>
      </trkpt>
      <trkpt lat="45.56962" lon="4.50871">
        <ele>868.3</ele>
        <time>2019-04-28T07:27:48Z</time>
      </trkpt>
      <trkpt lat="45.56958" lon="4.50859">
        <ele>869</ele>
        <time>2019-04-28T07:27:51Z</time>
      </trkpt>
      <trkpt lat="45.56956" lon="4.50851">
        <ele>869.5</ele>
        <time>2019-04-28T07:27:53Z</time>
      </trkpt>
      <trkpt lat="45.56952" lon="4.50836">
        <ele>870.6</ele>
        <time>2019-04-28T07:27:58Z</time>
      </trkpt>
      <trkpt lat="45.56947" lon="4.5082">
        <ele>871.9</ele>
        <time>2019-04-28T07:28:03Z</time>
      </trkpt>
      <trkpt lat="45.56945" lon="4.50816">
        <ele>872.1</ele>
        <time>2019-04-28T07:28:04Z</time>
      </trkpt>
      <trkpt lat="45.56941" lon="4.50804">
        <ele>872.9</ele>
        <time>2019-04-28T07:28:08Z</time>
      </trkpt>
      <trkpt lat="45.56938" lon="4.50794">
        <ele>873.4</ele>
        <time>2019-04-28T07:28:11Z</time>
      </trkpt>
      <trkpt lat="45.56933" lon="4.50779">
        <ele>874.6</ele>
        <time>2019-04-28T07:28:16Z</time>
      </trkpt>
      <trkpt lat="45.56932" lon="4.50773">
        <ele>875</ele>
        <time>2019-04-28T07:28:18Z</time>
      </trkpt>
      <trkpt lat="45.56929" lon="4.50765">
        <ele>875.6</ele>
        <time>2019-04-28T07:28:21Z</time>
      </trkpt>
      <trkpt lat="45.56927" lon="4.50754">
        <ele>876.1</ele>
        <time>2019-04-28T07:28:25Z</time>
      </trkpt>
      <trkpt lat="45.56926" lon="4.50742">
        <ele>876.5</ele>
        <time>2019-04-28T07:28:29Z</time>
      </trkpt>
      <trkpt lat="45.56925" lon="4.50731">
        <ele>876.7</ele>
        <time>2019-04-28T07:28:33Z</time>
      </trkpt>
      <trkpt lat="45.56925" lon="4.50725">
        <ele>876.8</ele>
        <time>2019-04-28T07:28:35Z</time>
      </trkpt>
      <trkpt lat="45.56926" lon="4.50718">
        <ele>876.9</ele>
        <time>2019-04-28T07:28:38Z</time>
      </trkpt>
      <trkpt lat="45.56927" lon="4.50712">
        <ele>877</ele>
        <time>2019-04-28T07:28:40Z</time>
      </trkpt>
      <trkpt lat="45.56927" lon="4.50706">
        <ele>876.9</ele>
        <time>2019-04-28T07:28:42Z</time>
      </trkpt>
      <trkpt lat="45.56926" lon="4.50689">
        <ele>876.8</ele>
        <time>2019-04-28T07:28:48Z</time>
      </trkpt>
      <trkpt lat="45.56925" lon="4.50679">
        <ele>876.7</ele>
        <time>2019-04-28T07:28:51Z</time>
      </trkpt>
      <trkpt lat="45.56925" lon="4.50665">
        <ele>876.3</ele>
        <time>2019-04-28T07:28:56Z</time>
      </trkpt>
      <trkpt lat="45.56923" lon="4.50643">
        <ele>875.5</ele>
        <time>2019-04-28T07:29:02Z</time>
      </trkpt>
      <trkpt lat="45.56923" lon="4.50638">
        <ele>875.2</ele>
        <time>2019-04-28T07:29:03Z</time>
      </trkpt>
      <trkpt lat="45.5692" lon="4.50615">
        <ele>873.9</ele>
        <time>2019-04-28T07:29:07Z</time>
      </trkpt>
      <trkpt lat="45.56919" lon="4.50608">
        <ele>873.5</ele>
        <time>2019-04-28T07:29:08Z</time>
      </trkpt>
      <trkpt lat="45.56914" lon="4.50586">
        <ele>871.7</ele>
        <time>2019-04-28T07:29:11Z</time>
      </trkpt>
      <trkpt lat="45.56912" lon="4.50577">
        <ele>871</ele>
        <time>2019-04-28T07:29:12Z</time>
      </trkpt>
      <trkpt lat="45.56908" lon="4.50559">
        <ele>869.2</ele>
        <time>2019-04-28T07:29:14Z</time>
      </trkpt>
      <trkpt lat="45.56904" lon="4.50539">
        <ele>867</ele>
        <time>2019-04-28T07:29:16Z</time>
      </trkpt>
      <trkpt lat="45.56902" lon="4.50529">
        <ele>865.9</ele>
        <time>2019-04-28T07:29:17Z</time>
      </trkpt>
      <trkpt lat="45.56899" lon="4.50519">
        <ele>864.7</ele>
        <time>2019-04-28T07:29:18Z</time>
      </trkpt>
      <trkpt lat="45.56897" lon="4.5051">
        <ele>863.7</ele>
        <time>2019-04-28T07:29:19Z</time>
      </trkpt>
      <trkpt lat="45.56895" lon="4.505">
        <ele>862.7</ele>
        <time>2019-04-28T07:29:20Z</time>
      </trkpt>
      <trkpt lat="45.56893" lon="4.50493">
        <ele>861.8</ele>
        <time>2019-04-28T07:29:21Z</time>
      </trkpt>
      <trkpt lat="45.56891" lon="4.50485">
        <ele>861.1</ele>
        <time>2019-04-28T07:29:22Z</time>
      </trkpt>
      <trkpt lat="45.56888" lon="4.50479">
        <ele>860.2</ele>
        <time>2019-04-28T07:29:23Z</time>
      </trkpt>
      <trkpt lat="45.56883" lon="4.50465">
        <ele>858</ele>
        <time>2019-04-28T07:29:25Z</time>
      </trkpt>
      <trkpt lat="45.56882" lon="4.50457">
        <ele>856.9</ele>
        <time>2019-04-28T07:29:26Z</time>
      </trkpt>
      <trkpt lat="45.56881" lon="4.50449">
        <ele>855.9</ele>
        <time>2019-04-28T07:29:27Z</time>
      </trkpt>
      <trkpt lat="45.56881" lon="4.50435">
        <ele>853.8</ele>
        <time>2019-04-28T07:29:29Z</time>
      </trkpt>
      <trkpt lat="45.56882" lon="4.50429">
        <ele>852.8</ele>
        <time>2019-04-28T07:29:30Z</time>
      </trkpt>
      <trkpt lat="45.56882" lon="4.50422">
        <ele>851.7</ele>
        <time>2019-04-28T07:29:31Z</time>
      </trkpt>
      <trkpt lat="45.56881" lon="4.50415">
        <ele>850.9</ele>
        <time>2019-04-28T07:29:32Z</time>
      </trkpt>
      <trkpt lat="45.5688" lon="4.50408">
        <ele>850</ele>
        <time>2019-04-28T07:29:33Z</time>
      </trkpt>
      <trkpt lat="45.56878" lon="4.50402">
        <ele>848.8</ele>
        <time>2019-04-28T07:29:34Z</time>
      </trkpt>
      <trkpt lat="45.56877" lon="4.50393">
        <ele>847.7</ele>
        <time>2019-04-28T07:29:35Z</time>
      </trkpt>
      <trkpt lat="45.56875" lon="4.50385">
        <ele>846.5</ele>
        <time>2019-04-28T07:29:36Z</time>
      </trkpt>
      <trkpt lat="45.56875" lon="4.50375">
        <ele>845.4</ele>
        <time>2019-04-28T07:29:37Z</time>
      </trkpt>
      <trkpt lat="45.56873" lon="4.50365">
        <ele>844.2</ele>
        <time>2019-04-28T07:29:38Z</time>
      </trkpt>
      <trkpt lat="45.56872" lon="4.50353">
        <ele>842.9</ele>
        <time>2019-04-28T07:29:39Z</time>
      </trkpt>
      <trkpt lat="45.56871" lon="4.5034">
        <ele>841.9</ele>
        <time>2019-04-28T07:29:40Z</time>
      </trkpt>
      <trkpt lat="45.5687" lon="4.50327">
        <ele>840.9</ele>
        <time>2019-04-28T07:29:41Z</time>
      </trkpt>
      <trkpt lat="45.56871" lon="4.50313">
        <ele>839.8</ele>
        <time>2019-04-28T07:29:42Z</time>
      </trkpt>
      <trkpt lat="45.56871" lon="4.503">
        <ele>838.9</ele>
        <time>2019-04-28T07:29:43Z</time>
      </trkpt>
      <trkpt lat="45.5687" lon="4.50288">
        <ele>838</ele>
        <time>2019-04-28T07:29:44Z</time>
      </trkpt>
      <trkpt lat="45.5687" lon="4.50277">
        <ele>837.1</ele>
        <time>2019-04-28T07:29:45Z</time>
      </trkpt>
      <trkpt lat="45.56868" lon="4.50266">
        <ele>836</ele>
        <time>2019-04-28T07:29:46Z</time>
      </trkpt>
      <trkpt lat="45.56867" lon="4.50256">
        <ele>835</ele>
        <time>2019-04-28T07:29:47Z</time>
      </trkpt>
      <trkpt lat="45.56867" lon="4.50248">
        <ele>834.3</ele>
        <time>2019-04-28T07:29:48Z</time>
      </trkpt>
      <trkpt lat="45.56865" lon="4.50239">
        <ele>833.5</ele>
        <time>2019-04-28T07:29:49Z</time>
      </trkpt>
      <trkpt lat="45.56862" lon="4.5023">
        <ele>832.8</ele>
        <time>2019-04-28T07:29:50Z</time>
      </trkpt>
      <trkpt lat="45.5686" lon="4.50221">
        <ele>832.1</ele>
        <time>2019-04-28T07:29:51Z</time>
      </trkpt>
      <trkpt lat="45.56851" lon="4.50203">
        <ele>830.7</ele>
        <time>2019-04-28T07:29:53Z</time>
      </trkpt>
      <trkpt lat="45.56846" lon="4.50194">
        <ele>830.1</ele>
        <time>2019-04-28T07:29:54Z</time>
      </trkpt>
      <trkpt lat="45.5684" lon="4.50185">
        <ele>829.4</ele>
        <time>2019-04-28T07:29:55Z</time>
      </trkpt>
      <trkpt lat="45.56829" lon="4.50166">
        <ele>828.3</ele>
        <time>2019-04-28T07:29:57Z</time>
      </trkpt>
      <trkpt lat="45.56819" lon="4.50147">
        <ele>826.9</ele>
        <time>2019-04-28T07:29:59Z</time>
      </trkpt>
      <trkpt lat="45.56808" lon="4.5013">
        <ele>825.8</ele>
        <time>2019-04-28T07:30:01Z</time>
      </trkpt>
      <trkpt lat="45.56798" lon="4.50114">
        <ele>825.2</ele>
        <time>2019-04-28T07:30:03Z</time>
      </trkpt>
      <trkpt lat="45.56794" lon="4.50107">
        <ele>824.9</ele>
        <time>2019-04-28T07:30:04Z</time>
      </trkpt>
      <trkpt lat="45.56787" lon="4.50094">
        <ele>824.4</ele>
        <time>2019-04-28T07:30:06Z</time>
      </trkpt>
      <trkpt lat="45.56782" lon="4.50083">
        <ele>824.2</ele>
        <time>2019-04-28T07:30:08Z</time>
      </trkpt>
      <trkpt lat="45.56777" lon="4.50074">
        <ele>823.9</ele>
        <time>2019-04-28T07:30:10Z</time>
      </trkpt>
      <trkpt lat="45.56773" lon="4.50061">
        <ele>823.5</ele>
        <time>2019-04-28T07:30:12Z</time>
      </trkpt>
      <trkpt lat="45.56772" lon="4.50055">
        <ele>823.4</ele>
        <time>2019-04-28T07:30:13Z</time>
      </trkpt>
      <trkpt lat="45.56771" lon="4.50048">
        <ele>823.3</ele>
        <time>2019-04-28T07:30:14Z</time>
      </trkpt>
      <trkpt lat="45.56771" lon="4.50034">
        <ele>823</ele>
        <time>2019-04-28T07:30:16Z</time>
      </trkpt>
      <trkpt lat="45.56772" lon="4.50021">
        <ele>822.8</ele>
        <time>2019-04-28T07:30:18Z</time>
      </trkpt>
      <trkpt lat="45.56772" lon="4.4999">
        <ele>822.7</ele>
        <time>2019-04-28T07:30:24Z</time>
      </trkpt>
      <trkpt lat="45.56774" lon="4.4998">
        <ele>822.2</ele>
        <time>2019-04-28T07:30:26Z</time>
      </trkpt>
      <trkpt lat="45.56777" lon="4.49976">
        <ele>821.8</ele>
        <time>2019-04-28T07:30:27Z</time>
      </trkpt>
      <trkpt lat="45.56781" lon="4.49976">
        <ele>821.4</ele>
        <time>2019-04-28T07:30:28Z</time>
      </trkpt>
      <trkpt lat="45.56791" lon="4.49981">
        <ele>820.5</ele>
        <time>2019-04-28T07:30:30Z</time>
      </trkpt>
      <trkpt lat="45.56797" lon="4.49984">
        <ele>819.9</ele>
        <time>2019-04-28T07:30:31Z</time>
      </trkpt>
      <trkpt lat="45.5681" lon="4.4999">
        <ele>818.6</ele>
        <time>2019-04-28T07:30:33Z</time>
      </trkpt>
      <trkpt lat="45.56824" lon="4.49996">
        <ele>817.1</ele>
        <time>2019-04-28T07:30:35Z</time>
      </trkpt>
      <trkpt lat="45.56832" lon="4.5">
        <ele>816.6</ele>
        <time>2019-04-28T07:30:36Z</time>
      </trkpt>
      <trkpt lat="45.5684" lon="4.50003">
        <ele>815.8</ele>
        <time>2019-04-28T07:30:37Z</time>
      </trkpt>
      <trkpt lat="45.56857" lon="4.50008">
        <ele>814.6</ele>
        <time>2019-04-28T07:30:39Z</time>
      </trkpt>
      <trkpt lat="45.56875" lon="4.50012">
        <ele>813.8</ele>
        <time>2019-04-28T07:30:41Z</time>
      </trkpt>
      <trkpt lat="45.56894" lon="4.50015">
        <ele>813.4</ele>
        <time>2019-04-28T07:30:43Z</time>
      </trkpt>
      <trkpt lat="45.56911" lon="4.50017">
        <ele>813.2</ele>
        <time>2019-04-28T07:30:45Z</time>
      </trkpt>
      <trkpt lat="45.56928" lon="4.50018">
        <ele>813.1</ele>
        <time>2019-04-28T07:30:47Z</time>
      </trkpt>
      <trkpt lat="45.56949" lon="4.50023">
        <ele>813.1</ele>
        <time>2019-04-28T07:30:50Z</time>
      </trkpt>
      <trkpt lat="45.56962" lon="4.50026">
        <ele>813.1</ele>
        <time>2019-04-28T07:30:52Z</time>
      </trkpt>
      <trkpt lat="45.56967" lon="4.50027">
        <ele>813.1</ele>
        <time>2019-04-28T07:30:53Z</time>
      </trkpt>
      <trkpt lat="45.56973" lon="4.50027">
        <ele>813.1</ele>
        <time>2019-04-28T07:30:54Z</time>
      </trkpt>
      <trkpt lat="45.56988" lon="4.50026">
        <ele>814</ele>
        <time>2019-04-28T07:30:57Z</time>
      </trkpt>
      <trkpt lat="45.57006" lon="4.50026">
        <ele>815.1</ele>
        <time>2019-04-28T07:31:02Z</time>
      </trkpt>
      <trkpt lat="45.57024" lon="4.50024">
        <ele>816.4</ele>
        <time>2019-04-28T07:31:09Z</time>
      </trkpt>
      <trkpt lat="45.57042" lon="4.50026">
        <ele>817.7</ele>
        <time>2019-04-28T07:31:16Z</time>
      </trkpt>
      <trkpt lat="45.57059" lon="4.50028">
        <ele>818.8</ele>
        <time>2019-04-28T07:31:23Z</time>
      </trkpt>
      <trkpt lat="45.57069" lon="4.5003">
        <ele>819.4</ele>
        <time>2019-04-28T07:31:27Z</time>
      </trkpt>
      <trkpt lat="45.57074" lon="4.50031">
        <ele>819.7</ele>
        <time>2019-04-28T07:31:29Z</time>
      </trkpt>
      <trkpt lat="45.57079" lon="4.50033">
        <ele>820</ele>
        <time>2019-04-28T07:31:31Z</time>
      </trkpt>
      <trkpt lat="45.57088" lon="4.50036">
        <ele>820.7</ele>
        <time>2019-04-28T07:31:35Z</time>
      </trkpt>
      <trkpt lat="45.57097" lon="4.50037">
        <ele>821.3</ele>
        <time>2019-04-28T07:31:39Z</time>
      </trkpt>
      <trkpt lat="45.57104" lon="4.50039">
        <ele>821.8</ele>
        <time>2019-04-28T07:31:42Z</time>
      </trkpt>
      <trkpt lat="45.57107" lon="4.5004">
        <ele>822</ele>
        <time>2019-04-28T07:31:43Z</time>
      </trkpt>
      <trkpt lat="45.57116" lon="4.50041">
        <ele>822.7</ele>
        <time>2019-04-28T07:31:46Z</time>
      </trkpt>
      <trkpt lat="45.57127" lon="4.50042">
        <ele>823.7</ele>
        <time>2019-04-28T07:31:50Z</time>
      </trkpt>
      <trkpt lat="45.57136" lon="4.50043">
        <ele>824.6</ele>
        <time>2019-04-28T07:31:54Z</time>
      </trkpt>
      <trkpt lat="45.57141" lon="4.50046">
        <ele>825.2</ele>
        <time>2019-04-28T07:31:57Z</time>
      </trkpt>
      <trkpt lat="45.57149" lon="4.50048">
        <ele>826.1</ele>
        <time>2019-04-28T07:32:00Z</time>
      </trkpt>
      <trkpt lat="45.57157" lon="4.50051">
        <ele>826.9</ele>
        <time>2019-04-28T07:32:04Z</time>
      </trkpt>
      <trkpt lat="45.57163" lon="4.50051">
        <ele>827.6</ele>
        <time>2019-04-28T07:32:07Z</time>
      </trkpt>
      <trkpt lat="45.5717" lon="4.50053">
        <ele>828.6</ele>
        <time>2019-04-28T07:32:10Z</time>
      </trkpt>
      <trkpt lat="45.57177" lon="4.50052">
        <ele>829.4</ele>
        <time>2019-04-28T07:32:13Z</time>
      </trkpt>
      <trkpt lat="45.57181" lon="4.50053">
        <ele>829.8</ele>
        <time>2019-04-28T07:32:15Z</time>
      </trkpt>
      <trkpt lat="45.57185" lon="4.50054">
        <ele>830.2</ele>
        <time>2019-04-28T07:32:17Z</time>
      </trkpt>
      <trkpt lat="45.57192" lon="4.50055">
        <ele>830.9</ele>
        <time>2019-04-28T07:32:20Z</time>
      </trkpt>
      <trkpt lat="45.572" lon="4.50056">
        <ele>831.8</ele>
        <time>2019-04-28T07:32:24Z</time>
      </trkpt>
      <trkpt lat="45.57201" lon="4.50057">
        <ele>832</ele>
        <time>2019-04-28T07:32:25Z</time>
      </trkpt>
      <trkpt lat="45.57209" lon="4.5006">
        <ele>832.9</ele>
        <time>2019-04-28T07:32:29Z</time>
      </trkpt>
      <trkpt lat="45.57215" lon="4.50062">
        <ele>833.5</ele>
        <time>2019-04-28T07:32:32Z</time>
      </trkpt>
      <trkpt lat="45.57219" lon="4.50063">
        <ele>834</ele>
        <time>2019-04-28T07:32:34Z</time>
      </trkpt>
      <trkpt lat="45.57228" lon="4.50066">
        <ele>834.8</ele>
        <time>2019-04-28T07:32:39Z</time>
      </trkpt>
      <trkpt lat="45.5723" lon="4.50067">
        <ele>835</ele>
        <time>2019-04-28T07:32:40Z</time>
      </trkpt>
      <trkpt lat="45.5724" lon="4.50072">
        <ele>836</ele>
        <time>2019-04-28T07:32:46Z</time>
      </trkpt>
      <trkpt lat="45.57251" lon="4.50073">
        <ele>837</ele>
        <time>2019-04-28T07:32:51Z</time>
      </trkpt>
      <trkpt lat="45.57255" lon="4.50075">
        <ele>837.4</ele>
        <time>2019-04-28T07:32:53Z</time>
      </trkpt>
      <trkpt lat="45.57273" lon="4.5008">
        <ele>838.9</ele>
        <time>2019-04-28T07:33:01Z</time>
      </trkpt>
      <trkpt lat="45.57275" lon="4.50081">
        <ele>839.2</ele>
        <time>2019-04-28T07:33:02Z</time>
      </trkpt>
      <trkpt lat="45.57281" lon="4.50082">
        <ele>839.6</ele>
        <time>2019-04-28T07:33:05Z</time>
      </trkpt>
      <trkpt lat="45.57292" lon="4.50087">
        <ele>840.7</ele>
        <time>2019-04-28T07:33:10Z</time>
      </trkpt>
      <trkpt lat="45.57305" lon="4.50094">
        <ele>842</ele>
        <time>2019-04-28T07:33:16Z</time>
      </trkpt>
      <trkpt lat="45.57312" lon="4.50105">
        <ele>843.2</ele>
        <time>2019-04-28T07:33:22Z</time>
      </trkpt>
      <trkpt lat="45.5732" lon="4.50113">
        <ele>844.5</ele>
        <time>2019-04-28T07:33:28Z</time>
      </trkpt>
      <trkpt lat="45.57324" lon="4.50119">
        <ele>845.4</ele>
        <time>2019-04-28T07:33:32Z</time>
      </trkpt>
      <trkpt lat="45.57329" lon="4.50123">
        <ele>846</ele>
        <time>2019-04-28T07:33:35Z</time>
      </trkpt>
      <trkpt lat="45.57332" lon="4.50126">
        <ele>846.4</ele>
        <time>2019-04-28T07:33:37Z</time>
      </trkpt>
      <trkpt lat="45.57339" lon="4.50132">
        <ele>847.5</ele>
        <time>2019-04-28T07:33:42Z</time>
      </trkpt>
      <trkpt lat="45.5734" lon="4.50134">
        <ele>847.7</ele>
        <time>2019-04-28T07:33:43Z</time>
      </trkpt>
      <trkpt lat="45.57348" lon="4.50139">
        <ele>848.8</ele>
        <time>2019-04-28T07:33:48Z</time>
      </trkpt>
      <trkpt lat="45.57356" lon="4.50146">
        <ele>849.8</ele>
        <time>2019-04-28T07:33:53Z</time>
      </trkpt>
      <trkpt lat="45.57357" lon="4.50147">
        <ele>850</ele>
        <time>2019-04-28T07:33:54Z</time>
      </trkpt>
      <trkpt lat="45.57365" lon="4.50152">
        <ele>850.8</ele>
        <time>2019-04-28T07:33:59Z</time>
      </trkpt>
      <trkpt lat="45.57368" lon="4.50153">
        <ele>851</ele>
        <time>2019-04-28T07:34:01Z</time>
      </trkpt>
      <trkpt lat="45.57374" lon="4.50155">
        <ele>851.2</ele>
        <time>2019-04-28T07:34:05Z</time>
      </trkpt>
      <trkpt lat="45.57375" lon="4.50157">
        <ele>851.3</ele>
        <time>2019-04-28T07:34:07Z</time>
      </trkpt>
      <trkpt lat="45.57385" lon="4.50162">
        <ele>852</ele>
        <time>2019-04-28T07:34:32Z</time>
      </trkpt>
      <trkpt lat="45.57388" lon="4.50164">
        <ele>852.3</ele>
        <time>2019-04-28T07:34:34Z</time>
      </trkpt>
      <trkpt lat="45.57413" lon="4.50178">
        <ele>854.6</ele>
        <time>2019-04-28T07:34:53Z</time>
      </trkpt>
      <trkpt lat="45.57415" lon="4.50179">
        <ele>854.7</ele>
        <time>2019-04-28T07:34:54Z</time>
      </trkpt>
      <trkpt lat="45.5743" lon="4.5019">
        <ele>856.6</ele>
        <time>2019-04-28T07:35:05Z</time>
      </trkpt>
      <trkpt lat="45.57432" lon="4.50192">
        <ele>856.8</ele>
        <time>2019-04-28T07:35:06Z</time>
      </trkpt>
      <trkpt lat="45.57434" lon="4.50193">
        <ele>857.2</ele>
        <time>2019-04-28T07:35:07Z</time>
      </trkpt>
      <trkpt lat="45.57437" lon="4.50195">
        <ele>857.6</ele>
        <time>2019-04-28T07:35:08Z</time>
      </trkpt>
      <trkpt lat="45.57443" lon="4.50199">
        <ele>858.6</ele>
        <time>2019-04-28T07:35:11Z</time>
      </trkpt>
      <trkpt lat="45.57451" lon="4.50203">
        <ele>859.7</ele>
        <time>2019-04-28T07:35:15Z</time>
      </trkpt>
      <trkpt lat="45.57452" lon="4.50203">
        <ele>860</ele>
        <time>2019-04-28T07:35:16Z</time>
      </trkpt>
      <trkpt lat="45.57459" lon="4.50207">
        <ele>860.9</ele>
        <time>2019-04-28T07:35:21Z</time>
      </trkpt>
      <trkpt lat="45.57464" lon="4.5021">
        <ele>861.5</ele>
        <time>2019-04-28T07:35:24Z</time>
      </trkpt>
      <trkpt lat="45.57469" lon="4.50212">
        <ele>862.1</ele>
        <time>2019-04-28T07:35:27Z</time>
      </trkpt>
      <trkpt lat="45.57472" lon="4.50214">
        <ele>862.4</ele>
        <time>2019-04-28T07:35:29Z</time>
      </trkpt>
      <trkpt lat="45.57483" lon="4.50223">
        <ele>863.8</ele>
        <time>2019-04-28T07:35:38Z</time>
      </trkpt>
      <trkpt lat="45.57488" lon="4.50226">
        <ele>864.4</ele>
        <time>2019-04-28T07:35:41Z</time>
      </trkpt>
      <trkpt lat="45.57491" lon="4.50229">
        <ele>864.7</ele>
        <time>2019-04-28T07:35:43Z</time>
      </trkpt>
      <trkpt lat="45.57494" lon="4.50233">
        <ele>865.2</ele>
        <time>2019-04-28T07:35:46Z</time>
      </trkpt>
      <trkpt lat="45.575" lon="4.50237">
        <ele>866</ele>
        <time>2019-04-28T07:35:51Z</time>
      </trkpt>
      <trkpt lat="45.57507" lon="4.50242">
        <ele>866.9</ele>
        <time>2019-04-28T07:35:55Z</time>
      </trkpt>
      <trkpt lat="45.57512" lon="4.50248">
        <ele>868</ele>
        <time>2019-04-28T07:35:58Z</time>
      </trkpt>
      <trkpt lat="45.57515" lon="4.50257">
        <ele>868.4</ele>
        <time>2019-04-28T07:36:02Z</time>
      </trkpt>
      <trkpt lat="45.57516" lon="4.50262">
        <ele>868.6</ele>
        <time>2019-04-28T07:36:04Z</time>
      </trkpt>
      <trkpt lat="45.57519" lon="4.50272">
        <ele>869.1</ele>
        <time>2019-04-28T07:36:08Z</time>
      </trkpt>
      <trkpt lat="45.57523" lon="4.50279">
        <ele>869.6</ele>
        <time>2019-04-28T07:36:11Z</time>
      </trkpt>
      <trkpt lat="45.57537" lon="4.50294">
        <ele>869.8</ele>
        <time>2019-04-28T07:36:17Z</time>
      </trkpt>
      <trkpt lat="45.57546" lon="4.50307">
        <ele>870</ele>
        <time>2019-04-28T07:36:22Z</time>
      </trkpt>
      <trkpt lat="45.5755" lon="4.50313">
        <ele>870.1</ele>
        <time>2019-04-28T07:36:24Z</time>
      </trkpt>
      <trkpt lat="45.57555" lon="4.50323">
        <ele>870.3</ele>
        <time>2019-04-28T07:36:27Z</time>
      </trkpt>
      <trkpt lat="45.57565" lon="4.50338">
        <ele>870.6</ele>
        <time>2019-04-28T07:36:32Z</time>
      </trkpt>
      <trkpt lat="45.57571" lon="4.50347">
        <ele>870.7</ele>
        <time>2019-04-28T07:36:35Z</time>
      </trkpt>
      <trkpt lat="45.5758" lon="4.50363">
        <ele>870.7</ele>
        <time>2019-04-28T07:36:40Z</time>
      </trkpt>
      <trkpt lat="45.576" lon="4.50394">
        <ele>871.1</ele>
        <time>2019-04-28T07:36:50Z</time>
      </trkpt>
      <trkpt lat="45.57618" lon="4.50423">
        <ele>871.7</ele>
        <time>2019-04-28T07:36:59Z</time>
      </trkpt>
      <trkpt lat="45.57636" lon="4.50452">
        <ele>872</ele>
        <time>2019-04-28T07:37:07Z</time>
      </trkpt>
      <trkpt lat="45.57658" lon="4.50484">
        <ele>873.8</ele>
        <time>2019-04-28T07:37:16Z</time>
      </trkpt>
      <trkpt lat="45.57679" lon="4.5051">
        <ele>874.5</ele>
        <time>2019-04-28T07:37:24Z</time>
      </trkpt>
      <trkpt lat="45.57681" lon="4.50514">
        <ele>874.6</ele>
        <time>2019-04-28T07:37:25Z</time>
      </trkpt>
      <trkpt lat="45.57698" lon="4.50528">
        <ele>875.1</ele>
        <time>2019-04-28T07:37:30Z</time>
      </trkpt>
      <trkpt lat="45.57705" lon="4.50533">
        <ele>875.5</ele>
        <time>2019-04-28T07:37:32Z</time>
      </trkpt>
      <trkpt lat="45.57712" lon="4.50536">
        <ele>875.9</ele>
        <time>2019-04-28T07:37:34Z</time>
      </trkpt>
      <trkpt lat="45.57721" lon="4.50534">
        <ele>876.3</ele>
        <time>2019-04-28T07:37:37Z</time>
      </trkpt>
      <trkpt lat="45.57732" lon="4.5052">
        <ele>876.9</ele>
        <time>2019-04-28T07:37:41Z</time>
      </trkpt>
      <trkpt lat="45.57745" lon="4.50506">
        <ele>877.7</ele>
        <time>2019-04-28T07:37:45Z</time>
      </trkpt>
      <trkpt lat="45.57754" lon="4.50496">
        <ele>878.3</ele>
        <time>2019-04-28T07:37:48Z</time>
      </trkpt>
      <trkpt lat="45.57779" lon="4.50469">
        <ele>880.4</ele>
        <time>2019-04-28T07:37:57Z</time>
      </trkpt>
      <trkpt lat="45.57785" lon="4.50458">
        <ele>881</ele>
        <time>2019-04-28T07:38:00Z</time>
      </trkpt>
      <trkpt lat="45.57793" lon="4.50441">
        <ele>882.2</ele>
        <time>2019-04-28T07:38:05Z</time>
      </trkpt>
      <trkpt lat="45.57802" lon="4.50418">
        <ele>883.6</ele>
        <time>2019-04-28T07:38:12Z</time>
      </trkpt>
      <trkpt lat="45.57803" lon="4.50415">
        <ele>883.8</ele>
        <time>2019-04-28T07:38:13Z</time>
      </trkpt>
      <trkpt lat="45.57807" lon="4.50404">
        <ele>884.5</ele>
        <time>2019-04-28T07:38:17Z</time>
      </trkpt>
      <trkpt lat="45.57812" lon="4.50393">
        <ele>885.3</ele>
        <time>2019-04-28T07:38:21Z</time>
      </trkpt>
      <trkpt lat="45.57815" lon="4.50386">
        <ele>885.9</ele>
        <time>2019-04-28T07:38:24Z</time>
      </trkpt>
      <trkpt lat="45.5782" lon="4.50371">
        <ele>886.9</ele>
        <time>2019-04-28T07:38:30Z</time>
      </trkpt>
      <trkpt lat="45.57821" lon="4.50368">
        <ele>887.1</ele>
        <time>2019-04-28T07:38:31Z</time>
      </trkpt>
      <trkpt lat="45.57825" lon="4.50362">
        <ele>887.6</ele>
        <time>2019-04-28T07:38:34Z</time>
      </trkpt>
      <trkpt lat="45.5783" lon="4.5035">
        <ele>888.5</ele>
        <time>2019-04-28T07:38:39Z</time>
      </trkpt>
      <trkpt lat="45.5783" lon="4.50347">
        <ele>888.7</ele>
        <time>2019-04-28T07:38:40Z</time>
      </trkpt>
      <trkpt lat="45.57834" lon="4.50336">
        <ele>889.5</ele>
        <time>2019-04-28T07:38:44Z</time>
      </trkpt>
      <trkpt lat="45.57836" lon="4.50326">
        <ele>890.2</ele>
        <time>2019-04-28T07:38:48Z</time>
      </trkpt>
      <trkpt lat="45.57844" lon="4.50309">
        <ele>891.6</ele>
        <time>2019-04-28T07:38:55Z</time>
      </trkpt>
      <trkpt lat="45.57846" lon="4.50302">
        <ele>892.1</ele>
        <time>2019-04-28T07:38:58Z</time>
      </trkpt>
      <trkpt lat="45.57845" lon="4.503">
        <ele>892.2</ele>
        <time>2019-04-28T07:38:59Z</time>
      </trkpt>
      <trkpt lat="45.57845" lon="4.50291">
        <ele>892.9</ele>
        <time>2019-04-28T07:39:02Z</time>
      </trkpt>
      <trkpt lat="45.57845" lon="4.50289">
        <ele>893</ele>
        <time>2019-04-28T07:39:03Z</time>
      </trkpt>
      <trkpt lat="45.57848" lon="4.50269">
        <ele>893.9</ele>
        <time>2019-04-28T07:39:10Z</time>
      </trkpt>
      <trkpt lat="45.57849" lon="4.50261">
        <ele>894.3</ele>
        <time>2019-04-28T07:39:13Z</time>
      </trkpt>
      <trkpt lat="45.5785" lon="4.50248">
        <ele>895.1</ele>
        <time>2019-04-28T07:39:18Z</time>
      </trkpt>
      <trkpt lat="45.57851" lon="4.50245">
        <ele>895.2</ele>
        <time>2019-04-28T07:39:19Z</time>
      </trkpt>
      <trkpt lat="45.57851" lon="4.50233">
        <ele>896</ele>
        <time>2019-04-28T07:39:24Z</time>
      </trkpt>
      <trkpt lat="45.57851" lon="4.50228">
        <ele>896.3</ele>
        <time>2019-04-28T07:39:26Z</time>
      </trkpt>
      <trkpt lat="45.57852" lon="4.50224">
        <ele>896.6</ele>
        <time>2019-04-28T07:39:28Z</time>
      </trkpt>
      <trkpt lat="45.57853" lon="4.50217">
        <ele>897.1</ele>
        <time>2019-04-28T07:39:31Z</time>
      </trkpt>
      <trkpt lat="45.57855" lon="4.50209">
        <ele>897.7</ele>
        <time>2019-04-28T07:39:35Z</time>
      </trkpt>
      <trkpt lat="45.57856" lon="4.50207">
        <ele>897.9</ele>
        <time>2019-04-28T07:39:36Z</time>
      </trkpt>
      <trkpt lat="45.57857" lon="4.502">
        <ele>898.3</ele>
        <time>2019-04-28T07:39:39Z</time>
      </trkpt>
      <trkpt lat="45.5786" lon="4.50191">
        <ele>899</ele>
        <time>2019-04-28T07:39:43Z</time>
      </trkpt>
      <trkpt lat="45.5786" lon="4.50189">
        <ele>899.1</ele>
        <time>2019-04-28T07:39:44Z</time>
      </trkpt>
      <trkpt lat="45.57865" lon="4.50175">
        <ele>900.1</ele>
        <time>2019-04-28T07:39:51Z</time>
      </trkpt>
      <trkpt lat="45.57866" lon="4.50173">
        <ele>900.2</ele>
        <time>2019-04-28T07:39:52Z</time>
      </trkpt>
      <trkpt lat="45.57873" lon="4.50156">
        <ele>901.3</ele>
        <time>2019-04-28T07:40:01Z</time>
      </trkpt>
      <trkpt lat="45.57879" lon="4.50144">
        <ele>901.9</ele>
        <time>2019-04-28T07:40:07Z</time>
      </trkpt>
      <trkpt lat="45.5788" lon="4.50142">
        <ele>902</ele>
        <time>2019-04-28T07:40:08Z</time>
      </trkpt>
      <trkpt lat="45.57887" lon="4.50132">
        <ele>902.5</ele>
        <time>2019-04-28T07:40:14Z</time>
      </trkpt>
      <trkpt lat="45.57888" lon="4.5013">
        <ele>902.6</ele>
        <time>2019-04-28T07:40:15Z</time>
      </trkpt>
      <trkpt lat="45.57896" lon="4.50121">
        <ele>902.9</ele>
        <time>2019-04-28T07:40:21Z</time>
      </trkpt>
      <trkpt lat="45.57909" lon="4.50106">
        <ele>903.4</ele>
        <time>2019-04-28T07:40:29Z</time>
      </trkpt>
      <trkpt lat="45.57924" lon="4.50091">
        <ele>903.6</ele>
        <time>2019-04-28T07:40:37Z</time>
      </trkpt>
      <trkpt lat="45.57926" lon="4.5009">
        <ele>903.6</ele>
        <time>2019-04-28T07:40:38Z</time>
      </trkpt>
      <trkpt lat="45.5794" lon="4.50078">
        <ele>903.4</ele>
        <time>2019-04-28T07:40:45Z</time>
      </trkpt>
      <trkpt lat="45.57946" lon="4.50071">
        <ele>903.1</ele>
        <time>2019-04-28T07:40:49Z</time>
      </trkpt>
      <trkpt lat="45.5795" lon="4.50066">
        <ele>903</ele>
        <time>2019-04-28T07:40:51Z</time>
      </trkpt>
      <trkpt lat="45.57962" lon="4.50057">
        <ele>902.3</ele>
        <time>2019-04-28T07:40:58Z</time>
      </trkpt>
      <trkpt lat="45.57963" lon="4.50054">
        <ele>902.1</ele>
        <time>2019-04-28T07:41:43Z</time>
      </trkpt>
      <trkpt lat="45.57967" lon="4.50051">
        <ele>901.9</ele>
        <time>2019-04-28T07:41:45Z</time>
      </trkpt>
      <trkpt lat="45.57973" lon="4.50047">
        <ele>901.6</ele>
        <time>2019-04-28T07:41:47Z</time>
      </trkpt>
      <trkpt lat="45.57984" lon="4.50039">
        <ele>900.8</ele>
        <time>2019-04-28T07:41:50Z</time>
      </trkpt>
      <trkpt lat="45.57998" lon="4.50027">
        <ele>899.7</ele>
        <time>2019-04-28T07:41:53Z</time>
      </trkpt>
      <trkpt lat="45.58003" lon="4.50024">
        <ele>899.4</ele>
        <time>2019-04-28T07:41:54Z</time>
      </trkpt>
      <trkpt lat="45.58008" lon="4.50021">
        <ele>899.1</ele>
        <time>2019-04-28T07:41:55Z</time>
      </trkpt>
      <trkpt lat="45.58014" lon="4.50017">
        <ele>898.8</ele>
        <time>2019-04-28T07:41:56Z</time>
      </trkpt>
      <trkpt lat="45.58025" lon="4.50007">
        <ele>898.2</ele>
        <time>2019-04-28T07:41:58Z</time>
      </trkpt>
      <trkpt lat="45.58035" lon="4.49996">
        <ele>897.6</ele>
        <time>2019-04-28T07:42:00Z</time>
      </trkpt>
      <trkpt lat="45.5804" lon="4.49989">
        <ele>897.3</ele>
        <time>2019-04-28T07:42:01Z</time>
      </trkpt>
      <trkpt lat="45.58055" lon="4.49968">
        <ele>895.9</ele>
        <time>2019-04-28T07:42:04Z</time>
      </trkpt>
      <trkpt lat="45.58064" lon="4.49951">
        <ele>895</ele>
        <time>2019-04-28T07:42:06Z</time>
      </trkpt>
      <trkpt lat="45.58068" lon="4.49942">
        <ele>894.6</ele>
        <time>2019-04-28T07:42:07Z</time>
      </trkpt>
      <trkpt lat="45.58078" lon="4.49925">
        <ele>893.6</ele>
        <time>2019-04-28T07:42:09Z</time>
      </trkpt>
      <trkpt lat="45.58087" lon="4.49907">
        <ele>892.5</ele>
        <time>2019-04-28T07:42:11Z</time>
      </trkpt>
      <trkpt lat="45.58091" lon="4.49898">
        <ele>892</ele>
        <time>2019-04-28T07:42:12Z</time>
      </trkpt>
      <trkpt lat="45.58096" lon="4.4989">
        <ele>891.5</ele>
        <time>2019-04-28T07:42:13Z</time>
      </trkpt>
      <trkpt lat="45.58107" lon="4.49866">
        <ele>889.9</ele>
        <time>2019-04-28T07:42:16Z</time>
      </trkpt>
      <trkpt lat="45.58118" lon="4.49856">
        <ele>889.3</ele>
        <time>2019-04-28T07:42:18Z</time>
      </trkpt>
      <trkpt lat="45.58129" lon="4.49845">
        <ele>888.8</ele>
        <time>2019-04-28T07:42:20Z</time>
      </trkpt>
      <trkpt lat="45.58138" lon="4.49833">
        <ele>888.5</ele>
        <time>2019-04-28T07:42:22Z</time>
      </trkpt>
      <trkpt lat="45.58143" lon="4.49828">
        <ele>888.4</ele>
        <time>2019-04-28T07:42:23Z</time>
      </trkpt>
      <trkpt lat="45.58152" lon="4.49815">
        <ele>888.2</ele>
        <time>2019-04-28T07:42:25Z</time>
      </trkpt>
      <trkpt lat="45.58161" lon="4.49801">
        <ele>888.1</ele>
        <time>2019-04-28T07:42:27Z</time>
      </trkpt>
      <trkpt lat="45.58164" lon="4.49795">
        <ele>888</ele>
        <time>2019-04-28T07:42:28Z</time>
      </trkpt>
      <trkpt lat="45.58169" lon="4.49783">
        <ele>887.8</ele>
        <time>2019-04-28T07:42:30Z</time>
      </trkpt>
      <trkpt lat="45.58178" lon="4.49758">
        <ele>887.7</ele>
        <time>2019-04-28T07:42:34Z</time>
      </trkpt>
      <trkpt lat="45.58187" lon="4.49725">
        <ele>887.8</ele>
        <time>2019-04-28T07:42:40Z</time>
      </trkpt>
      <trkpt lat="45.58195" lon="4.4972">
        <ele>888.6</ele>
        <time>2019-04-28T07:42:43Z</time>
      </trkpt>
      <trkpt lat="45.58199" lon="4.49721">
        <ele>888.8</ele>
        <time>2019-04-28T07:42:44Z</time>
      </trkpt>
      <trkpt lat="45.5821" lon="4.49736">
        <ele>890.1</ele>
        <time>2019-04-28T07:42:49Z</time>
      </trkpt>
      <trkpt lat="45.5822" lon="4.49749">
        <ele>891</ele>
        <time>2019-04-28T07:42:53Z</time>
      </trkpt>
      <trkpt lat="45.58227" lon="4.49758">
        <ele>891.7</ele>
        <time>2019-04-28T07:42:56Z</time>
      </trkpt>
      <trkpt lat="45.58229" lon="4.49762">
        <ele>891.9</ele>
        <time>2019-04-28T07:42:57Z</time>
      </trkpt>
      <trkpt lat="45.58234" lon="4.49767">
        <ele>892.3</ele>
        <time>2019-04-28T07:42:59Z</time>
      </trkpt>
      <trkpt lat="45.58241" lon="4.49778">
        <ele>893.1</ele>
        <time>2019-04-28T07:43:03Z</time>
      </trkpt>
      <trkpt lat="45.58245" lon="4.49782">
        <ele>893.5</ele>
        <time>2019-04-28T07:43:05Z</time>
      </trkpt>
      <trkpt lat="45.58247" lon="4.49784">
        <ele>893.6</ele>
        <time>2019-04-28T07:43:06Z</time>
      </trkpt>
      <trkpt lat="45.5825" lon="4.49789">
        <ele>894</ele>
        <time>2019-04-28T07:43:08Z</time>
      </trkpt>
      <trkpt lat="45.58256" lon="4.49795">
        <ele>894.5</ele>
        <time>2019-04-28T07:43:11Z</time>
      </trkpt>
      <trkpt lat="45.58259" lon="4.498">
        <ele>894.8</ele>
        <time>2019-04-28T07:43:13Z</time>
      </trkpt>
      <trkpt lat="45.58261" lon="4.49802">
        <ele>895</ele>
        <time>2019-04-28T07:43:14Z</time>
      </trkpt>
      <trkpt lat="45.5827" lon="4.49814">
        <ele>896</ele>
        <time>2019-04-28T07:43:19Z</time>
      </trkpt>
      <trkpt lat="45.58276" lon="4.4982">
        <ele>896.5</ele>
        <time>2019-04-28T07:43:22Z</time>
      </trkpt>
      <trkpt lat="45.58279" lon="4.49824">
        <ele>896.8</ele>
        <time>2019-04-28T07:43:24Z</time>
      </trkpt>
      <trkpt lat="45.58283" lon="4.49829">
        <ele>897.2</ele>
        <time>2019-04-28T07:43:27Z</time>
      </trkpt>
      <trkpt lat="45.58285" lon="4.4983">
        <ele>897.3</ele>
        <time>2019-04-28T07:43:28Z</time>
      </trkpt>
      <trkpt lat="45.58293" lon="4.49842">
        <ele>898</ele>
        <time>2019-04-28T07:43:33Z</time>
      </trkpt>
      <trkpt lat="45.58298" lon="4.49848">
        <ele>898.4</ele>
        <time>2019-04-28T07:43:36Z</time>
      </trkpt>
      <trkpt lat="45.58308" lon="4.49861">
        <ele>899.2</ele>
        <time>2019-04-28T07:43:42Z</time>
      </trkpt>
      <trkpt lat="45.5831" lon="4.49863">
        <ele>899.3</ele>
        <time>2019-04-28T07:43:43Z</time>
      </trkpt>
      <trkpt lat="45.58324" lon="4.49882">
        <ele>900.3</ele>
        <time>2019-04-28T07:43:52Z</time>
      </trkpt>
      <trkpt lat="45.58327" lon="4.49886">
        <ele>900.5</ele>
        <time>2019-04-28T07:43:54Z</time>
      </trkpt>
      <trkpt lat="45.58333" lon="4.49895">
        <ele>900.9</ele>
        <time>2019-04-28T07:43:58Z</time>
      </trkpt>
      <trkpt lat="45.58337" lon="4.49901">
        <ele>901.2</ele>
        <time>2019-04-28T07:44:01Z</time>
      </trkpt>
      <trkpt lat="45.58339" lon="4.49903">
        <ele>901.2</ele>
        <time>2019-04-28T07:44:02Z</time>
      </trkpt>
      <trkpt lat="45.58348" lon="4.49914">
        <ele>901.7</ele>
        <time>2019-04-28T07:44:08Z</time>
      </trkpt>
      <trkpt lat="45.58352" lon="4.49917">
        <ele>901.8</ele>
        <time>2019-04-28T07:44:10Z</time>
      </trkpt>
      <trkpt lat="45.58359" lon="4.49921">
        <ele>902</ele>
        <time>2019-04-28T07:44:14Z</time>
      </trkpt>
      <trkpt lat="45.58369" lon="4.49927">
        <ele>902.2</ele>
        <time>2019-04-28T07:44:19Z</time>
      </trkpt>
      <trkpt lat="45.58382" lon="4.49937">
        <ele>902.3</ele>
        <time>2019-04-28T07:44:27Z</time>
      </trkpt>
      <trkpt lat="45.58395" lon="4.4995">
        <ele>902.3</ele>
        <time>2019-04-28T07:44:35Z</time>
      </trkpt>
      <trkpt lat="45.58406" lon="4.49961">
        <ele>902.2</ele>
        <time>2019-04-28T07:44:41Z</time>
      </trkpt>
      <trkpt lat="45.5842" lon="4.49976">
        <ele>902.1</ele>
        <time>2019-04-28T07:44:48Z</time>
      </trkpt>
      <trkpt lat="45.58431" lon="4.49987">
        <ele>902</ele>
        <time>2019-04-28T07:44:52Z</time>
      </trkpt>
      <trkpt lat="45.58438" lon="4.49993">
        <ele>901.9</ele>
        <time>2019-04-28T07:44:54Z</time>
      </trkpt>
      <trkpt lat="45.58457" lon="4.50013">
        <ele>902.1</ele>
        <time>2019-04-28T07:45:01Z</time>
      </trkpt>
      <trkpt lat="45.58474" lon="4.50036">
        <ele>902.6</ele>
        <time>2019-04-28T07:45:08Z</time>
      </trkpt>
      <trkpt lat="45.58482" lon="4.50048">
        <ele>902.9</ele>
        <time>2019-04-28T07:45:12Z</time>
      </trkpt>
      <trkpt lat="45.58487" lon="4.50057">
        <ele>903.2</ele>
        <time>2019-04-28T07:45:15Z</time>
      </trkpt>
      <trkpt lat="45.58497" lon="4.50077">
        <ele>903.7</ele>
        <time>2019-04-28T07:45:21Z</time>
      </trkpt>
      <trkpt lat="45.58499" lon="4.5008">
        <ele>903.8</ele>
        <time>2019-04-28T07:45:22Z</time>
      </trkpt>
      <trkpt lat="45.58507" lon="4.50094">
        <ele>904.3</ele>
        <time>2019-04-28T07:45:27Z</time>
      </trkpt>
      <trkpt lat="45.58513" lon="4.501">
        <ele>904.5</ele>
        <time>2019-04-28T07:45:30Z</time>
      </trkpt>
      <trkpt lat="45.58523" lon="4.50106">
        <ele>904.8</ele>
        <time>2019-04-28T07:45:34Z</time>
      </trkpt>
      <trkpt lat="45.58531" lon="4.50113">
        <ele>905.1</ele>
        <time>2019-04-28T07:45:37Z</time>
      </trkpt>
      <trkpt lat="45.58538" lon="4.50118">
        <ele>905.3</ele>
        <time>2019-04-28T07:45:40Z</time>
      </trkpt>
      <trkpt lat="45.58545" lon="4.50122">
        <ele>905.2</ele>
        <time>2019-04-28T07:45:43Z</time>
      </trkpt>
      <trkpt lat="45.58552" lon="4.50121">
        <ele>904.5</ele>
        <time>2019-04-28T07:45:57Z</time>
      </trkpt>
      <trkpt lat="45.58552" lon="4.50114">
        <ele>904</ele>
        <time>2019-04-28T07:45:59Z</time>
      </trkpt>
      <trkpt lat="45.58548" lon="4.50104">
        <ele>903.3</ele>
        <time>2019-04-28T07:46:01Z</time>
      </trkpt>
      <trkpt lat="45.58544" lon="4.50089">
        <ele>902.2</ele>
        <time>2019-04-28T07:46:03Z</time>
      </trkpt>
      <trkpt lat="45.58541" lon="4.50081">
        <ele>901.6</ele>
        <time>2019-04-28T07:46:04Z</time>
      </trkpt>
      <trkpt lat="45.58535" lon="4.50062">
        <ele>900.2</ele>
        <time>2019-04-28T07:46:06Z</time>
      </trkpt>
      <trkpt lat="45.58529" lon="4.50041">
        <ele>898.7</ele>
        <time>2019-04-28T07:46:08Z</time>
      </trkpt>
      <trkpt lat="45.58523" lon="4.50018">
        <ele>896.8</ele>
        <time>2019-04-28T07:46:10Z</time>
      </trkpt>
      <trkpt lat="45.58516" lon="4.49994">
        <ele>895.2</ele>
        <time>2019-04-28T07:46:12Z</time>
      </trkpt>
      <trkpt lat="45.58508" lon="4.4997">
        <ele>893.5</ele>
        <time>2019-04-28T07:46:14Z</time>
      </trkpt>
      <trkpt lat="45.58499" lon="4.49945">
        <ele>891.7</ele>
        <time>2019-04-28T07:46:16Z</time>
      </trkpt>
      <trkpt lat="45.5849" lon="4.4992">
        <ele>890.7</ele>
        <time>2019-04-28T07:46:18Z</time>
      </trkpt>
      <trkpt lat="45.58487" lon="4.49908">
        <ele>890.3</ele>
        <time>2019-04-28T07:46:19Z</time>
      </trkpt>
      <trkpt lat="45.58484" lon="4.49896">
        <ele>890</ele>
        <time>2019-04-28T07:46:20Z</time>
      </trkpt>
      <trkpt lat="45.58479" lon="4.49873">
        <ele>889.1</ele>
        <time>2019-04-28T07:46:22Z</time>
      </trkpt>
      <trkpt lat="45.58474" lon="4.49851">
        <ele>888.3</ele>
        <time>2019-04-28T07:46:24Z</time>
      </trkpt>
      <trkpt lat="45.58468" lon="4.49819">
        <ele>887.1</ele>
        <time>2019-04-28T07:46:27Z</time>
      </trkpt>
      <trkpt lat="45.58462" lon="4.49788">
        <ele>885.2</ele>
        <time>2019-04-28T07:46:30Z</time>
      </trkpt>
      <trkpt lat="45.5846" lon="4.49767">
        <ele>883.7</ele>
        <time>2019-04-28T07:46:32Z</time>
      </trkpt>
      <trkpt lat="45.58456" lon="4.49747">
        <ele>882.1</ele>
        <time>2019-04-28T07:46:34Z</time>
      </trkpt>
      <trkpt lat="45.5845" lon="4.49728">
        <ele>880.3</ele>
        <time>2019-04-28T07:46:36Z</time>
      </trkpt>
      <trkpt lat="45.58444" lon="4.49712">
        <ele>878.7</ele>
        <time>2019-04-28T07:46:38Z</time>
      </trkpt>
      <trkpt lat="45.58441" lon="4.49705">
        <ele>877.7</ele>
        <time>2019-04-28T07:46:39Z</time>
      </trkpt>
      <trkpt lat="45.58439" lon="4.49699">
        <ele>876.8</ele>
        <time>2019-04-28T07:46:40Z</time>
      </trkpt>
      <trkpt lat="45.58434" lon="4.49687">
        <ele>874.9</ele>
        <time>2019-04-28T07:46:42Z</time>
      </trkpt>
      <trkpt lat="45.58432" lon="4.49682">
        <ele>874.2</ele>
        <time>2019-04-28T07:46:43Z</time>
      </trkpt>
      <trkpt lat="45.5843" lon="4.49676">
        <ele>873.5</ele>
        <time>2019-04-28T07:46:44Z</time>
      </trkpt>
      <trkpt lat="45.58429" lon="4.49663">
        <ele>872</ele>
        <time>2019-04-28T07:46:46Z</time>
      </trkpt>
      <trkpt lat="45.58431" lon="4.4965">
        <ele>870.7</ele>
        <time>2019-04-28T07:46:48Z</time>
      </trkpt>
      <trkpt lat="45.58432" lon="4.49643">
        <ele>870</ele>
        <time>2019-04-28T07:46:49Z</time>
      </trkpt>
      <trkpt lat="45.58434" lon="4.49635">
        <ele>869</ele>
        <time>2019-04-28T07:46:50Z</time>
      </trkpt>
      <trkpt lat="45.58436" lon="4.49618">
        <ele>867.2</ele>
        <time>2019-04-28T07:46:52Z</time>
      </trkpt>
      <trkpt lat="45.58436" lon="4.49609">
        <ele>866.3</ele>
        <time>2019-04-28T07:46:53Z</time>
      </trkpt>
      <trkpt lat="45.58437" lon="4.49599">
        <ele>865.5</ele>
        <time>2019-04-28T07:46:54Z</time>
      </trkpt>
      <trkpt lat="45.58437" lon="4.49583">
        <ele>864.2</ele>
        <time>2019-04-28T07:46:56Z</time>
      </trkpt>
      <trkpt lat="45.58438" lon="4.49575">
        <ele>863.5</ele>
        <time>2019-04-28T07:46:57Z</time>
      </trkpt>
      <trkpt lat="45.58439" lon="4.49567">
        <ele>862.7</ele>
        <time>2019-04-28T07:46:58Z</time>
      </trkpt>
      <trkpt lat="45.58443" lon="4.49553">
        <ele>861.3</ele>
        <time>2019-04-28T07:47:00Z</time>
      </trkpt>
      <trkpt lat="45.58445" lon="4.49547">
        <ele>860.8</ele>
        <time>2019-04-28T07:47:01Z</time>
      </trkpt>
      <trkpt lat="45.58448" lon="4.49541">
        <ele>860.1</ele>
        <time>2019-04-28T07:47:02Z</time>
      </trkpt>
      <trkpt lat="45.5845" lon="4.49536">
        <ele>859.4</ele>
        <time>2019-04-28T07:47:03Z</time>
      </trkpt>
      <trkpt lat="45.58452" lon="4.49531">
        <ele>858.6</ele>
        <time>2019-04-28T07:47:04Z</time>
      </trkpt>
      <trkpt lat="45.58453" lon="4.49525">
        <ele>858</ele>
        <time>2019-04-28T07:47:05Z</time>
      </trkpt>
      <trkpt lat="45.58456" lon="4.49512">
        <ele>856.9</ele>
        <time>2019-04-28T07:47:07Z</time>
      </trkpt>
      <trkpt lat="45.58457" lon="4.49499">
        <ele>855.8</ele>
        <time>2019-04-28T07:47:09Z</time>
      </trkpt>
      <trkpt lat="45.58458" lon="4.49492">
        <ele>855.3</ele>
        <time>2019-04-28T07:47:10Z</time>
      </trkpt>
      <trkpt lat="45.58461" lon="4.49478">
        <ele>854.4</ele>
        <time>2019-04-28T07:47:12Z</time>
      </trkpt>
      <trkpt lat="45.58464" lon="4.49463">
        <ele>852.6</ele>
        <time>2019-04-28T07:47:14Z</time>
      </trkpt>
      <trkpt lat="45.58473" lon="4.49436">
        <ele>849.8</ele>
        <time>2019-04-28T07:47:18Z</time>
      </trkpt>
      <trkpt lat="45.58476" lon="4.49432">
        <ele>849.1</ele>
        <time>2019-04-28T07:47:19Z</time>
      </trkpt>
      <trkpt lat="45.58484" lon="4.49429">
        <ele>847.5</ele>
        <time>2019-04-28T07:47:21Z</time>
      </trkpt>
      <trkpt lat="45.58495" lon="4.49431">
        <ele>845.1</ele>
        <time>2019-04-28T07:47:24Z</time>
      </trkpt>
      <trkpt lat="45.58502" lon="4.49431">
        <ele>843.6</ele>
        <time>2019-04-28T07:47:26Z</time>
      </trkpt>
      <trkpt lat="45.5851" lon="4.49424">
        <ele>841.7</ele>
        <time>2019-04-28T07:47:28Z</time>
      </trkpt>
      <trkpt lat="45.58517" lon="4.49413">
        <ele>839.9</ele>
        <time>2019-04-28T07:47:30Z</time>
      </trkpt>
      <trkpt lat="45.5852" lon="4.49408">
        <ele>839</ele>
        <time>2019-04-28T07:47:31Z</time>
      </trkpt>
      <trkpt lat="45.58523" lon="4.49398">
        <ele>838.1</ele>
        <time>2019-04-28T07:47:33Z</time>
      </trkpt>
      <trkpt lat="45.58523" lon="4.49393">
        <ele>837.8</ele>
        <time>2019-04-28T07:47:34Z</time>
      </trkpt>
      <trkpt lat="45.58522" lon="4.49388">
        <ele>837.4</ele>
        <time>2019-04-28T07:47:35Z</time>
      </trkpt>
      <trkpt lat="45.58519" lon="4.49373">
        <ele>836.3</ele>
        <time>2019-04-28T07:47:37Z</time>
      </trkpt>
      <trkpt lat="45.58516" lon="4.49357">
        <ele>835.1</ele>
        <time>2019-04-28T07:47:39Z</time>
      </trkpt>
      <trkpt lat="45.58511" lon="4.4934">
        <ele>834.1</ele>
        <time>2019-04-28T07:47:41Z</time>
      </trkpt>
      <trkpt lat="45.58508" lon="4.49331">
        <ele>833.5</ele>
        <time>2019-04-28T07:47:42Z</time>
      </trkpt>
      <trkpt lat="45.58507" lon="4.49322">
        <ele>833.2</ele>
        <time>2019-04-28T07:47:43Z</time>
      </trkpt>
      <trkpt lat="45.58504" lon="4.49293">
        <ele>832.1</ele>
        <time>2019-04-28T07:47:46Z</time>
      </trkpt>
      <trkpt lat="45.585" lon="4.49274">
        <ele>831.6</ele>
        <time>2019-04-28T07:47:48Z</time>
      </trkpt>
      <trkpt lat="45.58494" lon="4.49248">
        <ele>831</ele>
        <time>2019-04-28T07:47:51Z</time>
      </trkpt>
      <trkpt lat="45.58489" lon="4.49212">
        <ele>830</ele>
        <time>2019-04-28T07:47:55Z</time>
      </trkpt>
      <trkpt lat="45.58488" lon="4.49204">
        <ele>829.7</ele>
        <time>2019-04-28T07:47:56Z</time>
      </trkpt>
      <trkpt lat="45.58487" lon="4.49188">
        <ele>829.3</ele>
        <time>2019-04-28T07:47:58Z</time>
      </trkpt>
      <trkpt lat="45.58488" lon="4.49166">
        <ele>828.5</ele>
        <time>2019-04-28T07:48:01Z</time>
      </trkpt>
      <trkpt lat="45.58491" lon="4.49151">
        <ele>827.9</ele>
        <time>2019-04-28T07:48:03Z</time>
      </trkpt>
      <trkpt lat="45.58492" lon="4.49143">
        <ele>827.5</ele>
        <time>2019-04-28T07:48:04Z</time>
      </trkpt>
      <trkpt lat="45.58495" lon="4.49118">
        <ele>826.3</ele>
        <time>2019-04-28T07:48:07Z</time>
      </trkpt>
      <trkpt lat="45.58495" lon="4.49109">
        <ele>826</ele>
        <time>2019-04-28T07:48:08Z</time>
      </trkpt>
      <trkpt lat="45.58494" lon="4.49101">
        <ele>825.8</ele>
        <time>2019-04-28T07:48:09Z</time>
      </trkpt>
      <trkpt lat="45.58493" lon="4.49086">
        <ele>825.3</ele>
        <time>2019-04-28T07:48:11Z</time>
      </trkpt>
      <trkpt lat="45.58491" lon="4.49078">
        <ele>825.1</ele>
        <time>2019-04-28T07:48:12Z</time>
      </trkpt>
      <trkpt lat="45.58487" lon="4.49064">
        <ele>824.6</ele>
        <time>2019-04-28T07:48:14Z</time>
      </trkpt>
      <trkpt lat="45.5848" lon="4.49044">
        <ele>824.2</ele>
        <time>2019-04-28T07:48:17Z</time>
      </trkpt>
      <trkpt lat="45.58469" lon="4.49025">
        <ele>823.5</ele>
        <time>2019-04-28T07:48:20Z</time>
      </trkpt>
      <trkpt lat="45.58464" lon="4.4902">
        <ele>823.3</ele>
        <time>2019-04-28T07:48:21Z</time>
      </trkpt>
      <trkpt lat="45.58459" lon="4.49016">
        <ele>823.8</ele>
        <time>2019-04-28T07:48:22Z</time>
      </trkpt>
      <trkpt lat="45.5845" lon="4.49006">
        <ele>824.3</ele>
        <time>2019-04-28T07:48:24Z</time>
      </trkpt>
      <trkpt lat="45.58445" lon="4.49001">
        <ele>824.5</ele>
        <time>2019-04-28T07:48:25Z</time>
      </trkpt>
      <trkpt lat="45.58441" lon="4.48995">
        <ele>824.7</ele>
        <time>2019-04-28T07:48:26Z</time>
      </trkpt>
      <trkpt lat="45.58434" lon="4.48981">
        <ele>825</ele>
        <time>2019-04-28T07:48:28Z</time>
      </trkpt>
      <trkpt lat="45.58434" lon="4.48966">
        <ele>824.6</ele>
        <time>2019-04-28T07:48:30Z</time>
      </trkpt>
      <trkpt lat="45.58441" lon="4.48952">
        <ele>823.6</ele>
        <time>2019-04-28T07:48:32Z</time>
      </trkpt>
      <trkpt lat="45.58446" lon="4.48945">
        <ele>822.9</ele>
        <time>2019-04-28T07:48:33Z</time>
      </trkpt>
      <trkpt lat="45.58452" lon="4.48939">
        <ele>822.4</ele>
        <time>2019-04-28T07:48:34Z</time>
      </trkpt>
      <trkpt lat="45.58463" lon="4.48928">
        <ele>821.9</ele>
        <time>2019-04-28T07:48:36Z</time>
      </trkpt>
      <trkpt lat="45.58467" lon="4.48923">
        <ele>821.7</ele>
        <time>2019-04-28T07:48:37Z</time>
      </trkpt>
      <trkpt lat="45.58471" lon="4.48917">
        <ele>821.5</ele>
        <time>2019-04-28T07:48:38Z</time>
      </trkpt>
      <trkpt lat="45.58481" lon="4.48898">
        <ele>822.1</ele>
        <time>2019-04-28T07:48:41Z</time>
      </trkpt>
      <trkpt lat="45.58484" lon="4.48892">
        <ele>822.3</ele>
        <time>2019-04-28T07:48:42Z</time>
      </trkpt>
      <trkpt lat="45.58492" lon="4.48878">
        <ele>823.1</ele>
        <time>2019-04-28T07:48:45Z</time>
      </trkpt>
      <trkpt lat="45.58495" lon="4.48877">
        <ele>823.6</ele>
        <time>2019-04-28T07:48:46Z</time>
      </trkpt>
      <trkpt lat="45.58505" lon="4.48881">
        <ele>824.7</ele>
        <time>2019-04-28T07:48:49Z</time>
      </trkpt>
      <trkpt lat="45.58514" lon="4.48885">
        <ele>825.5</ele>
        <time>2019-04-28T07:48:53Z</time>
      </trkpt>
      <trkpt lat="45.58525" lon="4.4889">
        <ele>826.2</ele>
        <time>2019-04-28T07:48:58Z</time>
      </trkpt>
      <trkpt lat="45.5853" lon="4.48893">
        <ele>826.5</ele>
        <time>2019-04-28T07:49:01Z</time>
      </trkpt>
      <trkpt lat="45.58538" lon="4.48897">
        <ele>826.9</ele>
        <time>2019-04-28T07:49:05Z</time>
      </trkpt>
      <trkpt lat="45.5854" lon="4.48898">
        <ele>826.9</ele>
        <time>2019-04-28T07:49:06Z</time>
      </trkpt>
      <trkpt lat="45.58553" lon="4.48905">
        <ele>826.9</ele>
        <time>2019-04-28T07:49:11Z</time>
      </trkpt>
      <trkpt lat="45.58574" lon="4.48917">
        <ele>825.9</ele>
        <time>2019-04-28T07:49:17Z</time>
      </trkpt>
      <trkpt lat="45.58599" lon="4.48938">
        <ele>823.4</ele>
        <time>2019-04-28T07:49:23Z</time>
      </trkpt>
      <trkpt lat="45.58604" lon="4.4894">
        <ele>822.8</ele>
        <time>2019-04-28T07:49:24Z</time>
      </trkpt>
      <trkpt lat="45.58616" lon="4.48943">
        <ele>821.4</ele>
        <time>2019-04-28T07:49:26Z</time>
      </trkpt>
      <trkpt lat="45.58622" lon="4.48945">
        <ele>820.4</ele>
        <time>2019-04-28T07:49:27Z</time>
      </trkpt>
      <trkpt lat="45.58644" lon="4.48955">
        <ele>817.5</ele>
        <time>2019-04-28T07:49:30Z</time>
      </trkpt>
      <trkpt lat="45.58661" lon="4.48962">
        <ele>815.7</ele>
        <time>2019-04-28T07:49:32Z</time>
      </trkpt>
      <trkpt lat="45.58678" lon="4.48967">
        <ele>814.3</ele>
        <time>2019-04-28T07:49:34Z</time>
      </trkpt>
      <trkpt lat="45.58694" lon="4.48973">
        <ele>813.2</ele>
        <time>2019-04-28T07:49:36Z</time>
      </trkpt>
      <trkpt lat="45.58711" lon="4.4898">
        <ele>811.7</ele>
        <time>2019-04-28T07:49:38Z</time>
      </trkpt>
      <trkpt lat="45.58727" lon="4.48986">
        <ele>810.4</ele>
        <time>2019-04-28T07:49:40Z</time>
      </trkpt>
      <trkpt lat="45.58743" lon="4.48991">
        <ele>809.2</ele>
        <time>2019-04-28T07:49:42Z</time>
      </trkpt>
      <trkpt lat="45.58751" lon="4.48993">
        <ele>808.6</ele>
        <time>2019-04-28T07:49:43Z</time>
      </trkpt>
      <trkpt lat="45.58759" lon="4.48996">
        <ele>808</ele>
        <time>2019-04-28T07:49:44Z</time>
      </trkpt>
      <trkpt lat="45.58767" lon="4.48996">
        <ele>807.5</ele>
        <time>2019-04-28T07:49:45Z</time>
      </trkpt>
      <trkpt lat="45.58775" lon="4.48997">
        <ele>806.8</ele>
        <time>2019-04-28T07:49:46Z</time>
      </trkpt>
      <trkpt lat="45.58782" lon="4.48998">
        <ele>806.1</ele>
        <time>2019-04-28T07:49:47Z</time>
      </trkpt>
      <trkpt lat="45.58789" lon="4.48999">
        <ele>805.3</ele>
        <time>2019-04-28T07:49:48Z</time>
      </trkpt>
      <trkpt lat="45.58804" lon="4.48999">
        <ele>803.6</ele>
        <time>2019-04-28T07:49:50Z</time>
      </trkpt>
      <trkpt lat="45.5882" lon="4.48998">
        <ele>801.6</ele>
        <time>2019-04-28T07:49:52Z</time>
      </trkpt>
      <trkpt lat="45.58829" lon="4.48997">
        <ele>800.6</ele>
        <time>2019-04-28T07:49:53Z</time>
      </trkpt>
      <trkpt lat="45.58837" lon="4.48996">
        <ele>799.6</ele>
        <time>2019-04-28T07:49:54Z</time>
      </trkpt>
      <trkpt lat="45.58852" lon="4.48992">
        <ele>797.8</ele>
        <time>2019-04-28T07:49:56Z</time>
      </trkpt>
      <trkpt lat="45.58866" lon="4.48987">
        <ele>796</ele>
        <time>2019-04-28T07:49:58Z</time>
      </trkpt>
      <trkpt lat="45.5888" lon="4.48983">
        <ele>793.7</ele>
        <time>2019-04-28T07:50:00Z</time>
      </trkpt>
      <trkpt lat="45.58894" lon="4.48981">
        <ele>791.3</ele>
        <time>2019-04-28T07:50:02Z</time>
      </trkpt>
      <trkpt lat="45.58901" lon="4.4898">
        <ele>790</ele>
        <time>2019-04-28T07:50:03Z</time>
      </trkpt>
      <trkpt lat="45.58908" lon="4.48978">
        <ele>788.8</ele>
        <time>2019-04-28T07:50:04Z</time>
      </trkpt>
      <trkpt lat="45.58922" lon="4.4897">
        <ele>786.3</ele>
        <time>2019-04-28T07:50:06Z</time>
      </trkpt>
      <trkpt lat="45.5893" lon="4.48965">
        <ele>785</ele>
        <time>2019-04-28T07:50:07Z</time>
      </trkpt>
      <trkpt lat="45.58938" lon="4.48958">
        <ele>783.8</ele>
        <time>2019-04-28T07:50:08Z</time>
      </trkpt>
      <trkpt lat="45.58946" lon="4.48953">
        <ele>782.7</ele>
        <time>2019-04-28T07:50:09Z</time>
      </trkpt>
      <trkpt lat="45.58954" lon="4.48949">
        <ele>781.8</ele>
        <time>2019-04-28T07:50:10Z</time>
      </trkpt>
      <trkpt lat="45.58962" lon="4.48946">
        <ele>781.1</ele>
        <time>2019-04-28T07:50:11Z</time>
      </trkpt>
      <trkpt lat="45.58971" lon="4.48944">
        <ele>780.6</ele>
        <time>2019-04-28T07:50:12Z</time>
      </trkpt>
      <trkpt lat="45.58978" lon="4.48942">
        <ele>780.3</ele>
        <time>2019-04-28T07:50:13Z</time>
      </trkpt>
      <trkpt lat="45.58985" lon="4.48941">
        <ele>780.1</ele>
        <time>2019-04-28T07:50:14Z</time>
      </trkpt>
      <trkpt lat="45.58991" lon="4.48941">
        <ele>779.8</ele>
        <time>2019-04-28T07:50:15Z</time>
      </trkpt>
      <trkpt lat="45.59004" lon="4.48938">
        <ele>779.1</ele>
        <time>2019-04-28T07:50:17Z</time>
      </trkpt>
      <trkpt lat="45.59016" lon="4.48934">
        <ele>778.4</ele>
        <time>2019-04-28T07:50:19Z</time>
      </trkpt>
      <trkpt lat="45.59022" lon="4.48931">
        <ele>778.1</ele>
        <time>2019-04-28T07:50:20Z</time>
      </trkpt>
      <trkpt lat="45.59029" lon="4.48929">
        <ele>777.5</ele>
        <time>2019-04-28T07:50:21Z</time>
      </trkpt>
      <trkpt lat="45.59042" lon="4.48925">
        <ele>776.5</ele>
        <time>2019-04-28T07:50:23Z</time>
      </trkpt>
      <trkpt lat="45.59055" lon="4.4892">
        <ele>775.3</ele>
        <time>2019-04-28T07:50:25Z</time>
      </trkpt>
      <trkpt lat="45.59067" lon="4.48915">
        <ele>773.9</ele>
        <time>2019-04-28T07:50:27Z</time>
      </trkpt>
      <trkpt lat="45.59086" lon="4.48905">
        <ele>771.4</ele>
        <time>2019-04-28T07:50:30Z</time>
      </trkpt>
      <trkpt lat="45.59092" lon="4.489">
        <ele>770.6</ele>
        <time>2019-04-28T07:50:31Z</time>
      </trkpt>
      <trkpt lat="45.59097" lon="4.48893">
        <ele>769.8</ele>
        <time>2019-04-28T07:50:32Z</time>
      </trkpt>
      <trkpt lat="45.591" lon="4.48887">
        <ele>769.2</ele>
        <time>2019-04-28T07:50:33Z</time>
      </trkpt>
      <trkpt lat="45.59103" lon="4.48881">
        <ele>768.4</ele>
        <time>2019-04-28T07:50:34Z</time>
      </trkpt>
      <trkpt lat="45.59106" lon="4.48874">
        <ele>767.6</ele>
        <time>2019-04-28T07:50:35Z</time>
      </trkpt>
      <trkpt lat="45.5911" lon="4.48859">
        <ele>765.6</ele>
        <time>2019-04-28T07:50:37Z</time>
      </trkpt>
      <trkpt lat="45.59118" lon="4.48837">
        <ele>763.1</ele>
        <time>2019-04-28T07:50:40Z</time>
      </trkpt>
      <trkpt lat="45.5912" lon="4.4883">
        <ele>762.3</ele>
        <time>2019-04-28T07:50:41Z</time>
      </trkpt>
      <trkpt lat="45.59126" lon="4.48811">
        <ele>759.6</ele>
        <time>2019-04-28T07:50:44Z</time>
      </trkpt>
      <trkpt lat="45.5913" lon="4.48799">
        <ele>757.8</ele>
        <time>2019-04-28T07:50:46Z</time>
      </trkpt>
      <trkpt lat="45.59131" lon="4.48793">
        <ele>757</ele>
        <time>2019-04-28T07:50:47Z</time>
      </trkpt>
      <trkpt lat="45.59134" lon="4.48783">
        <ele>755.6</ele>
        <time>2019-04-28T07:50:49Z</time>
      </trkpt>
      <trkpt lat="45.59136" lon="4.48778">
        <ele>754.7</ele>
        <time>2019-04-28T07:50:50Z</time>
      </trkpt>
      <trkpt lat="45.59137" lon="4.48773">
        <ele>753.9</ele>
        <time>2019-04-28T07:50:51Z</time>
      </trkpt>
      <trkpt lat="45.59137" lon="4.48762">
        <ele>752.2</ele>
        <time>2019-04-28T07:50:53Z</time>
      </trkpt>
      <trkpt lat="45.5914" lon="4.48747">
        <ele>750</ele>
        <time>2019-04-28T07:50:56Z</time>
      </trkpt>
      <trkpt lat="45.59146" lon="4.48734">
        <ele>747.4</ele>
        <time>2019-04-28T07:50:59Z</time>
      </trkpt>
      <trkpt lat="45.59152" lon="4.48728">
        <ele>745.6</ele>
        <time>2019-04-28T07:51:01Z</time>
      </trkpt>
      <trkpt lat="45.59155" lon="4.48724">
        <ele>744.7</ele>
        <time>2019-04-28T07:51:02Z</time>
      </trkpt>
      <trkpt lat="45.59165" lon="4.48704">
        <ele>741.1</ele>
        <time>2019-04-28T07:51:06Z</time>
      </trkpt>
      <trkpt lat="45.59174" lon="4.48685">
        <ele>737.7</ele>
        <time>2019-04-28T07:51:10Z</time>
      </trkpt>
      <trkpt lat="45.59176" lon="4.48681">
        <ele>736.9</ele>
        <time>2019-04-28T07:51:11Z</time>
      </trkpt>
      <trkpt lat="45.59183" lon="4.48667">
        <ele>734.9</ele>
        <time>2019-04-28T07:51:15Z</time>
      </trkpt>
      <trkpt lat="45.59187" lon="4.48662">
        <ele>733.6</ele>
        <time>2019-04-28T07:51:17Z</time>
      </trkpt>
      <trkpt lat="45.59192" lon="4.48656">
        <ele>732.3</ele>
        <time>2019-04-28T07:51:19Z</time>
      </trkpt>
      <trkpt lat="45.59199" lon="4.4865">
        <ele>731</ele>
        <time>2019-04-28T07:51:22Z</time>
      </trkpt>
      <trkpt lat="45.59201" lon="4.48648">
        <ele>730.7</ele>
        <time>2019-04-28T07:51:23Z</time>
      </trkpt>
      <trkpt lat="45.59206" lon="4.48644">
        <ele>729.8</ele>
        <time>2019-04-28T07:51:25Z</time>
      </trkpt>
      <trkpt lat="45.59213" lon="4.48636">
        <ele>728.7</ele>
        <time>2019-04-28T07:51:29Z</time>
      </trkpt>
      <trkpt lat="45.59215" lon="4.48634">
        <ele>728.5</ele>
        <time>2019-04-28T07:51:30Z</time>
      </trkpt>
      <trkpt lat="45.5922" lon="4.4863">
        <ele>727.7</ele>
        <time>2019-04-28T07:51:33Z</time>
      </trkpt>
      <trkpt lat="45.59222" lon="4.48629">
        <ele>727.4</ele>
        <time>2019-04-28T07:51:34Z</time>
      </trkpt>
      <trkpt lat="45.59224" lon="4.48628">
        <ele>727</ele>
        <time>2019-04-28T07:51:35Z</time>
      </trkpt>
      <trkpt lat="45.59229" lon="4.48625">
        <ele>726.2</ele>
        <time>2019-04-28T07:51:37Z</time>
      </trkpt>
      <trkpt lat="45.59232" lon="4.48624">
        <ele>725.8</ele>
        <time>2019-04-28T07:51:38Z</time>
      </trkpt>
      <trkpt lat="45.59234" lon="4.48623">
        <ele>725.5</ele>
        <time>2019-04-28T07:51:39Z</time>
      </trkpt>
      <trkpt lat="45.59236" lon="4.48622">
        <ele>725.1</ele>
        <time>2019-04-28T07:51:40Z</time>
      </trkpt>
      <trkpt lat="45.59238" lon="4.48621">
        <ele>724.7</ele>
        <time>2019-04-28T07:51:41Z</time>
      </trkpt>
      <trkpt lat="45.59242" lon="4.4862">
        <ele>724.2</ele>
        <time>2019-04-28T07:51:43Z</time>
      </trkpt>
      <trkpt lat="45.59245" lon="4.4862">
        <ele>723.7</ele>
        <time>2019-04-28T07:51:45Z</time>
      </trkpt>
      <trkpt lat="45.59247" lon="4.4862">
        <ele>723.4</ele>
        <time>2019-04-28T07:51:46Z</time>
      </trkpt>
      <trkpt lat="45.59249" lon="4.4862">
        <ele>723.1</ele>
        <time>2019-04-28T07:51:47Z</time>
      </trkpt>
      <trkpt lat="45.59254" lon="4.48621">
        <ele>722.5</ele>
        <time>2019-04-28T07:51:49Z</time>
      </trkpt>
      <trkpt lat="45.5926" lon="4.48622">
        <ele>721.7</ele>
        <time>2019-04-28T07:51:51Z</time>
      </trkpt>
      <trkpt lat="45.59264" lon="4.48621">
        <ele>721.4</ele>
        <time>2019-04-28T07:51:52Z</time>
      </trkpt>
      <trkpt lat="45.59268" lon="4.48617">
        <ele>720.9</ele>
        <time>2019-04-28T07:51:53Z</time>
      </trkpt>
      <trkpt lat="45.59278" lon="4.48611">
        <ele>720.1</ele>
        <time>2019-04-28T07:51:55Z</time>
      </trkpt>
      <trkpt lat="45.59282" lon="4.4861">
        <ele>719.8</ele>
        <time>2019-04-28T07:51:56Z</time>
      </trkpt>
      <trkpt lat="45.59286" lon="4.48608">
        <ele>719.6</ele>
        <time>2019-04-28T07:51:57Z</time>
      </trkpt>
      <trkpt lat="45.59291" lon="4.48606">
        <ele>719.5</ele>
        <time>2019-04-28T07:51:58Z</time>
      </trkpt>
      <trkpt lat="45.59295" lon="4.48602">
        <ele>719.5</ele>
        <time>2019-04-28T07:51:59Z</time>
      </trkpt>
      <trkpt lat="45.593" lon="4.48597">
        <ele>719.6</ele>
        <time>2019-04-28T07:52:00Z</time>
      </trkpt>
      <trkpt lat="45.59308" lon="4.48581">
        <ele>720</ele>
        <time>2019-04-28T07:52:03Z</time>
      </trkpt>
      <trkpt lat="45.5931" lon="4.48575">
        <ele>720.2</ele>
        <time>2019-04-28T07:52:04Z</time>
      </trkpt>
      <trkpt lat="45.59312" lon="4.4857">
        <ele>720.4</ele>
        <time>2019-04-28T07:52:05Z</time>
      </trkpt>
      <trkpt lat="45.59314" lon="4.4856">
        <ele>720.8</ele>
        <time>2019-04-28T07:52:07Z</time>
      </trkpt>
      <trkpt lat="45.59317" lon="4.48548">
        <ele>721.3</ele>
        <time>2019-04-28T07:52:09Z</time>
      </trkpt>
      <trkpt lat="45.59318" lon="4.48542">
        <ele>721.5</ele>
        <time>2019-04-28T07:52:10Z</time>
      </trkpt>
      <trkpt lat="45.59318" lon="4.48536">
        <ele>721.8</ele>
        <time>2019-04-28T07:52:11Z</time>
      </trkpt>
      <trkpt lat="45.59319" lon="4.4853">
        <ele>722</ele>
        <time>2019-04-28T07:52:12Z</time>
      </trkpt>
      <trkpt lat="45.59321" lon="4.48519">
        <ele>722.4</ele>
        <time>2019-04-28T07:52:14Z</time>
      </trkpt>
      <trkpt lat="45.59323" lon="4.48509">
        <ele>722.8</ele>
        <time>2019-04-28T07:52:16Z</time>
      </trkpt>
      <trkpt lat="45.59324" lon="4.48504">
        <ele>723</ele>
        <time>2019-04-28T07:52:17Z</time>
      </trkpt>
      <trkpt lat="45.59324" lon="4.48499">
        <ele>723.1</ele>
        <time>2019-04-28T07:52:18Z</time>
      </trkpt>
      <trkpt lat="45.59328" lon="4.48482">
        <ele>723.8</ele>
        <time>2019-04-28T07:52:22Z</time>
      </trkpt>
      <trkpt lat="45.59329" lon="4.48473">
        <ele>724</ele>
        <time>2019-04-28T07:52:24Z</time>
      </trkpt>
      <trkpt lat="45.59337" lon="4.48438">
        <ele>725.1</ele>
        <time>2019-04-28T07:52:32Z</time>
      </trkpt>
      <trkpt lat="45.59338" lon="4.48434">
        <ele>725.1</ele>
        <time>2019-04-28T07:52:33Z</time>
      </trkpt>
      <trkpt lat="45.59346" lon="4.4841">
        <ele>725.8</ele>
        <time>2019-04-28T07:52:40Z</time>
      </trkpt>
      <trkpt lat="45.59347" lon="4.48407">
        <ele>725.9</ele>
        <time>2019-04-28T07:52:41Z</time>
      </trkpt>
      <trkpt lat="45.59355" lon="4.48387">
        <ele>726.6</ele>
        <time>2019-04-28T07:52:47Z</time>
      </trkpt>
      <trkpt lat="45.59365" lon="4.48367">
        <ele>727.4</ele>
        <time>2019-04-28T07:52:54Z</time>
      </trkpt>
      <trkpt lat="45.59375" lon="4.48347">
        <ele>728.1</ele>
        <time>2019-04-28T07:53:01Z</time>
      </trkpt>
      <trkpt lat="45.59377" lon="4.48342">
        <ele>728.3</ele>
        <time>2019-04-28T07:53:03Z</time>
      </trkpt>
      <trkpt lat="45.59385" lon="4.48329">
        <ele>728.8</ele>
        <time>2019-04-28T07:53:08Z</time>
      </trkpt>
      <trkpt lat="45.59397" lon="4.48308">
        <ele>729.5</ele>
        <time>2019-04-28T07:53:15Z</time>
      </trkpt>
      <trkpt lat="45.59411" lon="4.48286">
        <ele>728.4</ele>
        <time>2019-04-28T07:53:22Z</time>
      </trkpt>
      <trkpt lat="45.59425" lon="4.48252">
        <ele>725.9</ele>
        <time>2019-04-28T07:53:27Z</time>
      </trkpt>
      <trkpt lat="45.59438" lon="4.48223">
        <ele>724.4</ele>
        <time>2019-04-28T07:53:30Z</time>
      </trkpt>
      <trkpt lat="45.59443" lon="4.48215">
        <ele>724.1</ele>
        <time>2019-04-28T07:53:31Z</time>
      </trkpt>
      <trkpt lat="45.59454" lon="4.48199">
        <ele>723.5</ele>
        <time>2019-04-28T07:53:33Z</time>
      </trkpt>
      <trkpt lat="45.59459" lon="4.48192">
        <ele>723.4</ele>
        <time>2019-04-28T07:53:34Z</time>
      </trkpt>
      <trkpt lat="45.59464" lon="4.48185">
        <ele>723.2</ele>
        <time>2019-04-28T07:53:35Z</time>
      </trkpt>
      <trkpt lat="45.59468" lon="4.48178">
        <ele>723.1</ele>
        <time>2019-04-28T07:53:36Z</time>
      </trkpt>
      <trkpt lat="45.59478" lon="4.48166">
        <ele>722.9</ele>
        <time>2019-04-28T07:53:38Z</time>
      </trkpt>
      <trkpt lat="45.59488" lon="4.48156">
        <ele>722.8</ele>
        <time>2019-04-28T07:53:40Z</time>
      </trkpt>
      <trkpt lat="45.59493" lon="4.48151">
        <ele>722.8</ele>
        <time>2019-04-28T07:53:41Z</time>
      </trkpt>
      <trkpt lat="45.59508" lon="4.48134">
        <ele>722.8</ele>
        <time>2019-04-28T07:53:44Z</time>
      </trkpt>
      <trkpt lat="45.59517" lon="4.48122">
        <ele>722.7</ele>
        <time>2019-04-28T07:53:46Z</time>
      </trkpt>
      <trkpt lat="45.59531" lon="4.48105">
        <ele>722.4</ele>
        <time>2019-04-28T07:53:49Z</time>
      </trkpt>
      <trkpt lat="45.5955" lon="4.48082">
        <ele>721.8</ele>
        <time>2019-04-28T07:53:53Z</time>
      </trkpt>
      <trkpt lat="45.59556" lon="4.48076">
        <ele>721.7</ele>
        <time>2019-04-28T07:53:54Z</time>
      </trkpt>
      <trkpt lat="45.59573" lon="4.48061">
        <ele>721.3</ele>
        <time>2019-04-28T07:53:57Z</time>
      </trkpt>
      <trkpt lat="45.59595" lon="4.48041">
        <ele>721.9</ele>
        <time>2019-04-28T07:54:01Z</time>
      </trkpt>
      <trkpt lat="45.59621" lon="4.48015">
        <ele>724.9</ele>
        <time>2019-04-28T07:54:07Z</time>
      </trkpt>
      <trkpt lat="45.59633" lon="4.48004">
        <ele>726.1</ele>
        <time>2019-04-28T07:54:10Z</time>
      </trkpt>
      <trkpt lat="45.59644" lon="4.47992">
        <ele>727.1</ele>
        <time>2019-04-28T07:54:13Z</time>
      </trkpt>
      <trkpt lat="45.59648" lon="4.47988">
        <ele>727.4</ele>
        <time>2019-04-28T07:54:14Z</time>
      </trkpt>
      <trkpt lat="45.59654" lon="4.47978">
        <ele>728</ele>
        <time>2019-04-28T07:54:16Z</time>
      </trkpt>
      <trkpt lat="45.59659" lon="4.47967">
        <ele>728.4</ele>
        <time>2019-04-28T07:54:18Z</time>
      </trkpt>
      <trkpt lat="45.59661" lon="4.47962">
        <ele>728.6</ele>
        <time>2019-04-28T07:54:19Z</time>
      </trkpt>
      <trkpt lat="45.59672" lon="4.47936">
        <ele>729</ele>
        <time>2019-04-28T07:54:24Z</time>
      </trkpt>
      <trkpt lat="45.59677" lon="4.47923">
        <ele>729.1</ele>
        <time>2019-04-28T07:54:27Z</time>
      </trkpt>
      <trkpt lat="45.59692" lon="4.47896">
        <ele>729.3</ele>
        <time>2019-04-28T07:54:34Z</time>
      </trkpt>
      <trkpt lat="45.59694" lon="4.47873">
        <ele>728.5</ele>
        <time>2019-04-28T07:54:39Z</time>
      </trkpt>
      <trkpt lat="45.59695" lon="4.47853">
        <ele>727.9</ele>
        <time>2019-04-28T07:54:43Z</time>
      </trkpt>
      <trkpt lat="45.59697" lon="4.47851">
        <ele>727.7</ele>
        <time>2019-04-28T07:54:44Z</time>
      </trkpt>
      <trkpt lat="45.59706" lon="4.4785">
        <ele>728.1</ele>
        <time>2019-04-28T07:54:47Z</time>
      </trkpt>
      <trkpt lat="45.5972" lon="4.47843">
        <ele>729.1</ele>
        <time>2019-04-28T07:54:52Z</time>
      </trkpt>
      <trkpt lat="45.59723" lon="4.47842">
        <ele>729.4</ele>
        <time>2019-04-28T07:54:53Z</time>
      </trkpt>
      <trkpt lat="45.59732" lon="4.47838">
        <ele>730.2</ele>
        <time>2019-04-28T07:54:56Z</time>
      </trkpt>
      <trkpt lat="45.59742" lon="4.47836">
        <ele>731.3</ele>
        <time>2019-04-28T07:55:00Z</time>
      </trkpt>
      <trkpt lat="45.59754" lon="4.47833">
        <ele>732.9</ele>
        <time>2019-04-28T07:55:05Z</time>
      </trkpt>
      <trkpt lat="45.59756" lon="4.47833">
        <ele>733.1</ele>
        <time>2019-04-28T07:55:06Z</time>
      </trkpt>
      <trkpt lat="45.59762" lon="4.47831">
        <ele>734</ele>
        <time>2019-04-28T07:55:09Z</time>
      </trkpt>
      <trkpt lat="45.59769" lon="4.47829">
        <ele>734.9</ele>
        <time>2019-04-28T07:55:12Z</time>
      </trkpt>
      <trkpt lat="45.59771" lon="4.47829">
        <ele>735.1</ele>
        <time>2019-04-28T07:55:13Z</time>
      </trkpt>
      <trkpt lat="45.59779" lon="4.47828">
        <ele>736.2</ele>
        <time>2019-04-28T07:55:17Z</time>
      </trkpt>
      <trkpt lat="45.59781" lon="4.47827">
        <ele>736.5</ele>
        <time>2019-04-28T07:55:18Z</time>
      </trkpt>
      <trkpt lat="45.59789" lon="4.47826">
        <ele>737.5</ele>
        <time>2019-04-28T07:55:22Z</time>
      </trkpt>
      <trkpt lat="45.59794" lon="4.47826">
        <ele>738.1</ele>
        <time>2019-04-28T07:55:24Z</time>
      </trkpt>
      <trkpt lat="45.59801" lon="4.47826">
        <ele>739</ele>
        <time>2019-04-28T07:55:27Z</time>
      </trkpt>
      <trkpt lat="45.59807" lon="4.47828">
        <ele>739.7</ele>
        <time>2019-04-28T07:55:30Z</time>
      </trkpt>
      <trkpt lat="45.59812" lon="4.47829">
        <ele>740.3</ele>
        <time>2019-04-28T07:55:33Z</time>
      </trkpt>
      <trkpt lat="45.59818" lon="4.47832">
        <ele>741</ele>
        <time>2019-04-28T07:55:36Z</time>
      </trkpt>
      <trkpt lat="45.59821" lon="4.47838">
        <ele>741.7</ele>
        <time>2019-04-28T07:55:40Z</time>
      </trkpt>
      <trkpt lat="45.59822" lon="4.47841">
        <ele>742</ele>
        <time>2019-04-28T07:55:42Z</time>
      </trkpt>
      <trkpt lat="45.59823" lon="4.47843">
        <ele>742.2</ele>
        <time>2019-04-28T07:55:43Z</time>
      </trkpt>
      <trkpt lat="45.59826" lon="4.47849">
        <ele>742.7</ele>
        <time>2019-04-28T07:55:46Z</time>
      </trkpt>
      <trkpt lat="45.59827" lon="4.47852">
        <ele>742.9</ele>
        <time>2019-04-28T07:55:47Z</time>
      </trkpt>
      <trkpt lat="45.59832" lon="4.47869">
        <ele>744</ele>
        <time>2019-04-28T07:55:54Z</time>
      </trkpt>
      <trkpt lat="45.59836" lon="4.47883">
        <ele>744.8</ele>
        <time>2019-04-28T07:56:00Z</time>
      </trkpt>
      <trkpt lat="45.59839" lon="4.47892">
        <ele>745.2</ele>
        <time>2019-04-28T07:56:04Z</time>
      </trkpt>
      <trkpt lat="45.59841" lon="4.47897">
        <ele>745.5</ele>
        <time>2019-04-28T07:56:06Z</time>
      </trkpt>
      <trkpt lat="45.59844" lon="4.47905">
        <ele>746</ele>
        <time>2019-04-28T07:56:10Z</time>
      </trkpt>
      <trkpt lat="45.59845" lon="4.47909">
        <ele>746.2</ele>
        <time>2019-04-28T07:56:12Z</time>
      </trkpt>
      <trkpt lat="45.5985" lon="4.47922">
        <ele>746.9</ele>
        <time>2019-04-28T07:56:18Z</time>
      </trkpt>
      <trkpt lat="45.59851" lon="4.47924">
        <ele>747</ele>
        <time>2019-04-28T07:56:19Z</time>
      </trkpt>
      <trkpt lat="45.59857" lon="4.47941">
        <ele>747.9</ele>
        <time>2019-04-28T07:56:27Z</time>
      </trkpt>
      <trkpt lat="45.59857" lon="4.47943">
        <ele>748</ele>
        <time>2019-04-28T07:56:28Z</time>
      </trkpt>
      <trkpt lat="45.59859" lon="4.47947">
        <ele>748.2</ele>
        <time>2019-04-28T07:56:30Z</time>
      </trkpt>
      <trkpt lat="45.59863" lon="4.47956">
        <ele>748.7</ele>
        <time>2019-04-28T07:56:35Z</time>
      </trkpt>
      <trkpt lat="45.59864" lon="4.4796">
        <ele>749</ele>
        <time>2019-04-28T07:56:37Z</time>
      </trkpt>
      <trkpt lat="45.59868" lon="4.4797">
        <ele>749.5</ele>
        <time>2019-04-28T07:56:42Z</time>
      </trkpt>
      <trkpt lat="45.59871" lon="4.47975">
        <ele>749.9</ele>
        <time>2019-04-28T07:56:45Z</time>
      </trkpt>
      <trkpt lat="45.59873" lon="4.47981">
        <ele>750.3</ele>
        <time>2019-04-28T07:56:48Z</time>
      </trkpt>
      <trkpt lat="45.59877" lon="4.4799">
        <ele>751</ele>
        <time>2019-04-28T07:56:53Z</time>
      </trkpt>
      <trkpt lat="45.59882" lon="4.48">
        <ele>751.9</ele>
        <time>2019-04-28T07:56:58Z</time>
      </trkpt>
      <trkpt lat="45.59886" lon="4.48007">
        <ele>752.6</ele>
        <time>2019-04-28T07:57:02Z</time>
      </trkpt>
      <trkpt lat="45.59888" lon="4.48011">
        <ele>753</ele>
        <time>2019-04-28T07:57:04Z</time>
      </trkpt>
      <trkpt lat="45.59893" lon="4.48019">
        <ele>753.9</ele>
        <time>2019-04-28T07:57:09Z</time>
      </trkpt>
      <trkpt lat="45.59893" lon="4.48021">
        <ele>754.1</ele>
        <time>2019-04-28T07:57:10Z</time>
      </trkpt>
      <trkpt lat="45.59897" lon="4.48029">
        <ele>754.9</ele>
        <time>2019-04-28T07:57:14Z</time>
      </trkpt>
      <trkpt lat="45.59899" lon="4.48032">
        <ele>755.3</ele>
        <time>2019-04-28T07:57:16Z</time>
      </trkpt>
      <trkpt lat="45.59902" lon="4.48039">
        <ele>756</ele>
        <time>2019-04-28T07:57:19Z</time>
      </trkpt>
      <trkpt lat="45.59906" lon="4.48046">
        <ele>756.9</ele>
        <time>2019-04-28T07:57:23Z</time>
      </trkpt>
      <trkpt lat="45.59907" lon="4.48049">
        <ele>757.1</ele>
        <time>2019-04-28T07:57:24Z</time>
      </trkpt>
      <trkpt lat="45.59912" lon="4.48056">
        <ele>757.9</ele>
        <time>2019-04-28T07:57:28Z</time>
      </trkpt>
      <trkpt lat="45.59918" lon="4.48066">
        <ele>758.8</ele>
        <time>2019-04-28T07:57:33Z</time>
      </trkpt>
      <trkpt lat="45.59919" lon="4.48068">
        <ele>759</ele>
        <time>2019-04-28T07:57:34Z</time>
      </trkpt>
      <trkpt lat="45.59926" lon="4.48079">
        <ele>760.2</ele>
        <time>2019-04-28T07:57:40Z</time>
      </trkpt>
      <trkpt lat="45.59928" lon="4.48083">
        <ele>760.5</ele>
        <time>2019-04-28T07:57:42Z</time>
      </trkpt>
      <trkpt lat="45.59935" lon="4.48094">
        <ele>761.2</ele>
        <time>2019-04-28T07:57:48Z</time>
      </trkpt>
      <trkpt lat="45.59938" lon="4.48098">
        <ele>761.4</ele>
        <time>2019-04-28T07:57:50Z</time>
      </trkpt>
      <trkpt lat="45.59949" lon="4.48117">
        <ele>762.2</ele>
        <time>2019-04-28T07:57:59Z</time>
      </trkpt>
      <trkpt lat="45.5995" lon="4.48119">
        <ele>762.3</ele>
        <time>2019-04-28T07:58:00Z</time>
      </trkpt>
      <trkpt lat="45.59961" lon="4.4814">
        <ele>762.9</ele>
        <time>2019-04-28T07:58:09Z</time>
      </trkpt>
      <trkpt lat="45.59963" lon="4.48143">
        <ele>763</ele>
        <time>2019-04-28T07:58:10Z</time>
      </trkpt>
      <trkpt lat="45.59971" lon="4.48158">
        <ele>763.3</ele>
        <time>2019-04-28T07:58:16Z</time>
      </trkpt>
      <trkpt lat="45.59977" lon="4.48169">
        <ele>763.5</ele>
        <time>2019-04-28T07:58:20Z</time>
      </trkpt>
      <trkpt lat="45.59981" lon="4.48176">
        <ele>763.7</ele>
        <time>2019-04-28T07:58:23Z</time>
      </trkpt>
      <trkpt lat="45.59987" lon="4.4819">
        <ele>764.1</ele>
        <time>2019-04-28T07:58:28Z</time>
      </trkpt>
      <trkpt lat="45.59993" lon="4.48205">
        <ele>764.5</ele>
        <time>2019-04-28T07:58:33Z</time>
      </trkpt>
      <trkpt lat="45.59997" lon="4.48218">
        <ele>764.8</ele>
        <time>2019-04-28T07:58:36Z</time>
      </trkpt>
      <trkpt lat="45.59999" lon="4.48232">
        <ele>764.9</ele>
        <time>2019-04-28T07:58:40Z</time>
      </trkpt>
      <trkpt lat="45.59999" lon="4.48235">
        <ele>765</ele>
        <time>2019-04-28T07:58:41Z</time>
      </trkpt>
      <trkpt lat="45.59999" lon="4.48239">
        <ele>765</ele>
        <time>2019-04-28T07:58:43Z</time>
      </trkpt>
      <trkpt lat="45.6" lon="4.48245">
        <ele>765</ele>
        <time>2019-04-28T07:58:46Z</time>
      </trkpt>
      <trkpt lat="45.60003" lon="4.48253">
        <ele>765.1</ele>
        <time>2019-04-28T07:59:39Z</time>
      </trkpt>
      <trkpt lat="45.6001" lon="4.48267">
        <ele>765.3</ele>
        <time>2019-04-28T07:59:44Z</time>
      </trkpt>
      <trkpt lat="45.60013" lon="4.4828">
        <ele>765.5</ele>
        <time>2019-04-28T07:59:47Z</time>
      </trkpt>
      <trkpt lat="45.60012" lon="4.48289">
        <ele>765.9</ele>
        <time>2019-04-28T07:59:49Z</time>
      </trkpt>
      <trkpt lat="45.60009" lon="4.48298">
        <ele>766.3</ele>
        <time>2019-04-28T07:59:51Z</time>
      </trkpt>
      <trkpt lat="45.60006" lon="4.48305">
        <ele>766.7</ele>
        <time>2019-04-28T07:59:53Z</time>
      </trkpt>
      <trkpt lat="45.60005" lon="4.48308">
        <ele>766.9</ele>
        <time>2019-04-28T07:59:54Z</time>
      </trkpt>
      <trkpt lat="45.59996" lon="4.48328">
        <ele>768.3</ele>
        <time>2019-04-28T07:59:59Z</time>
      </trkpt>
      <trkpt lat="45.59994" lon="4.48331">
        <ele>768.6</ele>
        <time>2019-04-28T08:00:00Z</time>
      </trkpt>
      <trkpt lat="45.59992" lon="4.48336">
        <ele>769</ele>
        <time>2019-04-28T08:00:02Z</time>
      </trkpt>
      <trkpt lat="45.59988" lon="4.48343">
        <ele>769.6</ele>
        <time>2019-04-28T08:00:05Z</time>
      </trkpt>
      <trkpt lat="45.59986" lon="4.4835">
        <ele>770</ele>
        <time>2019-04-28T08:00:08Z</time>
      </trkpt>
      <trkpt lat="45.59982" lon="4.48357">
        <ele>770.5</ele>
        <time>2019-04-28T08:00:11Z</time>
      </trkpt>
      <trkpt lat="45.59979" lon="4.48365">
        <ele>771</ele>
        <time>2019-04-28T08:00:14Z</time>
      </trkpt>
      <trkpt lat="45.59977" lon="4.4837">
        <ele>771.3</ele>
        <time>2019-04-28T08:00:16Z</time>
      </trkpt>
      <trkpt lat="45.59974" lon="4.48374">
        <ele>771.6</ele>
        <time>2019-04-28T08:00:18Z</time>
      </trkpt>
      <trkpt lat="45.59968" lon="4.48385">
        <ele>772.2</ele>
        <time>2019-04-28T08:00:23Z</time>
      </trkpt>
      <trkpt lat="45.59965" lon="4.4839">
        <ele>772.5</ele>
        <time>2019-04-28T08:00:25Z</time>
      </trkpt>
      <trkpt lat="45.59958" lon="4.48401">
        <ele>773.2</ele>
        <time>2019-04-28T08:00:30Z</time>
      </trkpt>
      <trkpt lat="45.59954" lon="4.48406">
        <ele>773.6</ele>
        <time>2019-04-28T08:00:33Z</time>
      </trkpt>
      <trkpt lat="45.59953" lon="4.48408">
        <ele>773.7</ele>
        <time>2019-04-28T08:00:34Z</time>
      </trkpt>
      <trkpt lat="45.59945" lon="4.4842">
        <ele>774.3</ele>
        <time>2019-04-28T08:00:40Z</time>
      </trkpt>
      <trkpt lat="45.59936" lon="4.48431">
        <ele>774.8</ele>
        <time>2019-04-28T08:00:47Z</time>
      </trkpt>
      <trkpt lat="45.59933" lon="4.48435">
        <ele>775</ele>
        <time>2019-04-28T08:00:49Z</time>
      </trkpt>
      <trkpt lat="45.59922" lon="4.48449">
        <ele>775.5</ele>
        <time>2019-04-28T08:00:57Z</time>
      </trkpt>
      <trkpt lat="45.59909" lon="4.48467">
        <ele>775.9</ele>
        <time>2019-04-28T08:01:05Z</time>
      </trkpt>
      <trkpt lat="45.59897" lon="4.48485">
        <ele>776.2</ele>
        <time>2019-04-28T08:01:12Z</time>
      </trkpt>
      <trkpt lat="45.59886" lon="4.48503">
        <ele>776.4</ele>
        <time>2019-04-28T08:01:19Z</time>
      </trkpt>
      <trkpt lat="45.59882" lon="4.48511">
        <ele>776.5</ele>
        <time>2019-04-28T08:01:22Z</time>
      </trkpt>
      <trkpt lat="45.59877" lon="4.48522">
        <ele>776.7</ele>
        <time>2019-04-28T08:01:26Z</time>
      </trkpt>
      <trkpt lat="45.59871" lon="4.48537">
        <ele>777</ele>
        <time>2019-04-28T08:01:31Z</time>
      </trkpt>
      <trkpt lat="45.59865" lon="4.48554">
        <ele>777.3</ele>
        <time>2019-04-28T08:01:36Z</time>
      </trkpt>
      <trkpt lat="45.59862" lon="4.48562">
        <ele>777.4</ele>
        <time>2019-04-28T08:01:38Z</time>
      </trkpt>
      <trkpt lat="45.59856" lon="4.48586">
        <ele>777.9</ele>
        <time>2019-04-28T08:01:45Z</time>
      </trkpt>
      <trkpt lat="45.59854" lon="4.48593">
        <ele>778.2</ele>
        <time>2019-04-28T08:01:47Z</time>
      </trkpt>
      <trkpt lat="45.59852" lon="4.48611">
        <ele>778.9</ele>
        <time>2019-04-28T08:01:52Z</time>
      </trkpt>
      <trkpt lat="45.59851" lon="4.48622">
        <ele>779.3</ele>
        <time>2019-04-28T08:01:55Z</time>
      </trkpt>
      <trkpt lat="45.5985" lon="4.48633">
        <ele>779.8</ele>
        <time>2019-04-28T08:01:58Z</time>
      </trkpt>
      <trkpt lat="45.59849" lon="4.48646">
        <ele>780.5</ele>
        <time>2019-04-28T08:02:02Z</time>
      </trkpt>
      <trkpt lat="45.59848" lon="4.4865">
        <ele>780.6</ele>
        <time>2019-04-28T08:02:03Z</time>
      </trkpt>
      <trkpt lat="45.59847" lon="4.4866">
        <ele>781.1</ele>
        <time>2019-04-28T08:02:06Z</time>
      </trkpt>
      <trkpt lat="45.59846" lon="4.48675">
        <ele>781.9</ele>
        <time>2019-04-28T08:02:10Z</time>
      </trkpt>
      <trkpt lat="45.59845" lon="4.48679">
        <ele>782.1</ele>
        <time>2019-04-28T08:02:11Z</time>
      </trkpt>
      <trkpt lat="45.59844" lon="4.48686">
        <ele>782.5</ele>
        <time>2019-04-28T08:02:13Z</time>
      </trkpt>
      <trkpt lat="45.5984" lon="4.48702">
        <ele>783.4</ele>
        <time>2019-04-28T08:02:18Z</time>
      </trkpt>
      <trkpt lat="45.5984" lon="4.48706">
        <ele>783.5</ele>
        <time>2019-04-28T08:02:19Z</time>
      </trkpt>
      <trkpt lat="45.59837" lon="4.48716">
        <ele>784</ele>
        <time>2019-04-28T08:02:22Z</time>
      </trkpt>
      <trkpt lat="45.59835" lon="4.48727">
        <ele>784.5</ele>
        <time>2019-04-28T08:02:25Z</time>
      </trkpt>
      <trkpt lat="45.59834" lon="4.48734">
        <ele>784.8</ele>
        <time>2019-04-28T08:02:27Z</time>
      </trkpt>
      <trkpt lat="45.59832" lon="4.4874">
        <ele>785</ele>
        <time>2019-04-28T08:02:29Z</time>
      </trkpt>
      <trkpt lat="45.59827" lon="4.48758">
        <ele>785.6</ele>
        <time>2019-04-28T08:02:34Z</time>
      </trkpt>
      <trkpt lat="45.59817" lon="4.48788">
        <ele>786.1</ele>
        <time>2019-04-28T08:02:42Z</time>
      </trkpt>
      <trkpt lat="45.59812" lon="4.48827">
        <ele>786.2</ele>
        <time>2019-04-28T08:02:50Z</time>
      </trkpt>
      <trkpt lat="45.59809" lon="4.48843">
        <ele>786.3</ele>
        <time>2019-04-28T08:02:53Z</time>
      </trkpt>
      <trkpt lat="45.59806" lon="4.4886">
        <ele>786.3</ele>
        <time>2019-04-28T08:02:56Z</time>
      </trkpt>
      <trkpt lat="45.59804" lon="4.48871">
        <ele>786.3</ele>
        <time>2019-04-28T08:02:58Z</time>
      </trkpt>
      <trkpt lat="45.59799" lon="4.48904">
        <ele>786.2</ele>
        <time>2019-04-28T08:03:04Z</time>
      </trkpt>
      <trkpt lat="45.59799" lon="4.4891">
        <ele>786.2</ele>
        <time>2019-04-28T08:03:05Z</time>
      </trkpt>
      <trkpt lat="45.59798" lon="4.4894">
        <ele>786.2</ele>
        <time>2019-04-28T08:03:10Z</time>
      </trkpt>
      <trkpt lat="45.59796" lon="4.48983">
        <ele>786.2</ele>
        <time>2019-04-28T08:03:17Z</time>
      </trkpt>
      <trkpt lat="45.59795" lon="4.48994">
        <ele>786.2</ele>
        <time>2019-04-28T08:03:19Z</time>
      </trkpt>
      <trkpt lat="45.59793" lon="4.49026">
        <ele>786.4</ele>
        <time>2019-04-28T08:03:26Z</time>
      </trkpt>
      <trkpt lat="45.59795" lon="4.4903">
        <ele>786.5</ele>
        <time>2019-04-28T08:03:28Z</time>
      </trkpt>
      <trkpt lat="45.59799" lon="4.4903">
        <ele>786.1</ele>
        <time>2019-04-28T08:03:30Z</time>
      </trkpt>
      <trkpt lat="45.59804" lon="4.49028">
        <ele>785.6</ele>
        <time>2019-04-28T08:03:32Z</time>
      </trkpt>
      <trkpt lat="45.59812" lon="4.49025">
        <ele>785</ele>
        <time>2019-04-28T08:03:34Z</time>
      </trkpt>
      <trkpt lat="45.59838" lon="4.49022">
        <ele>782.3</ele>
        <time>2019-04-28T08:03:39Z</time>
      </trkpt>
      <trkpt lat="45.59844" lon="4.49024">
        <ele>781.6</ele>
        <time>2019-04-28T08:03:40Z</time>
      </trkpt>
      <trkpt lat="45.59856" lon="4.49029">
        <ele>779.7</ele>
        <time>2019-04-28T08:03:42Z</time>
      </trkpt>
      <trkpt lat="45.5987" lon="4.49036">
        <ele>777.6</ele>
        <time>2019-04-28T08:03:44Z</time>
      </trkpt>
      <trkpt lat="45.59885" lon="4.49044">
        <ele>775.9</ele>
        <time>2019-04-28T08:03:46Z</time>
      </trkpt>
      <trkpt lat="45.599" lon="4.49055">
        <ele>774.3</ele>
        <time>2019-04-28T08:03:48Z</time>
      </trkpt>
      <trkpt lat="45.59914" lon="4.49066">
        <ele>772.7</ele>
        <time>2019-04-28T08:03:50Z</time>
      </trkpt>
      <trkpt lat="45.59922" lon="4.4907">
        <ele>772</ele>
        <time>2019-04-28T08:03:51Z</time>
      </trkpt>
      <trkpt lat="45.5993" lon="4.49074">
        <ele>771.2</ele>
        <time>2019-04-28T08:03:52Z</time>
      </trkpt>
      <trkpt lat="45.59947" lon="4.49084">
        <ele>769.3</ele>
        <time>2019-04-28T08:03:54Z</time>
      </trkpt>
      <trkpt lat="45.59955" lon="4.49089">
        <ele>768.3</ele>
        <time>2019-04-28T08:03:55Z</time>
      </trkpt>
      <trkpt lat="45.59963" lon="4.49095">
        <ele>767.3</ele>
        <time>2019-04-28T08:03:56Z</time>
      </trkpt>
      <trkpt lat="45.59971" lon="4.49101">
        <ele>766.4</ele>
        <time>2019-04-28T08:03:57Z</time>
      </trkpt>
      <trkpt lat="45.59979" lon="4.49107">
        <ele>765.4</ele>
        <time>2019-04-28T08:03:58Z</time>
      </trkpt>
      <trkpt lat="45.59987" lon="4.49114">
        <ele>764.4</ele>
        <time>2019-04-28T08:03:59Z</time>
      </trkpt>
      <trkpt lat="45.59995" lon="4.4912">
        <ele>763.3</ele>
        <time>2019-04-28T08:04:00Z</time>
      </trkpt>
      <trkpt lat="45.60002" lon="4.49126">
        <ele>762.5</ele>
        <time>2019-04-28T08:04:01Z</time>
      </trkpt>
      <trkpt lat="45.60012" lon="4.49134">
        <ele>761.9</ele>
        <time>2019-04-28T08:04:03Z</time>
      </trkpt>
      <trkpt lat="45.60018" lon="4.49141">
        <ele>761.5</ele>
        <time>2019-04-28T08:04:05Z</time>
      </trkpt>
      <trkpt lat="45.60026" lon="4.49148">
        <ele>760.8</ele>
        <time>2019-04-28T08:04:07Z</time>
      </trkpt>
      <trkpt lat="45.60037" lon="4.49157">
        <ele>759.1</ele>
        <time>2019-04-28T08:04:09Z</time>
      </trkpt>
      <trkpt lat="45.60049" lon="4.49167">
        <ele>757.2</ele>
        <time>2019-04-28T08:04:11Z</time>
      </trkpt>
      <trkpt lat="45.60061" lon="4.49176">
        <ele>755.3</ele>
        <time>2019-04-28T08:04:13Z</time>
      </trkpt>
      <trkpt lat="45.60073" lon="4.49187">
        <ele>753.2</ele>
        <time>2019-04-28T08:04:15Z</time>
      </trkpt>
      <trkpt lat="45.60078" lon="4.49192">
        <ele>752.2</ele>
        <time>2019-04-28T08:04:16Z</time>
      </trkpt>
      <trkpt lat="45.60084" lon="4.49198">
        <ele>751</ele>
        <time>2019-04-28T08:04:17Z</time>
      </trkpt>
      <trkpt lat="45.6009" lon="4.49204">
        <ele>749.7</ele>
        <time>2019-04-28T08:04:18Z</time>
      </trkpt>
      <trkpt lat="45.60095" lon="4.4921">
        <ele>748.5</ele>
        <time>2019-04-28T08:04:19Z</time>
      </trkpt>
      <trkpt lat="45.60101" lon="4.49216">
        <ele>747</ele>
        <time>2019-04-28T08:04:20Z</time>
      </trkpt>
      <trkpt lat="45.60107" lon="4.49224">
        <ele>745.6</ele>
        <time>2019-04-28T08:04:21Z</time>
      </trkpt>
      <trkpt lat="45.60113" lon="4.4923">
        <ele>744</ele>
        <time>2019-04-28T08:04:22Z</time>
      </trkpt>
      <trkpt lat="45.60117" lon="4.49235">
        <ele>742.7</ele>
        <time>2019-04-28T08:04:23Z</time>
      </trkpt>
      <trkpt lat="45.60121" lon="4.49239">
        <ele>741.7</ele>
        <time>2019-04-28T08:04:24Z</time>
      </trkpt>
      <trkpt lat="45.60124" lon="4.49242">
        <ele>741.1</ele>
        <time>2019-04-28T08:04:25Z</time>
      </trkpt>
      <trkpt lat="45.60126" lon="4.49244">
        <ele>740.5</ele>
        <time>2019-04-28T08:04:26Z</time>
      </trkpt>
      <trkpt lat="45.60127" lon="4.49244">
        <ele>740.3</ele>
        <time>2019-04-28T08:04:27Z</time>
      </trkpt>
      <trkpt lat="45.60128" lon="4.49244">
        <ele>740.2</ele>
        <time>2019-04-28T08:04:28Z</time>
      </trkpt>
      <trkpt lat="45.60129" lon="4.49245">
        <ele>740</ele>
        <time>2019-04-28T08:04:30Z</time>
      </trkpt>
      <trkpt lat="45.6013" lon="4.49248">
        <ele>739.6</ele>
        <time>2019-04-28T08:10:42Z</time>
      </trkpt>
      <trkpt lat="45.60137" lon="4.49264">
        <ele>737.3</ele>
        <time>2019-04-28T08:10:45Z</time>
      </trkpt>
      <trkpt lat="45.60135" lon="4.4928">
        <ele>736.6</ele>
        <time>2019-04-28T08:10:47Z</time>
      </trkpt>
      <trkpt lat="45.60132" lon="4.49286">
        <ele>737</ele>
        <time>2019-04-28T08:10:48Z</time>
      </trkpt>
      <trkpt lat="45.6012" lon="4.49297">
        <ele>737.8</ele>
        <time>2019-04-28T08:10:51Z</time>
      </trkpt>
      <trkpt lat="45.6011" lon="4.49298">
        <ele>738.4</ele>
        <time>2019-04-28T08:10:53Z</time>
      </trkpt>
      <trkpt lat="45.60098" lon="4.49297">
        <ele>739.2</ele>
        <time>2019-04-28T08:10:55Z</time>
      </trkpt>
      <trkpt lat="45.60084" lon="4.49298">
        <ele>740.1</ele>
        <time>2019-04-28T08:10:57Z</time>
      </trkpt>
      <trkpt lat="45.60077" lon="4.49301">
        <ele>740.6</ele>
        <time>2019-04-28T08:10:58Z</time>
      </trkpt>
      <trkpt lat="45.60069" lon="4.49304">
        <ele>741.2</ele>
        <time>2019-04-28T08:10:59Z</time>
      </trkpt>
      <trkpt lat="45.60061" lon="4.49308">
        <ele>741.7</ele>
        <time>2019-04-28T08:11:00Z</time>
      </trkpt>
      <trkpt lat="45.60038" lon="4.49324">
        <ele>743.4</ele>
        <time>2019-04-28T08:11:03Z</time>
      </trkpt>
      <trkpt lat="45.60032" lon="4.49332">
        <ele>743.9</ele>
        <time>2019-04-28T08:11:04Z</time>
      </trkpt>
      <trkpt lat="45.60029" lon="4.49355">
        <ele>743.6</ele>
        <time>2019-04-28T08:11:06Z</time>
      </trkpt>
      <trkpt lat="45.60036" lon="4.49389">
        <ele>743.2</ele>
        <time>2019-04-28T08:11:09Z</time>
      </trkpt>
      <trkpt lat="45.60044" lon="4.49411">
        <ele>743.1</ele>
        <time>2019-04-28T08:11:11Z</time>
      </trkpt>
      <trkpt lat="45.60048" lon="4.49422">
        <ele>743.1</ele>
        <time>2019-04-28T08:11:12Z</time>
      </trkpt>
      <trkpt lat="45.60057" lon="4.49442">
        <ele>743.1</ele>
        <time>2019-04-28T08:11:14Z</time>
      </trkpt>
      <trkpt lat="45.60062" lon="4.49452">
        <ele>743.1</ele>
        <time>2019-04-28T08:11:15Z</time>
      </trkpt>
      <trkpt lat="45.60075" lon="4.4948">
        <ele>743.1</ele>
        <time>2019-04-28T08:11:18Z</time>
      </trkpt>
      <trkpt lat="45.60087" lon="4.49507">
        <ele>743.1</ele>
        <time>2019-04-28T08:11:21Z</time>
      </trkpt>
      <trkpt lat="45.60097" lon="4.49531">
        <ele>743</ele>
        <time>2019-04-28T08:11:24Z</time>
      </trkpt>
      <trkpt lat="45.60105" lon="4.49553">
        <ele>743</ele>
        <time>2019-04-28T08:11:27Z</time>
      </trkpt>
      <trkpt lat="45.60107" lon="4.4956">
        <ele>743</ele>
        <time>2019-04-28T08:11:28Z</time>
      </trkpt>
      <trkpt lat="45.60124" lon="4.49601">
        <ele>743</ele>
        <time>2019-04-28T08:11:34Z</time>
      </trkpt>
      <trkpt lat="45.60138" lon="4.49633">
        <ele>742.9</ele>
        <time>2019-04-28T08:11:39Z</time>
      </trkpt>
      <trkpt lat="45.60145" lon="4.49649">
        <ele>742.9</ele>
        <time>2019-04-28T08:11:42Z</time>
      </trkpt>
      <trkpt lat="45.6017" lon="4.49695">
        <ele>742.8</ele>
        <time>2019-04-28T08:11:51Z</time>
      </trkpt>
      <trkpt lat="45.60185" lon="4.49712">
        <ele>742.4</ele>
        <time>2019-04-28T08:11:55Z</time>
      </trkpt>
      <trkpt lat="45.60198" lon="4.49725">
        <ele>742</ele>
        <time>2019-04-28T08:11:58Z</time>
      </trkpt>
      <trkpt lat="45.60222" lon="4.49752">
        <ele>741.1</ele>
        <time>2019-04-28T08:12:04Z</time>
      </trkpt>
      <trkpt lat="45.6025" lon="4.49783">
        <ele>739.7</ele>
        <time>2019-04-28T08:12:10Z</time>
      </trkpt>
      <trkpt lat="45.60254" lon="4.49789">
        <ele>739.6</ele>
        <time>2019-04-28T08:12:11Z</time>
      </trkpt>
      <trkpt lat="45.60264" lon="4.49813">
        <ele>739.1</ele>
        <time>2019-04-28T08:12:15Z</time>
      </trkpt>
      <trkpt lat="45.60266" lon="4.49821">
        <ele>738.9</ele>
        <time>2019-04-28T08:12:16Z</time>
      </trkpt>
      <trkpt lat="45.6027" lon="4.49847">
        <ele>738.3</ele>
        <time>2019-04-28T08:12:20Z</time>
      </trkpt>
      <trkpt lat="45.6028" lon="4.49885">
        <ele>736.7</ele>
        <time>2019-04-28T08:12:25Z</time>
      </trkpt>
      <trkpt lat="45.60298" lon="4.49936">
        <ele>730.9</ele>
        <time>2019-04-28T08:12:30Z</time>
      </trkpt>
      <trkpt lat="45.60314" lon="4.49992">
        <ele>732.1</ele>
        <time>2019-04-28T08:12:34Z</time>
      </trkpt>
      <trkpt lat="45.60312" lon="4.50022">
        <ele>732.7</ele>
        <time>2019-04-28T08:12:36Z</time>
      </trkpt>
      <trkpt lat="45.603" lon="4.50054">
        <ele>733.5</ele>
        <time>2019-04-28T08:12:39Z</time>
      </trkpt>
      <trkpt lat="45.60288" lon="4.50066">
        <ele>733.9</ele>
        <time>2019-04-28T08:12:41Z</time>
      </trkpt>
      <trkpt lat="45.60281" lon="4.50071">
        <ele>734.1</ele>
        <time>2019-04-28T08:12:42Z</time>
      </trkpt>
      <trkpt lat="45.60274" lon="4.50076">
        <ele>734.4</ele>
        <time>2019-04-28T08:12:43Z</time>
      </trkpt>
      <trkpt lat="45.60259" lon="4.50087">
        <ele>734.9</ele>
        <time>2019-04-28T08:12:45Z</time>
      </trkpt>
      <trkpt lat="45.60242" lon="4.50098">
        <ele>735.4</ele>
        <time>2019-04-28T08:12:47Z</time>
      </trkpt>
      <trkpt lat="45.60219" lon="4.50115">
        <ele>736.1</ele>
        <time>2019-04-28T08:12:50Z</time>
      </trkpt>
      <trkpt lat="45.60211" lon="4.5012">
        <ele>736.4</ele>
        <time>2019-04-28T08:12:51Z</time>
      </trkpt>
      <trkpt lat="45.60203" lon="4.50122">
        <ele>736.6</ele>
        <time>2019-04-28T08:12:52Z</time>
      </trkpt>
      <trkpt lat="45.60195" lon="4.50125">
        <ele>736.9</ele>
        <time>2019-04-28T08:12:53Z</time>
      </trkpt>
      <trkpt lat="45.60179" lon="4.50128">
        <ele>737.3</ele>
        <time>2019-04-28T08:12:55Z</time>
      </trkpt>
      <trkpt lat="45.6017" lon="4.50128">
        <ele>737.6</ele>
        <time>2019-04-28T08:12:56Z</time>
      </trkpt>
      <trkpt lat="45.60163" lon="4.50131">
        <ele>737.8</ele>
        <time>2019-04-28T08:12:57Z</time>
      </trkpt>
      <trkpt lat="45.60148" lon="4.50136">
        <ele>738.3</ele>
        <time>2019-04-28T08:12:59Z</time>
      </trkpt>
      <trkpt lat="45.60135" lon="4.50144">
        <ele>736.9</ele>
        <time>2019-04-28T08:13:01Z</time>
      </trkpt>
      <trkpt lat="45.60123" lon="4.50155">
        <ele>735.9</ele>
        <time>2019-04-28T08:13:03Z</time>
      </trkpt>
      <trkpt lat="45.6011" lon="4.50182">
        <ele>734.3</ele>
        <time>2019-04-28T08:13:07Z</time>
      </trkpt>
      <trkpt lat="45.60109" lon="4.50188">
        <ele>734</ele>
        <time>2019-04-28T08:13:08Z</time>
      </trkpt>
      <trkpt lat="45.6011" lon="4.50198">
        <ele>733.6</ele>
        <time>2019-04-28T08:13:10Z</time>
      </trkpt>
      <trkpt lat="45.60113" lon="4.50206">
        <ele>733.3</ele>
        <time>2019-04-28T08:13:12Z</time>
      </trkpt>
      <trkpt lat="45.60118" lon="4.50212">
        <ele>733</ele>
        <time>2019-04-28T08:13:14Z</time>
      </trkpt>
      <trkpt lat="45.60121" lon="4.50213">
        <ele>732.8</ele>
        <time>2019-04-28T08:13:15Z</time>
      </trkpt>
      <trkpt lat="45.60124" lon="4.50213">
        <ele>732.7</ele>
        <time>2019-04-28T08:13:16Z</time>
      </trkpt>
      <trkpt lat="45.60129" lon="4.50213">
        <ele>733.2</ele>
        <time>2019-04-28T08:13:18Z</time>
      </trkpt>
      <trkpt lat="45.60134" lon="4.50214">
        <ele>733.5</ele>
        <time>2019-04-28T08:13:20Z</time>
      </trkpt>
      <trkpt lat="45.60142" lon="4.50217">
        <ele>734.1</ele>
        <time>2019-04-28T08:13:23Z</time>
      </trkpt>
      <trkpt lat="45.60149" lon="4.5022">
        <ele>734.6</ele>
        <time>2019-04-28T08:13:26Z</time>
      </trkpt>
      <trkpt lat="45.60167" lon="4.50226">
        <ele>735.5</ele>
        <time>2019-04-28T08:13:33Z</time>
      </trkpt>
      <trkpt lat="45.60169" lon="4.50228">
        <ele>735.6</ele>
        <time>2019-04-28T08:13:34Z</time>
      </trkpt>
      <trkpt lat="45.6019" lon="4.50239">
        <ele>735.7</ele>
        <time>2019-04-28T08:13:41Z</time>
      </trkpt>
      <trkpt lat="45.60192" lon="4.5024">
        <ele>735.7</ele>
        <time>2019-04-28T08:13:42Z</time>
      </trkpt>
      <trkpt lat="45.60204" lon="4.50246">
        <ele>735.6</ele>
        <time>2019-04-28T08:13:47Z</time>
      </trkpt>
      <trkpt lat="45.60208" lon="4.50248">
        <ele>735.5</ele>
        <time>2019-04-28T08:13:49Z</time>
      </trkpt>
      <trkpt lat="45.60225" lon="4.50257">
        <ele>735.2</ele>
        <time>2019-04-28T08:13:55Z</time>
      </trkpt>
      <trkpt lat="45.6025" lon="4.50269">
        <ele>734.6</ele>
        <time>2019-04-28T08:14:02Z</time>
      </trkpt>
      <trkpt lat="45.60279" lon="4.50285">
        <ele>733.3</ele>
        <time>2019-04-28T08:14:09Z</time>
      </trkpt>
      <trkpt lat="45.60284" lon="4.50288">
        <ele>733</ele>
        <time>2019-04-28T08:14:10Z</time>
      </trkpt>
      <trkpt lat="45.6031" lon="4.50302">
        <ele>731.5</ele>
        <time>2019-04-28T08:14:15Z</time>
      </trkpt>
      <trkpt lat="45.60342" lon="4.5032">
        <ele>729.5</ele>
        <time>2019-04-28T08:14:22Z</time>
      </trkpt>
      <trkpt lat="45.60347" lon="4.50322">
        <ele>729.3</ele>
        <time>2019-04-28T08:14:23Z</time>
      </trkpt>
      <trkpt lat="45.60369" lon="4.50334">
        <ele>728</ele>
        <time>2019-04-28T08:14:28Z</time>
      </trkpt>
      <trkpt lat="45.60377" lon="4.50338">
        <ele>727.5</ele>
        <time>2019-04-28T08:14:30Z</time>
      </trkpt>
      <trkpt lat="45.60403" lon="4.50351">
        <ele>726.3</ele>
        <time>2019-04-28T08:14:37Z</time>
      </trkpt>
      <trkpt lat="45.60415" lon="4.50355">
        <ele>725.8</ele>
        <time>2019-04-28T08:14:40Z</time>
      </trkpt>
      <trkpt lat="45.60426" lon="4.50357">
        <ele>725.4</ele>
        <time>2019-04-28T08:14:43Z</time>
      </trkpt>
      <trkpt lat="45.60457" lon="4.50364">
        <ele>724.4</ele>
        <time>2019-04-28T08:14:51Z</time>
      </trkpt>
      <trkpt lat="45.60487" lon="4.50367">
        <ele>723.5</ele>
        <time>2019-04-28T08:14:59Z</time>
      </trkpt>
      <trkpt lat="45.6051" lon="4.50366">
        <ele>722.9</ele>
        <time>2019-04-28T08:15:05Z</time>
      </trkpt>
      <trkpt lat="45.60517" lon="4.50356">
        <ele>722.5</ele>
        <time>2019-04-28T08:15:08Z</time>
      </trkpt>
      <trkpt lat="45.60515" lon="4.50354">
        <ele>722.4</ele>
        <time>2019-04-28T08:15:09Z</time>
      </trkpt>
      <trkpt lat="45.6051" lon="4.50331">
        <ele>720.1</ele>
        <time>2019-04-28T08:15:13Z</time>
      </trkpt>
      <trkpt lat="45.60517" lon="4.50312">
        <ele>718.3</ele>
        <time>2019-04-28T08:15:15Z</time>
      </trkpt>
      <trkpt lat="45.60521" lon="4.50302">
        <ele>717.5</ele>
        <time>2019-04-28T08:15:16Z</time>
      </trkpt>
      <trkpt lat="45.60526" lon="4.50291">
        <ele>716.7</ele>
        <time>2019-04-28T08:15:17Z</time>
      </trkpt>
      <trkpt lat="45.60535" lon="4.50268">
        <ele>715.1</ele>
        <time>2019-04-28T08:15:19Z</time>
      </trkpt>
      <trkpt lat="45.60541" lon="4.50255">
        <ele>714.3</ele>
        <time>2019-04-28T08:15:20Z</time>
      </trkpt>
      <trkpt lat="45.60547" lon="4.50242">
        <ele>713.6</ele>
        <time>2019-04-28T08:15:21Z</time>
      </trkpt>
      <trkpt lat="45.60553" lon="4.5023">
        <ele>712.7</ele>
        <time>2019-04-28T08:15:22Z</time>
      </trkpt>
      <trkpt lat="45.60559" lon="4.50218">
        <ele>712.3</ele>
        <time>2019-04-28T08:15:23Z</time>
      </trkpt>
      <trkpt lat="45.60566" lon="4.50208">
        <ele>711.9</ele>
        <time>2019-04-28T08:15:24Z</time>
      </trkpt>
      <trkpt lat="45.60573" lon="4.50199">
        <ele>711.5</ele>
        <time>2019-04-28T08:15:25Z</time>
      </trkpt>
      <trkpt lat="45.60581" lon="4.50192">
        <ele>711.1</ele>
        <time>2019-04-28T08:15:26Z</time>
      </trkpt>
      <trkpt lat="45.60596" lon="4.50179">
        <ele>710.6</ele>
        <time>2019-04-28T08:15:28Z</time>
      </trkpt>
      <trkpt lat="45.60604" lon="4.50174">
        <ele>710.3</ele>
        <time>2019-04-28T08:15:29Z</time>
      </trkpt>
      <trkpt lat="45.6061" lon="4.50169">
        <ele>710</ele>
        <time>2019-04-28T08:15:30Z</time>
      </trkpt>
      <trkpt lat="45.6063" lon="4.50153">
        <ele>709.2</ele>
        <time>2019-04-28T08:15:33Z</time>
      </trkpt>
      <trkpt lat="45.60642" lon="4.50142">
        <ele>708.7</ele>
        <time>2019-04-28T08:15:35Z</time>
      </trkpt>
      <trkpt lat="45.60652" lon="4.50131">
        <ele>708.3</ele>
        <time>2019-04-28T08:15:37Z</time>
      </trkpt>
      <trkpt lat="45.60679" lon="4.50107">
        <ele>707.5</ele>
        <time>2019-04-28T08:15:42Z</time>
      </trkpt>
      <trkpt lat="45.60685" lon="4.50103">
        <ele>707.2</ele>
        <time>2019-04-28T08:15:43Z</time>
      </trkpt>
      <trkpt lat="45.60707" lon="4.50084">
        <ele>705.9</ele>
        <time>2019-04-28T08:15:47Z</time>
      </trkpt>
      <trkpt lat="45.60712" lon="4.5008">
        <ele>705.6</ele>
        <time>2019-04-28T08:15:48Z</time>
      </trkpt>
      <trkpt lat="45.60717" lon="4.50078">
        <ele>705.3</ele>
        <time>2019-04-28T08:15:49Z</time>
      </trkpt>
      <trkpt lat="45.60728" lon="4.50076">
        <ele>704.6</ele>
        <time>2019-04-28T08:15:51Z</time>
      </trkpt>
      <trkpt lat="45.60734" lon="4.50076">
        <ele>704</ele>
        <time>2019-04-28T08:15:52Z</time>
      </trkpt>
      <trkpt lat="45.60747" lon="4.50078">
        <ele>703.1</ele>
        <time>2019-04-28T08:15:54Z</time>
      </trkpt>
      <trkpt lat="45.60769" lon="4.50084">
        <ele>701.4</ele>
        <time>2019-04-28T08:15:57Z</time>
      </trkpt>
      <trkpt lat="45.60784" lon="4.50091">
        <ele>700.1</ele>
        <time>2019-04-28T08:15:59Z</time>
      </trkpt>
      <trkpt lat="45.60796" lon="4.50101">
        <ele>699.1</ele>
        <time>2019-04-28T08:16:01Z</time>
      </trkpt>
      <trkpt lat="45.60802" lon="4.50105">
        <ele>698.6</ele>
        <time>2019-04-28T08:16:02Z</time>
      </trkpt>
      <trkpt lat="45.60806" lon="4.50112">
        <ele>698.2</ele>
        <time>2019-04-28T08:16:03Z</time>
      </trkpt>
      <trkpt lat="45.60813" lon="4.50126">
        <ele>697.6</ele>
        <time>2019-04-28T08:16:05Z</time>
      </trkpt>
      <trkpt lat="45.60817" lon="4.50136">
        <ele>697</ele>
        <time>2019-04-28T08:16:06Z</time>
      </trkpt>
      <trkpt lat="45.60818" lon="4.50146">
        <ele>696.5</ele>
        <time>2019-04-28T08:16:07Z</time>
      </trkpt>
      <trkpt lat="45.60816" lon="4.50164">
        <ele>695.1</ele>
        <time>2019-04-28T08:16:09Z</time>
      </trkpt>
      <trkpt lat="45.60802" lon="4.50188">
        <ele>693.4</ele>
        <time>2019-04-28T08:16:12Z</time>
      </trkpt>
      <trkpt lat="45.60796" lon="4.50196">
        <ele>692.9</ele>
        <time>2019-04-28T08:16:13Z</time>
      </trkpt>
      <trkpt lat="45.60785" lon="4.50214">
        <ele>691.7</ele>
        <time>2019-04-28T08:16:15Z</time>
      </trkpt>
      <trkpt lat="45.60776" lon="4.50236">
        <ele>690.6</ele>
        <time>2019-04-28T08:16:17Z</time>
      </trkpt>
      <trkpt lat="45.60765" lon="4.50269">
        <ele>689.2</ele>
        <time>2019-04-28T08:16:20Z</time>
      </trkpt>
      <trkpt lat="45.60763" lon="4.50278">
        <ele>688.9</ele>
        <time>2019-04-28T08:16:21Z</time>
      </trkpt>
      <trkpt lat="45.60762" lon="4.50285">
        <ele>688.7</ele>
        <time>2019-04-28T08:16:22Z</time>
      </trkpt>
      <trkpt lat="45.60765" lon="4.50297">
        <ele>688.4</ele>
        <time>2019-04-28T08:16:25Z</time>
      </trkpt>
      <trkpt lat="45.60776" lon="4.50292">
        <ele>688</ele>
        <time>2019-04-28T08:16:28Z</time>
      </trkpt>
      <trkpt lat="45.60788" lon="4.50282">
        <ele>687.6</ele>
        <time>2019-04-28T08:16:31Z</time>
      </trkpt>
      <trkpt lat="45.60799" lon="4.50272">
        <ele>687.6</ele>
        <time>2019-04-28T08:16:34Z</time>
      </trkpt>
      <trkpt lat="45.60818" lon="4.50261">
        <ele>688.1</ele>
        <time>2019-04-28T08:16:39Z</time>
      </trkpt>
      <trkpt lat="45.60837" lon="4.50256">
        <ele>688.9</ele>
        <time>2019-04-28T08:16:44Z</time>
      </trkpt>
      <trkpt lat="45.60857" lon="4.50258">
        <ele>689.7</ele>
        <time>2019-04-28T08:16:49Z</time>
      </trkpt>
      <trkpt lat="45.60885" lon="4.50256">
        <ele>690.9</ele>
        <time>2019-04-28T08:16:56Z</time>
      </trkpt>
      <trkpt lat="45.60895" lon="4.50251">
        <ele>691.4</ele>
        <time>2019-04-28T08:16:59Z</time>
      </trkpt>
      <trkpt lat="45.60912" lon="4.50244">
        <ele>692.1</ele>
        <time>2019-04-28T08:17:03Z</time>
      </trkpt>
      <trkpt lat="45.60937" lon="4.50234">
        <ele>692.8</ele>
        <time>2019-04-28T08:17:10Z</time>
      </trkpt>
      <trkpt lat="45.60957" lon="4.50231">
        <ele>693.1</ele>
        <time>2019-04-28T08:17:16Z</time>
      </trkpt>
      <trkpt lat="45.60985" lon="4.50232">
        <ele>693.6</ele>
        <time>2019-04-28T08:17:24Z</time>
      </trkpt>
      <trkpt lat="45.60988" lon="4.50232">
        <ele>693.7</ele>
        <time>2019-04-28T08:17:25Z</time>
      </trkpt>
      <trkpt lat="45.61005" lon="4.50233">
        <ele>693.9</ele>
        <time>2019-04-28T08:17:30Z</time>
      </trkpt>
      <trkpt lat="45.61015" lon="4.50232">
        <ele>694.1</ele>
        <time>2019-04-28T08:17:33Z</time>
      </trkpt>
      <trkpt lat="45.61043" lon="4.50228">
        <ele>694.9</ele>
        <time>2019-04-28T08:17:42Z</time>
      </trkpt>
      <trkpt lat="45.61052" lon="4.50226">
        <ele>695.3</ele>
        <time>2019-04-28T08:17:45Z</time>
      </trkpt>
      <trkpt lat="45.61063" lon="4.50225">
        <ele>695.7</ele>
        <time>2019-04-28T08:17:49Z</time>
      </trkpt>
      <trkpt lat="45.61065" lon="4.50224">
        <ele>695.8</ele>
        <time>2019-04-28T08:17:50Z</time>
      </trkpt>
      <trkpt lat="45.61074" lon="4.50222">
        <ele>696.3</ele>
        <time>2019-04-28T08:17:54Z</time>
      </trkpt>
      <trkpt lat="45.61082" lon="4.50217">
        <ele>696.6</ele>
        <time>2019-04-28T08:17:57Z</time>
      </trkpt>
      <trkpt lat="45.6109" lon="4.50211">
        <ele>696.9</ele>
        <time>2019-04-28T08:18:00Z</time>
      </trkpt>
      <trkpt lat="45.611" lon="4.50204">
        <ele>697.4</ele>
        <time>2019-04-28T08:18:04Z</time>
      </trkpt>
      <trkpt lat="45.61116" lon="4.50189">
        <ele>698</ele>
        <time>2019-04-28T08:18:11Z</time>
      </trkpt>
      <trkpt lat="45.61123" lon="4.50182">
        <ele>698.1</ele>
        <time>2019-04-28T08:18:14Z</time>
      </trkpt>
      <trkpt lat="45.61137" lon="4.50168">
        <ele>698.1</ele>
        <time>2019-04-28T08:18:20Z</time>
      </trkpt>
      <trkpt lat="45.61151" lon="4.50152">
        <ele>698</ele>
        <time>2019-04-28T08:18:26Z</time>
      </trkpt>
      <trkpt lat="45.61162" lon="4.50143">
        <ele>697.8</ele>
        <time>2019-04-28T08:18:31Z</time>
      </trkpt>
      <trkpt lat="45.61169" lon="4.50139">
        <ele>697.6</ele>
        <time>2019-04-28T08:18:34Z</time>
      </trkpt>
      <trkpt lat="45.61182" lon="4.50137">
        <ele>697.3</ele>
        <time>2019-04-28T08:18:38Z</time>
      </trkpt>
      <trkpt lat="45.61188" lon="4.50136">
        <ele>697.2</ele>
        <time>2019-04-28T08:18:40Z</time>
      </trkpt>
      <trkpt lat="45.61199" lon="4.50127">
        <ele>696.1</ele>
        <time>2019-04-28T08:18:43Z</time>
      </trkpt>
      <trkpt lat="45.61206" lon="4.50119">
        <ele>696.2</ele>
        <time>2019-04-28T08:18:45Z</time>
      </trkpt>
      <trkpt lat="45.61225" lon="4.50104">
        <ele>696.4</ele>
        <time>2019-04-28T08:18:50Z</time>
      </trkpt>
      <trkpt lat="45.61229" lon="4.50101">
        <ele>696.4</ele>
        <time>2019-04-28T08:18:51Z</time>
      </trkpt>
      <trkpt lat="45.61237" lon="4.50095">
        <ele>696.5</ele>
        <time>2019-04-28T08:18:54Z</time>
      </trkpt>
      <trkpt lat="45.61238" lon="4.50097">
        <ele>696.5</ele>
        <time>2019-04-28T08:18:55Z</time>
      </trkpt>
      <trkpt lat="45.61243" lon="4.50115">
        <ele>696.2</ele>
        <time>2019-04-28T08:18:59Z</time>
      </trkpt>
      <trkpt lat="45.61251" lon="4.50152">
        <ele>695.7</ele>
        <time>2019-04-28T08:19:07Z</time>
      </trkpt>
      <trkpt lat="45.61255" lon="4.50165">
        <ele>695.5</ele>
        <time>2019-04-28T08:19:10Z</time>
      </trkpt>
      <trkpt lat="45.61259" lon="4.50181">
        <ele>695.2</ele>
        <time>2019-04-28T08:19:13Z</time>
      </trkpt>
      <trkpt lat="45.61261" lon="4.50188">
        <ele>695.1</ele>
        <time>2019-04-28T08:19:14Z</time>
      </trkpt>
      <trkpt lat="45.61266" lon="4.5021">
        <ele>694.6</ele>
        <time>2019-04-28T08:19:17Z</time>
      </trkpt>
      <trkpt lat="45.61269" lon="4.50219">
        <ele>694.5</ele>
        <time>2019-04-28T08:19:18Z</time>
      </trkpt>
      <trkpt lat="45.61274" lon="4.50242">
        <ele>694</ele>
        <time>2019-04-28T08:19:21Z</time>
      </trkpt>
      <trkpt lat="45.61275" lon="4.50245">
        <ele>693.9</ele>
        <time>2019-04-28T08:19:22Z</time>
      </trkpt>
      <trkpt lat="45.61278" lon="4.50253">
        <ele>692.4</ele>
        <time>2019-04-28T08:19:25Z</time>
      </trkpt>
      <trkpt lat="45.61279" lon="4.50256">
        <ele>691.5</ele>
        <time>2019-04-28T08:19:26Z</time>
      </trkpt>
      <trkpt lat="45.61282" lon="4.5027">
        <ele>689.8</ele>
        <time>2019-04-28T08:19:30Z</time>
      </trkpt>
      <trkpt lat="45.61283" lon="4.50277">
        <ele>688.5</ele>
        <time>2019-04-28T08:19:31Z</time>
      </trkpt>
      <trkpt lat="45.61289" lon="4.50301">
        <ele>686.3</ele>
        <time>2019-04-28T08:19:34Z</time>
      </trkpt>
      <trkpt lat="45.61291" lon="4.50309">
        <ele>685.1</ele>
        <time>2019-04-28T08:19:35Z</time>
      </trkpt>
      <trkpt lat="45.61292" lon="4.50319">
        <ele>683.9</ele>
        <time>2019-04-28T08:19:36Z</time>
      </trkpt>
      <trkpt lat="45.61292" lon="4.5034">
        <ele>683.2</ele>
        <time>2019-04-28T08:19:38Z</time>
      </trkpt>
      <trkpt lat="45.61293" lon="4.5035">
        <ele>682.8</ele>
        <time>2019-04-28T08:19:39Z</time>
      </trkpt>
      <trkpt lat="45.61296" lon="4.50359">
        <ele>682.5</ele>
        <time>2019-04-28T08:19:40Z</time>
      </trkpt>
      <trkpt lat="45.61299" lon="4.50367">
        <ele>682.2</ele>
        <time>2019-04-28T08:19:41Z</time>
      </trkpt>
      <trkpt lat="45.61303" lon="4.50377">
        <ele>681.7</ele>
        <time>2019-04-28T08:19:42Z</time>
      </trkpt>
      <trkpt lat="45.61313" lon="4.50406">
        <ele>680.5</ele>
        <time>2019-04-28T08:19:45Z</time>
      </trkpt>
      <trkpt lat="45.61321" lon="4.50426">
        <ele>679.7</ele>
        <time>2019-04-28T08:19:47Z</time>
      </trkpt>
      <trkpt lat="45.61328" lon="4.50444">
        <ele>678.8</ele>
        <time>2019-04-28T08:19:49Z</time>
      </trkpt>
      <trkpt lat="45.61331" lon="4.50454">
        <ele>678.4</ele>
        <time>2019-04-28T08:19:50Z</time>
      </trkpt>
      <trkpt lat="45.61334" lon="4.50464">
        <ele>678</ele>
        <time>2019-04-28T08:19:51Z</time>
      </trkpt>
      <trkpt lat="45.61338" lon="4.50475">
        <ele>677.6</ele>
        <time>2019-04-28T08:19:52Z</time>
      </trkpt>
      <trkpt lat="45.61342" lon="4.50484">
        <ele>677.1</ele>
        <time>2019-04-28T08:19:53Z</time>
      </trkpt>
      <trkpt lat="45.61349" lon="4.50498">
        <ele>676.2</ele>
        <time>2019-04-28T08:19:55Z</time>
      </trkpt>
      <trkpt lat="45.61352" lon="4.50501">
        <ele>675.9</ele>
        <time>2019-04-28T08:19:56Z</time>
      </trkpt>
      <trkpt lat="45.61356" lon="4.50504">
        <ele>675.5</ele>
        <time>2019-04-28T08:19:58Z</time>
      </trkpt>
      <trkpt lat="45.61359" lon="4.50502">
        <ele>675.3</ele>
        <time>2019-04-28T08:19:59Z</time>
      </trkpt>
      <trkpt lat="45.61363" lon="4.50501">
        <ele>675</ele>
        <time>2019-04-28T08:20:00Z</time>
      </trkpt>
      <trkpt lat="45.61376" lon="4.50507">
        <ele>674.2</ele>
        <time>2019-04-28T08:20:03Z</time>
      </trkpt>
      <trkpt lat="45.61381" lon="4.50507">
        <ele>673.8</ele>
        <time>2019-04-28T08:20:04Z</time>
      </trkpt>
      <trkpt lat="45.61391" lon="4.50511">
        <ele>672.8</ele>
        <time>2019-04-28T08:20:06Z</time>
      </trkpt>
      <trkpt lat="45.61397" lon="4.50512">
        <ele>672.4</ele>
        <time>2019-04-28T08:20:07Z</time>
      </trkpt>
      <trkpt lat="45.61404" lon="4.50513">
        <ele>672</ele>
        <time>2019-04-28T08:20:08Z</time>
      </trkpt>
      <trkpt lat="45.61425" lon="4.50516">
        <ele>670.7</ele>
        <time>2019-04-28T08:20:11Z</time>
      </trkpt>
      <trkpt lat="45.61432" lon="4.50517">
        <ele>670.3</ele>
        <time>2019-04-28T08:20:12Z</time>
      </trkpt>
      <trkpt lat="45.6144" lon="4.50518">
        <ele>669.9</ele>
        <time>2019-04-28T08:20:13Z</time>
      </trkpt>
      <trkpt lat="45.61462" lon="4.5052">
        <ele>668.8</ele>
        <time>2019-04-28T08:20:16Z</time>
      </trkpt>
      <trkpt lat="45.61472" lon="4.50521">
        <ele>668.4</ele>
        <time>2019-04-28T08:20:18Z</time>
      </trkpt>
      <trkpt lat="45.61475" lon="4.50522">
        <ele>668.2</ele>
        <time>2019-04-28T08:20:19Z</time>
      </trkpt>
      <trkpt lat="45.61478" lon="4.50526">
        <ele>668.5</ele>
        <time>2019-04-28T08:20:20Z</time>
      </trkpt>
      <trkpt lat="45.6148" lon="4.5053">
        <ele>668.8</ele>
        <time>2019-04-28T08:20:21Z</time>
      </trkpt>
      <trkpt lat="45.61481" lon="4.50537">
        <ele>669.3</ele>
        <time>2019-04-28T08:20:23Z</time>
      </trkpt>
      <trkpt lat="45.61479" lon="4.50542">
        <ele>669.6</ele>
        <time>2019-04-28T08:20:25Z</time>
      </trkpt>
      <trkpt lat="45.61478" lon="4.50545">
        <ele>669.7</ele>
        <time>2019-04-28T08:20:26Z</time>
      </trkpt>
      <trkpt lat="45.61476" lon="4.50552">
        <ele>670.1</ele>
        <time>2019-04-28T08:20:28Z</time>
      </trkpt>
      <trkpt lat="45.61473" lon="4.50564">
        <ele>670.5</ele>
        <time>2019-04-28T08:20:31Z</time>
      </trkpt>
      <trkpt lat="45.6147" lon="4.50591">
        <ele>670.7</ele>
        <time>2019-04-28T08:20:37Z</time>
      </trkpt>
      <trkpt lat="45.6147" lon="4.50606">
        <ele>670.6</ele>
        <time>2019-04-28T08:20:40Z</time>
      </trkpt>
      <trkpt lat="45.61473" lon="4.50626">
        <ele>670.3</ele>
        <time>2019-04-28T08:20:44Z</time>
      </trkpt>
      <trkpt lat="45.61482" lon="4.50668">
        <ele>671</ele>
        <time>2019-04-28T08:20:53Z</time>
      </trkpt>
      <trkpt lat="45.61485" lon="4.50684">
        <ele>671.9</ele>
        <time>2019-04-28T08:20:57Z</time>
      </trkpt>
      <trkpt lat="45.61487" lon="4.50698">
        <ele>672.6</ele>
        <time>2019-04-28T08:21:01Z</time>
      </trkpt>
      <trkpt lat="45.6149" lon="4.50711">
        <ele>673.3</ele>
        <time>2019-04-28T08:21:05Z</time>
      </trkpt>
      <trkpt lat="45.61491" lon="4.5072">
        <ele>673.8</ele>
        <time>2019-04-28T08:21:08Z</time>
      </trkpt>
      <trkpt lat="45.61491" lon="4.50723">
        <ele>674</ele>
        <time>2019-04-28T08:21:09Z</time>
      </trkpt>
      <trkpt lat="45.61491" lon="4.50728">
        <ele>674.4</ele>
        <time>2019-04-28T08:21:11Z</time>
      </trkpt>
      <trkpt lat="45.61493" lon="4.50733">
        <ele>674.8</ele>
        <time>2019-04-28T08:21:13Z</time>
      </trkpt>
      <trkpt lat="45.61492" lon="4.50736">
        <ele>674.9</ele>
        <time>2019-04-28T08:21:14Z</time>
      </trkpt>
      <trkpt lat="45.61493" lon="4.50742">
        <ele>675.4</ele>
        <time>2019-04-28T08:21:16Z</time>
      </trkpt>
      <trkpt lat="45.61495" lon="4.50751">
        <ele>675.9</ele>
        <time>2019-04-28T08:21:19Z</time>
      </trkpt>
      <trkpt lat="45.61496" lon="4.50753">
        <ele>676.1</ele>
        <time>2019-04-28T08:21:20Z</time>
      </trkpt>
      <trkpt lat="45.61497" lon="4.50756">
        <ele>676.2</ele>
        <time>2019-04-28T08:21:21Z</time>
      </trkpt>
      <trkpt lat="45.61498" lon="4.50761">
        <ele>676.5</ele>
        <time>2019-04-28T08:21:23Z</time>
      </trkpt>
      <trkpt lat="45.615" lon="4.50775">
        <ele>676.8</ele>
        <time>2019-04-28T08:21:28Z</time>
      </trkpt>
      <trkpt lat="45.615" lon="4.50788">
        <ele>677</ele>
        <time>2019-04-28T08:21:33Z</time>
      </trkpt>
      <trkpt lat="45.61501" lon="4.5079">
        <ele>677.1</ele>
        <time>2019-04-28T08:21:34Z</time>
      </trkpt>
      <trkpt lat="45.61504" lon="4.50801">
        <ele>677.4</ele>
        <time>2019-04-28T08:21:40Z</time>
      </trkpt>
      <trkpt lat="45.61505" lon="4.50804">
        <ele>677.4</ele>
        <time>2019-04-28T08:21:42Z</time>
      </trkpt>
      <trkpt lat="45.61504" lon="4.50808">
        <ele>677.5</ele>
        <time>2019-04-28T08:21:53Z</time>
      </trkpt>
      <trkpt lat="45.61505" lon="4.50811">
        <ele>677.5</ele>
        <time>2019-04-28T08:21:55Z</time>
      </trkpt>
      <trkpt lat="45.61508" lon="4.50823">
        <ele>677.6</ele>
        <time>2019-04-28T08:21:59Z</time>
      </trkpt>
      <trkpt lat="45.61514" lon="4.50847">
        <ele>677.6</ele>
        <time>2019-04-28T08:22:07Z</time>
      </trkpt>
      <trkpt lat="45.61522" lon="4.50877">
        <ele>678.2</ele>
        <time>2019-04-28T08:22:17Z</time>
      </trkpt>
      <trkpt lat="45.61527" lon="4.50892">
        <ele>678.7</ele>
        <time>2019-04-28T08:22:22Z</time>
      </trkpt>
      <trkpt lat="45.61532" lon="4.50907">
        <ele>679.2</ele>
        <time>2019-04-28T08:22:27Z</time>
      </trkpt>
      <trkpt lat="45.6154" lon="4.50925">
        <ele>679.9</ele>
        <time>2019-04-28T08:22:34Z</time>
      </trkpt>
      <trkpt lat="45.61544" lon="4.50937">
        <ele>680.4</ele>
        <time>2019-04-28T08:22:38Z</time>
      </trkpt>
      <trkpt lat="45.61547" lon="4.50949">
        <ele>680.9</ele>
        <time>2019-04-28T08:22:42Z</time>
      </trkpt>
      <trkpt lat="45.61551" lon="4.50961">
        <ele>681.4</ele>
        <time>2019-04-28T08:22:46Z</time>
      </trkpt>
      <trkpt lat="45.61553" lon="4.5097">
        <ele>681.7</ele>
        <time>2019-04-28T08:22:49Z</time>
      </trkpt>
      <trkpt lat="45.61555" lon="4.50977">
        <ele>681.9</ele>
        <time>2019-04-28T08:22:51Z</time>
      </trkpt>
      <trkpt lat="45.61558" lon="4.50994">
        <ele>682.5</ele>
        <time>2019-04-28T08:22:56Z</time>
      </trkpt>
      <trkpt lat="45.61559" lon="4.51004">
        <ele>683</ele>
        <time>2019-04-28T08:22:59Z</time>
      </trkpt>
      <trkpt lat="45.61561" lon="4.51017">
        <ele>683.7</ele>
        <time>2019-04-28T08:23:03Z</time>
      </trkpt>
      <trkpt lat="45.61561" lon="4.51022">
        <ele>684</ele>
        <time>2019-04-28T08:23:05Z</time>
      </trkpt>
      <trkpt lat="45.61563" lon="4.51032">
        <ele>684.3</ele>
        <time>2019-04-28T08:23:10Z</time>
      </trkpt>
      <trkpt lat="45.61565" lon="4.51043">
        <ele>684.3</ele>
        <time>2019-04-28T08:23:32Z</time>
      </trkpt>
      <trkpt lat="45.61566" lon="4.51051">
        <ele>684.4</ele>
        <time>2019-04-28T08:23:34Z</time>
      </trkpt>
      <trkpt lat="45.61567" lon="4.51061">
        <ele>684.6</ele>
        <time>2019-04-28T08:23:36Z</time>
      </trkpt>
      <trkpt lat="45.61568" lon="4.51081">
        <ele>685.1</ele>
        <time>2019-04-28T08:23:39Z</time>
      </trkpt>
      <trkpt lat="45.61569" lon="4.51095">
        <ele>685.6</ele>
        <time>2019-04-28T08:23:41Z</time>
      </trkpt>
      <trkpt lat="45.61571" lon="4.5111">
        <ele>686.1</ele>
        <time>2019-04-28T08:23:43Z</time>
      </trkpt>
      <trkpt lat="45.61571" lon="4.51135">
        <ele>687</ele>
        <time>2019-04-28T08:23:46Z</time>
      </trkpt>
      <trkpt lat="45.61571" lon="4.51159">
        <ele>688.3</ele>
        <time>2019-04-28T08:23:49Z</time>
      </trkpt>
      <trkpt lat="45.61569" lon="4.51175">
        <ele>689.5</ele>
        <time>2019-04-28T08:23:51Z</time>
      </trkpt>
      <trkpt lat="45.6157" lon="4.51182">
        <ele>690.1</ele>
        <time>2019-04-28T08:23:52Z</time>
      </trkpt>
      <trkpt lat="45.61571" lon="4.51189">
        <ele>690.1</ele>
        <time>2019-04-28T08:23:53Z</time>
      </trkpt>
      <trkpt lat="45.61576" lon="4.51212">
        <ele>690.1</ele>
        <time>2019-04-28T08:23:56Z</time>
      </trkpt>
      <trkpt lat="45.61577" lon="4.51219">
        <ele>690.1</ele>
        <time>2019-04-28T08:23:57Z</time>
      </trkpt>
      <trkpt lat="45.61579" lon="4.51224">
        <ele>690.1</ele>
        <time>2019-04-28T08:23:58Z</time>
      </trkpt>
      <trkpt lat="45.61582" lon="4.51239">
        <ele>690</ele>
        <time>2019-04-28T08:24:01Z</time>
      </trkpt>
      <trkpt lat="45.61584" lon="4.51257">
        <ele>689.8</ele>
        <time>2019-04-28T08:24:06Z</time>
      </trkpt>
      <trkpt lat="45.61584" lon="4.51261">
        <ele>689.8</ele>
        <time>2019-04-28T08:24:07Z</time>
      </trkpt>
      <trkpt lat="45.61586" lon="4.51279">
        <ele>689.6</ele>
        <time>2019-04-28T08:24:12Z</time>
      </trkpt>
      <trkpt lat="45.61587" lon="4.51292">
        <ele>689.3</ele>
        <time>2019-04-28T08:24:15Z</time>
      </trkpt>
      <trkpt lat="45.61587" lon="4.513">
        <ele>689.1</ele>
        <time>2019-04-28T08:24:17Z</time>
      </trkpt>
      <trkpt lat="45.61588" lon="4.51322">
        <ele>688.6</ele>
        <time>2019-04-28T08:24:22Z</time>
      </trkpt>
      <trkpt lat="45.61588" lon="4.51331">
        <ele>688.2</ele>
        <time>2019-04-28T08:24:24Z</time>
      </trkpt>
      <trkpt lat="45.61591" lon="4.51349">
        <ele>687.5</ele>
        <time>2019-04-28T08:24:28Z</time>
      </trkpt>
      <trkpt lat="45.61593" lon="4.51359">
        <ele>686.7</ele>
        <time>2019-04-28T08:24:31Z</time>
      </trkpt>
      <trkpt lat="45.61593" lon="4.51373">
        <ele>685.6</ele>
        <time>2019-04-28T08:24:37Z</time>
      </trkpt>
      <trkpt lat="45.61594" lon="4.51376">
        <ele>685.2</ele>
        <time>2019-04-28T08:24:40Z</time>
      </trkpt>
      <trkpt lat="45.61596" lon="4.51382">
        <ele>684.6</ele>
        <time>2019-04-28T08:24:43Z</time>
      </trkpt>
      <trkpt lat="45.616" lon="4.51395">
        <ele>683.2</ele>
        <time>2019-04-28T08:24:45Z</time>
      </trkpt>
      <trkpt lat="45.61602" lon="4.51405">
        <ele>682.6</ele>
        <time>2019-04-28T08:24:46Z</time>
      </trkpt>
      <trkpt lat="45.61606" lon="4.51425">
        <ele>681.1</ele>
        <time>2019-04-28T08:24:48Z</time>
      </trkpt>
      <trkpt lat="45.61607" lon="4.51449">
        <ele>679.4</ele>
        <time>2019-04-28T08:24:50Z</time>
      </trkpt>
      <trkpt lat="45.61606" lon="4.51473">
        <ele>678.2</ele>
        <time>2019-04-28T08:24:52Z</time>
      </trkpt>
      <trkpt lat="45.61603" lon="4.51496">
        <ele>676.4</ele>
        <time>2019-04-28T08:24:54Z</time>
      </trkpt>
      <trkpt lat="45.61602" lon="4.51507">
        <ele>675.4</ele>
        <time>2019-04-28T08:24:55Z</time>
      </trkpt>
      <trkpt lat="45.61601" lon="4.51519">
        <ele>674.1</ele>
        <time>2019-04-28T08:24:56Z</time>
      </trkpt>
      <trkpt lat="45.61599" lon="4.51541">
        <ele>671.5</ele>
        <time>2019-04-28T08:24:58Z</time>
      </trkpt>
      <trkpt lat="45.61598" lon="4.51557">
        <ele>669.8</ele>
        <time>2019-04-28T08:25:00Z</time>
      </trkpt>
      <trkpt lat="45.61597" lon="4.51565">
        <ele>668.6</ele>
        <time>2019-04-28T08:25:01Z</time>
      </trkpt>
      <trkpt lat="45.61595" lon="4.51573">
        <ele>667.3</ele>
        <time>2019-04-28T08:25:02Z</time>
      </trkpt>
      <trkpt lat="45.61587" lon="4.51589">
        <ele>664</ele>
        <time>2019-04-28T08:25:04Z</time>
      </trkpt>
      <trkpt lat="45.6158" lon="4.51609">
        <ele>660.7</ele>
        <time>2019-04-28T08:25:06Z</time>
      </trkpt>
      <trkpt lat="45.61573" lon="4.51633">
        <ele>657.5</ele>
        <time>2019-04-28T08:25:08Z</time>
      </trkpt>
      <trkpt lat="45.61567" lon="4.51656">
        <ele>654.6</ele>
        <time>2019-04-28T08:25:10Z</time>
      </trkpt>
      <trkpt lat="45.61563" lon="4.51666">
        <ele>653.1</ele>
        <time>2019-04-28T08:25:11Z</time>
      </trkpt>
      <trkpt lat="45.61561" lon="4.51676">
        <ele>652.1</ele>
        <time>2019-04-28T08:25:12Z</time>
      </trkpt>
      <trkpt lat="45.61562" lon="4.51686">
        <ele>651.1</ele>
        <time>2019-04-28T08:25:13Z</time>
      </trkpt>
      <trkpt lat="45.61566" lon="4.51695">
        <ele>649.9</ele>
        <time>2019-04-28T08:25:14Z</time>
      </trkpt>
      <trkpt lat="45.6157" lon="4.51705">
        <ele>648.7</ele>
        <time>2019-04-28T08:25:15Z</time>
      </trkpt>
      <trkpt lat="45.61574" lon="4.51717">
        <ele>647.5</ele>
        <time>2019-04-28T08:25:16Z</time>
      </trkpt>
      <trkpt lat="45.61584" lon="4.51739">
        <ele>645.7</ele>
        <time>2019-04-28T08:25:18Z</time>
      </trkpt>
      <trkpt lat="45.61587" lon="4.5175">
        <ele>644.9</ele>
        <time>2019-04-28T08:25:19Z</time>
      </trkpt>
      <trkpt lat="45.6159" lon="4.5176">
        <ele>644.4</ele>
        <time>2019-04-28T08:25:20Z</time>
      </trkpt>
      <trkpt lat="45.6159" lon="4.51772">
        <ele>644.6</ele>
        <time>2019-04-28T08:25:21Z</time>
      </trkpt>
      <trkpt lat="45.61591" lon="4.51784">
        <ele>645.2</ele>
        <time>2019-04-28T08:25:22Z</time>
      </trkpt>
      <trkpt lat="45.61592" lon="4.51796">
        <ele>646.1</ele>
        <time>2019-04-28T08:25:23Z</time>
      </trkpt>
      <trkpt lat="45.61595" lon="4.51806">
        <ele>647.2</ele>
        <time>2019-04-28T08:25:24Z</time>
      </trkpt>
      <trkpt lat="45.61599" lon="4.51814">
        <ele>648.1</ele>
        <time>2019-04-28T08:25:25Z</time>
      </trkpt>
      <trkpt lat="45.61604" lon="4.51819">
        <ele>649.1</ele>
        <time>2019-04-28T08:25:26Z</time>
      </trkpt>
      <trkpt lat="45.61615" lon="4.51825">
        <ele>650.6</ele>
        <time>2019-04-28T08:25:29Z</time>
      </trkpt>
      <trkpt lat="45.61619" lon="4.51827">
        <ele>651.3</ele>
        <time>2019-04-28T08:25:31Z</time>
      </trkpt>
      <trkpt lat="45.61624" lon="4.51826">
        <ele>652.2</ele>
        <time>2019-04-28T08:25:33Z</time>
      </trkpt>
      <trkpt lat="45.61633" lon="4.51828">
        <ele>654.5</ele>
        <time>2019-04-28T08:25:38Z</time>
      </trkpt>
      <trkpt lat="45.61636" lon="4.51831">
        <ele>655.1</ele>
        <time>2019-04-28T08:25:41Z</time>
      </trkpt>
      <trkpt lat="45.61637" lon="4.51834">
        <ele>655.4</ele>
        <time>2019-04-28T08:25:43Z</time>
      </trkpt>
      <trkpt lat="45.6164" lon="4.51838">
        <ele>656</ele>
        <time>2019-04-28T08:25:46Z</time>
      </trkpt>
      <trkpt lat="45.61643" lon="4.51843">
        <ele>656.7</ele>
        <time>2019-04-28T08:25:49Z</time>
      </trkpt>
      <trkpt lat="45.61646" lon="4.51851">
        <ele>657.6</ele>
        <time>2019-04-28T08:25:53Z</time>
      </trkpt>
      <trkpt lat="45.61648" lon="4.51858">
        <ele>658.2</ele>
        <time>2019-04-28T08:25:56Z</time>
      </trkpt>
      <trkpt lat="45.61648" lon="4.5186">
        <ele>658.5</ele>
        <time>2019-04-28T08:25:57Z</time>
      </trkpt>
      <trkpt lat="45.61648" lon="4.51866">
        <ele>659</ele>
        <time>2019-04-28T08:25:59Z</time>
      </trkpt>
      <trkpt lat="45.61648" lon="4.51872">
        <ele>659.4</ele>
        <time>2019-04-28T08:26:01Z</time>
      </trkpt>
      <trkpt lat="45.61649" lon="4.51875">
        <ele>659.6</ele>
        <time>2019-04-28T08:26:02Z</time>
      </trkpt>
      <trkpt lat="45.61648" lon="4.51877">
        <ele>659.7</ele>
        <time>2019-04-28T08:26:03Z</time>
      </trkpt>
      <trkpt lat="45.61648" lon="4.51885">
        <ele>660.3</ele>
        <time>2019-04-28T08:26:06Z</time>
      </trkpt>
      <trkpt lat="45.61649" lon="4.51887">
        <ele>660.4</ele>
        <time>2019-04-28T08:26:07Z</time>
      </trkpt>
      <trkpt lat="45.61649" lon="4.51892">
        <ele>660.7</ele>
        <time>2019-04-28T08:26:09Z</time>
      </trkpt>
      <trkpt lat="45.61649" lon="4.51901">
        <ele>661.2</ele>
        <time>2019-04-28T08:26:12Z</time>
      </trkpt>
      <trkpt lat="45.61648" lon="4.51903">
        <ele>661.3</ele>
        <time>2019-04-28T08:26:13Z</time>
      </trkpt>
      <trkpt lat="45.61648" lon="4.51908">
        <ele>661.5</ele>
        <time>2019-04-28T08:26:15Z</time>
      </trkpt>
      <trkpt lat="45.61648" lon="4.51916">
        <ele>661.9</ele>
        <time>2019-04-28T08:26:18Z</time>
      </trkpt>
      <trkpt lat="45.61647" lon="4.51923">
        <ele>662.2</ele>
        <time>2019-04-28T08:26:21Z</time>
      </trkpt>
      <trkpt lat="45.61647" lon="4.51931">
        <ele>662.6</ele>
        <time>2019-04-28T08:26:24Z</time>
      </trkpt>
      <trkpt lat="45.61646" lon="4.51946">
        <ele>663.4</ele>
        <time>2019-04-28T08:26:30Z</time>
      </trkpt>
      <trkpt lat="45.61644" lon="4.51968">
        <ele>664.3</ele>
        <time>2019-04-28T08:26:39Z</time>
      </trkpt>
      <trkpt lat="45.61644" lon="4.51975">
        <ele>664.6</ele>
        <time>2019-04-28T08:26:42Z</time>
      </trkpt>
      <trkpt lat="45.61642" lon="4.5199">
        <ele>665.3</ele>
        <time>2019-04-28T08:26:48Z</time>
      </trkpt>
      <trkpt lat="45.61642" lon="4.51996">
        <ele>665.5</ele>
        <time>2019-04-28T08:26:50Z</time>
      </trkpt>
      <trkpt lat="45.6164" lon="4.5201">
        <ele>666.1</ele>
        <time>2019-04-28T08:26:56Z</time>
      </trkpt>
      <trkpt lat="45.61637" lon="4.52029">
        <ele>666.8</ele>
        <time>2019-04-28T08:27:03Z</time>
      </trkpt>
      <trkpt lat="45.61636" lon="4.52033">
        <ele>666.9</ele>
        <time>2019-04-28T08:27:05Z</time>
      </trkpt>
      <trkpt lat="45.61635" lon="4.52038">
        <ele>667</ele>
        <time>2019-04-28T08:27:08Z</time>
      </trkpt>
      <trkpt lat="45.61634" lon="4.52042">
        <ele>667.1</ele>
        <time>2019-04-28T08:27:11Z</time>
      </trkpt>
      <trkpt lat="45.61635" lon="4.52056">
        <ele>666.9</ele>
        <time>2019-04-28T08:27:18Z</time>
      </trkpt>
      <trkpt lat="45.61632" lon="4.52077">
        <ele>667.1</ele>
        <time>2019-04-28T08:27:24Z</time>
      </trkpt>
      <trkpt lat="45.61628" lon="4.52099">
        <ele>667.8</ele>
        <time>2019-04-28T08:27:30Z</time>
      </trkpt>
      <trkpt lat="45.61627" lon="4.52103">
        <ele>668</ele>
        <time>2019-04-28T08:27:31Z</time>
      </trkpt>
      <trkpt lat="45.61626" lon="4.52131">
        <ele>668.7</ele>
        <time>2019-04-28T08:27:38Z</time>
      </trkpt>
      <trkpt lat="45.61627" lon="4.52136">
        <ele>668.7</ele>
        <time>2019-04-28T08:27:39Z</time>
      </trkpt>
      <trkpt lat="45.61633" lon="4.52162">
        <ele>669.2</ele>
        <time>2019-04-28T08:27:45Z</time>
      </trkpt>
      <trkpt lat="45.61639" lon="4.52185">
        <ele>669.6</ele>
        <time>2019-04-28T08:27:50Z</time>
      </trkpt>
      <trkpt lat="45.6164" lon="4.52189">
        <ele>669.7</ele>
        <time>2019-04-28T08:27:51Z</time>
      </trkpt>
      <trkpt lat="45.61648" lon="4.52216">
        <ele>670</ele>
        <time>2019-04-28T08:27:57Z</time>
      </trkpt>
      <trkpt lat="45.61653" lon="4.52249">
        <ele>670.6</ele>
        <time>2019-04-28T08:28:04Z</time>
      </trkpt>
      <trkpt lat="45.61658" lon="4.5229">
        <ele>671.5</ele>
        <time>2019-04-28T08:28:12Z</time>
      </trkpt>
      <trkpt lat="45.61668" lon="4.5233">
        <ele>672</ele>
        <time>2019-04-28T08:28:20Z</time>
      </trkpt>
      <trkpt lat="45.61679" lon="4.5236">
        <ele>672.5</ele>
        <time>2019-04-28T08:28:25Z</time>
      </trkpt>
      <trkpt lat="45.61682" lon="4.52364">
        <ele>672.7</ele>
        <time>2019-04-28T08:28:26Z</time>
      </trkpt>
      <trkpt lat="45.61692" lon="4.52376">
        <ele>673.3</ele>
        <time>2019-04-28T08:28:29Z</time>
      </trkpt>
      <trkpt lat="45.61699" lon="4.52383">
        <ele>673.6</ele>
        <time>2019-04-28T08:28:31Z</time>
      </trkpt>
      <trkpt lat="45.61718" lon="4.52404">
        <ele>675</ele>
        <time>2019-04-28T08:28:37Z</time>
      </trkpt>
      <trkpt lat="45.6173" lon="4.52422">
        <ele>676.6</ele>
        <time>2019-04-28T08:28:41Z</time>
      </trkpt>
      <trkpt lat="45.61733" lon="4.52426">
        <ele>677.1</ele>
        <time>2019-04-28T08:28:42Z</time>
      </trkpt>
      <trkpt lat="45.61737" lon="4.52431">
        <ele>677.5</ele>
        <time>2019-04-28T08:28:43Z</time>
      </trkpt>
      <trkpt lat="45.61745" lon="4.52443">
        <ele>678.3</ele>
        <time>2019-04-28T08:28:46Z</time>
      </trkpt>
      <trkpt lat="45.61749" lon="4.5245">
        <ele>678.7</ele>
        <time>2019-04-28T08:28:48Z</time>
      </trkpt>
      <trkpt lat="45.61759" lon="4.52466">
        <ele>679.7</ele>
        <time>2019-04-28T08:28:52Z</time>
      </trkpt>
      <trkpt lat="45.61768" lon="4.52483">
        <ele>680.7</ele>
        <time>2019-04-28T08:28:56Z</time>
      </trkpt>
      <trkpt lat="45.61773" lon="4.52496">
        <ele>681.5</ele>
        <time>2019-04-28T08:28:59Z</time>
      </trkpt>
      <trkpt lat="45.6178" lon="4.52511">
        <ele>682.8</ele>
        <time>2019-04-28T08:29:03Z</time>
      </trkpt>
      <trkpt lat="45.61781" lon="4.52513">
        <ele>683.1</ele>
        <time>2019-04-28T08:29:04Z</time>
      </trkpt>
      <trkpt lat="45.61785" lon="4.52521">
        <ele>683.7</ele>
        <time>2019-04-28T08:29:07Z</time>
      </trkpt>
      <trkpt lat="45.61787" lon="4.52529">
        <ele>684.2</ele>
        <time>2019-04-28T08:29:10Z</time>
      </trkpt>
      <trkpt lat="45.61791" lon="4.52548">
        <ele>685.4</ele>
        <time>2019-04-28T08:29:17Z</time>
      </trkpt>
      <trkpt lat="45.61795" lon="4.52566">
        <ele>686.9</ele>
        <time>2019-04-28T08:29:24Z</time>
      </trkpt>
      <trkpt lat="45.61798" lon="4.5258">
        <ele>688.5</ele>
        <time>2019-04-28T08:29:30Z</time>
      </trkpt>
      <trkpt lat="45.61799" lon="4.52583">
        <ele>688.8</ele>
        <time>2019-04-28T08:29:31Z</time>
      </trkpt>
      <trkpt lat="45.61802" lon="4.526">
        <ele>691.5</ele>
        <time>2019-04-28T08:29:38Z</time>
      </trkpt>
      <trkpt lat="45.61801" lon="4.52612">
        <ele>693.5</ele>
        <time>2019-04-28T08:29:44Z</time>
      </trkpt>
      <trkpt lat="45.61802" lon="4.52616">
        <ele>693.6</ele>
        <time>2019-04-28T08:30:20Z</time>
      </trkpt>
      <trkpt lat="45.61803" lon="4.52619">
        <ele>693.7</ele>
        <time>2019-04-28T08:30:21Z</time>
      </trkpt>
      <trkpt lat="45.61805" lon="4.52622">
        <ele>693.9</ele>
        <time>2019-04-28T08:30:22Z</time>
      </trkpt>
      <trkpt lat="45.61808" lon="4.52642">
        <ele>694.3</ele>
        <time>2019-04-28T08:30:28Z</time>
      </trkpt>
      <trkpt lat="45.61812" lon="4.52658">
        <ele>694.7</ele>
        <time>2019-04-28T08:30:34Z</time>
      </trkpt>
      <trkpt lat="45.61813" lon="4.52666">
        <ele>694.9</ele>
        <time>2019-04-28T08:30:37Z</time>
      </trkpt>
      <trkpt lat="45.61814" lon="4.52674">
        <ele>695.2</ele>
        <time>2019-04-28T08:30:40Z</time>
      </trkpt>
      <trkpt lat="45.61816" lon="4.52696">
        <ele>696</ele>
        <time>2019-04-28T08:30:49Z</time>
      </trkpt>
      <trkpt lat="45.61817" lon="4.52703">
        <ele>696.4</ele>
        <time>2019-04-28T08:30:52Z</time>
      </trkpt>
      <trkpt lat="45.6182" lon="4.52713">
        <ele>697</ele>
        <time>2019-04-28T08:30:56Z</time>
      </trkpt>
      <trkpt lat="45.61822" lon="4.5272">
        <ele>697.5</ele>
        <time>2019-04-28T08:30:59Z</time>
      </trkpt>
      <trkpt lat="45.61826" lon="4.52733">
        <ele>698.2</ele>
        <time>2019-04-28T08:31:04Z</time>
      </trkpt>
      <trkpt lat="45.61828" lon="4.52741">
        <ele>698.5</ele>
        <time>2019-04-28T08:31:07Z</time>
      </trkpt>
      <trkpt lat="45.6183" lon="4.52745">
        <ele>698.6</ele>
        <time>2019-04-28T08:31:09Z</time>
      </trkpt>
      <trkpt lat="45.61834" lon="4.52759">
        <ele>698.9</ele>
        <time>2019-04-28T08:31:15Z</time>
      </trkpt>
      <trkpt lat="45.61835" lon="4.52763">
        <ele>699</ele>
        <time>2019-04-28T08:31:17Z</time>
      </trkpt>
      <trkpt lat="45.61837" lon="4.52773">
        <ele>699.3</ele>
        <time>2019-04-28T08:31:21Z</time>
      </trkpt>
      <trkpt lat="45.61839" lon="4.52782">
        <ele>699.5</ele>
        <time>2019-04-28T08:31:25Z</time>
      </trkpt>
      <trkpt lat="45.61841" lon="4.52789">
        <ele>699.8</ele>
        <time>2019-04-28T08:31:28Z</time>
      </trkpt>
      <trkpt lat="45.61843" lon="4.52801">
        <ele>700.4</ele>
        <time>2019-04-28T08:31:33Z</time>
      </trkpt>
      <trkpt lat="45.61844" lon="4.52804">
        <ele>700.5</ele>
        <time>2019-04-28T08:31:34Z</time>
      </trkpt>
      <trkpt lat="45.61846" lon="4.52817">
        <ele>701</ele>
        <time>2019-04-28T08:31:40Z</time>
      </trkpt>
      <trkpt lat="45.61849" lon="4.52823">
        <ele>701.2</ele>
        <time>2019-04-28T08:31:43Z</time>
      </trkpt>
      <trkpt lat="45.61853" lon="4.52835">
        <ele>701.5</ele>
        <time>2019-04-28T08:31:49Z</time>
      </trkpt>
      <trkpt lat="45.61854" lon="4.52839">
        <ele>701.6</ele>
        <time>2019-04-28T08:31:51Z</time>
      </trkpt>
      <trkpt lat="45.6186" lon="4.5285">
        <ele>702.1</ele>
        <time>2019-04-28T08:31:56Z</time>
      </trkpt>
      <trkpt lat="45.61863" lon="4.52854">
        <ele>702.3</ele>
        <time>2019-04-28T08:31:58Z</time>
      </trkpt>
      <trkpt lat="45.61865" lon="4.52858">
        <ele>702.7</ele>
        <time>2019-04-28T08:32:00Z</time>
      </trkpt>
      <trkpt lat="45.6187" lon="4.52865">
        <ele>703.6</ele>
        <time>2019-04-28T08:32:04Z</time>
      </trkpt>
      <trkpt lat="45.61871" lon="4.52869">
        <ele>704</ele>
        <time>2019-04-28T08:32:06Z</time>
      </trkpt>
      <trkpt lat="45.61873" lon="4.52873">
        <ele>704.6</ele>
        <time>2019-04-28T08:32:08Z</time>
      </trkpt>
      <trkpt lat="45.61878" lon="4.52879">
        <ele>705.7</ele>
        <time>2019-04-28T08:32:12Z</time>
      </trkpt>
      <trkpt lat="45.6188" lon="4.52882">
        <ele>706.2</ele>
        <time>2019-04-28T08:32:14Z</time>
      </trkpt>
      <trkpt lat="45.61882" lon="4.52886">
        <ele>706.8</ele>
        <time>2019-04-28T08:32:16Z</time>
      </trkpt>
      <trkpt lat="45.61887" lon="4.52893">
        <ele>708</ele>
        <time>2019-04-28T08:32:21Z</time>
      </trkpt>
      <trkpt lat="45.6189" lon="4.52897">
        <ele>708.5</ele>
        <time>2019-04-28T08:32:24Z</time>
      </trkpt>
      <trkpt lat="45.61893" lon="4.529">
        <ele>709</ele>
        <time>2019-04-28T08:32:26Z</time>
      </trkpt>
      <trkpt lat="45.61898" lon="4.52908">
        <ele>710</ele>
        <time>2019-04-28T08:32:31Z</time>
      </trkpt>
      <trkpt lat="45.61901" lon="4.52912">
        <ele>710.6</ele>
        <time>2019-04-28T08:32:34Z</time>
      </trkpt>
      <trkpt lat="45.61903" lon="4.52916">
        <ele>711</ele>
        <time>2019-04-28T08:32:36Z</time>
      </trkpt>
      <trkpt lat="45.61907" lon="4.52927">
        <ele>712.4</ele>
        <time>2019-04-28T08:32:42Z</time>
      </trkpt>
      <trkpt lat="45.61908" lon="4.52928">
        <ele>712.6</ele>
        <time>2019-04-28T08:32:43Z</time>
      </trkpt>
      <trkpt lat="45.61911" lon="4.52935">
        <ele>713.4</ele>
        <time>2019-04-28T08:32:46Z</time>
      </trkpt>
      <trkpt lat="45.61911" lon="4.52941">
        <ele>714.1</ele>
        <time>2019-04-28T08:32:49Z</time>
      </trkpt>
      <trkpt lat="45.6191" lon="4.52945">
        <ele>714.5</ele>
        <time>2019-04-28T08:32:51Z</time>
      </trkpt>
      <trkpt lat="45.61906" lon="4.52956">
        <ele>715.1</ele>
        <time>2019-04-28T08:32:56Z</time>
      </trkpt>
      <trkpt lat="45.61904" lon="4.52958">
        <ele>715.2</ele>
        <time>2019-04-28T08:32:57Z</time>
      </trkpt>
      <trkpt lat="45.61888" lon="4.5297">
        <ele>714.8</ele>
        <time>2019-04-28T08:33:04Z</time>
      </trkpt>
      <trkpt lat="45.61883" lon="4.52973">
        <ele>714.7</ele>
        <time>2019-04-28T08:33:06Z</time>
      </trkpt>
      <trkpt lat="45.61865" lon="4.52979">
        <ele>714.9</ele>
        <time>2019-04-28T08:33:12Z</time>
      </trkpt>
      <trkpt lat="45.61853" lon="4.52986">
        <ele>715.3</ele>
        <time>2019-04-28T08:33:17Z</time>
      </trkpt>
      <trkpt lat="45.61849" lon="4.52991">
        <ele>715.5</ele>
        <time>2019-04-28T08:33:19Z</time>
      </trkpt>
      <trkpt lat="45.6184" lon="4.53003">
        <ele>716</ele>
        <time>2019-04-28T08:33:24Z</time>
      </trkpt>
      <trkpt lat="45.61834" lon="4.53011">
        <ele>716.6</ele>
        <time>2019-04-28T08:33:28Z</time>
      </trkpt>
      <trkpt lat="45.61827" lon="4.53015">
        <ele>717.3</ele>
        <time>2019-04-28T08:33:32Z</time>
      </trkpt>
      <trkpt lat="45.61822" lon="4.53015">
        <ele>717.8</ele>
        <time>2019-04-28T08:33:35Z</time>
      </trkpt>
      <trkpt lat="45.61818" lon="4.5301">
        <ele>718.5</ele>
        <time>2019-04-28T08:33:38Z</time>
      </trkpt>
      <trkpt lat="45.61814" lon="4.53005">
        <ele>719.3</ele>
        <time>2019-04-28T08:33:41Z</time>
      </trkpt>
      <trkpt lat="45.61813" lon="4.53003">
        <ele>719.5</ele>
        <time>2019-04-28T08:33:42Z</time>
      </trkpt>
      <trkpt lat="45.6181" lon="4.52997">
        <ele>720.3</ele>
        <time>2019-04-28T08:33:45Z</time>
      </trkpt>
      <trkpt lat="45.61806" lon="4.52992">
        <ele>721.1</ele>
        <time>2019-04-28T08:33:48Z</time>
      </trkpt>
      <trkpt lat="45.61803" lon="4.52987">
        <ele>721.9</ele>
        <time>2019-04-28T08:33:51Z</time>
      </trkpt>
      <trkpt lat="45.61801" lon="4.52986">
        <ele>722.1</ele>
        <time>2019-04-28T08:33:52Z</time>
      </trkpt>
      <trkpt lat="45.61795" lon="4.52982">
        <ele>723</ele>
        <time>2019-04-28T08:33:56Z</time>
      </trkpt>
      <trkpt lat="45.6179" lon="4.5298">
        <ele>723.6</ele>
        <time>2019-04-28T08:33:59Z</time>
      </trkpt>
      <trkpt lat="45.61788" lon="4.52981">
        <ele>723.8</ele>
        <time>2019-04-28T08:34:00Z</time>
      </trkpt>
      <trkpt lat="45.61777" lon="4.52984">
        <ele>726.1</ele>
        <time>2019-04-28T08:34:07Z</time>
      </trkpt>
      <trkpt lat="45.61773" lon="4.52987">
        <ele>727.4</ele>
        <time>2019-04-28T08:34:10Z</time>
      </trkpt>
      <trkpt lat="45.61767" lon="4.52992">
        <ele>728.8</ele>
        <time>2019-04-28T08:34:14Z</time>
      </trkpt>
      <trkpt lat="45.61761" lon="4.53">
        <ele>730.6</ele>
        <time>2019-04-28T08:34:19Z</time>
      </trkpt>
      <trkpt lat="45.61759" lon="4.53002">
        <ele>731</ele>
        <time>2019-04-28T08:34:20Z</time>
      </trkpt>
      <trkpt lat="45.61747" lon="4.53019">
        <ele>733.5</ele>
        <time>2019-04-28T08:34:28Z</time>
      </trkpt>
      <trkpt lat="45.61741" lon="4.53025">
        <ele>734.4</ele>
        <time>2019-04-28T08:34:32Z</time>
      </trkpt>
      <trkpt lat="45.61735" lon="4.53028">
        <ele>735.1</ele>
        <time>2019-04-28T08:34:35Z</time>
      </trkpt>
      <trkpt lat="45.61723" lon="4.53037">
        <ele>736.5</ele>
        <time>2019-04-28T08:34:41Z</time>
      </trkpt>
      <trkpt lat="45.61714" lon="4.53044">
        <ele>737.9</ele>
        <time>2019-04-28T08:34:45Z</time>
      </trkpt>
      <trkpt lat="45.61708" lon="4.53048">
        <ele>738.7</ele>
        <time>2019-04-28T08:34:48Z</time>
      </trkpt>
      <trkpt lat="45.617" lon="4.5305">
        <ele>739.7</ele>
        <time>2019-04-28T08:34:51Z</time>
      </trkpt>
      <trkpt lat="45.61689" lon="4.53055">
        <ele>740.7</ele>
        <time>2019-04-28T08:34:55Z</time>
      </trkpt>
      <trkpt lat="45.61684" lon="4.53056">
        <ele>741.1</ele>
        <time>2019-04-28T08:34:57Z</time>
      </trkpt>
      <trkpt lat="45.61669" lon="4.53059">
        <ele>742.2</ele>
        <time>2019-04-28T08:35:03Z</time>
      </trkpt>
      <trkpt lat="45.61659" lon="4.53063">
        <ele>742.8</ele>
        <time>2019-04-28T08:35:07Z</time>
      </trkpt>
      <trkpt lat="45.61651" lon="4.53066">
        <ele>743.3</ele>
        <time>2019-04-28T08:35:10Z</time>
      </trkpt>
      <trkpt lat="45.61649" lon="4.53067">
        <ele>743.5</ele>
        <time>2019-04-28T08:35:11Z</time>
      </trkpt>
      <trkpt lat="45.61644" lon="4.5307">
        <ele>744.1</ele>
        <time>2019-04-28T08:35:54Z</time>
      </trkpt>
      <trkpt lat="45.61629" lon="4.53075">
        <ele>745.3</ele>
        <time>2019-04-28T08:35:59Z</time>
      </trkpt>
      <trkpt lat="45.61627" lon="4.53076">
        <ele>745.6</ele>
        <time>2019-04-28T08:36:00Z</time>
      </trkpt>
      <trkpt lat="45.61618" lon="4.53082">
        <ele>746</ele>
        <time>2019-04-28T08:36:03Z</time>
      </trkpt>
      <trkpt lat="45.61615" lon="4.53085">
        <ele>745.9</ele>
        <time>2019-04-28T08:36:04Z</time>
      </trkpt>
      <trkpt lat="45.61612" lon="4.5309">
        <ele>745.9</ele>
        <time>2019-04-28T08:36:05Z</time>
      </trkpt>
      <trkpt lat="45.61609" lon="4.53095">
        <ele>745.9</ele>
        <time>2019-04-28T08:36:06Z</time>
      </trkpt>
      <trkpt lat="45.61604" lon="4.53106">
        <ele>745.7</ele>
        <time>2019-04-28T08:36:08Z</time>
      </trkpt>
      <trkpt lat="45.616" lon="4.53118">
        <ele>744.9</ele>
        <time>2019-04-28T08:36:10Z</time>
      </trkpt>
      <trkpt lat="45.61598" lon="4.53126">
        <ele>744.6</ele>
        <time>2019-04-28T08:36:11Z</time>
      </trkpt>
      <trkpt lat="45.61596" lon="4.53134">
        <ele>744.5</ele>
        <time>2019-04-28T08:36:12Z</time>
      </trkpt>
      <trkpt lat="45.61593" lon="4.5315">
        <ele>743.9</ele>
        <time>2019-04-28T08:36:14Z</time>
      </trkpt>
      <trkpt lat="45.61581" lon="4.53172">
        <ele>742.2</ele>
        <time>2019-04-28T08:36:17Z</time>
      </trkpt>
      <trkpt lat="45.61577" lon="4.53177">
        <ele>741.5</ele>
        <time>2019-04-28T08:36:18Z</time>
      </trkpt>
      <trkpt lat="45.61573" lon="4.53185">
        <ele>741</ele>
        <time>2019-04-28T08:36:20Z</time>
      </trkpt>
      <trkpt lat="45.61571" lon="4.53189">
        <ele>740.8</ele>
        <time>2019-04-28T08:36:21Z</time>
      </trkpt>
      <trkpt lat="45.61572" lon="4.53198">
        <ele>740.5</ele>
        <time>2019-04-28T08:36:23Z</time>
      </trkpt>
      <trkpt lat="45.61574" lon="4.53202">
        <ele>740.4</ele>
        <time>2019-04-28T08:36:24Z</time>
      </trkpt>
      <trkpt lat="45.61576" lon="4.53206">
        <ele>740.3</ele>
        <time>2019-04-28T08:36:25Z</time>
      </trkpt>
      <trkpt lat="45.61583" lon="4.53221">
        <ele>740</ele>
        <time>2019-04-28T08:36:29Z</time>
      </trkpt>
      <trkpt lat="45.61599" lon="4.53254">
        <ele>740</ele>
        <time>2019-04-28T08:36:37Z</time>
      </trkpt>
      <trkpt lat="45.61608" lon="4.53269">
        <ele>740.3</ele>
        <time>2019-04-28T08:36:42Z</time>
      </trkpt>
      <trkpt lat="45.61612" lon="4.53276">
        <ele>740.5</ele>
        <time>2019-04-28T08:36:45Z</time>
      </trkpt>
      <trkpt lat="45.61614" lon="4.53281">
        <ele>740.6</ele>
        <time>2019-04-28T08:36:47Z</time>
      </trkpt>
      <trkpt lat="45.61619" lon="4.53289">
        <ele>740.9</ele>
        <time>2019-04-28T08:36:51Z</time>
      </trkpt>
      <trkpt lat="45.6162" lon="4.53292">
        <ele>741.1</ele>
        <time>2019-04-28T08:36:53Z</time>
      </trkpt>
      <trkpt lat="45.61623" lon="4.53298">
        <ele>741.4</ele>
        <time>2019-04-28T08:36:56Z</time>
      </trkpt>
      <trkpt lat="45.61627" lon="4.53307">
        <ele>741.9</ele>
        <time>2019-04-28T08:37:00Z</time>
      </trkpt>
      <trkpt lat="45.61632" lon="4.53315">
        <ele>742.4</ele>
        <time>2019-04-28T08:37:04Z</time>
      </trkpt>
      <trkpt lat="45.61636" lon="4.5332">
        <ele>742.8</ele>
        <time>2019-04-28T08:37:07Z</time>
      </trkpt>
      <trkpt lat="45.61641" lon="4.53327">
        <ele>743.3</ele>
        <time>2019-04-28T08:37:11Z</time>
      </trkpt>
      <trkpt lat="45.61647" lon="4.53334">
        <ele>743.8</ele>
        <time>2019-04-28T08:37:15Z</time>
      </trkpt>
      <trkpt lat="45.61652" lon="4.53338">
        <ele>744.1</ele>
        <time>2019-04-28T08:37:18Z</time>
      </trkpt>
      <trkpt lat="45.61661" lon="4.53349">
        <ele>744.7</ele>
        <time>2019-04-28T08:37:24Z</time>
      </trkpt>
      <trkpt lat="45.61663" lon="4.5335">
        <ele>744.8</ele>
        <time>2019-04-28T08:37:25Z</time>
      </trkpt>
      <trkpt lat="45.61672" lon="4.53364">
        <ele>745.6</ele>
        <time>2019-04-28T08:37:33Z</time>
      </trkpt>
      <trkpt lat="45.61673" lon="4.53366">
        <ele>745.7</ele>
        <time>2019-04-28T08:37:34Z</time>
      </trkpt>
      <trkpt lat="45.61681" lon="4.53377">
        <ele>746.4</ele>
        <time>2019-04-28T08:37:41Z</time>
      </trkpt>
      <trkpt lat="45.61683" lon="4.53383">
        <ele>746.8</ele>
        <time>2019-04-28T08:37:44Z</time>
      </trkpt>
      <trkpt lat="45.61686" lon="4.53391">
        <ele>747.3</ele>
        <time>2019-04-28T08:37:48Z</time>
      </trkpt>
      <trkpt lat="45.61693" lon="4.53406">
        <ele>748.3</ele>
        <time>2019-04-28T08:37:57Z</time>
      </trkpt>
      <trkpt lat="45.61697" lon="4.53412">
        <ele>748.7</ele>
        <time>2019-04-28T08:38:01Z</time>
      </trkpt>
      <trkpt lat="45.61699" lon="4.53416">
        <ele>749</ele>
        <time>2019-04-28T08:38:03Z</time>
      </trkpt>
      <trkpt lat="45.61706" lon="4.53429">
        <ele>749.8</ele>
        <time>2019-04-28T08:38:10Z</time>
      </trkpt>
      <trkpt lat="45.61707" lon="4.53431">
        <ele>749.9</ele>
        <time>2019-04-28T08:38:11Z</time>
      </trkpt>
      <trkpt lat="45.61712" lon="4.53439">
        <ele>750.5</ele>
        <time>2019-04-28T08:38:16Z</time>
      </trkpt>
      <trkpt lat="45.61718" lon="4.5345">
        <ele>751.2</ele>
        <time>2019-04-28T08:38:22Z</time>
      </trkpt>
      <trkpt lat="45.61722" lon="4.5346">
        <ele>752</ele>
        <time>2019-04-28T08:38:28Z</time>
      </trkpt>
      <trkpt lat="45.61723" lon="4.53461">
        <ele>752.1</ele>
        <time>2019-04-28T08:38:29Z</time>
      </trkpt>
      <trkpt lat="45.61725" lon="4.53467">
        <ele>752.5</ele>
        <time>2019-04-28T08:38:32Z</time>
      </trkpt>
      <trkpt lat="45.61728" lon="4.53473">
        <ele>753.1</ele>
        <time>2019-04-28T08:38:36Z</time>
      </trkpt>
      <trkpt lat="45.61728" lon="4.53475">
        <ele>753.2</ele>
        <time>2019-04-28T08:38:37Z</time>
      </trkpt>
      <trkpt lat="45.6173" lon="4.53481">
        <ele>753.8</ele>
        <time>2019-04-28T08:38:40Z</time>
      </trkpt>
      <trkpt lat="45.61734" lon="4.53491">
        <ele>754.9</ele>
        <time>2019-04-28T08:38:45Z</time>
      </trkpt>
      <trkpt lat="45.61739" lon="4.53504">
        <ele>756</ele>
        <time>2019-04-28T08:38:52Z</time>
      </trkpt>
      <trkpt lat="45.61739" lon="4.53506">
        <ele>756.1</ele>
        <time>2019-04-28T08:38:53Z</time>
      </trkpt>
      <trkpt lat="45.61743" lon="4.53517">
        <ele>756.9</ele>
        <time>2019-04-28T08:38:59Z</time>
      </trkpt>
      <trkpt lat="45.61747" lon="4.5353">
        <ele>757.6</ele>
        <time>2019-04-28T08:39:05Z</time>
      </trkpt>
      <trkpt lat="45.61751" lon="4.53545">
        <ele>758.6</ele>
        <time>2019-04-28T08:39:12Z</time>
      </trkpt>
      <trkpt lat="45.61754" lon="4.53556">
        <ele>759.3</ele>
        <time>2019-04-28T08:39:17Z</time>
      </trkpt>
      <trkpt lat="45.61756" lon="4.53568">
        <ele>759.9</ele>
        <time>2019-04-28T08:39:22Z</time>
      </trkpt>
      <trkpt lat="45.61759" lon="4.53582">
        <ele>760.7</ele>
        <time>2019-04-28T08:39:28Z</time>
      </trkpt>
      <trkpt lat="45.61759" lon="4.53588">
        <ele>761</ele>
        <time>2019-04-28T08:39:31Z</time>
      </trkpt>
      <trkpt lat="45.6176" lon="4.536">
        <ele>761.7</ele>
        <time>2019-04-28T08:39:37Z</time>
      </trkpt>
      <trkpt lat="45.6176" lon="4.53604">
        <ele>761.9</ele>
        <time>2019-04-28T08:39:39Z</time>
      </trkpt>
      <trkpt lat="45.6176" lon="4.53608">
        <ele>762.1</ele>
        <time>2019-04-28T08:39:41Z</time>
      </trkpt>
      <trkpt lat="45.6176" lon="4.5362">
        <ele>762.7</ele>
        <time>2019-04-28T08:39:46Z</time>
      </trkpt>
      <trkpt lat="45.6176" lon="4.53622">
        <ele>762.8</ele>
        <time>2019-04-28T08:39:47Z</time>
      </trkpt>
      <trkpt lat="45.61761" lon="4.53636">
        <ele>763.4</ele>
        <time>2019-04-28T08:39:52Z</time>
      </trkpt>
      <trkpt lat="45.61762" lon="4.53642">
        <ele>763.6</ele>
        <time>2019-04-28T08:39:54Z</time>
      </trkpt>
      <trkpt lat="45.61762" lon="4.53645">
        <ele>763.7</ele>
        <time>2019-04-28T08:39:55Z</time>
      </trkpt>
      <trkpt lat="45.61761" lon="4.53656">
        <ele>764.1</ele>
        <time>2019-04-28T08:39:59Z</time>
      </trkpt>
      <trkpt lat="45.61761" lon="4.53661">
        <ele>764.3</ele>
        <time>2019-04-28T08:40:01Z</time>
      </trkpt>
      <trkpt lat="45.61761" lon="4.5368">
        <ele>764.9</ele>
        <time>2019-04-28T08:40:07Z</time>
      </trkpt>
      <trkpt lat="45.61761" lon="4.53683">
        <ele>765</ele>
        <time>2019-04-28T08:40:08Z</time>
      </trkpt>
      <trkpt lat="45.61761" lon="4.53695">
        <ele>765.2</ele>
        <time>2019-04-28T08:40:11Z</time>
      </trkpt>
      <trkpt lat="45.61761" lon="4.53707">
        <ele>765.4</ele>
        <time>2019-04-28T08:40:14Z</time>
      </trkpt>
      <trkpt lat="45.61761" lon="4.53711">
        <ele>765.4</ele>
        <time>2019-04-28T08:40:15Z</time>
      </trkpt>
      <trkpt lat="45.61762" lon="4.53716">
        <ele>765.5</ele>
        <time>2019-04-28T08:40:16Z</time>
      </trkpt>
      <trkpt lat="45.6176" lon="4.53729">
        <ele>765.5</ele>
        <time>2019-04-28T08:40:18Z</time>
      </trkpt>
      <trkpt lat="45.61759" lon="4.53735">
        <ele>765.5</ele>
        <time>2019-04-28T08:40:19Z</time>
      </trkpt>
      <trkpt lat="45.61757" lon="4.53741">
        <ele>765.6</ele>
        <time>2019-04-28T08:40:20Z</time>
      </trkpt>
      <trkpt lat="45.61754" lon="4.53755">
        <ele>765.6</ele>
        <time>2019-04-28T08:40:22Z</time>
      </trkpt>
      <trkpt lat="45.61752" lon="4.53766">
        <ele>765.6</ele>
        <time>2019-04-28T08:40:24Z</time>
      </trkpt>
      <trkpt lat="45.6175" lon="4.53773">
        <ele>765.7</ele>
        <time>2019-04-28T08:40:25Z</time>
      </trkpt>
      <trkpt lat="45.61744" lon="4.53803">
        <ele>765.8</ele>
        <time>2019-04-28T08:40:31Z</time>
      </trkpt>
      <trkpt lat="45.61738" lon="4.53824">
        <ele>765.8</ele>
        <time>2019-04-28T08:40:36Z</time>
      </trkpt>
      <trkpt lat="45.61734" lon="4.53833">
        <ele>766.9</ele>
        <time>2019-04-28T08:40:38Z</time>
      </trkpt>
      <trkpt lat="45.61728" lon="4.53847">
        <ele>768</ele>
        <time>2019-04-28T08:40:41Z</time>
      </trkpt>
      <trkpt lat="45.61726" lon="4.53851">
        <ele>767.7</ele>
        <time>2019-04-28T08:40:42Z</time>
      </trkpt>
      <trkpt lat="45.61725" lon="4.53855">
        <ele>767.4</ele>
        <time>2019-04-28T08:40:43Z</time>
      </trkpt>
      <trkpt lat="45.6172" lon="4.53869">
        <ele>768.7</ele>
        <time>2019-04-28T08:40:48Z</time>
      </trkpt>
      <trkpt lat="45.61673" lon="4.53975">
        <ele>783.1</ele>
        <time>2019-04-28T08:41:42Z</time>
      </trkpt>
      <trkpt lat="45.61671" lon="4.53978">
        <ele>782.9</ele>
        <time>2019-04-28T08:41:44Z</time>
      </trkpt>
      <trkpt lat="45.61663" lon="4.53987">
        <ele>785.6</ele>
        <time>2019-04-28T08:41:51Z</time>
      </trkpt>
      <trkpt lat="45.61662" lon="4.53987">
        <ele>786.5</ele>
        <time>2019-04-28T08:41:52Z</time>
      </trkpt>
      <trkpt lat="45.61655" lon="4.53994">
        <ele>787.3</ele>
        <time>2019-04-28T08:41:58Z</time>
      </trkpt>
      <trkpt lat="45.61645" lon="4.53998">
        <ele>788.9</ele>
        <time>2019-04-28T08:42:05Z</time>
      </trkpt>
      <trkpt lat="45.61635" lon="4.54007">
        <ele>791</ele>
        <time>2019-04-28T08:42:12Z</time>
      </trkpt>
      <trkpt lat="45.61627" lon="4.54019">
        <ele>791.1</ele>
        <time>2019-04-28T08:42:15Z</time>
      </trkpt>
      <trkpt lat="45.61622" lon="4.54027">
        <ele>791.5</ele>
        <time>2019-04-28T08:42:17Z</time>
      </trkpt>
      <trkpt lat="45.61619" lon="4.54032">
        <ele>791.7</ele>
        <time>2019-04-28T08:42:18Z</time>
      </trkpt>
      <trkpt lat="45.61607" lon="4.54059">
        <ele>792.4</ele>
        <time>2019-04-28T08:42:24Z</time>
      </trkpt>
      <trkpt lat="45.61604" lon="4.54075">
        <ele>791.4</ele>
        <time>2019-04-28T08:42:27Z</time>
      </trkpt>
      <trkpt lat="45.61605" lon="4.54087">
        <ele>789.6</ele>
        <time>2019-04-28T08:42:29Z</time>
      </trkpt>
      <trkpt lat="45.61605" lon="4.54095">
        <ele>789.9</ele>
        <time>2019-04-28T08:42:30Z</time>
      </trkpt>
      <trkpt lat="45.61604" lon="4.54103">
        <ele>789.4</ele>
        <time>2019-04-28T08:42:31Z</time>
      </trkpt>
      <trkpt lat="45.61604" lon="4.54125">
        <ele>788.2</ele>
        <time>2019-04-28T08:42:34Z</time>
      </trkpt>
      <trkpt lat="45.61608" lon="4.54168">
        <ele>785.1</ele>
        <time>2019-04-28T08:42:40Z</time>
      </trkpt>
      <trkpt lat="45.61611" lon="4.54175">
        <ele>785</ele>
        <time>2019-04-28T08:42:41Z</time>
      </trkpt>
      <trkpt lat="45.61619" lon="4.54201">
        <ele>782.5</ele>
        <time>2019-04-28T08:42:45Z</time>
      </trkpt>
      <trkpt lat="45.61622" lon="4.54214">
        <ele>781.8</ele>
        <time>2019-04-28T08:42:47Z</time>
      </trkpt>
      <trkpt lat="45.61628" lon="4.54229">
        <ele>780.7</ele>
        <time>2019-04-28T08:42:49Z</time>
      </trkpt>
      <trkpt lat="45.61638" lon="4.54256">
        <ele>779.4</ele>
        <time>2019-04-28T08:42:53Z</time>
      </trkpt>
      <trkpt lat="45.61646" lon="4.54281">
        <ele>778.3</ele>
        <time>2019-04-28T08:42:57Z</time>
      </trkpt>
      <trkpt lat="45.61651" lon="4.54303">
        <ele>778.2</ele>
        <time>2019-04-28T08:43:00Z</time>
      </trkpt>
      <trkpt lat="45.61664" lon="4.54348">
        <ele>776.6</ele>
        <time>2019-04-28T08:43:07Z</time>
      </trkpt>
      <trkpt lat="45.61675" lon="4.54385">
        <ele>775.1</ele>
        <time>2019-04-28T08:43:13Z</time>
      </trkpt>
      <trkpt lat="45.6168" lon="4.54402">
        <ele>774.7</ele>
        <time>2019-04-28T08:43:16Z</time>
      </trkpt>
      <trkpt lat="45.61681" lon="4.54408">
        <ele>774.5</ele>
        <time>2019-04-28T08:43:17Z</time>
      </trkpt>
      <trkpt lat="45.61689" lon="4.54453">
        <ele>773.3</ele>
        <time>2019-04-28T08:43:24Z</time>
      </trkpt>
      <trkpt lat="45.6169" lon="4.54505">
        <ele>772.5</ele>
        <time>2019-04-28T08:43:32Z</time>
      </trkpt>
      <trkpt lat="45.6169" lon="4.54513">
        <ele>772.3</ele>
        <time>2019-04-28T08:43:33Z</time>
      </trkpt>
      <trkpt lat="45.61688" lon="4.54529">
        <ele>771.8</ele>
        <time>2019-04-28T08:43:35Z</time>
      </trkpt>
      <trkpt lat="45.61688" lon="4.54534">
        <ele>771.4</ele>
        <time>2019-04-28T08:43:36Z</time>
      </trkpt>
      <trkpt lat="45.61688" lon="4.54538">
        <ele>771.1</ele>
        <time>2019-04-28T08:43:37Z</time>
      </trkpt>
      <trkpt lat="45.61688" lon="4.54545">
        <ele>770.7</ele>
        <time>2019-04-28T08:43:39Z</time>
      </trkpt>
      <trkpt lat="45.61688" lon="4.5455">
        <ele>770.3</ele>
        <time>2019-04-28T08:43:40Z</time>
      </trkpt>
      <trkpt lat="45.61689" lon="4.54566">
        <ele>769.1</ele>
        <time>2019-04-28T08:43:42Z</time>
      </trkpt>
      <trkpt lat="45.61689" lon="4.54585">
        <ele>767.9</ele>
        <time>2019-04-28T08:43:44Z</time>
      </trkpt>
      <trkpt lat="45.61687" lon="4.54596">
        <ele>767.2</ele>
        <time>2019-04-28T08:43:45Z</time>
      </trkpt>
      <trkpt lat="45.61685" lon="4.54606">
        <ele>766.7</ele>
        <time>2019-04-28T08:43:46Z</time>
      </trkpt>
      <trkpt lat="45.61681" lon="4.54616">
        <ele>766.5</ele>
        <time>2019-04-28T08:43:47Z</time>
      </trkpt>
      <trkpt lat="45.61669" lon="4.54632">
        <ele>765.9</ele>
        <time>2019-04-28T08:43:49Z</time>
      </trkpt>
      <trkpt lat="45.61657" lon="4.54651">
        <ele>765.5</ele>
        <time>2019-04-28T08:43:51Z</time>
      </trkpt>
      <trkpt lat="45.61641" lon="4.54682">
        <ele>763.7</ele>
        <time>2019-04-28T08:43:54Z</time>
      </trkpt>
      <trkpt lat="45.61637" lon="4.54693">
        <ele>762.7</ele>
        <time>2019-04-28T08:43:55Z</time>
      </trkpt>
      <trkpt lat="45.6162" lon="4.54736">
        <ele>758.5</ele>
        <time>2019-04-28T08:43:59Z</time>
      </trkpt>
      <trkpt lat="45.61611" lon="4.54761">
        <ele>755.2</ele>
        <time>2019-04-28T08:44:01Z</time>
      </trkpt>
      <trkpt lat="45.61603" lon="4.54787">
        <ele>751.9</ele>
        <time>2019-04-28T08:44:03Z</time>
      </trkpt>
      <trkpt lat="45.616" lon="4.54799">
        <ele>750.4</ele>
        <time>2019-04-28T08:44:04Z</time>
      </trkpt>
      <trkpt lat="45.61592" lon="4.54832">
        <ele>748.8</ele>
        <time>2019-04-28T08:44:07Z</time>
      </trkpt>
      <trkpt lat="45.61584" lon="4.54852">
        <ele>747.4</ele>
        <time>2019-04-28T08:44:09Z</time>
      </trkpt>
      <trkpt lat="45.61577" lon="4.5487">
        <ele>746.2</ele>
        <time>2019-04-28T08:44:11Z</time>
      </trkpt>
      <trkpt lat="45.61572" lon="4.54879">
        <ele>746.2</ele>
        <time>2019-04-28T08:44:12Z</time>
      </trkpt>
      <trkpt lat="45.61568" lon="4.54886">
        <ele>746.4</ele>
        <time>2019-04-28T08:44:13Z</time>
      </trkpt>
      <trkpt lat="45.61557" lon="4.549">
        <ele>747.4</ele>
        <time>2019-04-28T08:44:15Z</time>
      </trkpt>
      <trkpt lat="45.61542" lon="4.54919">
        <ele>746.9</ele>
        <time>2019-04-28T08:44:18Z</time>
      </trkpt>
      <trkpt lat="45.61536" lon="4.54926">
        <ele>746.7</ele>
        <time>2019-04-28T08:44:19Z</time>
      </trkpt>
      <trkpt lat="45.6153" lon="4.54931">
        <ele>746.2</ele>
        <time>2019-04-28T08:44:20Z</time>
      </trkpt>
      <trkpt lat="45.61516" lon="4.54943">
        <ele>745</ele>
        <time>2019-04-28T08:44:22Z</time>
      </trkpt>
      <trkpt lat="45.6151" lon="4.54949">
        <ele>744.3</ele>
        <time>2019-04-28T08:44:23Z</time>
      </trkpt>
      <trkpt lat="45.61498" lon="4.54963">
        <ele>743.3</ele>
        <time>2019-04-28T08:44:25Z</time>
      </trkpt>
      <trkpt lat="45.61486" lon="4.54976">
        <ele>741.1</ele>
        <time>2019-04-28T08:44:27Z</time>
      </trkpt>
      <trkpt lat="45.61481" lon="4.54981">
        <ele>740.5</ele>
        <time>2019-04-28T08:44:28Z</time>
      </trkpt>
      <trkpt lat="45.61476" lon="4.54986">
        <ele>740.2</ele>
        <time>2019-04-28T08:44:29Z</time>
      </trkpt>
      <trkpt lat="45.61472" lon="4.54989">
        <ele>739.5</ele>
        <time>2019-04-28T08:44:30Z</time>
      </trkpt>
      <trkpt lat="45.61469" lon="4.54991">
        <ele>738.9</ele>
        <time>2019-04-28T08:44:31Z</time>
      </trkpt>
      <trkpt lat="45.61467" lon="4.54993">
        <ele>738.9</ele>
        <time>2019-04-28T08:44:32Z</time>
      </trkpt>
      <trkpt lat="45.61462" lon="4.54996">
        <ele>738.9</ele>
        <time>2019-04-28T08:44:34Z</time>
      </trkpt>
      <trkpt lat="45.61458" lon="4.54999">
        <ele>738.5</ele>
        <time>2019-04-28T08:44:35Z</time>
      </trkpt>
      <trkpt lat="45.61453" lon="4.55004">
        <ele>737.6</ele>
        <time>2019-04-28T08:44:36Z</time>
      </trkpt>
      <trkpt lat="45.61442" lon="4.55014">
        <ele>736.7</ele>
        <time>2019-04-28T08:44:38Z</time>
      </trkpt>
      <trkpt lat="45.61437" lon="4.55019">
        <ele>736.1</ele>
        <time>2019-04-28T08:44:39Z</time>
      </trkpt>
      <trkpt lat="45.61433" lon="4.55023">
        <ele>736.3</ele>
        <time>2019-04-28T08:44:40Z</time>
      </trkpt>
      <trkpt lat="45.61429" lon="4.55028">
        <ele>736.6</ele>
        <time>2019-04-28T08:44:42Z</time>
      </trkpt>
      <trkpt lat="45.61432" lon="4.55026">
        <ele>736.8</ele>
        <time>2019-04-28T08:44:46Z</time>
      </trkpt>
      <trkpt lat="45.61433" lon="4.55025">
        <ele>737</ele>
        <time>2019-04-28T08:44:47Z</time>
      </trkpt>
      <trkpt lat="45.61435" lon="4.55023">
        <ele>737.1</ele>
        <time>2019-04-28T08:44:48Z</time>
      </trkpt>
      <trkpt lat="45.61441" lon="4.55015">
        <ele>737.4</ele>
        <time>2019-04-28T08:44:51Z</time>
      </trkpt>
      <trkpt lat="45.61443" lon="4.55013">
        <ele>737.5</ele>
        <time>2019-04-28T08:44:52Z</time>
      </trkpt>
      <trkpt lat="45.6145" lon="4.55005">
        <ele>737.9</ele>
        <time>2019-04-28T08:44:55Z</time>
      </trkpt>
      <trkpt lat="45.61458" lon="4.54997">
        <ele>738.8</ele>
        <time>2019-04-28T08:44:58Z</time>
      </trkpt>
      <trkpt lat="45.61468" lon="4.54991">
        <ele>738.9</ele>
        <time>2019-04-28T08:45:02Z</time>
      </trkpt>
      <trkpt lat="45.61473" lon="4.54989">
        <ele>738.9</ele>
        <time>2019-04-28T08:45:04Z</time>
      </trkpt>
      <trkpt lat="45.61481" lon="4.5499">
        <ele>738.4</ele>
        <time>2019-04-28T08:45:08Z</time>
      </trkpt>
      <trkpt lat="45.61484" lon="4.54991">
        <ele>738.2</ele>
        <time>2019-04-28T08:45:09Z</time>
      </trkpt>
      <trkpt lat="45.61506" lon="4.5499">
        <ele>737.1</ele>
        <time>2019-04-28T08:45:17Z</time>
      </trkpt>
      <trkpt lat="45.61522" lon="4.54988">
        <ele>736.2</ele>
        <time>2019-04-28T08:45:23Z</time>
      </trkpt>
      <trkpt lat="45.61529" lon="4.54987">
        <ele>736</ele>
        <time>2019-04-28T08:45:26Z</time>
      </trkpt>
      <trkpt lat="45.61547" lon="4.54983">
        <ele>734.4</ele>
        <time>2019-04-28T08:45:32Z</time>
      </trkpt>
      <trkpt lat="45.61556" lon="4.5498">
        <ele>734.2</ele>
        <time>2019-04-28T08:45:35Z</time>
      </trkpt>
      <trkpt lat="45.61569" lon="4.54975">
        <ele>733.4</ele>
        <time>2019-04-28T08:45:40Z</time>
      </trkpt>
      <trkpt lat="45.61574" lon="4.54972">
        <ele>733.3</ele>
        <time>2019-04-28T08:45:42Z</time>
      </trkpt>
      <trkpt lat="45.61586" lon="4.54961">
        <ele>733.2</ele>
        <time>2019-04-28T08:45:47Z</time>
      </trkpt>
      <trkpt lat="45.61603" lon="4.54945">
        <ele>732.2</ele>
        <time>2019-04-28T08:45:52Z</time>
      </trkpt>
      <trkpt lat="45.61611" lon="4.54938">
        <ele>731.3</ele>
        <time>2019-04-28T08:45:54Z</time>
      </trkpt>
      <trkpt lat="45.61632" lon="4.54915">
        <ele>728.7</ele>
        <time>2019-04-28T08:46:00Z</time>
      </trkpt>
      <trkpt lat="45.61649" lon="4.54898">
        <ele>725.3</ele>
        <time>2019-04-28T08:46:04Z</time>
      </trkpt>
      <trkpt lat="45.61655" lon="4.5489">
        <ele>724.4</ele>
        <time>2019-04-28T08:46:05Z</time>
      </trkpt>
      <trkpt lat="45.61668" lon="4.54872">
        <ele>723.7</ele>
        <time>2019-04-28T08:46:07Z</time>
      </trkpt>
      <trkpt lat="45.61678" lon="4.54849">
        <ele>723.8</ele>
        <time>2019-04-28T08:46:09Z</time>
      </trkpt>
      <trkpt lat="45.61688" lon="4.54822">
        <ele>725.9</ele>
        <time>2019-04-28T08:46:11Z</time>
      </trkpt>
      <trkpt lat="45.617" lon="4.54799">
        <ele>726.7</ele>
        <time>2019-04-28T08:46:13Z</time>
      </trkpt>
      <trkpt lat="45.61715" lon="4.54786">
        <ele>725.7</ele>
        <time>2019-04-28T08:46:15Z</time>
      </trkpt>
      <trkpt lat="45.61725" lon="4.54784">
        <ele>725.4</ele>
        <time>2019-04-28T08:46:16Z</time>
      </trkpt>
      <trkpt lat="45.61734" lon="4.54785">
        <ele>724.2</ele>
        <time>2019-04-28T08:46:17Z</time>
      </trkpt>
      <trkpt lat="45.61743" lon="4.54786">
        <ele>723.5</ele>
        <time>2019-04-28T08:46:18Z</time>
      </trkpt>
      <trkpt lat="45.61752" lon="4.54787">
        <ele>722</ele>
        <time>2019-04-28T08:46:19Z</time>
      </trkpt>
      <trkpt lat="45.61761" lon="4.54789">
        <ele>721.1</ele>
        <time>2019-04-28T08:46:20Z</time>
      </trkpt>
      <trkpt lat="45.61771" lon="4.5479">
        <ele>720.8</ele>
        <time>2019-04-28T08:46:21Z</time>
      </trkpt>
      <trkpt lat="45.6179" lon="4.54796">
        <ele>719.5</ele>
        <time>2019-04-28T08:46:23Z</time>
      </trkpt>
      <trkpt lat="45.61799" lon="4.54801">
        <ele>718.5</ele>
        <time>2019-04-28T08:46:24Z</time>
      </trkpt>
      <trkpt lat="45.61809" lon="4.54805">
        <ele>718.2</ele>
        <time>2019-04-28T08:46:25Z</time>
      </trkpt>
      <trkpt lat="45.61827" lon="4.54812">
        <ele>717.7</ele>
        <time>2019-04-28T08:46:27Z</time>
      </trkpt>
      <trkpt lat="45.61843" lon="4.54815">
        <ele>717.6</ele>
        <time>2019-04-28T08:46:29Z</time>
      </trkpt>
      <trkpt lat="45.61857" lon="4.54817">
        <ele>717.3</ele>
        <time>2019-04-28T08:46:31Z</time>
      </trkpt>
      <trkpt lat="45.61877" lon="4.54816">
        <ele>715.8</ele>
        <time>2019-04-28T08:46:34Z</time>
      </trkpt>
      <trkpt lat="45.61885" lon="4.54816">
        <ele>715.3</ele>
        <time>2019-04-28T08:46:35Z</time>
      </trkpt>
      <trkpt lat="45.619" lon="4.54818">
        <ele>714</ele>
        <time>2019-04-28T08:46:37Z</time>
      </trkpt>
      <trkpt lat="45.61916" lon="4.54822">
        <ele>712</ele>
        <time>2019-04-28T08:46:39Z</time>
      </trkpt>
      <trkpt lat="45.61934" lon="4.54826">
        <ele>709.7</ele>
        <time>2019-04-28T08:46:41Z</time>
      </trkpt>
      <trkpt lat="45.61952" lon="4.5483">
        <ele>707.5</ele>
        <time>2019-04-28T08:46:43Z</time>
      </trkpt>
      <trkpt lat="45.6197" lon="4.54832">
        <ele>705.9</ele>
        <time>2019-04-28T08:46:45Z</time>
      </trkpt>
      <trkpt lat="45.61988" lon="4.54835">
        <ele>703.9</ele>
        <time>2019-04-28T08:46:47Z</time>
      </trkpt>
      <trkpt lat="45.62004" lon="4.54838">
        <ele>703.2</ele>
        <time>2019-04-28T08:46:49Z</time>
      </trkpt>
      <trkpt lat="45.6202" lon="4.54842">
        <ele>701.8</ele>
        <time>2019-04-28T08:46:51Z</time>
      </trkpt>
      <trkpt lat="45.62027" lon="4.54844">
        <ele>701.2</ele>
        <time>2019-04-28T08:46:52Z</time>
      </trkpt>
      <trkpt lat="45.62042" lon="4.54847">
        <ele>700.1</ele>
        <time>2019-04-28T08:46:54Z</time>
      </trkpt>
      <trkpt lat="45.62064" lon="4.54849">
        <ele>699</ele>
        <time>2019-04-28T08:46:57Z</time>
      </trkpt>
      <trkpt lat="45.62071" lon="4.54848">
        <ele>698.6</ele>
        <time>2019-04-28T08:46:58Z</time>
      </trkpt>
      <trkpt lat="45.62077" lon="4.54844">
        <ele>698.4</ele>
        <time>2019-04-28T08:46:59Z</time>
      </trkpt>
      <trkpt lat="45.6209" lon="4.54826">
        <ele>697.4</ele>
        <time>2019-04-28T08:47:02Z</time>
      </trkpt>
      <trkpt lat="45.621" lon="4.54804">
        <ele>696</ele>
        <time>2019-04-28T08:47:05Z</time>
      </trkpt>
      <trkpt lat="45.62102" lon="4.54796">
        <ele>695.5</ele>
        <time>2019-04-28T08:47:06Z</time>
      </trkpt>
      <trkpt lat="45.62105" lon="4.54789">
        <ele>695</ele>
        <time>2019-04-28T08:47:07Z</time>
      </trkpt>
      <trkpt lat="45.62107" lon="4.54782">
        <ele>694.4</ele>
        <time>2019-04-28T08:47:08Z</time>
      </trkpt>
      <trkpt lat="45.62116" lon="4.54774">
        <ele>693.6</ele>
        <time>2019-04-28T08:47:10Z</time>
      </trkpt>
      <trkpt lat="45.62129" lon="4.54772">
        <ele>692.4</ele>
        <time>2019-04-28T08:47:12Z</time>
      </trkpt>
      <trkpt lat="45.62136" lon="4.54771">
        <ele>691.8</ele>
        <time>2019-04-28T08:47:13Z</time>
      </trkpt>
      <trkpt lat="45.62144" lon="4.54769">
        <ele>691.1</ele>
        <time>2019-04-28T08:47:14Z</time>
      </trkpt>
      <trkpt lat="45.62153" lon="4.54768">
        <ele>690.3</ele>
        <time>2019-04-28T08:47:15Z</time>
      </trkpt>
      <trkpt lat="45.62172" lon="4.54764">
        <ele>688.1</ele>
        <time>2019-04-28T08:47:17Z</time>
      </trkpt>
      <trkpt lat="45.62182" lon="4.54762">
        <ele>686.6</ele>
        <time>2019-04-28T08:47:18Z</time>
      </trkpt>
      <trkpt lat="45.62194" lon="4.5476">
        <ele>685.2</ele>
        <time>2019-04-28T08:47:19Z</time>
      </trkpt>
      <trkpt lat="45.62205" lon="4.54757">
        <ele>684.1</ele>
        <time>2019-04-28T08:47:20Z</time>
      </trkpt>
      <trkpt lat="45.62218" lon="4.54755">
        <ele>682.8</ele>
        <time>2019-04-28T08:47:21Z</time>
      </trkpt>
      <trkpt lat="45.6223" lon="4.54751">
        <ele>680.6</ele>
        <time>2019-04-28T08:47:22Z</time>
      </trkpt>
      <trkpt lat="45.62243" lon="4.54747">
        <ele>678.3</ele>
        <time>2019-04-28T08:47:23Z</time>
      </trkpt>
      <trkpt lat="45.62255" lon="4.54743">
        <ele>675.7</ele>
        <time>2019-04-28T08:47:24Z</time>
      </trkpt>
      <trkpt lat="45.62267" lon="4.54739">
        <ele>673.6</ele>
        <time>2019-04-28T08:47:25Z</time>
      </trkpt>
      <trkpt lat="45.62278" lon="4.54735">
        <ele>671.8</ele>
        <time>2019-04-28T08:47:26Z</time>
      </trkpt>
      <trkpt lat="45.62288" lon="4.54732">
        <ele>669.9</ele>
        <time>2019-04-28T08:47:27Z</time>
      </trkpt>
      <trkpt lat="45.62298" lon="4.54727">
        <ele>668.1</ele>
        <time>2019-04-28T08:47:28Z</time>
      </trkpt>
      <trkpt lat="45.62309" lon="4.54722">
        <ele>666.2</ele>
        <time>2019-04-28T08:47:29Z</time>
      </trkpt>
      <trkpt lat="45.6232" lon="4.54715">
        <ele>664.1</ele>
        <time>2019-04-28T08:47:30Z</time>
      </trkpt>
      <trkpt lat="45.62331" lon="4.54708">
        <ele>662.4</ele>
        <time>2019-04-28T08:47:31Z</time>
      </trkpt>
      <trkpt lat="45.62343" lon="4.547">
        <ele>660.6</ele>
        <time>2019-04-28T08:47:32Z</time>
      </trkpt>
      <trkpt lat="45.62355" lon="4.54693">
        <ele>659.8</ele>
        <time>2019-04-28T08:47:33Z</time>
      </trkpt>
      <trkpt lat="45.62366" lon="4.54687">
        <ele>659.2</ele>
        <time>2019-04-28T08:47:34Z</time>
      </trkpt>
      <trkpt lat="45.62377" lon="4.54683">
        <ele>658.7</ele>
        <time>2019-04-28T08:47:35Z</time>
      </trkpt>
      <trkpt lat="45.62387" lon="4.5468">
        <ele>658.5</ele>
        <time>2019-04-28T08:47:36Z</time>
      </trkpt>
      <trkpt lat="45.62396" lon="4.54678">
        <ele>658.2</ele>
        <time>2019-04-28T08:47:37Z</time>
      </trkpt>
      <trkpt lat="45.62405" lon="4.54675">
        <ele>658</ele>
        <time>2019-04-28T08:47:38Z</time>
      </trkpt>
      <trkpt lat="45.62412" lon="4.54671">
        <ele>657.7</ele>
        <time>2019-04-28T08:47:39Z</time>
      </trkpt>
      <trkpt lat="45.62418" lon="4.54668">
        <ele>657.4</ele>
        <time>2019-04-28T08:47:40Z</time>
      </trkpt>
      <trkpt lat="45.62422" lon="4.54668">
        <ele>657.3</ele>
        <time>2019-04-28T08:47:41Z</time>
      </trkpt>
      <trkpt lat="45.62426" lon="4.54671">
        <ele>657.2</ele>
        <time>2019-04-28T08:47:42Z</time>
      </trkpt>
      <trkpt lat="45.62428" lon="4.54676">
        <ele>657.2</ele>
        <time>2019-04-28T08:47:43Z</time>
      </trkpt>
      <trkpt lat="45.62429" lon="4.54683">
        <ele>657.1</ele>
        <time>2019-04-28T08:47:44Z</time>
      </trkpt>
      <trkpt lat="45.62429" lon="4.54692">
        <ele>656.9</ele>
        <time>2019-04-28T08:47:45Z</time>
      </trkpt>
      <trkpt lat="45.62428" lon="4.54702">
        <ele>656.6</ele>
        <time>2019-04-28T08:47:46Z</time>
      </trkpt>
      <trkpt lat="45.62429" lon="4.54725">
        <ele>655.5</ele>
        <time>2019-04-28T08:47:48Z</time>
      </trkpt>
      <trkpt lat="45.6243" lon="4.54736">
        <ele>654.8</ele>
        <time>2019-04-28T08:47:49Z</time>
      </trkpt>
      <trkpt lat="45.62431" lon="4.54747">
        <ele>654.1</ele>
        <time>2019-04-28T08:47:50Z</time>
      </trkpt>
      <trkpt lat="45.62431" lon="4.54758">
        <ele>653.4</ele>
        <time>2019-04-28T08:47:51Z</time>
      </trkpt>
      <trkpt lat="45.62431" lon="4.54784">
        <ele>651.6</ele>
        <time>2019-04-28T08:47:53Z</time>
      </trkpt>
      <trkpt lat="45.62431" lon="4.54798">
        <ele>650.3</ele>
        <time>2019-04-28T08:47:54Z</time>
      </trkpt>
      <trkpt lat="45.62431" lon="4.54813">
        <ele>648.8</ele>
        <time>2019-04-28T08:47:55Z</time>
      </trkpt>
      <trkpt lat="45.62431" lon="4.54829">
        <ele>647.2</ele>
        <time>2019-04-28T08:47:56Z</time>
      </trkpt>
      <trkpt lat="45.62428" lon="4.54862">
        <ele>644.9</ele>
        <time>2019-04-28T08:47:58Z</time>
      </trkpt>
      <trkpt lat="45.62426" lon="4.54879">
        <ele>644</ele>
        <time>2019-04-28T08:47:59Z</time>
      </trkpt>
      <trkpt lat="45.62424" lon="4.54896">
        <ele>642.8</ele>
        <time>2019-04-28T08:48:00Z</time>
      </trkpt>
      <trkpt lat="45.62422" lon="4.54915">
        <ele>641.6</ele>
        <time>2019-04-28T08:48:01Z</time>
      </trkpt>
      <trkpt lat="45.62421" lon="4.54934">
        <ele>640.2</ele>
        <time>2019-04-28T08:48:02Z</time>
      </trkpt>
      <trkpt lat="45.62421" lon="4.54953">
        <ele>638.8</ele>
        <time>2019-04-28T08:48:03Z</time>
      </trkpt>
      <trkpt lat="45.62421" lon="4.54971">
        <ele>637.3</ele>
        <time>2019-04-28T08:48:04Z</time>
      </trkpt>
      <trkpt lat="45.62419" lon="4.54989">
        <ele>636.2</ele>
        <time>2019-04-28T08:48:05Z</time>
      </trkpt>
      <trkpt lat="45.62417" lon="4.55007">
        <ele>635.3</ele>
        <time>2019-04-28T08:48:06Z</time>
      </trkpt>
      <trkpt lat="45.62416" lon="4.55024">
        <ele>634.2</ele>
        <time>2019-04-28T08:48:07Z</time>
      </trkpt>
      <trkpt lat="45.62418" lon="4.55039">
        <ele>633.4</ele>
        <time>2019-04-28T08:48:08Z</time>
      </trkpt>
      <trkpt lat="45.62422" lon="4.55053">
        <ele>631.5</ele>
        <time>2019-04-28T08:48:09Z</time>
      </trkpt>
      <trkpt lat="45.62427" lon="4.55067">
        <ele>630.2</ele>
        <time>2019-04-28T08:48:10Z</time>
      </trkpt>
      <trkpt lat="45.62432" lon="4.5508">
        <ele>628.4</ele>
        <time>2019-04-28T08:48:11Z</time>
      </trkpt>
      <trkpt lat="45.62438" lon="4.55092">
        <ele>627.2</ele>
        <time>2019-04-28T08:48:12Z</time>
      </trkpt>
      <trkpt lat="45.62442" lon="4.55104">
        <ele>626</ele>
        <time>2019-04-28T08:48:13Z</time>
      </trkpt>
      <trkpt lat="45.62446" lon="4.55129">
        <ele>624.7</ele>
        <time>2019-04-28T08:48:15Z</time>
      </trkpt>
      <trkpt lat="45.62446" lon="4.55142">
        <ele>623.8</ele>
        <time>2019-04-28T08:48:16Z</time>
      </trkpt>
      <trkpt lat="45.62444" lon="4.55156">
        <ele>623.7</ele>
        <time>2019-04-28T08:48:17Z</time>
      </trkpt>
      <trkpt lat="45.62439" lon="4.55183">
        <ele>623.5</ele>
        <time>2019-04-28T08:48:19Z</time>
      </trkpt>
      <trkpt lat="45.62441" lon="4.55211">
        <ele>623</ele>
        <time>2019-04-28T08:48:21Z</time>
      </trkpt>
      <trkpt lat="45.62445" lon="4.55223">
        <ele>622.9</ele>
        <time>2019-04-28T08:48:22Z</time>
      </trkpt>
      <trkpt lat="45.62451" lon="4.55232">
        <ele>622.6</ele>
        <time>2019-04-28T08:48:23Z</time>
      </trkpt>
      <trkpt lat="45.62459" lon="4.55238">
        <ele>622.3</ele>
        <time>2019-04-28T08:48:24Z</time>
      </trkpt>
      <trkpt lat="45.62467" lon="4.55243">
        <ele>622</ele>
        <time>2019-04-28T08:48:25Z</time>
      </trkpt>
      <trkpt lat="45.62476" lon="4.55249">
        <ele>621.5</ele>
        <time>2019-04-28T08:48:26Z</time>
      </trkpt>
      <trkpt lat="45.625" lon="4.55269">
        <ele>621.8</ele>
        <time>2019-04-28T08:48:29Z</time>
      </trkpt>
      <trkpt lat="45.62522" lon="4.55298">
        <ele>623.6</ele>
        <time>2019-04-28T08:48:33Z</time>
      </trkpt>
      <trkpt lat="45.62529" lon="4.5531">
        <ele>624.2</ele>
        <time>2019-04-28T08:48:36Z</time>
      </trkpt>
      <trkpt lat="45.62531" lon="4.55312">
        <ele>624.2</ele>
        <time>2019-04-28T08:48:37Z</time>
      </trkpt>
      <trkpt lat="45.62535" lon="4.55311">
        <ele>624.4</ele>
        <time>2019-04-28T08:48:39Z</time>
      </trkpt>
      <trkpt lat="45.62541" lon="4.55302">
        <ele>624.4</ele>
        <time>2019-04-28T08:48:42Z</time>
      </trkpt>
      <trkpt lat="45.62547" lon="4.55308">
        <ele>624.6</ele>
        <time>2019-04-28T08:48:45Z</time>
      </trkpt>
      <trkpt lat="45.62549" lon="4.55311">
        <ele>624.7</ele>
        <time>2019-04-28T08:48:46Z</time>
      </trkpt>
      <trkpt lat="45.62559" lon="4.55324">
        <ele>625.1</ele>
        <time>2019-04-28T08:48:50Z</time>
      </trkpt>
      <trkpt lat="45.62576" lon="4.55341">
        <ele>626</ele>
        <time>2019-04-28T08:48:56Z</time>
      </trkpt>
      <trkpt lat="45.62592" lon="4.55349">
        <ele>626.9</ele>
        <time>2019-04-28T08:49:01Z</time>
      </trkpt>
      <trkpt lat="45.62595" lon="4.55351">
        <ele>627.2</ele>
        <time>2019-04-28T08:49:02Z</time>
      </trkpt>
      <trkpt lat="45.62604" lon="4.55362">
        <ele>628.3</ele>
        <time>2019-04-28T08:49:06Z</time>
      </trkpt>
      <trkpt lat="45.62607" lon="4.55367">
        <ele>628.8</ele>
        <time>2019-04-28T08:49:09Z</time>
      </trkpt>
      <trkpt lat="45.62611" lon="4.55374">
        <ele>629.4</ele>
        <time>2019-04-28T08:49:12Z</time>
      </trkpt>
      <trkpt lat="45.62614" lon="4.55378">
        <ele>629.9</ele>
        <time>2019-04-28T08:49:14Z</time>
      </trkpt>
      <trkpt lat="45.62619" lon="4.55386">
        <ele>630.9</ele>
        <time>2019-04-28T08:49:18Z</time>
      </trkpt>
      <trkpt lat="45.62624" lon="4.55394">
        <ele>632.1</ele>
        <time>2019-04-28T08:49:22Z</time>
      </trkpt>
      <trkpt lat="45.62627" lon="4.554">
        <ele>632.8</ele>
        <time>2019-04-28T08:49:25Z</time>
      </trkpt>
      <trkpt lat="45.6263" lon="4.55405">
        <ele>633.5</ele>
        <time>2019-04-28T08:49:28Z</time>
      </trkpt>
      <trkpt lat="45.62632" lon="4.55411">
        <ele>634.1</ele>
        <time>2019-04-28T08:49:31Z</time>
      </trkpt>
      <trkpt lat="45.62633" lon="4.55414">
        <ele>634.3</ele>
        <time>2019-04-28T08:49:32Z</time>
      </trkpt>
      <trkpt lat="45.62635" lon="4.55418">
        <ele>634.8</ele>
        <time>2019-04-28T08:49:34Z</time>
      </trkpt>
      <trkpt lat="45.62642" lon="4.55429">
        <ele>636</ele>
        <time>2019-04-28T08:49:39Z</time>
      </trkpt>
      <trkpt lat="45.62646" lon="4.55436">
        <ele>636.8</ele>
        <time>2019-04-28T08:49:42Z</time>
      </trkpt>
      <trkpt lat="45.62656" lon="4.5545">
        <ele>638.6</ele>
        <time>2019-04-28T08:49:49Z</time>
      </trkpt>
      <trkpt lat="45.62657" lon="4.55452">
        <ele>638.9</ele>
        <time>2019-04-28T08:49:50Z</time>
      </trkpt>
      <trkpt lat="45.62663" lon="4.55462">
        <ele>640.3</ele>
        <time>2019-04-28T08:49:55Z</time>
      </trkpt>
      <trkpt lat="45.62666" lon="4.5547">
        <ele>641.1</ele>
        <time>2019-04-28T08:49:58Z</time>
      </trkpt>
      <trkpt lat="45.62669" lon="4.55477">
        <ele>641.9</ele>
        <time>2019-04-28T08:50:01Z</time>
      </trkpt>
      <trkpt lat="45.62672" lon="4.55482">
        <ele>642.5</ele>
        <time>2019-04-28T08:50:04Z</time>
      </trkpt>
      <trkpt lat="45.62676" lon="4.55487">
        <ele>643.1</ele>
        <time>2019-04-28T08:50:08Z</time>
      </trkpt>
      <trkpt lat="45.62679" lon="4.55487">
        <ele>643.4</ele>
        <time>2019-04-28T08:50:10Z</time>
      </trkpt>
      <trkpt lat="45.6268" lon="4.55487">
        <ele>643.6</ele>
        <time>2019-04-28T08:50:11Z</time>
      </trkpt>
      <trkpt lat="45.62682" lon="4.55486">
        <ele>643.9</ele>
        <time>2019-04-28T08:50:13Z</time>
      </trkpt>
      <trkpt lat="45.62685" lon="4.55484">
        <ele>644.4</ele>
        <time>2019-04-28T08:50:16Z</time>
      </trkpt>
      <trkpt lat="45.62688" lon="4.55482">
        <ele>644.7</ele>
        <time>2019-04-28T08:50:19Z</time>
      </trkpt>
      <trkpt lat="45.62688" lon="4.55481">
        <ele>644.9</ele>
        <time>2019-04-28T08:50:20Z</time>
      </trkpt>
      <trkpt lat="45.6269" lon="4.55477">
        <ele>645.4</ele>
        <time>2019-04-28T08:50:23Z</time>
      </trkpt>
      <trkpt lat="45.62691" lon="4.55476">
        <ele>645.6</ele>
        <time>2019-04-28T08:50:24Z</time>
      </trkpt>
      <trkpt lat="45.62693" lon="4.55469">
        <ele>646.3</ele>
        <time>2019-04-28T08:50:29Z</time>
      </trkpt>
      <trkpt lat="45.62694" lon="4.55466">
        <ele>646.6</ele>
        <time>2019-04-28T08:50:31Z</time>
      </trkpt>
      <trkpt lat="45.62695" lon="4.55459">
        <ele>647.4</ele>
        <time>2019-04-28T08:50:35Z</time>
      </trkpt>
      <trkpt lat="45.62696" lon="4.55453">
        <ele>648</ele>
        <time>2019-04-28T08:50:38Z</time>
      </trkpt>
      <trkpt lat="45.62698" lon="4.55445">
        <ele>649</ele>
        <time>2019-04-28T08:50:43Z</time>
      </trkpt>
      <trkpt lat="45.62699" lon="4.55443">
        <ele>649.1</ele>
        <time>2019-04-28T08:50:44Z</time>
      </trkpt>
      <trkpt lat="45.627" lon="4.55445">
        <ele>649.4</ele>
        <time>2019-04-28T08:50:47Z</time>
      </trkpt>
      <trkpt lat="45.62701" lon="4.55448">
        <ele>649.7</ele>
        <time>2019-04-28T08:50:49Z</time>
      </trkpt>
      <trkpt lat="45.62703" lon="4.55453">
        <ele>649.8</ele>
        <time>2019-04-28T08:50:52Z</time>
      </trkpt>
      <trkpt lat="45.62706" lon="4.55458">
        <ele>649.7</ele>
        <time>2019-04-28T08:50:55Z</time>
      </trkpt>
      <trkpt lat="45.62714" lon="4.55469">
        <ele>651.9</ele>
        <time>2019-04-28T08:51:01Z</time>
      </trkpt>
      <trkpt lat="45.62727" lon="4.55476">
        <ele>654</ele>
        <time>2019-04-28T08:51:08Z</time>
      </trkpt>
      <trkpt lat="45.62745" lon="4.55477">
        <ele>658.5</ele>
        <time>2019-04-28T08:51:17Z</time>
      </trkpt>
      <trkpt lat="45.62762" lon="4.55485">
        <ele>662</ele>
        <time>2019-04-28T08:51:24Z</time>
      </trkpt>
      <trkpt lat="45.62772" lon="4.55498">
        <ele>661.3</ele>
        <time>2019-04-28T08:51:29Z</time>
      </trkpt>
      <trkpt lat="45.62786" lon="4.55517">
        <ele>660</ele>
        <time>2019-04-28T08:51:35Z</time>
      </trkpt>
      <trkpt lat="45.6279" lon="4.55524">
        <ele>659.6</ele>
        <time>2019-04-28T08:51:37Z</time>
      </trkpt>
      <trkpt lat="45.62802" lon="4.55535">
        <ele>658.5</ele>
        <time>2019-04-28T08:51:40Z</time>
      </trkpt>
      <trkpt lat="45.62826" lon="4.55557">
        <ele>655.8</ele>
        <time>2019-04-28T08:51:46Z</time>
      </trkpt>
      <trkpt lat="45.62835" lon="4.55564">
        <ele>656</ele>
        <time>2019-04-28T08:51:48Z</time>
      </trkpt>
      <trkpt lat="45.62849" lon="4.5557">
        <ele>656.2</ele>
        <time>2019-04-28T08:51:50Z</time>
      </trkpt>
      <trkpt lat="45.62869" lon="4.55582">
        <ele>657</ele>
        <time>2019-04-28T08:51:53Z</time>
      </trkpt>
      <trkpt lat="45.62874" lon="4.55588">
        <ele>657</ele>
        <time>2019-04-28T08:51:54Z</time>
      </trkpt>
      <trkpt lat="45.62876" lon="4.55608">
        <ele>656.2</ele>
        <time>2019-04-28T08:51:57Z</time>
      </trkpt>
      <trkpt lat="45.62868" lon="4.55621">
        <ele>655.5</ele>
        <time>2019-04-28T08:52:00Z</time>
      </trkpt>
      <trkpt lat="45.62864" lon="4.55631">
        <ele>655.2</ele>
        <time>2019-04-28T08:52:02Z</time>
      </trkpt>
      <trkpt lat="45.6286" lon="4.5565">
        <ele>655</ele>
        <time>2019-04-28T08:52:07Z</time>
      </trkpt>
      <trkpt lat="45.62857" lon="4.55669">
        <ele>655.2</ele>
        <time>2019-04-28T08:52:13Z</time>
      </trkpt>
      <trkpt lat="45.62856" lon="4.55671">
        <ele>655.3</ele>
        <time>2019-04-28T08:52:14Z</time>
      </trkpt>
      <trkpt lat="45.62855" lon="4.55679">
        <ele>655.6</ele>
        <time>2019-04-28T08:52:17Z</time>
      </trkpt>
      <trkpt lat="45.62855" lon="4.55683">
        <ele>656.3</ele>
        <time>2019-04-28T08:52:19Z</time>
      </trkpt>
      <trkpt lat="45.62856" lon="4.55685">
        <ele>656.5</ele>
        <time>2019-04-28T08:52:20Z</time>
      </trkpt>
      <trkpt lat="45.62855" lon="4.55704">
        <ele>659</ele>
        <time>2019-04-28T08:52:36Z</time>
      </trkpt>
      <trkpt lat="45.62854" lon="4.55705">
        <ele>659.1</ele>
        <time>2019-04-28T08:52:37Z</time>
      </trkpt>
      <trkpt lat="45.62852" lon="4.55706">
        <ele>659.5</ele>
        <time>2019-04-28T08:52:39Z</time>
      </trkpt>
      <trkpt lat="45.62849" lon="4.55708">
        <ele>660.2</ele>
        <time>2019-04-28T08:52:42Z</time>
      </trkpt>
      <trkpt lat="45.62838" lon="4.5571">
        <ele>662.1</ele>
        <time>2019-04-28T08:52:53Z</time>
      </trkpt>
      <trkpt lat="45.62833" lon="4.55708">
        <ele>662.7</ele>
        <time>2019-04-28T08:52:57Z</time>
      </trkpt>
      <trkpt lat="45.62823" lon="4.55705">
        <ele>663.7</ele>
        <time>2019-04-28T08:53:03Z</time>
      </trkpt>
      <trkpt lat="45.62818" lon="4.55703">
        <ele>664.1</ele>
        <time>2019-04-28T08:53:06Z</time>
      </trkpt>
      <trkpt lat="45.62816" lon="4.55702">
        <ele>664.3</ele>
        <time>2019-04-28T08:53:08Z</time>
      </trkpt>
      <trkpt lat="45.6281" lon="4.55703">
        <ele>664.7</ele>
        <time>2019-04-28T08:53:12Z</time>
      </trkpt>
      <trkpt lat="45.62804" lon="4.55704">
        <ele>665.1</ele>
        <time>2019-04-28T08:53:16Z</time>
      </trkpt>
      <trkpt lat="45.628" lon="4.55706">
        <ele>665.4</ele>
        <time>2019-04-28T08:53:19Z</time>
      </trkpt>
      <trkpt lat="45.62796" lon="4.55707">
        <ele>665.6</ele>
        <time>2019-04-28T08:53:21Z</time>
      </trkpt>
      <trkpt lat="45.62791" lon="4.55708">
        <ele>666</ele>
        <time>2019-04-28T08:53:24Z</time>
      </trkpt>
      <trkpt lat="45.62786" lon="4.55709">
        <ele>666.3</ele>
        <time>2019-04-28T08:53:27Z</time>
      </trkpt>
      <trkpt lat="45.62784" lon="4.5571">
        <ele>666.4</ele>
        <time>2019-04-28T08:53:28Z</time>
      </trkpt>
      <trkpt lat="45.62778" lon="4.55712">
        <ele>666.7</ele>
        <time>2019-04-28T08:53:32Z</time>
      </trkpt>
      <trkpt lat="45.62777" lon="4.55713">
        <ele>666.8</ele>
        <time>2019-04-28T08:53:33Z</time>
      </trkpt>
      <trkpt lat="45.62772" lon="4.55715">
        <ele>667</ele>
        <time>2019-04-28T08:53:37Z</time>
      </trkpt>
      <trkpt lat="45.62767" lon="4.5572">
        <ele>667.3</ele>
        <time>2019-04-28T08:53:41Z</time>
      </trkpt>
      <trkpt lat="45.62764" lon="4.55724">
        <ele>667.6</ele>
        <time>2019-04-28T08:53:44Z</time>
      </trkpt>
      <trkpt lat="45.6276" lon="4.55729">
        <ele>667.9</ele>
        <time>2019-04-28T08:53:47Z</time>
      </trkpt>
      <trkpt lat="45.62757" lon="4.55732">
        <ele>668</ele>
        <time>2019-04-28T08:53:49Z</time>
      </trkpt>
      <trkpt lat="45.62755" lon="4.55735">
        <ele>668.2</ele>
        <time>2019-04-28T08:53:51Z</time>
      </trkpt>
      <trkpt lat="45.62748" lon="4.5575">
        <ele>669</ele>
        <time>2019-04-28T08:53:59Z</time>
      </trkpt>
      <trkpt lat="45.62745" lon="4.55757">
        <ele>669.4</ele>
        <time>2019-04-28T08:54:03Z</time>
      </trkpt>
      <trkpt lat="45.62741" lon="4.55763">
        <ele>669.6</ele>
        <time>2019-04-28T08:54:07Z</time>
      </trkpt>
      <trkpt lat="45.62735" lon="4.55776">
        <ele>669.9</ele>
        <time>2019-04-28T08:54:13Z</time>
      </trkpt>
      <trkpt lat="45.62733" lon="4.5578">
        <ele>670</ele>
        <time>2019-04-28T08:54:15Z</time>
      </trkpt>
      <trkpt lat="45.62726" lon="4.55795">
        <ele>670.3</ele>
        <time>2019-04-28T08:54:21Z</time>
      </trkpt>
      <trkpt lat="45.62724" lon="4.55797">
        <ele>670.3</ele>
        <time>2019-04-28T08:54:22Z</time>
      </trkpt>
      <trkpt lat="45.62716" lon="4.55811">
        <ele>670.6</ele>
        <time>2019-04-28T08:54:27Z</time>
      </trkpt>
      <trkpt lat="45.62711" lon="4.55823">
        <ele>670.8</ele>
        <time>2019-04-28T08:54:31Z</time>
      </trkpt>
      <trkpt lat="45.62708" lon="4.55831">
        <ele>671.1</ele>
        <time>2019-04-28T08:54:34Z</time>
      </trkpt>
      <trkpt lat="45.62707" lon="4.55833">
        <ele>671.2</ele>
        <time>2019-04-28T08:54:35Z</time>
      </trkpt>
      <trkpt lat="45.62702" lon="4.55852">
        <ele>672.3</ele>
        <time>2019-04-28T08:54:42Z</time>
      </trkpt>
      <trkpt lat="45.62705" lon="4.5587">
        <ele>673.5</ele>
        <time>2019-04-28T08:54:51Z</time>
      </trkpt>
      <trkpt lat="45.62705" lon="4.55873">
        <ele>673.7</ele>
        <time>2019-04-28T08:54:52Z</time>
      </trkpt>
      <trkpt lat="45.62704" lon="4.55892">
        <ele>675</ele>
        <time>2019-04-28T08:54:59Z</time>
      </trkpt>
      <trkpt lat="45.62706" lon="4.55904">
        <ele>675.7</ele>
        <time>2019-04-28T08:55:05Z</time>
      </trkpt>
      <trkpt lat="45.62707" lon="4.55912">
        <ele>676.1</ele>
        <time>2019-04-28T08:55:08Z</time>
      </trkpt>
      <trkpt lat="45.62707" lon="4.55921">
        <ele>676.4</ele>
        <time>2019-04-28T08:55:11Z</time>
      </trkpt>
      <trkpt lat="45.62707" lon="4.55923">
        <ele>676.4</ele>
        <time>2019-04-28T08:55:12Z</time>
      </trkpt>
      <trkpt lat="45.62709" lon="4.55933">
        <ele>676.4</ele>
        <time>2019-04-28T08:55:17Z</time>
      </trkpt>
      <trkpt lat="45.62708" lon="4.55936">
        <ele>676.3</ele>
        <time>2019-04-28T08:55:40Z</time>
      </trkpt>
      <trkpt lat="45.62702" lon="4.55945">
        <ele>676</ele>
        <time>2019-04-28T08:55:42Z</time>
      </trkpt>
      <trkpt lat="45.62693" lon="4.55956">
        <ele>675.2</ele>
        <time>2019-04-28T08:55:44Z</time>
      </trkpt>
      <trkpt lat="45.62688" lon="4.5596">
        <ele>674.8</ele>
        <time>2019-04-28T08:55:45Z</time>
      </trkpt>
      <trkpt lat="45.62675" lon="4.55965">
        <ele>674.2</ele>
        <time>2019-04-28T08:55:47Z</time>
      </trkpt>
      <trkpt lat="45.62669" lon="4.55965">
        <ele>674</ele>
        <time>2019-04-28T08:55:48Z</time>
      </trkpt>
      <trkpt lat="45.62659" lon="4.55966">
        <ele>673.7</ele>
        <time>2019-04-28T08:55:50Z</time>
      </trkpt>
      <trkpt lat="45.62656" lon="4.55966">
        <ele>673.5</ele>
        <time>2019-04-28T08:55:51Z</time>
      </trkpt>
      <trkpt lat="45.62653" lon="4.55967">
        <ele>673.4</ele>
        <time>2019-04-28T08:55:52Z</time>
      </trkpt>
      <trkpt lat="45.62647" lon="4.5597">
        <ele>673.2</ele>
        <time>2019-04-28T08:55:54Z</time>
      </trkpt>
      <trkpt lat="45.62634" lon="4.55973">
        <ele>672.6</ele>
        <time>2019-04-28T08:55:57Z</time>
      </trkpt>
      <trkpt lat="45.62631" lon="4.55971">
        <ele>672.3</ele>
        <time>2019-04-28T08:55:58Z</time>
      </trkpt>
      <trkpt lat="45.62626" lon="4.55966">
        <ele>671.9</ele>
        <time>2019-04-28T08:56:00Z</time>
      </trkpt>
      <trkpt lat="45.62624" lon="4.55956">
        <ele>671.4</ele>
        <time>2019-04-28T08:56:03Z</time>
      </trkpt>
      <trkpt lat="45.62623" lon="4.55953">
        <ele>671.2</ele>
        <time>2019-04-28T08:56:04Z</time>
      </trkpt>
      <trkpt lat="45.6262" lon="4.55946">
        <ele>670.8</ele>
        <time>2019-04-28T08:56:07Z</time>
      </trkpt>
      <trkpt lat="45.62618" lon="4.55939">
        <ele>670.5</ele>
        <time>2019-04-28T08:56:10Z</time>
      </trkpt>
      <trkpt lat="45.62607" lon="4.55914">
        <ele>669.9</ele>
        <time>2019-04-28T08:56:18Z</time>
      </trkpt>
      <trkpt lat="45.62599" lon="4.55888">
        <ele>670.1</ele>
        <time>2019-04-28T08:56:24Z</time>
      </trkpt>
      <trkpt lat="45.62598" lon="4.55884">
        <ele>670.1</ele>
        <time>2019-04-28T08:56:25Z</time>
      </trkpt>
      <trkpt lat="45.62588" lon="4.55867">
        <ele>670.5</ele>
        <time>2019-04-28T08:56:30Z</time>
      </trkpt>
      <trkpt lat="45.62586" lon="4.55864">
        <ele>670.6</ele>
        <time>2019-04-28T08:56:31Z</time>
      </trkpt>
      <trkpt lat="45.62575" lon="4.55848">
        <ele>671.8</ele>
        <time>2019-04-28T08:56:37Z</time>
      </trkpt>
      <trkpt lat="45.62571" lon="4.55843">
        <ele>672.1</ele>
        <time>2019-04-28T08:56:39Z</time>
      </trkpt>
      <trkpt lat="45.62563" lon="4.55834">
        <ele>673.1</ele>
        <time>2019-04-28T08:56:44Z</time>
      </trkpt>
      <trkpt lat="45.62552" lon="4.55823">
        <ele>673.8</ele>
        <time>2019-04-28T08:56:49Z</time>
      </trkpt>
      <trkpt lat="45.62548" lon="4.55818">
        <ele>674.1</ele>
        <time>2019-04-28T08:56:51Z</time>
      </trkpt>
      <trkpt lat="45.62528" lon="4.55799">
        <ele>675.2</ele>
        <time>2019-04-28T08:57:00Z</time>
      </trkpt>
      <trkpt lat="45.62522" lon="4.55793">
        <ele>675.5</ele>
        <time>2019-04-28T08:57:03Z</time>
      </trkpt>
      <trkpt lat="45.62508" lon="4.5578">
        <ele>675.9</ele>
        <time>2019-04-28T08:57:09Z</time>
      </trkpt>
      <trkpt lat="45.62495" lon="4.55768">
        <ele>676.1</ele>
        <time>2019-04-28T08:57:15Z</time>
      </trkpt>
      <trkpt lat="45.6249" lon="4.55763">
        <ele>676.2</ele>
        <time>2019-04-28T08:57:17Z</time>
      </trkpt>
      <trkpt lat="45.62483" lon="4.55756">
        <ele>676.3</ele>
        <time>2019-04-28T08:57:20Z</time>
      </trkpt>
      <trkpt lat="45.62473" lon="4.55745">
        <ele>676.7</ele>
        <time>2019-04-28T08:57:25Z</time>
      </trkpt>
      <trkpt lat="45.62455" lon="4.5573">
        <ele>676.9</ele>
        <time>2019-04-28T08:57:32Z</time>
      </trkpt>
      <trkpt lat="45.62447" lon="4.55722">
        <ele>676.7</ele>
        <time>2019-04-28T08:57:35Z</time>
      </trkpt>
      <trkpt lat="45.6244" lon="4.55716">
        <ele>676.5</ele>
        <time>2019-04-28T08:57:37Z</time>
      </trkpt>
      <trkpt lat="45.62436" lon="4.55713">
        <ele>676.3</ele>
        <time>2019-04-28T08:57:38Z</time>
      </trkpt>
      <trkpt lat="45.62419" lon="4.55699">
        <ele>675.3</ele>
        <time>2019-04-28T08:57:42Z</time>
      </trkpt>
      <trkpt lat="45.62414" lon="4.55696">
        <ele>675.1</ele>
        <time>2019-04-28T08:57:43Z</time>
      </trkpt>
      <trkpt lat="45.62409" lon="4.55692">
        <ele>674.8</ele>
        <time>2019-04-28T08:57:44Z</time>
      </trkpt>
      <trkpt lat="45.62392" lon="4.55684">
        <ele>673.9</ele>
        <time>2019-04-28T08:57:47Z</time>
      </trkpt>
      <trkpt lat="45.62387" lon="4.55682">
        <ele>673.6</ele>
        <time>2019-04-28T08:57:48Z</time>
      </trkpt>
      <trkpt lat="45.62382" lon="4.55681">
        <ele>673.2</ele>
        <time>2019-04-28T08:57:49Z</time>
      </trkpt>
      <trkpt lat="45.62377" lon="4.55682">
        <ele>672.9</ele>
        <time>2019-04-28T08:57:50Z</time>
      </trkpt>
      <trkpt lat="45.62369" lon="4.55689">
        <ele>673.5</ele>
        <time>2019-04-28T08:57:52Z</time>
      </trkpt>
      <trkpt lat="45.62366" lon="4.55694">
        <ele>673.9</ele>
        <time>2019-04-28T08:57:53Z</time>
      </trkpt>
      <trkpt lat="45.62363" lon="4.55699">
        <ele>674.4</ele>
        <time>2019-04-28T08:57:54Z</time>
      </trkpt>
      <trkpt lat="45.62356" lon="4.55712">
        <ele>675.7</ele>
        <time>2019-04-28T08:57:57Z</time>
      </trkpt>
      <trkpt lat="45.62348" lon="4.55727">
        <ele>676.4</ele>
        <time>2019-04-28T08:58:01Z</time>
      </trkpt>
      <trkpt lat="45.62337" lon="4.55745">
        <ele>677.4</ele>
        <time>2019-04-28T08:58:06Z</time>
      </trkpt>
      <trkpt lat="45.62326" lon="4.55765">
        <ele>678.4</ele>
        <time>2019-04-28T08:58:12Z</time>
      </trkpt>
      <trkpt lat="45.62318" lon="4.5578">
        <ele>679.3</ele>
        <time>2019-04-28T08:58:18Z</time>
      </trkpt>
      <trkpt lat="45.62317" lon="4.55782">
        <ele>679.5</ele>
        <time>2019-04-28T08:58:19Z</time>
      </trkpt>
      <trkpt lat="45.62315" lon="4.55787">
        <ele>680</ele>
        <time>2019-04-28T08:58:21Z</time>
      </trkpt>
      <trkpt lat="45.62312" lon="4.55794">
        <ele>680.8</ele>
        <time>2019-04-28T08:58:24Z</time>
      </trkpt>
      <trkpt lat="45.62309" lon="4.55802">
        <ele>681.7</ele>
        <time>2019-04-28T08:58:27Z</time>
      </trkpt>
      <trkpt lat="45.62305" lon="4.55813">
        <ele>682.9</ele>
        <time>2019-04-28T08:58:31Z</time>
      </trkpt>
      <trkpt lat="45.62303" lon="4.55821">
        <ele>683.8</ele>
        <time>2019-04-28T08:58:34Z</time>
      </trkpt>
      <trkpt lat="45.62301" lon="4.55829">
        <ele>684.7</ele>
        <time>2019-04-28T08:58:37Z</time>
      </trkpt>
      <trkpt lat="45.62299" lon="4.55838">
        <ele>685.6</ele>
        <time>2019-04-28T08:58:40Z</time>
      </trkpt>
      <trkpt lat="45.62297" lon="4.55847">
        <ele>686.4</ele>
        <time>2019-04-28T08:58:43Z</time>
      </trkpt>
      <trkpt lat="45.62295" lon="4.55852">
        <ele>686.9</ele>
        <time>2019-04-28T08:58:45Z</time>
      </trkpt>
      <trkpt lat="45.62294" lon="4.55854">
        <ele>687.1</ele>
        <time>2019-04-28T08:58:46Z</time>
      </trkpt>
      <trkpt lat="45.6229" lon="4.55865">
        <ele>688.4</ele>
        <time>2019-04-28T08:58:52Z</time>
      </trkpt>
      <trkpt lat="45.62289" lon="4.55867">
        <ele>688.7</ele>
        <time>2019-04-28T08:58:53Z</time>
      </trkpt>
      <trkpt lat="45.62288" lon="4.55873">
        <ele>689.2</ele>
        <time>2019-04-28T08:58:56Z</time>
      </trkpt>
      <trkpt lat="45.62286" lon="4.55881">
        <ele>690.1</ele>
        <time>2019-04-28T08:59:00Z</time>
      </trkpt>
      <trkpt lat="45.62286" lon="4.55883">
        <ele>690.3</ele>
        <time>2019-04-28T08:59:01Z</time>
      </trkpt>
      <trkpt lat="45.62285" lon="4.55887">
        <ele>690.7</ele>
        <time>2019-04-28T08:59:03Z</time>
      </trkpt>
      <trkpt lat="45.62282" lon="4.55894">
        <ele>691.4</ele>
        <time>2019-04-28T08:59:07Z</time>
      </trkpt>
      <trkpt lat="45.62281" lon="4.55896">
        <ele>691.6</ele>
        <time>2019-04-28T08:59:08Z</time>
      </trkpt>
      <trkpt lat="45.62277" lon="4.55909">
        <ele>692.6</ele>
        <time>2019-04-28T08:59:14Z</time>
      </trkpt>
      <trkpt lat="45.62276" lon="4.55912">
        <ele>692.9</ele>
        <time>2019-04-28T08:59:16Z</time>
      </trkpt>
      <trkpt lat="45.62274" lon="4.55916">
        <ele>693.2</ele>
        <time>2019-04-28T08:59:18Z</time>
      </trkpt>
      <trkpt lat="45.6227" lon="4.55926">
        <ele>694</ele>
        <time>2019-04-28T08:59:23Z</time>
      </trkpt>
      <trkpt lat="45.62266" lon="4.55936">
        <ele>694.8</ele>
        <time>2019-04-28T08:59:28Z</time>
      </trkpt>
      <trkpt lat="45.62263" lon="4.55941">
        <ele>695.2</ele>
        <time>2019-04-28T08:59:31Z</time>
      </trkpt>
      <trkpt lat="45.62255" lon="4.55955">
        <ele>696.2</ele>
        <time>2019-04-28T08:59:39Z</time>
      </trkpt>
      <trkpt lat="45.62254" lon="4.55956">
        <ele>696.4</ele>
        <time>2019-04-28T08:59:40Z</time>
      </trkpt>
      <trkpt lat="45.62246" lon="4.55969">
        <ele>697.3</ele>
        <time>2019-04-28T08:59:47Z</time>
      </trkpt>
      <trkpt lat="45.62244" lon="4.5597">
        <ele>697.5</ele>
        <time>2019-04-28T08:59:48Z</time>
      </trkpt>
      <trkpt lat="45.62236" lon="4.55984">
        <ele>698.6</ele>
        <time>2019-04-28T08:59:56Z</time>
      </trkpt>
      <trkpt lat="45.62226" lon="4.55998">
        <ele>699.9</ele>
        <time>2019-04-28T09:00:04Z</time>
      </trkpt>
      <trkpt lat="45.62225" lon="4.55999">
        <ele>700</ele>
        <time>2019-04-28T09:00:05Z</time>
      </trkpt>
      <trkpt lat="45.62221" lon="4.56006">
        <ele>700.8</ele>
        <time>2019-04-28T09:00:09Z</time>
      </trkpt>
      <trkpt lat="45.62216" lon="4.56016">
        <ele>701.9</ele>
        <time>2019-04-28T09:00:14Z</time>
      </trkpt>
      <trkpt lat="45.62215" lon="4.56018">
        <ele>702.1</ele>
        <time>2019-04-28T09:00:15Z</time>
      </trkpt>
      <trkpt lat="45.62213" lon="4.56021">
        <ele>702.6</ele>
        <time>2019-04-28T09:00:17Z</time>
      </trkpt>
      <trkpt lat="45.62209" lon="4.56028">
        <ele>703.5</ele>
        <time>2019-04-28T09:00:21Z</time>
      </trkpt>
      <trkpt lat="45.62204" lon="4.56035">
        <ele>704.5</ele>
        <time>2019-04-28T09:00:25Z</time>
      </trkpt>
      <trkpt lat="45.62201" lon="4.5604">
        <ele>705.3</ele>
        <time>2019-04-28T09:00:28Z</time>
      </trkpt>
      <trkpt lat="45.62197" lon="4.56047">
        <ele>706.3</ele>
        <time>2019-04-28T09:00:32Z</time>
      </trkpt>
      <trkpt lat="45.62193" lon="4.56051">
        <ele>707.1</ele>
        <time>2019-04-28T09:00:35Z</time>
      </trkpt>
      <trkpt lat="45.6219" lon="4.56057">
        <ele>708</ele>
        <time>2019-04-28T09:00:38Z</time>
      </trkpt>
      <trkpt lat="45.62186" lon="4.56064">
        <ele>709.1</ele>
        <time>2019-04-28T09:00:42Z</time>
      </trkpt>
      <trkpt lat="45.62185" lon="4.56065">
        <ele>709.4</ele>
        <time>2019-04-28T09:00:43Z</time>
      </trkpt>
      <trkpt lat="45.62181" lon="4.5607">
        <ele>710.3</ele>
        <time>2019-04-28T09:00:46Z</time>
      </trkpt>
      <trkpt lat="45.62178" lon="4.56076">
        <ele>711.1</ele>
        <time>2019-04-28T09:00:49Z</time>
      </trkpt>
      <trkpt lat="45.62176" lon="4.5608">
        <ele>711.6</ele>
        <time>2019-04-28T09:00:51Z</time>
      </trkpt>
      <trkpt lat="45.62172" lon="4.56084">
        <ele>712.3</ele>
        <time>2019-04-28T09:00:54Z</time>
      </trkpt>
      <trkpt lat="45.62168" lon="4.56091">
        <ele>713.3</ele>
        <time>2019-04-28T09:00:58Z</time>
      </trkpt>
      <trkpt lat="45.62167" lon="4.56093">
        <ele>713.5</ele>
        <time>2019-04-28T09:00:59Z</time>
      </trkpt>
      <trkpt lat="45.62164" lon="4.56098">
        <ele>714.2</ele>
        <time>2019-04-28T09:01:02Z</time>
      </trkpt>
      <trkpt lat="45.62157" lon="4.56108">
        <ele>715.4</ele>
        <time>2019-04-28T09:01:08Z</time>
      </trkpt>
      <trkpt lat="45.62157" lon="4.56109">
        <ele>715.6</ele>
        <time>2019-04-28T09:01:09Z</time>
      </trkpt>
      <trkpt lat="45.62151" lon="4.56117">
        <ele>716.8</ele>
        <time>2019-04-28T09:01:14Z</time>
      </trkpt>
      <trkpt lat="45.62148" lon="4.56122">
        <ele>717.5</ele>
        <time>2019-04-28T09:01:17Z</time>
      </trkpt>
      <trkpt lat="45.62143" lon="4.56129">
        <ele>718.3</ele>
        <time>2019-04-28T09:01:21Z</time>
      </trkpt>
      <trkpt lat="45.6214" lon="4.56137">
        <ele>719.1</ele>
        <time>2019-04-28T09:01:25Z</time>
      </trkpt>
      <trkpt lat="45.62138" lon="4.56143">
        <ele>719.8</ele>
        <time>2019-04-28T09:01:28Z</time>
      </trkpt>
      <trkpt lat="45.62135" lon="4.56149">
        <ele>720.5</ele>
        <time>2019-04-28T09:01:31Z</time>
      </trkpt>
      <trkpt lat="45.62133" lon="4.56155">
        <ele>721.1</ele>
        <time>2019-04-28T09:01:34Z</time>
      </trkpt>
      <trkpt lat="45.62129" lon="4.5616">
        <ele>721.9</ele>
        <time>2019-04-28T09:01:37Z</time>
      </trkpt>
      <trkpt lat="45.62127" lon="4.56164">
        <ele>722.3</ele>
        <time>2019-04-28T09:01:39Z</time>
      </trkpt>
      <trkpt lat="45.62125" lon="4.56167">
        <ele>722.8</ele>
        <time>2019-04-28T09:01:41Z</time>
      </trkpt>
      <trkpt lat="45.6212" lon="4.56172">
        <ele>723.7</ele>
        <time>2019-04-28T09:01:45Z</time>
      </trkpt>
      <trkpt lat="45.62115" lon="4.56178">
        <ele>724.5</ele>
        <time>2019-04-28T09:01:49Z</time>
      </trkpt>
      <trkpt lat="45.62114" lon="4.56179">
        <ele>724.8</ele>
        <time>2019-04-28T09:01:50Z</time>
      </trkpt>
      <trkpt lat="45.62108" lon="4.56181">
        <ele>725.6</ele>
        <time>2019-04-28T09:01:54Z</time>
      </trkpt>
      <trkpt lat="45.62101" lon="4.56186">
        <ele>726.7</ele>
        <time>2019-04-28T09:01:59Z</time>
      </trkpt>
      <trkpt lat="45.62093" lon="4.56192">
        <ele>728</ele>
        <time>2019-04-28T09:02:05Z</time>
      </trkpt>
      <trkpt lat="45.62089" lon="4.56196">
        <ele>728.7</ele>
        <time>2019-04-28T09:02:08Z</time>
      </trkpt>
      <trkpt lat="45.62087" lon="4.56199">
        <ele>729.2</ele>
        <time>2019-04-28T09:02:10Z</time>
      </trkpt>
      <trkpt lat="45.62079" lon="4.56208">
        <ele>730.8</ele>
        <time>2019-04-28T09:02:16Z</time>
      </trkpt>
      <trkpt lat="45.62075" lon="4.56214">
        <ele>731.5</ele>
        <time>2019-04-28T09:02:19Z</time>
      </trkpt>
      <trkpt lat="45.62074" lon="4.56216">
        <ele>731.7</ele>
        <time>2019-04-28T09:02:20Z</time>
      </trkpt>
      <trkpt lat="45.6207" lon="4.56224">
        <ele>732.6</ele>
        <time>2019-04-28T09:02:24Z</time>
      </trkpt>
      <trkpt lat="45.62065" lon="4.56233">
        <ele>733.8</ele>
        <time>2019-04-28T09:02:29Z</time>
      </trkpt>
      <trkpt lat="45.62059" lon="4.56245">
        <ele>735.1</ele>
        <time>2019-04-28T09:02:35Z</time>
      </trkpt>
      <trkpt lat="45.62055" lon="4.56254">
        <ele>736</ele>
        <time>2019-04-28T09:02:39Z</time>
      </trkpt>
      <trkpt lat="45.62053" lon="4.56261">
        <ele>736.6</ele>
        <time>2019-04-28T09:02:42Z</time>
      </trkpt>
      <trkpt lat="45.6205" lon="4.56274">
        <ele>737.9</ele>
        <time>2019-04-28T09:02:48Z</time>
      </trkpt>
      <trkpt lat="45.62049" lon="4.56279">
        <ele>738.3</ele>
        <time>2019-04-28T09:02:50Z</time>
      </trkpt>
      <trkpt lat="45.62047" lon="4.56286">
        <ele>738.8</ele>
        <time>2019-04-28T09:02:53Z</time>
      </trkpt>
      <trkpt lat="45.6204" lon="4.56303">
        <ele>739.6</ele>
        <time>2019-04-28T09:03:01Z</time>
      </trkpt>
      <trkpt lat="45.62041" lon="4.56306">
        <ele>739.7</ele>
        <time>2019-04-28T09:03:35Z</time>
      </trkpt>
      <trkpt lat="45.62042" lon="4.56308">
        <ele>739.7</ele>
        <time>2019-04-28T09:03:36Z</time>
      </trkpt>
      <trkpt lat="45.62042" lon="4.5631">
        <ele>739.8</ele>
        <time>2019-04-28T09:03:37Z</time>
      </trkpt>
      <trkpt lat="45.62043" lon="4.56324">
        <ele>740.1</ele>
        <time>2019-04-28T09:03:41Z</time>
      </trkpt>
      <trkpt lat="45.62042" lon="4.56335">
        <ele>740.4</ele>
        <time>2019-04-28T09:03:44Z</time>
      </trkpt>
      <trkpt lat="45.62041" lon="4.56343">
        <ele>740.7</ele>
        <time>2019-04-28T09:03:46Z</time>
      </trkpt>
      <trkpt lat="45.62041" lon="4.56355">
        <ele>741.1</ele>
        <time>2019-04-28T09:03:49Z</time>
      </trkpt>
      <trkpt lat="45.62041" lon="4.56359">
        <ele>741.2</ele>
        <time>2019-04-28T09:03:50Z</time>
      </trkpt>
      <trkpt lat="45.6204" lon="4.56367">
        <ele>741.5</ele>
        <time>2019-04-28T09:03:52Z</time>
      </trkpt>
      <trkpt lat="45.62036" lon="4.56404">
        <ele>742.8</ele>
        <time>2019-04-28T09:04:01Z</time>
      </trkpt>
      <trkpt lat="45.62035" lon="4.56443">
        <ele>744</ele>
        <time>2019-04-28T09:04:11Z</time>
      </trkpt>
      <trkpt lat="45.6204" lon="4.56456">
        <ele>744.5</ele>
        <time>2019-04-28T09:04:15Z</time>
      </trkpt>
      <trkpt lat="45.62041" lon="4.56459">
        <ele>744.7</ele>
        <time>2019-04-28T09:04:16Z</time>
      </trkpt>
      <trkpt lat="45.62047" lon="4.56472">
        <ele>745.2</ele>
        <time>2019-04-28T09:04:20Z</time>
      </trkpt>
      <trkpt lat="45.62052" lon="4.56486">
        <ele>745.8</ele>
        <time>2019-04-28T09:04:24Z</time>
      </trkpt>
      <trkpt lat="45.62053" lon="4.5649">
        <ele>746</ele>
        <time>2019-04-28T09:04:25Z</time>
      </trkpt>
      <trkpt lat="45.62058" lon="4.5651">
        <ele>746.7</ele>
        <time>2019-04-28T09:04:30Z</time>
      </trkpt>
      <trkpt lat="45.62067" lon="4.56523">
        <ele>747.2</ele>
        <time>2019-04-28T09:04:35Z</time>
      </trkpt>
      <trkpt lat="45.6207" lon="4.56527">
        <ele>747.4</ele>
        <time>2019-04-28T09:04:37Z</time>
      </trkpt>
      <trkpt lat="45.62075" lon="4.56534">
        <ele>747.7</ele>
        <time>2019-04-28T09:04:40Z</time>
      </trkpt>
      <trkpt lat="45.62086" lon="4.56545">
        <ele>748.5</ele>
        <time>2019-04-28T09:04:46Z</time>
      </trkpt>
      <trkpt lat="45.62091" lon="4.56552">
        <ele>749.1</ele>
        <time>2019-04-28T09:04:49Z</time>
      </trkpt>
      <trkpt lat="45.62096" lon="4.56557">
        <ele>749.7</ele>
        <time>2019-04-28T09:04:52Z</time>
      </trkpt>
      <trkpt lat="45.62099" lon="4.56563">
        <ele>750.2</ele>
        <time>2019-04-28T09:04:55Z</time>
      </trkpt>
      <trkpt lat="45.62104" lon="4.56569">
        <ele>750.8</ele>
        <time>2019-04-28T09:04:59Z</time>
      </trkpt>
      <trkpt lat="45.62109" lon="4.56573">
        <ele>751.4</ele>
        <time>2019-04-28T09:05:02Z</time>
      </trkpt>
      <trkpt lat="45.62117" lon="4.56581">
        <ele>752.4</ele>
        <time>2019-04-28T09:05:07Z</time>
      </trkpt>
      <trkpt lat="45.62118" lon="4.56582">
        <ele>752.6</ele>
        <time>2019-04-28T09:05:08Z</time>
      </trkpt>
      <trkpt lat="45.62124" lon="4.56588">
        <ele>753.4</ele>
        <time>2019-04-28T09:05:12Z</time>
      </trkpt>
      <trkpt lat="45.62127" lon="4.56592">
        <ele>753.7</ele>
        <time>2019-04-28T09:05:14Z</time>
      </trkpt>
      <trkpt lat="45.62134" lon="4.56597">
        <ele>754.4</ele>
        <time>2019-04-28T09:05:18Z</time>
      </trkpt>
      <trkpt lat="45.62141" lon="4.56604">
        <ele>755.2</ele>
        <time>2019-04-28T09:05:23Z</time>
      </trkpt>
      <trkpt lat="45.62145" lon="4.56607">
        <ele>755.5</ele>
        <time>2019-04-28T09:05:25Z</time>
      </trkpt>
      <trkpt lat="45.62154" lon="4.56615">
        <ele>756.3</ele>
        <time>2019-04-28T09:05:30Z</time>
      </trkpt>
      <trkpt lat="45.62168" lon="4.56627">
        <ele>757.3</ele>
        <time>2019-04-28T09:05:37Z</time>
      </trkpt>
      <trkpt lat="45.6218" lon="4.56638">
        <ele>757.9</ele>
        <time>2019-04-28T09:05:43Z</time>
      </trkpt>
      <trkpt lat="45.62196" lon="4.56652">
        <ele>758.5</ele>
        <time>2019-04-28T09:05:50Z</time>
      </trkpt>
      <trkpt lat="45.62213" lon="4.56667">
        <ele>759</ele>
        <time>2019-04-28T09:05:57Z</time>
      </trkpt>
      <trkpt lat="45.6223" lon="4.56685">
        <ele>759.6</ele>
        <time>2019-04-28T09:06:05Z</time>
      </trkpt>
      <trkpt lat="45.62247" lon="4.56712">
        <ele>760.1</ele>
        <time>2019-04-28T09:06:12Z</time>
      </trkpt>
      <trkpt lat="45.62266" lon="4.56738">
        <ele>759.9</ele>
        <time>2019-04-28T09:06:18Z</time>
      </trkpt>
      <trkpt lat="45.62284" lon="4.56758">
        <ele>759.5</ele>
        <time>2019-04-28T09:06:22Z</time>
      </trkpt>
      <trkpt lat="45.62293" lon="4.56769">
        <ele>759.2</ele>
        <time>2019-04-28T09:06:24Z</time>
      </trkpt>
      <trkpt lat="45.62323" lon="4.56802">
        <ele>758.4</ele>
        <time>2019-04-28T09:06:30Z</time>
      </trkpt>
      <trkpt lat="45.62353" lon="4.56836">
        <ele>757.8</ele>
        <time>2019-04-28T09:06:36Z</time>
      </trkpt>
      <trkpt lat="45.62394" lon="4.56878">
        <ele>757.3</ele>
        <time>2019-04-28T09:06:44Z</time>
      </trkpt>
      <trkpt lat="45.62427" lon="4.56912">
        <ele>756.7</ele>
        <time>2019-04-28T09:06:51Z</time>
      </trkpt>
      <trkpt lat="45.6247" lon="4.56959">
        <ele>755.9</ele>
        <time>2019-04-28T09:07:00Z</time>
      </trkpt>
      <trkpt lat="45.62479" lon="4.56969">
        <ele>755.7</ele>
        <time>2019-04-28T09:07:02Z</time>
      </trkpt>
      <trkpt lat="45.62509" lon="4.57007">
        <ele>755.4</ele>
        <time>2019-04-28T09:07:09Z</time>
      </trkpt>
      <trkpt lat="45.62517" lon="4.57018">
        <ele>755.4</ele>
        <time>2019-04-28T09:07:11Z</time>
      </trkpt>
      <trkpt lat="45.62536" lon="4.57044">
        <ele>755.5</ele>
        <time>2019-04-28T09:07:16Z</time>
      </trkpt>
      <trkpt lat="45.62543" lon="4.57055">
        <ele>755.6</ele>
        <time>2019-04-28T09:07:18Z</time>
      </trkpt>
      <trkpt lat="45.62564" lon="4.57083">
        <ele>755.9</ele>
        <time>2019-04-28T09:07:24Z</time>
      </trkpt>
      <trkpt lat="45.62568" lon="4.57087">
        <ele>756</ele>
        <time>2019-04-28T09:07:25Z</time>
      </trkpt>
      <trkpt lat="45.62586" lon="4.57111">
        <ele>756.4</ele>
        <time>2019-04-28T09:07:30Z</time>
      </trkpt>
      <trkpt lat="45.62592" lon="4.57123">
        <ele>756.5</ele>
        <time>2019-04-28T09:07:32Z</time>
      </trkpt>
      <trkpt lat="45.62601" lon="4.5714">
        <ele>756.7</ele>
        <time>2019-04-28T09:07:35Z</time>
      </trkpt>
      <trkpt lat="45.62612" lon="4.57159">
        <ele>756.9</ele>
        <time>2019-04-28T09:07:39Z</time>
      </trkpt>
      <trkpt lat="45.62621" lon="4.57186">
        <ele>757.5</ele>
        <time>2019-04-28T09:07:44Z</time>
      </trkpt>
      <trkpt lat="45.62621" lon="4.57192">
        <ele>757.6</ele>
        <time>2019-04-28T09:07:45Z</time>
      </trkpt>
      <trkpt lat="45.62618" lon="4.57212">
        <ele>757.9</ele>
        <time>2019-04-28T09:07:48Z</time>
      </trkpt>
      <trkpt lat="45.62618" lon="4.57219">
        <ele>757.9</ele>
        <time>2019-04-28T09:07:49Z</time>
      </trkpt>
      <trkpt lat="45.62619" lon="4.57265">
        <ele>758.6</ele>
        <time>2019-04-28T09:07:55Z</time>
      </trkpt>
      <trkpt lat="45.62614" lon="4.5731">
        <ele>759.1</ele>
        <time>2019-04-28T09:08:01Z</time>
      </trkpt>
      <trkpt lat="45.62613" lon="4.57358">
        <ele>759.5</ele>
        <time>2019-04-28T09:08:06Z</time>
      </trkpt>
      <trkpt lat="45.62613" lon="4.57377">
        <ele>759.6</ele>
        <time>2019-04-28T09:08:08Z</time>
      </trkpt>
      <trkpt lat="45.6261" lon="4.57423">
        <ele>759.7</ele>
        <time>2019-04-28T09:08:13Z</time>
      </trkpt>
      <trkpt lat="45.62605" lon="4.5746">
        <ele>759.8</ele>
        <time>2019-04-28T09:08:18Z</time>
      </trkpt>
      <trkpt lat="45.62603" lon="4.57469">
        <ele>759.8</ele>
        <time>2019-04-28T09:08:19Z</time>
      </trkpt>
      <trkpt lat="45.62601" lon="4.57478">
        <ele>759.8</ele>
        <time>2019-04-28T09:08:20Z</time>
      </trkpt>
      <trkpt lat="45.62595" lon="4.57497">
        <ele>759.8</ele>
        <time>2019-04-28T09:08:22Z</time>
      </trkpt>
      <trkpt lat="45.62593" lon="4.57506">
        <ele>759.8</ele>
        <time>2019-04-28T09:08:23Z</time>
      </trkpt>
      <trkpt lat="45.6259" lon="4.57524">
        <ele>759.8</ele>
        <time>2019-04-28T09:08:25Z</time>
      </trkpt>
      <trkpt lat="45.62588" lon="4.57541">
        <ele>759.7</ele>
        <time>2019-04-28T09:08:27Z</time>
      </trkpt>
      <trkpt lat="45.62587" lon="4.57549">
        <ele>759.7</ele>
        <time>2019-04-28T09:08:28Z</time>
      </trkpt>
      <trkpt lat="45.62586" lon="4.57554">
        <ele>759.7</ele>
        <time>2019-04-28T09:08:29Z</time>
      </trkpt>
      <trkpt lat="45.62583" lon="4.57563">
        <ele>759.4</ele>
        <time>2019-04-28T09:08:31Z</time>
      </trkpt>
      <trkpt lat="45.62581" lon="4.5757">
        <ele>758.9</ele>
        <time>2019-04-28T09:08:33Z</time>
      </trkpt>
      <trkpt lat="45.62577" lon="4.5758">
        <ele>758.5</ele>
        <time>2019-04-28T09:12:57Z</time>
      </trkpt>
      <trkpt lat="45.62573" lon="4.57585">
        <ele>758.2</ele>
        <time>2019-04-28T09:12:59Z</time>
      </trkpt>
      <trkpt lat="45.62565" lon="4.57601">
        <ele>757.4</ele>
        <time>2019-04-28T09:13:03Z</time>
      </trkpt>
      <trkpt lat="45.62559" lon="4.57612">
        <ele>756.9</ele>
        <time>2019-04-28T09:13:05Z</time>
      </trkpt>
      <trkpt lat="45.62555" lon="4.57618">
        <ele>756.5</ele>
        <time>2019-04-28T09:13:06Z</time>
      </trkpt>
      <trkpt lat="45.62547" lon="4.57635">
        <ele>755.5</ele>
        <time>2019-04-28T09:13:09Z</time>
      </trkpt>
      <trkpt lat="45.62545" lon="4.57643">
        <ele>755.2</ele>
        <time>2019-04-28T09:13:10Z</time>
      </trkpt>
      <trkpt lat="45.62542" lon="4.57668">
        <ele>753.8</ele>
        <time>2019-04-28T09:13:13Z</time>
      </trkpt>
      <trkpt lat="45.62545" lon="4.57686">
        <ele>752.9</ele>
        <time>2019-04-28T09:13:15Z</time>
      </trkpt>
      <trkpt lat="45.6255" lon="4.57694">
        <ele>752.3</ele>
        <time>2019-04-28T09:13:16Z</time>
      </trkpt>
      <trkpt lat="45.62559" lon="4.57707">
        <ele>751.3</ele>
        <time>2019-04-28T09:13:18Z</time>
      </trkpt>
      <trkpt lat="45.62562" lon="4.57714">
        <ele>750.9</ele>
        <time>2019-04-28T09:13:19Z</time>
      </trkpt>
      <trkpt lat="45.62566" lon="4.5772">
        <ele>750.5</ele>
        <time>2019-04-28T09:13:20Z</time>
      </trkpt>
      <trkpt lat="45.6257" lon="4.57727">
        <ele>750.2</ele>
        <time>2019-04-28T09:13:21Z</time>
      </trkpt>
      <trkpt lat="45.62584" lon="4.57745">
        <ele>749.4</ele>
        <time>2019-04-28T09:13:24Z</time>
      </trkpt>
      <trkpt lat="45.62592" lon="4.57756">
        <ele>748.9</ele>
        <time>2019-04-28T09:13:26Z</time>
      </trkpt>
      <trkpt lat="45.62598" lon="4.57768">
        <ele>748.6</ele>
        <time>2019-04-28T09:13:28Z</time>
      </trkpt>
      <trkpt lat="45.62601" lon="4.57783">
        <ele>748.2</ele>
        <time>2019-04-28T09:13:30Z</time>
      </trkpt>
      <trkpt lat="45.62602" lon="4.5779">
        <ele>748.1</ele>
        <time>2019-04-28T09:13:31Z</time>
      </trkpt>
      <trkpt lat="45.62603" lon="4.57806">
        <ele>747.9</ele>
        <time>2019-04-28T09:13:33Z</time>
      </trkpt>
      <trkpt lat="45.62604" lon="4.5783">
        <ele>747.5</ele>
        <time>2019-04-28T09:13:36Z</time>
      </trkpt>
      <trkpt lat="45.62606" lon="4.57836">
        <ele>747.4</ele>
        <time>2019-04-28T09:13:37Z</time>
      </trkpt>
      <trkpt lat="45.62613" lon="4.57847">
        <ele>747.4</ele>
        <time>2019-04-28T09:13:39Z</time>
      </trkpt>
      <trkpt lat="45.62621" lon="4.57857">
        <ele>747.3</ele>
        <time>2019-04-28T09:13:41Z</time>
      </trkpt>
      <trkpt lat="45.62627" lon="4.57869">
        <ele>747.4</ele>
        <time>2019-04-28T09:13:43Z</time>
      </trkpt>
      <trkpt lat="45.6263" lon="4.57883">
        <ele>747.5</ele>
        <time>2019-04-28T09:13:45Z</time>
      </trkpt>
      <trkpt lat="45.62637" lon="4.5791">
        <ele>747.9</ele>
        <time>2019-04-28T09:13:49Z</time>
      </trkpt>
      <trkpt lat="45.62638" lon="4.57916">
        <ele>748</ele>
        <time>2019-04-28T09:13:50Z</time>
      </trkpt>
      <trkpt lat="45.62639" lon="4.57922">
        <ele>748.1</ele>
        <time>2019-04-28T09:13:51Z</time>
      </trkpt>
      <trkpt lat="45.62645" lon="4.57934">
        <ele>748.4</ele>
        <time>2019-04-28T09:13:54Z</time>
      </trkpt>
      <trkpt lat="45.62648" lon="4.57938">
        <ele>748.5</ele>
        <time>2019-04-28T09:13:55Z</time>
      </trkpt>
      <trkpt lat="45.62654" lon="4.5795">
        <ele>748.7</ele>
        <time>2019-04-28T09:13:58Z</time>
      </trkpt>
      <trkpt lat="45.62659" lon="4.57957">
        <ele>748.9</ele>
        <time>2019-04-28T09:14:00Z</time>
      </trkpt>
      <trkpt lat="45.62663" lon="4.57966">
        <ele>749.1</ele>
        <time>2019-04-28T09:14:02Z</time>
      </trkpt>
      <trkpt lat="45.62668" lon="4.57978">
        <ele>749.2</ele>
        <time>2019-04-28T09:14:05Z</time>
      </trkpt>
      <trkpt lat="45.62675" lon="4.58001">
        <ele>749.5</ele>
        <time>2019-04-28T09:14:11Z</time>
      </trkpt>
      <trkpt lat="45.62677" lon="4.58005">
        <ele>749.5</ele>
        <time>2019-04-28T09:14:12Z</time>
      </trkpt>
      <trkpt lat="45.62686" lon="4.58036">
        <ele>750</ele>
        <time>2019-04-28T09:14:18Z</time>
      </trkpt>
      <trkpt lat="45.62698" lon="4.58071">
        <ele>750.6</ele>
        <time>2019-04-28T09:14:26Z</time>
      </trkpt>
      <trkpt lat="45.62708" lon="4.58102">
        <ele>751.2</ele>
        <time>2019-04-28T09:14:33Z</time>
      </trkpt>
      <trkpt lat="45.62717" lon="4.58134">
        <ele>751.8</ele>
        <time>2019-04-28T09:14:40Z</time>
      </trkpt>
      <trkpt lat="45.62727" lon="4.58164">
        <ele>752.3</ele>
        <time>2019-04-28T09:14:47Z</time>
      </trkpt>
      <trkpt lat="45.62739" lon="4.58203">
        <ele>753</ele>
        <time>2019-04-28T09:14:56Z</time>
      </trkpt>
      <trkpt lat="45.6274" lon="4.58207">
        <ele>753</ele>
        <time>2019-04-28T09:14:57Z</time>
      </trkpt>
      <trkpt lat="45.62748" lon="4.58233">
        <ele>753.4</ele>
        <time>2019-04-28T09:15:03Z</time>
      </trkpt>
      <trkpt lat="45.62749" lon="4.58237">
        <ele>753.5</ele>
        <time>2019-04-28T09:15:04Z</time>
      </trkpt>
      <trkpt lat="45.62756" lon="4.58252">
        <ele>753.8</ele>
        <time>2019-04-28T09:15:09Z</time>
      </trkpt>
      <trkpt lat="45.62761" lon="4.58255">
        <ele>753.9</ele>
        <time>2019-04-28T09:15:11Z</time>
      </trkpt>
      <trkpt lat="45.62768" lon="4.58258">
        <ele>753.7</ele>
        <time>2019-04-28T09:15:13Z</time>
      </trkpt>
      <trkpt lat="45.6279" lon="4.58262">
        <ele>752.5</ele>
        <time>2019-04-28T09:15:18Z</time>
      </trkpt>
      <trkpt lat="45.62795" lon="4.58263">
        <ele>752</ele>
        <time>2019-04-28T09:15:19Z</time>
      </trkpt>
      <trkpt lat="45.6281" lon="4.58263">
        <ele>750.7</ele>
        <time>2019-04-28T09:15:22Z</time>
      </trkpt>
      <trkpt lat="45.6282" lon="4.58262">
        <ele>750</ele>
        <time>2019-04-28T09:15:24Z</time>
      </trkpt>
      <trkpt lat="45.62827" lon="4.58264">
        <ele>749.6</ele>
        <time>2019-04-28T09:15:25Z</time>
      </trkpt>
      <trkpt lat="45.62838" lon="4.58271">
        <ele>749</ele>
        <time>2019-04-28T09:15:27Z</time>
      </trkpt>
      <trkpt lat="45.62842" lon="4.58275">
        <ele>748.8</ele>
        <time>2019-04-28T09:15:28Z</time>
      </trkpt>
      <trkpt lat="45.62852" lon="4.5828">
        <ele>748.6</ele>
        <time>2019-04-28T09:15:31Z</time>
      </trkpt>
      <trkpt lat="45.62855" lon="4.58282">
        <ele>748.6</ele>
        <time>2019-04-28T09:15:32Z</time>
      </trkpt>
      <trkpt lat="45.62868" lon="4.58286">
        <ele>749.3</ele>
        <time>2019-04-28T09:15:35Z</time>
      </trkpt>
      <trkpt lat="45.62871" lon="4.58285">
        <ele>749.5</ele>
        <time>2019-04-28T09:15:36Z</time>
      </trkpt>
      <trkpt lat="45.62875" lon="4.58286">
        <ele>749.7</ele>
        <time>2019-04-28T09:15:37Z</time>
      </trkpt>
      <trkpt lat="45.62882" lon="4.58281">
        <ele>750.2</ele>
        <time>2019-04-28T09:15:40Z</time>
      </trkpt>
      <trkpt lat="45.62894" lon="4.58271">
        <ele>751.3</ele>
        <time>2019-04-28T09:15:46Z</time>
      </trkpt>
      <trkpt lat="45.62901" lon="4.58262">
        <ele>751.9</ele>
        <time>2019-04-28T09:15:52Z</time>
      </trkpt>
      <trkpt lat="45.62903" lon="4.58259">
        <ele>751.8</ele>
        <time>2019-04-28T09:15:54Z</time>
      </trkpt>
      <trkpt lat="45.62905" lon="4.58252">
        <ele>751.8</ele>
        <time>2019-04-28T09:15:58Z</time>
      </trkpt>
      <trkpt lat="45.62905" lon="4.58249">
        <ele>751.8</ele>
        <time>2019-04-28T09:16:00Z</time>
      </trkpt>
      <trkpt lat="45.6291" lon="4.58234">
        <ele>751.7</ele>
        <time>2019-04-28T09:16:07Z</time>
      </trkpt>
      <trkpt lat="45.62915" lon="4.58214">
        <ele>751.6</ele>
        <time>2019-04-28T09:16:14Z</time>
      </trkpt>
      <trkpt lat="45.62915" lon="4.58193">
        <ele>751.7</ele>
        <time>2019-04-28T09:16:20Z</time>
      </trkpt>
      <trkpt lat="45.62911" lon="4.58165">
        <ele>752.1</ele>
        <time>2019-04-28T09:16:28Z</time>
      </trkpt>
      <trkpt lat="45.62908" lon="4.58135">
        <ele>752.9</ele>
        <time>2019-04-28T09:16:36Z</time>
      </trkpt>
      <trkpt lat="45.62904" lon="4.581">
        <ele>753.8</ele>
        <time>2019-04-28T09:16:45Z</time>
      </trkpt>
      <trkpt lat="45.62902" lon="4.58073">
        <ele>754.4</ele>
        <time>2019-04-28T09:16:52Z</time>
      </trkpt>
      <trkpt lat="45.62902" lon="4.58066">
        <ele>754.5</ele>
        <time>2019-04-28T09:16:54Z</time>
      </trkpt>
      <trkpt lat="45.62901" lon="4.58041">
        <ele>755.4</ele>
        <time>2019-04-28T09:17:01Z</time>
      </trkpt>
      <trkpt lat="45.629" lon="4.58031">
        <ele>755.7</ele>
        <time>2019-04-28T09:17:04Z</time>
      </trkpt>
      <trkpt lat="45.629" lon="4.58015">
        <ele>756.2</ele>
        <time>2019-04-28T09:17:09Z</time>
      </trkpt>
      <trkpt lat="45.62899" lon="4.58001">
        <ele>756.6</ele>
        <time>2019-04-28T09:17:13Z</time>
      </trkpt>
      <trkpt lat="45.62899" lon="4.57987">
        <ele>757.2</ele>
        <time>2019-04-28T09:17:17Z</time>
      </trkpt>
      <trkpt lat="45.62898" lon="4.5797">
        <ele>757.8</ele>
        <time>2019-04-28T09:17:22Z</time>
      </trkpt>
      <trkpt lat="45.62898" lon="4.57957">
        <ele>758.4</ele>
        <time>2019-04-28T09:17:26Z</time>
      </trkpt>
      <trkpt lat="45.62898" lon="4.57954">
        <ele>758.5</ele>
        <time>2019-04-28T09:17:27Z</time>
      </trkpt>
      <trkpt lat="45.62898" lon="4.57935">
        <ele>759.1</ele>
        <time>2019-04-28T09:17:33Z</time>
      </trkpt>
      <trkpt lat="45.62898" lon="4.57929">
        <ele>759.3</ele>
        <time>2019-04-28T09:17:35Z</time>
      </trkpt>
      <trkpt lat="45.62899" lon="4.57917">
        <ele>759.8</ele>
        <time>2019-04-28T09:17:40Z</time>
      </trkpt>
      <trkpt lat="45.629" lon="4.57897">
        <ele>760.6</ele>
        <time>2019-04-28T09:17:47Z</time>
      </trkpt>
      <trkpt lat="45.62903" lon="4.57876">
        <ele>761.4</ele>
        <time>2019-04-28T09:17:52Z</time>
      </trkpt>
      <trkpt lat="45.62904" lon="4.57873">
        <ele>761.5</ele>
        <time>2019-04-28T09:17:53Z</time>
      </trkpt>
      <trkpt lat="45.62908" lon="4.5784">
        <ele>762.6</ele>
        <time>2019-04-28T09:18:02Z</time>
      </trkpt>
      <trkpt lat="45.62908" lon="4.57836">
        <ele>762.7</ele>
        <time>2019-04-28T09:18:03Z</time>
      </trkpt>
      <trkpt lat="45.62911" lon="4.57816">
        <ele>763.5</ele>
        <time>2019-04-28T09:18:09Z</time>
      </trkpt>
      <trkpt lat="45.62913" lon="4.57807">
        <ele>763.7</ele>
        <time>2019-04-28T09:18:12Z</time>
      </trkpt>
      <trkpt lat="45.62915" lon="4.57795">
        <ele>764.1</ele>
        <time>2019-04-28T09:18:16Z</time>
      </trkpt>
      <trkpt lat="45.62927" lon="4.57766">
        <ele>764.8</ele>
        <time>2019-04-28T09:18:25Z</time>
      </trkpt>
      <trkpt lat="45.6294" lon="4.57747">
        <ele>765.3</ele>
        <time>2019-04-28T09:18:32Z</time>
      </trkpt>
      <trkpt lat="45.62944" lon="4.57741">
        <ele>765.3</ele>
        <time>2019-04-28T09:18:34Z</time>
      </trkpt>
      <trkpt lat="45.62958" lon="4.57722">
        <ele>765.4</ele>
        <time>2019-04-28T09:18:41Z</time>
      </trkpt>
      <trkpt lat="45.62962" lon="4.57717">
        <ele>765.4</ele>
        <time>2019-04-28T09:18:43Z</time>
      </trkpt>
      <trkpt lat="45.6298" lon="4.57696">
        <ele>765.1</ele>
        <time>2019-04-28T09:18:50Z</time>
      </trkpt>
      <trkpt lat="45.63001" lon="4.57674">
        <ele>764.2</ele>
        <time>2019-04-28T09:18:56Z</time>
      </trkpt>
      <trkpt lat="45.63008" lon="4.57665">
        <ele>763.8</ele>
        <time>2019-04-28T09:18:58Z</time>
      </trkpt>
      <trkpt lat="45.63027" lon="4.57644">
        <ele>762.9</ele>
        <time>2019-04-28T09:19:03Z</time>
      </trkpt>
      <trkpt lat="45.63035" lon="4.57635">
        <ele>762.4</ele>
        <time>2019-04-28T09:19:05Z</time>
      </trkpt>
      <trkpt lat="45.63038" lon="4.5763">
        <ele>762.3</ele>
        <time>2019-04-28T09:19:06Z</time>
      </trkpt>
      <trkpt lat="45.63048" lon="4.57615">
        <ele>761.9</ele>
        <time>2019-04-28T09:19:09Z</time>
      </trkpt>
      <trkpt lat="45.63068" lon="4.57585">
        <ele>761.7</ele>
        <time>2019-04-28T09:19:15Z</time>
      </trkpt>
      <trkpt lat="45.63075" lon="4.57576">
        <ele>761.8</ele>
        <time>2019-04-28T09:19:17Z</time>
      </trkpt>
      <trkpt lat="45.63087" lon="4.57566">
        <ele>762</ele>
        <time>2019-04-28T09:19:20Z</time>
      </trkpt>
      <trkpt lat="45.63094" lon="4.5756">
        <ele>762.1</ele>
        <time>2019-04-28T09:19:23Z</time>
      </trkpt>
      <trkpt lat="45.63099" lon="4.57558">
        <ele>762.2</ele>
        <time>2019-04-28T09:19:25Z</time>
      </trkpt>
      <trkpt lat="45.63107" lon="4.5756">
        <ele>762.3</ele>
        <time>2019-04-28T09:19:28Z</time>
      </trkpt>
      <trkpt lat="45.63122" lon="4.57566">
        <ele>762.5</ele>
        <time>2019-04-28T09:19:34Z</time>
      </trkpt>
      <trkpt lat="45.63135" lon="4.57569">
        <ele>762.7</ele>
        <time>2019-04-28T09:19:40Z</time>
      </trkpt>
      <trkpt lat="45.63138" lon="4.57572">
        <ele>762.8</ele>
        <time>2019-04-28T09:19:42Z</time>
      </trkpt>
      <trkpt lat="45.63145" lon="4.57592">
        <ele>764.2</ele>
        <time>2019-04-28T09:19:49Z</time>
      </trkpt>
      <trkpt lat="45.63146" lon="4.57595">
        <ele>764.4</ele>
        <time>2019-04-28T09:19:50Z</time>
      </trkpt>
      <trkpt lat="45.6315" lon="4.57615">
        <ele>765.6</ele>
        <time>2019-04-28T09:19:57Z</time>
      </trkpt>
      <trkpt lat="45.6315" lon="4.57617">
        <ele>765.8</ele>
        <time>2019-04-28T09:19:58Z</time>
      </trkpt>
      <trkpt lat="45.63151" lon="4.57628">
        <ele>766.7</ele>
        <time>2019-04-28T09:20:02Z</time>
      </trkpt>
      <trkpt lat="45.63152" lon="4.57644">
        <ele>767.9</ele>
        <time>2019-04-28T09:20:08Z</time>
      </trkpt>
      <trkpt lat="45.63152" lon="4.57651">
        <ele>768.4</ele>
        <time>2019-04-28T09:20:11Z</time>
      </trkpt>
      <trkpt lat="45.63153" lon="4.5766">
        <ele>769.2</ele>
        <time>2019-04-28T09:20:15Z</time>
      </trkpt>
      <trkpt lat="45.63154" lon="4.57669">
        <ele>770.1</ele>
        <time>2019-04-28T09:20:19Z</time>
      </trkpt>
      <trkpt lat="45.63154" lon="4.57679">
        <ele>770.8</ele>
        <time>2019-04-28T09:20:23Z</time>
      </trkpt>
      <trkpt lat="45.63155" lon="4.57692">
        <ele>771.6</ele>
        <time>2019-04-28T09:20:29Z</time>
      </trkpt>
      <trkpt lat="45.63156" lon="4.57698">
        <ele>772.1</ele>
        <time>2019-04-28T09:20:32Z</time>
      </trkpt>
      <trkpt lat="45.63157" lon="4.57702">
        <ele>772.4</ele>
        <time>2019-04-28T09:20:34Z</time>
      </trkpt>
      <trkpt lat="45.63159" lon="4.57712">
        <ele>773.3</ele>
        <time>2019-04-28T09:20:39Z</time>
      </trkpt>
      <trkpt lat="45.63161" lon="4.57718">
        <ele>773.9</ele>
        <time>2019-04-28T09:20:42Z</time>
      </trkpt>
      <trkpt lat="45.63164" lon="4.57727">
        <ele>774.6</ele>
        <time>2019-04-28T09:20:46Z</time>
      </trkpt>
      <trkpt lat="45.63166" lon="4.57738">
        <ele>775.4</ele>
        <time>2019-04-28T09:20:51Z</time>
      </trkpt>
      <trkpt lat="45.63167" lon="4.5774">
        <ele>775.6</ele>
        <time>2019-04-28T09:20:52Z</time>
      </trkpt>
      <trkpt lat="45.6317" lon="4.57753">
        <ele>776.9</ele>
        <time>2019-04-28T09:20:58Z</time>
      </trkpt>
      <trkpt lat="45.63171" lon="4.57755">
        <ele>777.2</ele>
        <time>2019-04-28T09:20:59Z</time>
      </trkpt>
      <trkpt lat="45.63173" lon="4.57764">
        <ele>778.1</ele>
        <time>2019-04-28T09:21:03Z</time>
      </trkpt>
      <trkpt lat="45.63176" lon="4.57776">
        <ele>779.1</ele>
        <time>2019-04-28T09:21:09Z</time>
      </trkpt>
      <trkpt lat="45.63177" lon="4.57778">
        <ele>779.2</ele>
        <time>2019-04-28T09:21:10Z</time>
      </trkpt>
      <trkpt lat="45.63179" lon="4.57787">
        <ele>780.1</ele>
        <time>2019-04-28T09:21:14Z</time>
      </trkpt>
      <trkpt lat="45.6318" lon="4.57793">
        <ele>780.7</ele>
        <time>2019-04-28T09:21:17Z</time>
      </trkpt>
      <trkpt lat="45.63182" lon="4.57799">
        <ele>781.3</ele>
        <time>2019-04-28T09:21:20Z</time>
      </trkpt>
      <trkpt lat="45.63185" lon="4.57812">
        <ele>782.7</ele>
        <time>2019-04-28T09:21:26Z</time>
      </trkpt>
      <trkpt lat="45.63185" lon="4.57814">
        <ele>782.9</ele>
        <time>2019-04-28T09:21:27Z</time>
      </trkpt>
      <trkpt lat="45.63188" lon="4.57823">
        <ele>783.7</ele>
        <time>2019-04-28T09:21:31Z</time>
      </trkpt>
      <trkpt lat="45.63189" lon="4.5783">
        <ele>784.4</ele>
        <time>2019-04-28T09:21:34Z</time>
      </trkpt>
      <trkpt lat="45.63189" lon="4.57832">
        <ele>784.6</ele>
        <time>2019-04-28T09:21:35Z</time>
      </trkpt>
      <trkpt lat="45.63192" lon="4.5784">
        <ele>785.6</ele>
        <time>2019-04-28T09:21:39Z</time>
      </trkpt>
      <trkpt lat="45.63194" lon="4.57848">
        <ele>786.5</ele>
        <time>2019-04-28T09:21:43Z</time>
      </trkpt>
      <trkpt lat="45.63194" lon="4.5785">
        <ele>786.7</ele>
        <time>2019-04-28T09:21:44Z</time>
      </trkpt>
      <trkpt lat="45.63196" lon="4.57857">
        <ele>787.5</ele>
        <time>2019-04-28T09:21:48Z</time>
      </trkpt>
      <trkpt lat="45.63197" lon="4.57863">
        <ele>788.3</ele>
        <time>2019-04-28T09:21:51Z</time>
      </trkpt>
      <trkpt lat="45.63198" lon="4.57869">
        <ele>789</ele>
        <time>2019-04-28T09:21:54Z</time>
      </trkpt>
      <trkpt lat="45.63201" lon="4.57875">
        <ele>789.8</ele>
        <time>2019-04-28T09:21:57Z</time>
      </trkpt>
      <trkpt lat="45.63201" lon="4.57877">
        <ele>790.1</ele>
        <time>2019-04-28T09:21:58Z</time>
      </trkpt>
      <trkpt lat="45.63204" lon="4.57885">
        <ele>790.9</ele>
        <time>2019-04-28T09:22:02Z</time>
      </trkpt>
      <trkpt lat="45.63207" lon="4.57892">
        <ele>791.7</ele>
        <time>2019-04-28T09:22:06Z</time>
      </trkpt>
      <trkpt lat="45.63208" lon="4.57897">
        <ele>792.1</ele>
        <time>2019-04-28T09:22:08Z</time>
      </trkpt>
      <trkpt lat="45.63212" lon="4.57908">
        <ele>793.2</ele>
        <time>2019-04-28T09:22:13Z</time>
      </trkpt>
      <trkpt lat="45.63213" lon="4.5791">
        <ele>793.5</ele>
        <time>2019-04-28T09:22:14Z</time>
      </trkpt>
      <trkpt lat="45.63218" lon="4.57922">
        <ele>794.9</ele>
        <time>2019-04-28T09:22:20Z</time>
      </trkpt>
      <trkpt lat="45.63223" lon="4.57939">
        <ele>796.8</ele>
        <time>2019-04-28T09:22:28Z</time>
      </trkpt>
      <trkpt lat="45.63223" lon="4.57941">
        <ele>797</ele>
        <time>2019-04-28T09:22:29Z</time>
      </trkpt>
      <trkpt lat="45.63226" lon="4.57949">
        <ele>797.9</ele>
        <time>2019-04-28T09:22:33Z</time>
      </trkpt>
      <trkpt lat="45.6323" lon="4.57959">
        <ele>799</ele>
        <time>2019-04-28T09:22:38Z</time>
      </trkpt>
      <trkpt lat="45.6323" lon="4.57961">
        <ele>799.2</ele>
        <time>2019-04-28T09:22:39Z</time>
      </trkpt>
      <trkpt lat="45.63233" lon="4.57969">
        <ele>800.3</ele>
        <time>2019-04-28T09:22:43Z</time>
      </trkpt>
      <trkpt lat="45.63236" lon="4.57975">
        <ele>801.1</ele>
        <time>2019-04-28T09:22:46Z</time>
      </trkpt>
      <trkpt lat="45.63237" lon="4.57979">
        <ele>801.6</ele>
        <time>2019-04-28T09:22:48Z</time>
      </trkpt>
      <trkpt lat="45.6324" lon="4.57987">
        <ele>802.7</ele>
        <time>2019-04-28T09:22:52Z</time>
      </trkpt>
      <trkpt lat="45.63241" lon="4.57991">
        <ele>803.3</ele>
        <time>2019-04-28T09:22:54Z</time>
      </trkpt>
      <trkpt lat="45.63244" lon="4.57997">
        <ele>803.9</ele>
        <time>2019-04-28T09:22:57Z</time>
      </trkpt>
      <trkpt lat="45.63246" lon="4.58005">
        <ele>804.8</ele>
        <time>2019-04-28T09:23:01Z</time>
      </trkpt>
      <trkpt lat="45.63248" lon="4.58011">
        <ele>805.6</ele>
        <time>2019-04-28T09:23:04Z</time>
      </trkpt>
      <trkpt lat="45.6325" lon="4.58019">
        <ele>806.6</ele>
        <time>2019-04-28T09:23:08Z</time>
      </trkpt>
      <trkpt lat="45.63252" lon="4.58024">
        <ele>807.3</ele>
        <time>2019-04-28T09:23:11Z</time>
      </trkpt>
      <trkpt lat="45.63252" lon="4.58026">
        <ele>807.5</ele>
        <time>2019-04-28T09:23:12Z</time>
      </trkpt>
      <trkpt lat="45.63254" lon="4.58033">
        <ele>808.4</ele>
        <time>2019-04-28T09:23:16Z</time>
      </trkpt>
      <trkpt lat="45.63255" lon="4.58034">
        <ele>808.7</ele>
        <time>2019-04-28T09:23:17Z</time>
      </trkpt>
      <trkpt lat="45.63259" lon="4.5804">
        <ele>810.2</ele>
        <time>2019-04-28T09:23:22Z</time>
      </trkpt>
      <trkpt lat="45.63262" lon="4.5804">
        <ele>810.2</ele>
        <time>2019-04-28T09:23:24Z</time>
      </trkpt>
      <trkpt lat="45.63264" lon="4.5804">
        <ele>810.3</ele>
        <time>2019-04-28T09:23:26Z</time>
      </trkpt>
      <trkpt lat="45.63266" lon="4.5804">
        <ele>810.3</ele>
        <time>2019-04-28T09:23:27Z</time>
      </trkpt>
      <trkpt lat="45.6327" lon="4.58037">
        <ele>810.3</ele>
        <time>2019-04-28T09:23:30Z</time>
      </trkpt>
      <trkpt lat="45.63281" lon="4.58029">
        <ele>810.6</ele>
        <time>2019-04-28T09:23:36Z</time>
      </trkpt>
      <trkpt lat="45.63284" lon="4.58027">
        <ele>810.7</ele>
        <time>2019-04-28T09:23:38Z</time>
      </trkpt>
      <trkpt lat="45.63301" lon="4.58017">
        <ele>811.7</ele>
        <time>2019-04-28T09:23:47Z</time>
      </trkpt>
      <trkpt lat="45.63306" lon="4.58013">
        <ele>812.1</ele>
        <time>2019-04-28T09:23:50Z</time>
      </trkpt>
      <trkpt lat="45.63318" lon="4.58003">
        <ele>813</ele>
        <time>2019-04-28T09:23:56Z</time>
      </trkpt>
      <trkpt lat="45.63337" lon="4.57987">
        <ele>813.3</ele>
        <time>2019-04-28T09:24:05Z</time>
      </trkpt>
      <trkpt lat="45.63352" lon="4.57972">
        <ele>813.1</ele>
        <time>2019-04-28T09:24:12Z</time>
      </trkpt>
      <trkpt lat="45.63366" lon="4.57955">
        <ele>813.3</ele>
        <time>2019-04-28T09:24:19Z</time>
      </trkpt>
      <trkpt lat="45.63383" lon="4.57944">
        <ele>813.9</ele>
        <time>2019-04-28T09:24:25Z</time>
      </trkpt>
      <trkpt lat="45.63403" lon="4.57934">
        <ele>815.1</ele>
        <time>2019-04-28T09:24:32Z</time>
      </trkpt>
      <trkpt lat="45.63415" lon="4.57928">
        <ele>815.7</ele>
        <time>2019-04-28T09:24:38Z</time>
      </trkpt>
      <trkpt lat="45.6342" lon="4.57927">
        <ele>816</ele>
        <time>2019-04-28T09:24:40Z</time>
      </trkpt>
      <trkpt lat="45.63435" lon="4.57924">
        <ele>816.5</ele>
        <time>2019-04-28T09:24:45Z</time>
      </trkpt>
      <trkpt lat="45.63437" lon="4.57923">
        <ele>816.5</ele>
        <time>2019-04-28T09:24:46Z</time>
      </trkpt>
      <trkpt lat="45.63448" lon="4.57922">
        <ele>816.5</ele>
        <time>2019-04-28T09:24:51Z</time>
      </trkpt>
      <trkpt lat="45.63453" lon="4.57921">
        <ele>816.5</ele>
        <time>2019-04-28T09:25:06Z</time>
      </trkpt>
      <trkpt lat="45.63472" lon="4.57921">
        <ele>815.7</ele>
        <time>2019-04-28T09:25:11Z</time>
      </trkpt>
      <trkpt lat="45.63477" lon="4.57921">
        <ele>815.5</ele>
        <time>2019-04-28T09:25:12Z</time>
      </trkpt>
      <trkpt lat="45.63486" lon="4.57923">
        <ele>815.2</ele>
        <time>2019-04-28T09:25:14Z</time>
      </trkpt>
      <trkpt lat="45.63497" lon="4.57926">
        <ele>814.9</ele>
        <time>2019-04-28T09:25:16Z</time>
      </trkpt>
      <trkpt lat="45.63517" lon="4.57947">
        <ele>813.8</ele>
        <time>2019-04-28T09:25:20Z</time>
      </trkpt>
      <trkpt lat="45.63524" lon="4.57962">
        <ele>813.1</ele>
        <time>2019-04-28T09:25:22Z</time>
      </trkpt>
      <trkpt lat="45.63527" lon="4.5797">
        <ele>812.8</ele>
        <time>2019-04-28T09:25:23Z</time>
      </trkpt>
      <trkpt lat="45.63529" lon="4.57978">
        <ele>812.6</ele>
        <time>2019-04-28T09:25:24Z</time>
      </trkpt>
      <trkpt lat="45.63535" lon="4.57992">
        <ele>812.4</ele>
        <time>2019-04-28T09:25:26Z</time>
      </trkpt>
      <trkpt lat="45.63539" lon="4.57996">
        <ele>812.3</ele>
        <time>2019-04-28T09:25:27Z</time>
      </trkpt>
      <trkpt lat="45.63553" lon="4.57995">
        <ele>812.1</ele>
        <time>2019-04-28T09:25:30Z</time>
      </trkpt>
      <trkpt lat="45.63557" lon="4.57992">
        <ele>812.1</ele>
        <time>2019-04-28T09:25:31Z</time>
      </trkpt>
      <trkpt lat="45.63576" lon="4.57977">
        <ele>812.3</ele>
        <time>2019-04-28T09:25:35Z</time>
      </trkpt>
      <trkpt lat="45.6358" lon="4.57972">
        <ele>812.4</ele>
        <time>2019-04-28T09:25:36Z</time>
      </trkpt>
      <trkpt lat="45.63598" lon="4.57947">
        <ele>813.4</ele>
        <time>2019-04-28T09:25:41Z</time>
      </trkpt>
      <trkpt lat="45.63609" lon="4.57934">
        <ele>813.7</ele>
        <time>2019-04-28T09:25:44Z</time>
      </trkpt>
      <trkpt lat="45.63617" lon="4.57913">
        <ele>813.7</ele>
        <time>2019-04-28T09:25:48Z</time>
      </trkpt>
      <trkpt lat="45.63618" lon="4.57907">
        <ele>813.7</ele>
        <time>2019-04-28T09:25:49Z</time>
      </trkpt>
      <trkpt lat="45.63622" lon="4.57872">
        <ele>814.1</ele>
        <time>2019-04-28T09:25:54Z</time>
      </trkpt>
      <trkpt lat="45.63632" lon="4.57849">
        <ele>815.1</ele>
        <time>2019-04-28T09:25:58Z</time>
      </trkpt>
      <trkpt lat="45.63646" lon="4.57818">
        <ele>816.7</ele>
        <time>2019-04-28T09:26:04Z</time>
      </trkpt>
      <trkpt lat="45.63655" lon="4.57796">
        <ele>817.9</ele>
        <time>2019-04-28T09:26:10Z</time>
      </trkpt>
      <trkpt lat="45.63661" lon="4.57789">
        <ele>818.7</ele>
        <time>2019-04-28T09:26:13Z</time>
      </trkpt>
      <trkpt lat="45.63667" lon="4.57784">
        <ele>819.2</ele>
        <time>2019-04-28T09:26:16Z</time>
      </trkpt>
      <trkpt lat="45.63673" lon="4.5778">
        <ele>819.7</ele>
        <time>2019-04-28T09:26:20Z</time>
      </trkpt>
      <trkpt lat="45.63678" lon="4.57775">
        <ele>819.9</ele>
        <time>2019-04-28T09:26:24Z</time>
      </trkpt>
      <trkpt lat="45.63679" lon="4.57773">
        <ele>820</ele>
        <time>2019-04-28T09:26:25Z</time>
      </trkpt>
      <trkpt lat="45.63684" lon="4.57769">
        <ele>820.2</ele>
        <time>2019-04-28T09:26:29Z</time>
      </trkpt>
      <trkpt lat="45.63686" lon="4.57768">
        <ele>820.3</ele>
        <time>2019-04-28T09:26:31Z</time>
      </trkpt>
      <trkpt lat="45.6369" lon="4.57765">
        <ele>820.5</ele>
        <time>2019-04-28T09:26:34Z</time>
      </trkpt>
      <trkpt lat="45.63695" lon="4.5776">
        <ele>820.7</ele>
        <time>2019-04-28T09:26:38Z</time>
      </trkpt>
      <trkpt lat="45.63696" lon="4.57759">
        <ele>820.8</ele>
        <time>2019-04-28T09:26:39Z</time>
      </trkpt>
      <trkpt lat="45.63699" lon="4.57756">
        <ele>820.9</ele>
        <time>2019-04-28T09:26:42Z</time>
      </trkpt>
      <trkpt lat="45.63702" lon="4.5775">
        <ele>821.1</ele>
        <time>2019-04-28T09:26:46Z</time>
      </trkpt>
      <trkpt lat="45.63711" lon="4.57733">
        <ele>821.7</ele>
        <time>2019-04-28T09:26:53Z</time>
      </trkpt>
      <trkpt lat="45.63718" lon="4.57718">
        <ele>822.2</ele>
        <time>2019-04-28T09:26:59Z</time>
      </trkpt>
      <trkpt lat="45.63724" lon="4.57698">
        <ele>823</ele>
        <time>2019-04-28T09:27:06Z</time>
      </trkpt>
      <trkpt lat="45.63726" lon="4.5767">
        <ele>823.8</ele>
        <time>2019-04-28T09:27:13Z</time>
      </trkpt>
      <trkpt lat="45.63725" lon="4.57634">
        <ele>824.5</ele>
        <time>2019-04-28T09:27:21Z</time>
      </trkpt>
      <trkpt lat="45.63726" lon="4.57622">
        <ele>824.8</ele>
        <time>2019-04-28T09:27:24Z</time>
      </trkpt>
      <trkpt lat="45.63726" lon="4.57612">
        <ele>825</ele>
        <time>2019-04-28T09:27:27Z</time>
      </trkpt>
      <trkpt lat="45.63729" lon="4.57602">
        <ele>825.4</ele>
        <time>2019-04-28T09:27:30Z</time>
      </trkpt>
      <trkpt lat="45.63734" lon="4.5759">
        <ele>826</ele>
        <time>2019-04-28T09:27:34Z</time>
      </trkpt>
      <trkpt lat="45.63735" lon="4.57587">
        <ele>826.1</ele>
        <time>2019-04-28T09:27:35Z</time>
      </trkpt>
      <trkpt lat="45.63746" lon="4.57565">
        <ele>827</ele>
        <time>2019-04-28T09:27:42Z</time>
      </trkpt>
      <trkpt lat="45.6375" lon="4.57559">
        <ele>827.2</ele>
        <time>2019-04-28T09:27:44Z</time>
      </trkpt>
      <trkpt lat="45.63756" lon="4.57547">
        <ele>827.5</ele>
        <time>2019-04-28T09:27:49Z</time>
      </trkpt>
      <trkpt lat="45.63763" lon="4.57531">
        <ele>826.8</ele>
        <time>2019-04-28T09:27:55Z</time>
      </trkpt>
      <trkpt lat="45.63777" lon="4.57511">
        <ele>825.4</ele>
        <time>2019-04-28T09:28:00Z</time>
      </trkpt>
      <trkpt lat="45.63789" lon="4.57496">
        <ele>824.3</ele>
        <time>2019-04-28T09:28:03Z</time>
      </trkpt>
      <trkpt lat="45.63799" lon="4.57486">
        <ele>823.5</ele>
        <time>2019-04-28T09:28:05Z</time>
      </trkpt>
      <trkpt lat="45.63809" lon="4.57476">
        <ele>822.7</ele>
        <time>2019-04-28T09:28:07Z</time>
      </trkpt>
      <trkpt lat="45.6382" lon="4.57468">
        <ele>822</ele>
        <time>2019-04-28T09:28:09Z</time>
      </trkpt>
      <trkpt lat="45.63826" lon="4.57466">
        <ele>821.5</ele>
        <time>2019-04-28T09:28:10Z</time>
      </trkpt>
      <trkpt lat="45.63838" lon="4.57462">
        <ele>820.5</ele>
        <time>2019-04-28T09:28:12Z</time>
      </trkpt>
      <trkpt lat="45.63849" lon="4.57459">
        <ele>819.3</ele>
        <time>2019-04-28T09:28:14Z</time>
      </trkpt>
      <trkpt lat="45.63856" lon="4.57458">
        <ele>818.4</ele>
        <time>2019-04-28T09:28:15Z</time>
      </trkpt>
      <trkpt lat="45.63863" lon="4.57456">
        <ele>817.6</ele>
        <time>2019-04-28T09:28:16Z</time>
      </trkpt>
      <trkpt lat="45.63878" lon="4.57455">
        <ele>816.4</ele>
        <time>2019-04-28T09:28:18Z</time>
      </trkpt>
      <trkpt lat="45.63892" lon="4.57457">
        <ele>815.4</ele>
        <time>2019-04-28T09:28:20Z</time>
      </trkpt>
      <trkpt lat="45.63905" lon="4.57461">
        <ele>814.3</ele>
        <time>2019-04-28T09:28:22Z</time>
      </trkpt>
      <trkpt lat="45.63919" lon="4.57464">
        <ele>813.2</ele>
        <time>2019-04-28T09:28:24Z</time>
      </trkpt>
      <trkpt lat="45.63933" lon="4.57467">
        <ele>811.9</ele>
        <time>2019-04-28T09:28:26Z</time>
      </trkpt>
      <trkpt lat="45.63946" lon="4.57469">
        <ele>810.6</ele>
        <time>2019-04-28T09:28:28Z</time>
      </trkpt>
      <trkpt lat="45.63956" lon="4.57469">
        <ele>809.3</ele>
        <time>2019-04-28T09:28:30Z</time>
      </trkpt>
      <trkpt lat="45.63966" lon="4.5747">
        <ele>808.3</ele>
        <time>2019-04-28T09:28:32Z</time>
      </trkpt>
      <trkpt lat="45.63974" lon="4.57472">
        <ele>807.2</ele>
        <time>2019-04-28T09:28:34Z</time>
      </trkpt>
      <trkpt lat="45.63979" lon="4.57475">
        <ele>806.7</ele>
        <time>2019-04-28T09:28:35Z</time>
      </trkpt>
      <trkpt lat="45.63982" lon="4.57479">
        <ele>806.2</ele>
        <time>2019-04-28T09:28:36Z</time>
      </trkpt>
      <trkpt lat="45.6399" lon="4.57488">
        <ele>805.1</ele>
        <time>2019-04-28T09:28:38Z</time>
      </trkpt>
      <trkpt lat="45.63998" lon="4.57498">
        <ele>803.9</ele>
        <time>2019-04-28T09:28:40Z</time>
      </trkpt>
      <trkpt lat="45.64006" lon="4.57506">
        <ele>803</ele>
        <time>2019-04-28T09:28:42Z</time>
      </trkpt>
      <trkpt lat="45.64014" lon="4.57508">
        <ele>802.2</ele>
        <time>2019-04-28T09:28:44Z</time>
      </trkpt>
      <trkpt lat="45.64023" lon="4.57507">
        <ele>801</ele>
        <time>2019-04-28T09:28:46Z</time>
      </trkpt>
      <trkpt lat="45.64034" lon="4.57506">
        <ele>800</ele>
        <time>2019-04-28T09:28:48Z</time>
      </trkpt>
      <trkpt lat="45.64039" lon="4.57506">
        <ele>799.5</ele>
        <time>2019-04-28T09:28:49Z</time>
      </trkpt>
      <trkpt lat="45.64045" lon="4.57507">
        <ele>798.9</ele>
        <time>2019-04-28T09:28:50Z</time>
      </trkpt>
      <trkpt lat="45.64062" lon="4.5751">
        <ele>797.7</ele>
        <time>2019-04-28T09:28:53Z</time>
      </trkpt>
      <trkpt lat="45.6408" lon="4.57513">
        <ele>796.5</ele>
        <time>2019-04-28T09:28:56Z</time>
      </trkpt>
      <trkpt lat="45.6409" lon="4.57513">
        <ele>795.8</ele>
        <time>2019-04-28T09:28:58Z</time>
      </trkpt>
      <trkpt lat="45.64096" lon="4.57512">
        <ele>795.5</ele>
        <time>2019-04-28T09:28:59Z</time>
      </trkpt>
      <trkpt lat="45.64101" lon="4.57509">
        <ele>795.1</ele>
        <time>2019-04-28T09:29:00Z</time>
      </trkpt>
      <trkpt lat="45.64113" lon="4.57501">
        <ele>794.5</ele>
        <time>2019-04-28T09:29:02Z</time>
      </trkpt>
      <trkpt lat="45.64131" lon="4.57491">
        <ele>793.3</ele>
        <time>2019-04-28T09:29:05Z</time>
      </trkpt>
      <trkpt lat="45.64137" lon="4.57488">
        <ele>793</ele>
        <time>2019-04-28T09:29:06Z</time>
      </trkpt>
      <trkpt lat="45.64142" lon="4.57484">
        <ele>792.8</ele>
        <time>2019-04-28T09:29:07Z</time>
      </trkpt>
      <trkpt lat="45.64157" lon="4.57476">
        <ele>792</ele>
        <time>2019-04-28T09:29:10Z</time>
      </trkpt>
      <trkpt lat="45.64162" lon="4.57474">
        <ele>791.7</ele>
        <time>2019-04-28T09:29:11Z</time>
      </trkpt>
      <trkpt lat="45.64172" lon="4.57468">
        <ele>790.9</ele>
        <time>2019-04-28T09:29:13Z</time>
      </trkpt>
      <trkpt lat="45.64185" lon="4.57463">
        <ele>789.8</ele>
        <time>2019-04-28T09:29:16Z</time>
      </trkpt>
      <trkpt lat="45.6421" lon="4.57455">
        <ele>788.1</ele>
        <time>2019-04-28T09:29:21Z</time>
      </trkpt>
      <trkpt lat="45.64222" lon="4.57452">
        <ele>787.1</ele>
        <time>2019-04-28T09:29:23Z</time>
      </trkpt>
      <trkpt lat="45.64241" lon="4.57444">
        <ele>785.4</ele>
        <time>2019-04-28T09:29:26Z</time>
      </trkpt>
      <trkpt lat="45.6426" lon="4.57437">
        <ele>783.9</ele>
        <time>2019-04-28T09:29:29Z</time>
      </trkpt>
      <trkpt lat="45.6427" lon="4.57432">
        <ele>783.5</ele>
        <time>2019-04-28T09:29:31Z</time>
      </trkpt>
      <trkpt lat="45.64274" lon="4.57431">
        <ele>783.3</ele>
        <time>2019-04-28T09:29:32Z</time>
      </trkpt>
      <trkpt lat="45.64281" lon="4.57431">
        <ele>783.8</ele>
        <time>2019-04-28T09:29:34Z</time>
      </trkpt>
      <trkpt lat="45.64283" lon="4.57432">
        <ele>784.1</ele>
        <time>2019-04-28T09:29:35Z</time>
      </trkpt>
      <trkpt lat="45.64285" lon="4.57439">
        <ele>784.8</ele>
        <time>2019-04-28T09:29:39Z</time>
      </trkpt>
      <trkpt lat="45.64287" lon="4.57447">
        <ele>785.5</ele>
        <time>2019-04-28T09:29:43Z</time>
      </trkpt>
      <trkpt lat="45.64291" lon="4.57456">
        <ele>786.2</ele>
        <time>2019-04-28T09:29:48Z</time>
      </trkpt>
      <trkpt lat="45.64296" lon="4.57468">
        <ele>787</ele>
        <time>2019-04-28T09:29:54Z</time>
      </trkpt>
      <trkpt lat="45.64298" lon="4.57472">
        <ele>787.2</ele>
        <time>2019-04-28T09:29:56Z</time>
      </trkpt>
      <trkpt lat="45.64301" lon="4.57475">
        <ele>787.4</ele>
        <time>2019-04-28T09:29:58Z</time>
      </trkpt>
      <trkpt lat="45.64305" lon="4.57484">
        <ele>787.8</ele>
        <time>2019-04-28T09:30:03Z</time>
      </trkpt>
      <trkpt lat="45.64309" lon="4.57489">
        <ele>788.1</ele>
        <time>2019-04-28T09:30:06Z</time>
      </trkpt>
      <trkpt lat="45.64314" lon="4.57498">
        <ele>788.6</ele>
        <time>2019-04-28T09:30:11Z</time>
      </trkpt>
      <trkpt lat="45.64316" lon="4.57502">
        <ele>788.8</ele>
        <time>2019-04-28T09:30:13Z</time>
      </trkpt>
      <trkpt lat="45.64323" lon="4.57512">
        <ele>789.3</ele>
        <time>2019-04-28T09:30:18Z</time>
      </trkpt>
      <trkpt lat="45.64331" lon="4.57532">
        <ele>790.3</ele>
        <time>2019-04-28T09:30:26Z</time>
      </trkpt>
      <trkpt lat="45.64336" lon="4.57548">
        <ele>791.1</ele>
        <time>2019-04-28T09:30:32Z</time>
      </trkpt>
      <trkpt lat="45.64338" lon="4.57556">
        <ele>791.6</ele>
        <time>2019-04-28T09:30:35Z</time>
      </trkpt>
      <trkpt lat="45.64341" lon="4.57581">
        <ele>793.1</ele>
        <time>2019-04-28T09:30:44Z</time>
      </trkpt>
      <trkpt lat="45.64341" lon="4.57583">
        <ele>793.2</ele>
        <time>2019-04-28T09:30:45Z</time>
      </trkpt>
      <trkpt lat="45.64339" lon="4.57597">
        <ele>793.9</ele>
        <time>2019-04-28T09:30:51Z</time>
      </trkpt>
      <trkpt lat="45.64339" lon="4.576">
        <ele>794.1</ele>
        <time>2019-04-28T09:30:52Z</time>
      </trkpt>
      <trkpt lat="45.64339" lon="4.57613">
        <ele>794.6</ele>
        <time>2019-04-28T09:30:57Z</time>
      </trkpt>
      <trkpt lat="45.64339" lon="4.57615">
        <ele>794.7</ele>
        <time>2019-04-28T09:30:58Z</time>
      </trkpt>
      <trkpt lat="45.64339" lon="4.57619">
        <ele>794.8</ele>
        <time>2019-04-28T09:31:09Z</time>
      </trkpt>
      <trkpt lat="45.64339" lon="4.57624">
        <ele>795</ele>
        <time>2019-04-28T09:31:11Z</time>
      </trkpt>
      <trkpt lat="45.64336" lon="4.57645">
        <ele>795.8</ele>
        <time>2019-04-28T09:31:19Z</time>
      </trkpt>
      <trkpt lat="45.64333" lon="4.57664">
        <ele>796.8</ele>
        <time>2019-04-28T09:31:26Z</time>
      </trkpt>
      <trkpt lat="45.64332" lon="4.57669">
        <ele>797</ele>
        <time>2019-04-28T09:31:28Z</time>
      </trkpt>
      <trkpt lat="45.64331" lon="4.57681">
        <ele>797.6</ele>
        <time>2019-04-28T09:31:32Z</time>
      </trkpt>
      <trkpt lat="45.6433" lon="4.57689">
        <ele>798.2</ele>
        <time>2019-04-28T09:31:35Z</time>
      </trkpt>
      <trkpt lat="45.64329" lon="4.57701">
        <ele>798.9</ele>
        <time>2019-04-28T09:31:39Z</time>
      </trkpt>
      <trkpt lat="45.64329" lon="4.57703">
        <ele>799</ele>
        <time>2019-04-28T09:31:40Z</time>
      </trkpt>
      <trkpt lat="45.64327" lon="4.57713">
        <ele>799.7</ele>
        <time>2019-04-28T09:31:44Z</time>
      </trkpt>
      <trkpt lat="45.64326" lon="4.57718">
        <ele>800.1</ele>
        <time>2019-04-28T09:31:46Z</time>
      </trkpt>
      <trkpt lat="45.64325" lon="4.57723">
        <ele>800.5</ele>
        <time>2019-04-28T09:31:48Z</time>
      </trkpt>
      <trkpt lat="45.64324" lon="4.57731">
        <ele>801.1</ele>
        <time>2019-04-28T09:31:51Z</time>
      </trkpt>
      <trkpt lat="45.64324" lon="4.57737">
        <ele>801.6</ele>
        <time>2019-04-28T09:31:54Z</time>
      </trkpt>
      <trkpt lat="45.64323" lon="4.57739">
        <ele>801.7</ele>
        <time>2019-04-28T09:31:55Z</time>
      </trkpt>
      <trkpt lat="45.64321" lon="4.5775">
        <ele>802.6</ele>
        <time>2019-04-28T09:32:00Z</time>
      </trkpt>
      <trkpt lat="45.64321" lon="4.57752">
        <ele>802.7</ele>
        <time>2019-04-28T09:32:01Z</time>
      </trkpt>
      <trkpt lat="45.64321" lon="4.57754">
        <ele>802.9</ele>
        <time>2019-04-28T09:32:02Z</time>
      </trkpt>
      <trkpt lat="45.6432" lon="4.57756">
        <ele>803</ele>
        <time>2019-04-28T09:32:03Z</time>
      </trkpt>
      <trkpt lat="45.64319" lon="4.57762">
        <ele>803.5</ele>
        <time>2019-04-28T09:32:06Z</time>
      </trkpt>
      <trkpt lat="45.64319" lon="4.57764">
        <ele>803.7</ele>
        <time>2019-04-28T09:32:07Z</time>
      </trkpt>
      <trkpt lat="45.6432" lon="4.57769">
        <ele>804.1</ele>
        <time>2019-04-28T09:32:10Z</time>
      </trkpt>
      <trkpt lat="45.64323" lon="4.57798">
        <ele>806.5</ele>
        <time>2019-04-28T09:32:25Z</time>
      </trkpt>
      <trkpt lat="45.64324" lon="4.57811">
        <ele>807.4</ele>
        <time>2019-04-28T09:32:32Z</time>
      </trkpt>
      <trkpt lat="45.64326" lon="4.57825">
        <ele>808.3</ele>
        <time>2019-04-28T09:32:38Z</time>
      </trkpt>
      <trkpt lat="45.64326" lon="4.57827">
        <ele>808.5</ele>
        <time>2019-04-28T09:32:39Z</time>
      </trkpt>
      <trkpt lat="45.64325" lon="4.57834">
        <ele>809</ele>
        <time>2019-04-28T09:32:43Z</time>
      </trkpt>
      <trkpt lat="45.6433" lon="4.57882">
        <ele>813.6</ele>
        <time>2019-04-28T09:33:09Z</time>
      </trkpt>
      <trkpt lat="45.64331" lon="4.57896">
        <ele>815.1</ele>
        <time>2019-04-28T09:33:15Z</time>
      </trkpt>
      <trkpt lat="45.6433" lon="4.57897">
        <ele>815.2</ele>
        <time>2019-04-28T09:33:16Z</time>
      </trkpt>
      <trkpt lat="45.64334" lon="4.57928">
        <ele>819</ele>
        <time>2019-04-28T09:33:40Z</time>
      </trkpt>
      <trkpt lat="45.64335" lon="4.57932">
        <ele>819.5</ele>
        <time>2019-04-28T09:33:42Z</time>
      </trkpt>
      <trkpt lat="45.64335" lon="4.57936">
        <ele>820</ele>
        <time>2019-04-28T09:33:44Z</time>
      </trkpt>
      <trkpt lat="45.64322" lon="4.57962">
        <ele>824.4</ele>
        <time>2019-04-28T09:34:07Z</time>
      </trkpt>
      <trkpt lat="45.6432" lon="4.57962">
        <ele>824.8</ele>
        <time>2019-04-28T09:34:09Z</time>
      </trkpt>
      <trkpt lat="45.64318" lon="4.57963">
        <ele>825.4</ele>
        <time>2019-04-28T09:34:11Z</time>
      </trkpt>
      <trkpt lat="45.64317" lon="4.57963">
        <ele>825.7</ele>
        <time>2019-04-28T09:34:12Z</time>
      </trkpt>
      <trkpt lat="45.64314" lon="4.57963">
        <ele>826.3</ele>
        <time>2019-04-28T09:34:15Z</time>
      </trkpt>
      <trkpt lat="45.64295" lon="4.57966">
        <ele>829.7</ele>
        <time>2019-04-28T09:35:08Z</time>
      </trkpt>
      <trkpt lat="45.64291" lon="4.57967">
        <ele>830.3</ele>
        <time>2019-04-28T09:35:11Z</time>
      </trkpt>
      <trkpt lat="45.6429" lon="4.57967">
        <ele>830.5</ele>
        <time>2019-04-28T09:35:12Z</time>
      </trkpt>
      <trkpt lat="45.64286" lon="4.57966">
        <ele>830.9</ele>
        <time>2019-04-28T09:35:15Z</time>
      </trkpt>
      <trkpt lat="45.64281" lon="4.57967">
        <ele>831.4</ele>
        <time>2019-04-28T09:35:18Z</time>
      </trkpt>
      <trkpt lat="45.64279" lon="4.57968">
        <ele>831.6</ele>
        <time>2019-04-28T09:35:19Z</time>
      </trkpt>
      <trkpt lat="45.64276" lon="4.57969">
        <ele>832</ele>
        <time>2019-04-28T09:35:21Z</time>
      </trkpt>
      <trkpt lat="45.64268" lon="4.5797">
        <ele>832.7</ele>
        <time>2019-04-28T09:35:25Z</time>
      </trkpt>
      <trkpt lat="45.64263" lon="4.57971">
        <ele>833.3</ele>
        <time>2019-04-28T09:35:28Z</time>
      </trkpt>
      <trkpt lat="45.64258" lon="4.57976">
        <ele>833.7</ele>
        <time>2019-04-28T09:35:31Z</time>
      </trkpt>
      <trkpt lat="45.64255" lon="4.5798">
        <ele>834</ele>
        <time>2019-04-28T09:35:34Z</time>
      </trkpt>
      <trkpt lat="45.64252" lon="4.57985">
        <ele>834.3</ele>
        <time>2019-04-28T09:35:37Z</time>
      </trkpt>
      <trkpt lat="45.6425" lon="4.57987">
        <ele>834.4</ele>
        <time>2019-04-28T09:35:39Z</time>
      </trkpt>
      <trkpt lat="45.64244" lon="4.57998">
        <ele>833.5</ele>
        <time>2019-04-28T09:35:53Z</time>
      </trkpt>
      <trkpt lat="45.64244" lon="4.58">
        <ele>833.4</ele>
        <time>2019-04-28T09:35:54Z</time>
      </trkpt>
      <trkpt lat="45.64245" lon="4.58012">
        <ele>833.4</ele>
        <time>2019-04-28T09:35:59Z</time>
      </trkpt>
      <trkpt lat="45.64245" lon="4.58013">
        <ele>833.6</ele>
        <time>2019-04-28T09:36:00Z</time>
      </trkpt>
      <trkpt lat="45.6424" lon="4.58015">
        <ele>834.8</ele>
        <time>2019-04-28T09:36:04Z</time>
      </trkpt>
      <trkpt lat="45.64239" lon="4.58015">
        <ele>835</ele>
        <time>2019-04-28T09:36:05Z</time>
      </trkpt>
      <trkpt lat="45.64235" lon="4.58018">
        <ele>835.7</ele>
        <time>2019-04-28T09:36:08Z</time>
      </trkpt>
      <trkpt lat="45.64232" lon="4.58022">
        <ele>836.4</ele>
        <time>2019-04-28T09:36:11Z</time>
      </trkpt>
      <trkpt lat="45.64229" lon="4.58024">
        <ele>836.8</ele>
        <time>2019-04-28T09:36:13Z</time>
      </trkpt>
      <trkpt lat="45.64225" lon="4.58029">
        <ele>837.8</ele>
        <time>2019-04-28T09:36:17Z</time>
      </trkpt>
      <trkpt lat="45.64224" lon="4.58031">
        <ele>838</ele>
        <time>2019-04-28T09:36:18Z</time>
      </trkpt>
      <trkpt lat="45.64221" lon="4.5804">
        <ele>839</ele>
        <time>2019-04-28T09:36:23Z</time>
      </trkpt>
      <trkpt lat="45.6422" lon="4.58042">
        <ele>839.2</ele>
        <time>2019-04-28T09:36:24Z</time>
      </trkpt>
      <trkpt lat="45.64219" lon="4.58045">
        <ele>839.3</ele>
        <time>2019-04-28T09:36:25Z</time>
      </trkpt>
      <trkpt lat="45.64219" lon="4.58049">
        <ele>839.7</ele>
        <time>2019-04-28T09:36:27Z</time>
      </trkpt>
      <trkpt lat="45.6422" lon="4.58054">
        <ele>840</ele>
        <time>2019-04-28T09:36:29Z</time>
      </trkpt>
      <trkpt lat="45.6422" lon="4.58058">
        <ele>840.3</ele>
        <time>2019-04-28T09:36:31Z</time>
      </trkpt>
      <trkpt lat="45.64221" lon="4.58072">
        <ele>841.3</ele>
        <time>2019-04-28T09:36:37Z</time>
      </trkpt>
      <trkpt lat="45.64221" lon="4.58074">
        <ele>841.4</ele>
        <time>2019-04-28T09:36:38Z</time>
      </trkpt>
      <trkpt lat="45.64221" lon="4.58088">
        <ele>842.5</ele>
        <time>2019-04-28T09:36:44Z</time>
      </trkpt>
      <trkpt lat="45.64221" lon="4.58092">
        <ele>842.8</ele>
        <time>2019-04-28T09:36:46Z</time>
      </trkpt>
      <trkpt lat="45.64219" lon="4.58109">
        <ele>843.7</ele>
        <time>2019-04-28T09:36:53Z</time>
      </trkpt>
      <trkpt lat="45.64218" lon="4.58118">
        <ele>844.3</ele>
        <time>2019-04-28T09:36:57Z</time>
      </trkpt>
      <trkpt lat="45.64217" lon="4.58124">
        <ele>844.7</ele>
        <time>2019-04-28T09:37:00Z</time>
      </trkpt>
      <trkpt lat="45.64213" lon="4.58137">
        <ele>845.6</ele>
        <time>2019-04-28T09:37:06Z</time>
      </trkpt>
      <trkpt lat="45.64212" lon="4.58139">
        <ele>845.8</ele>
        <time>2019-04-28T09:37:07Z</time>
      </trkpt>
      <trkpt lat="45.64208" lon="4.58154">
        <ele>847.1</ele>
        <time>2019-04-28T09:37:14Z</time>
      </trkpt>
      <trkpt lat="45.64207" lon="4.58157">
        <ele>847.2</ele>
        <time>2019-04-28T09:37:16Z</time>
      </trkpt>
      <trkpt lat="45.64208" lon="4.58159">
        <ele>847.2</ele>
        <time>2019-04-28T09:37:18Z</time>
      </trkpt>
      <trkpt lat="45.64208" lon="4.58161">
        <ele>847.3</ele>
        <time>2019-04-28T09:37:20Z</time>
      </trkpt>
      <trkpt lat="45.64208" lon="4.58168">
        <ele>847.5</ele>
        <time>2019-04-28T09:37:33Z</time>
      </trkpt>
      <trkpt lat="45.64208" lon="4.58173">
        <ele>847.6</ele>
        <time>2019-04-28T09:37:35Z</time>
      </trkpt>
      <trkpt lat="45.64204" lon="4.58196">
        <ele>848.7</ele>
        <time>2019-04-28T09:37:42Z</time>
      </trkpt>
      <trkpt lat="45.642" lon="4.58213">
        <ele>849.8</ele>
        <time>2019-04-28T09:37:46Z</time>
      </trkpt>
      <trkpt lat="45.642" lon="4.5822">
        <ele>850.4</ele>
        <time>2019-04-28T09:37:48Z</time>
      </trkpt>
      <trkpt lat="45.64197" lon="4.58236">
        <ele>851.3</ele>
        <time>2019-04-28T09:37:52Z</time>
      </trkpt>
      <trkpt lat="45.64195" lon="4.58246">
        <ele>851.8</ele>
        <time>2019-04-28T09:37:55Z</time>
      </trkpt>
      <trkpt lat="45.64195" lon="4.58252">
        <ele>852</ele>
        <time>2019-04-28T09:37:57Z</time>
      </trkpt>
      <trkpt lat="45.64194" lon="4.58265">
        <ele>852.4</ele>
        <time>2019-04-28T09:38:00Z</time>
      </trkpt>
      <trkpt lat="45.64194" lon="4.5827">
        <ele>852.5</ele>
        <time>2019-04-28T09:38:01Z</time>
      </trkpt>
      <trkpt lat="45.64192" lon="4.58284">
        <ele>852.6</ele>
        <time>2019-04-28T09:38:04Z</time>
      </trkpt>
      <trkpt lat="45.64189" lon="4.58296">
        <ele>852.6</ele>
        <time>2019-04-28T09:38:07Z</time>
      </trkpt>
      <trkpt lat="45.64186" lon="4.58306">
        <ele>852.7</ele>
        <time>2019-04-28T09:38:09Z</time>
      </trkpt>
      <trkpt lat="45.6418" lon="4.58325">
        <ele>853.1</ele>
        <time>2019-04-28T09:38:12Z</time>
      </trkpt>
      <trkpt lat="45.64175" lon="4.58344">
        <ele>853.6</ele>
        <time>2019-04-28T09:38:15Z</time>
      </trkpt>
      <trkpt lat="45.64172" lon="4.58356">
        <ele>854</ele>
        <time>2019-04-28T09:38:17Z</time>
      </trkpt>
      <trkpt lat="45.64169" lon="4.58368">
        <ele>854.2</ele>
        <time>2019-04-28T09:38:19Z</time>
      </trkpt>
      <trkpt lat="45.64165" lon="4.58381">
        <ele>854.4</ele>
        <time>2019-04-28T09:38:21Z</time>
      </trkpt>
      <trkpt lat="45.64163" lon="4.58395">
        <ele>854.4</ele>
        <time>2019-04-28T09:38:23Z</time>
      </trkpt>
      <trkpt lat="45.64161" lon="4.58402">
        <ele>854.5</ele>
        <time>2019-04-28T09:38:24Z</time>
      </trkpt>
      <trkpt lat="45.64158" lon="4.58428">
        <ele>855</ele>
        <time>2019-04-28T09:38:29Z</time>
      </trkpt>
      <trkpt lat="45.6416" lon="4.58433">
        <ele>854.1</ele>
        <time>2019-04-28T09:38:30Z</time>
      </trkpt>
      <trkpt lat="45.6417" lon="4.58454">
        <ele>850</ele>
        <time>2019-04-28T09:38:34Z</time>
      </trkpt>
      <trkpt lat="45.64173" lon="4.58459">
        <ele>849.2</ele>
        <time>2019-04-28T09:38:35Z</time>
      </trkpt>
      <trkpt lat="45.64178" lon="4.58468">
        <ele>847.9</ele>
        <time>2019-04-28T09:38:37Z</time>
      </trkpt>
      <trkpt lat="45.64184" lon="4.58478">
        <ele>846.6</ele>
        <time>2019-04-28T09:38:39Z</time>
      </trkpt>
      <trkpt lat="45.64186" lon="4.58483">
        <ele>846</ele>
        <time>2019-04-28T09:38:40Z</time>
      </trkpt>
      <trkpt lat="45.64189" lon="4.58488">
        <ele>845.6</ele>
        <time>2019-04-28T09:38:41Z</time>
      </trkpt>
      <trkpt lat="45.64194" lon="4.58498">
        <ele>844.9</ele>
        <time>2019-04-28T09:38:43Z</time>
      </trkpt>
      <trkpt lat="45.642" lon="4.58508">
        <ele>844.3</ele>
        <time>2019-04-28T09:38:45Z</time>
      </trkpt>
      <trkpt lat="45.64202" lon="4.58513">
        <ele>844</ele>
        <time>2019-04-28T09:38:46Z</time>
      </trkpt>
      <trkpt lat="45.64205" lon="4.58519">
        <ele>843.7</ele>
        <time>2019-04-28T09:38:47Z</time>
      </trkpt>
      <trkpt lat="45.64207" lon="4.58527">
        <ele>843.4</ele>
        <time>2019-04-28T09:38:48Z</time>
      </trkpt>
      <trkpt lat="45.64209" lon="4.58535">
        <ele>843</ele>
        <time>2019-04-28T09:38:49Z</time>
      </trkpt>
      <trkpt lat="45.6421" lon="4.58545">
        <ele>842.7</ele>
        <time>2019-04-28T09:38:50Z</time>
      </trkpt>
      <trkpt lat="45.64211" lon="4.58562">
        <ele>844.2</ele>
        <time>2019-04-28T09:38:52Z</time>
      </trkpt>
      <trkpt lat="45.6421" lon="4.5857">
        <ele>844.5</ele>
        <time>2019-04-28T09:38:53Z</time>
      </trkpt>
      <trkpt lat="45.64209" lon="4.58582">
        <ele>845</ele>
        <time>2019-04-28T09:38:55Z</time>
      </trkpt>
      <trkpt lat="45.64207" lon="4.58592">
        <ele>845.1</ele>
        <time>2019-04-28T09:38:57Z</time>
      </trkpt>
      <trkpt lat="45.64207" lon="4.58621">
        <ele>844.3</ele>
        <time>2019-04-28T09:39:04Z</time>
      </trkpt>
      <trkpt lat="45.6421" lon="4.58636">
        <ele>843.6</ele>
        <time>2019-04-28T09:39:07Z</time>
      </trkpt>
      <trkpt lat="45.64213" lon="4.58641">
        <ele>843.2</ele>
        <time>2019-04-28T09:39:08Z</time>
      </trkpt>
      <trkpt lat="45.64216" lon="4.58647">
        <ele>842.6</ele>
        <time>2019-04-28T09:39:09Z</time>
      </trkpt>
      <trkpt lat="45.64227" lon="4.58667">
        <ele>841.7</ele>
        <time>2019-04-28T09:39:12Z</time>
      </trkpt>
      <trkpt lat="45.64232" lon="4.58672">
        <ele>841.6</ele>
        <time>2019-04-28T09:39:13Z</time>
      </trkpt>
      <trkpt lat="45.64245" lon="4.58687">
        <ele>842</ele>
        <time>2019-04-28T09:39:16Z</time>
      </trkpt>
      <trkpt lat="45.6425" lon="4.58696">
        <ele>842.7</ele>
        <time>2019-04-28T09:39:18Z</time>
      </trkpt>
      <trkpt lat="45.64251" lon="4.58702">
        <ele>843.3</ele>
        <time>2019-04-28T09:39:20Z</time>
      </trkpt>
      <trkpt lat="45.6425" lon="4.58708">
        <ele>843.9</ele>
        <time>2019-04-28T09:39:22Z</time>
      </trkpt>
      <trkpt lat="45.64246" lon="4.58725">
        <ele>845.7</ele>
        <time>2019-04-28T09:39:28Z</time>
      </trkpt>
      <trkpt lat="45.64245" lon="4.58728">
        <ele>846</ele>
        <time>2019-04-28T09:39:29Z</time>
      </trkpt>
      <trkpt lat="45.64244" lon="4.58735">
        <ele>846.8</ele>
        <time>2019-04-28T09:39:32Z</time>
      </trkpt>
      <trkpt lat="45.64241" lon="4.58743">
        <ele>847.7</ele>
        <time>2019-04-28T09:39:35Z</time>
      </trkpt>
      <trkpt lat="45.64239" lon="4.58748">
        <ele>848.3</ele>
        <time>2019-04-28T09:39:37Z</time>
      </trkpt>
      <trkpt lat="45.64238" lon="4.5875">
        <ele>848.5</ele>
        <time>2019-04-28T09:39:38Z</time>
      </trkpt>
      <trkpt lat="45.64235" lon="4.58753">
        <ele>850.1</ele>
        <time>2019-04-28T09:39:40Z</time>
      </trkpt>
      <trkpt lat="45.64231" lon="4.58756">
        <ele>850.8</ele>
        <time>2019-04-28T09:39:42Z</time>
      </trkpt>
      <trkpt lat="45.6423" lon="4.58758">
        <ele>851</ele>
        <time>2019-04-28T09:39:43Z</time>
      </trkpt>
      <trkpt lat="45.64223" lon="4.58764">
        <ele>852.3</ele>
        <time>2019-04-28T09:39:48Z</time>
      </trkpt>
      <trkpt lat="45.64217" lon="4.58768">
        <ele>853.2</ele>
        <time>2019-04-28T09:39:52Z</time>
      </trkpt>
      <trkpt lat="45.64212" lon="4.5877">
        <ele>853.9</ele>
        <time>2019-04-28T09:39:56Z</time>
      </trkpt>
      <trkpt lat="45.64203" lon="4.58776">
        <ele>855.1</ele>
        <time>2019-04-28T09:40:02Z</time>
      </trkpt>
      <trkpt lat="45.64202" lon="4.58776">
        <ele>855.3</ele>
        <time>2019-04-28T09:40:03Z</time>
      </trkpt>
      <trkpt lat="45.64199" lon="4.58777">
        <ele>855.7</ele>
        <time>2019-04-28T09:40:05Z</time>
      </trkpt>
      <trkpt lat="45.64191" lon="4.58779">
        <ele>856.7</ele>
        <time>2019-04-28T09:40:10Z</time>
      </trkpt>
      <trkpt lat="45.64181" lon="4.58782">
        <ele>858</ele>
        <time>2019-04-28T09:40:16Z</time>
      </trkpt>
      <trkpt lat="45.64177" lon="4.58784">
        <ele>858.6</ele>
        <time>2019-04-28T09:40:19Z</time>
      </trkpt>
      <trkpt lat="45.64164" lon="4.5879">
        <ele>860</ele>
        <time>2019-04-28T09:40:27Z</time>
      </trkpt>
      <trkpt lat="45.64154" lon="4.58793">
        <ele>861.1</ele>
        <time>2019-04-28T09:40:33Z</time>
      </trkpt>
      <trkpt lat="45.64153" lon="4.58793">
        <ele>861.3</ele>
        <time>2019-04-28T09:40:34Z</time>
      </trkpt>
      <trkpt lat="45.64146" lon="4.58796">
        <ele>862</ele>
        <time>2019-04-28T09:40:38Z</time>
      </trkpt>
      <trkpt lat="45.64137" lon="4.588">
        <ele>863.2</ele>
        <time>2019-04-28T09:40:44Z</time>
      </trkpt>
      <trkpt lat="45.64132" lon="4.58802">
        <ele>863.9</ele>
        <time>2019-04-28T09:40:47Z</time>
      </trkpt>
      <trkpt lat="45.64126" lon="4.58806">
        <ele>864.9</ele>
        <time>2019-04-28T09:40:51Z</time>
      </trkpt>
      <trkpt lat="45.64124" lon="4.58807">
        <ele>865.2</ele>
        <time>2019-04-28T09:40:52Z</time>
      </trkpt>
      <trkpt lat="45.64118" lon="4.58809">
        <ele>866.3</ele>
        <time>2019-04-28T09:40:56Z</time>
      </trkpt>
      <trkpt lat="45.64117" lon="4.5881">
        <ele>866.5</ele>
        <time>2019-04-28T09:40:57Z</time>
      </trkpt>
      <trkpt lat="45.64114" lon="4.58811">
        <ele>867</ele>
        <time>2019-04-28T09:40:59Z</time>
      </trkpt>
      <trkpt lat="45.64113" lon="4.58812">
        <ele>867.3</ele>
        <time>2019-04-28T09:41:00Z</time>
      </trkpt>
      <trkpt lat="45.6411" lon="4.58813">
        <ele>867.7</ele>
        <time>2019-04-28T09:41:02Z</time>
      </trkpt>
      <trkpt lat="45.64107" lon="4.58814">
        <ele>868.2</ele>
        <time>2019-04-28T09:41:04Z</time>
      </trkpt>
      <trkpt lat="45.64105" lon="4.58815">
        <ele>868.4</ele>
        <time>2019-04-28T09:41:05Z</time>
      </trkpt>
      <trkpt lat="45.64104" lon="4.58815">
        <ele>868.6</ele>
        <time>2019-04-28T09:41:06Z</time>
      </trkpt>
      <trkpt lat="45.64102" lon="4.58816">
        <ele>869</ele>
        <time>2019-04-28T09:41:08Z</time>
      </trkpt>
      <trkpt lat="45.64099" lon="4.58815">
        <ele>869.8</ele>
        <time>2019-04-28T09:41:10Z</time>
      </trkpt>
      <trkpt lat="45.64096" lon="4.58814">
        <ele>870.3</ele>
        <time>2019-04-28T09:41:12Z</time>
      </trkpt>
      <trkpt lat="45.64093" lon="4.58811">
        <ele>871</ele>
        <time>2019-04-28T09:41:14Z</time>
      </trkpt>
      <trkpt lat="45.64087" lon="4.58806">
        <ele>872.5</ele>
        <time>2019-04-28T09:41:19Z</time>
      </trkpt>
      <trkpt lat="45.64083" lon="4.58804">
        <ele>873.7</ele>
        <time>2019-04-28T09:41:22Z</time>
      </trkpt>
      <trkpt lat="45.64079" lon="4.58802">
        <ele>874.3</ele>
        <time>2019-04-28T09:41:26Z</time>
      </trkpt>
      <trkpt lat="45.64077" lon="4.58805">
        <ele>874.5</ele>
        <time>2019-04-28T09:41:28Z</time>
      </trkpt>
      <trkpt lat="45.64075" lon="4.58814">
        <ele>875.2</ele>
        <time>2019-04-28T09:41:34Z</time>
      </trkpt>
      <trkpt lat="45.64075" lon="4.58816">
        <ele>875.3</ele>
        <time>2019-04-28T09:41:35Z</time>
      </trkpt>
      <trkpt lat="45.64074" lon="4.58824">
        <ele>875.8</ele>
        <time>2019-04-28T09:41:40Z</time>
      </trkpt>
      <trkpt lat="45.64072" lon="4.58827">
        <ele>876.1</ele>
        <time>2019-04-28T09:41:43Z</time>
      </trkpt>
      <trkpt lat="45.64046" lon="4.58919">
        <ele>883.2</ele>
        <time>2019-04-28T09:42:35Z</time>
      </trkpt>
      <trkpt lat="45.64045" lon="4.58924">
        <ele>883.3</ele>
        <time>2019-04-28T09:42:37Z</time>
      </trkpt>
      <trkpt lat="45.64043" lon="4.58941">
        <ele>883.8</ele>
        <time>2019-04-28T09:42:43Z</time>
      </trkpt>
      <trkpt lat="45.64043" lon="4.58947">
        <ele>884</ele>
        <time>2019-04-28T09:42:45Z</time>
      </trkpt>
      <trkpt lat="45.64043" lon="4.58967">
        <ele>884.7</ele>
        <time>2019-04-28T09:42:52Z</time>
      </trkpt>
      <trkpt lat="45.64043" lon="4.58971">
        <ele>884.9</ele>
        <time>2019-04-28T09:42:53Z</time>
      </trkpt>
      <trkpt lat="45.64043" lon="4.58996">
        <ele>886.9</ele>
        <time>2019-04-28T09:43:01Z</time>
      </trkpt>
      <trkpt lat="45.64041" lon="4.59001">
        <ele>887.4</ele>
        <time>2019-04-28T09:43:03Z</time>
      </trkpt>
      <trkpt lat="45.64039" lon="4.59016">
        <ele>888.9</ele>
        <time>2019-04-28T09:43:08Z</time>
      </trkpt>
      <trkpt lat="45.64037" lon="4.59025">
        <ele>889.7</ele>
        <time>2019-04-28T09:43:11Z</time>
      </trkpt>
      <trkpt lat="45.64034" lon="4.59035">
        <ele>890.9</ele>
        <time>2019-04-28T09:43:15Z</time>
      </trkpt>
      <trkpt lat="45.63951" lon="4.59206">
        <ele>911.8</ele>
        <time>2019-04-28T09:45:42Z</time>
      </trkpt>
      <trkpt lat="45.63953" lon="4.59212">
        <ele>912</ele>
        <time>2019-04-28T09:45:44Z</time>
      </trkpt>
      <trkpt lat="45.63958" lon="4.59236">
        <ele>913.1</ele>
        <time>2019-04-28T09:45:51Z</time>
      </trkpt>
      <trkpt lat="45.63959" lon="4.59239">
        <ele>913.3</ele>
        <time>2019-04-28T09:45:52Z</time>
      </trkpt>
      <trkpt lat="45.6396" lon="4.59255">
        <ele>914.2</ele>
        <time>2019-04-28T09:45:58Z</time>
      </trkpt>
      <trkpt lat="45.63961" lon="4.5926">
        <ele>914.5</ele>
        <time>2019-04-28T09:46:00Z</time>
      </trkpt>
      <trkpt lat="45.63964" lon="4.59278">
        <ele>915.8</ele>
        <time>2019-04-28T09:46:06Z</time>
      </trkpt>
      <trkpt lat="45.63967" lon="4.59298">
        <ele>917.2</ele>
        <time>2019-04-28T09:46:13Z</time>
      </trkpt>
      <trkpt lat="45.63969" lon="4.59304">
        <ele>917.6</ele>
        <time>2019-04-28T09:46:15Z</time>
      </trkpt>
      <trkpt lat="45.63971" lon="4.59327">
        <ele>919</ele>
        <time>2019-04-28T09:46:23Z</time>
      </trkpt>
      <trkpt lat="45.6397" lon="4.59329">
        <ele>919.2</ele>
        <time>2019-04-28T09:46:24Z</time>
      </trkpt>
      <trkpt lat="45.63967" lon="4.59351">
        <ele>921.7</ele>
        <time>2019-04-28T09:46:35Z</time>
      </trkpt>
      <trkpt lat="45.63967" lon="4.59357">
        <ele>922.5</ele>
        <time>2019-04-28T09:46:37Z</time>
      </trkpt>
      <trkpt lat="45.63918" lon="4.5943">
        <ele>929.2</ele>
        <time>2019-04-28T09:47:24Z</time>
      </trkpt>
      <trkpt lat="45.63916" lon="4.59431">
        <ele>929.3</ele>
        <time>2019-04-28T09:47:25Z</time>
      </trkpt>
      <trkpt lat="45.6391" lon="4.59434">
        <ele>929.6</ele>
        <time>2019-04-28T09:47:28Z</time>
      </trkpt>
      <trkpt lat="45.63905" lon="4.59439">
        <ele>929.7</ele>
        <time>2019-04-28T09:47:31Z</time>
      </trkpt>
      <trkpt lat="45.63903" lon="4.59442">
        <ele>929.7</ele>
        <time>2019-04-28T09:47:32Z</time>
      </trkpt>
      <trkpt lat="45.63898" lon="4.59449">
        <ele>929.8</ele>
        <time>2019-04-28T09:47:34Z</time>
      </trkpt>
      <trkpt lat="45.6389" lon="4.59456">
        <ele>929.7</ele>
        <time>2019-04-28T09:47:37Z</time>
      </trkpt>
      <trkpt lat="45.63873" lon="4.59456">
        <ele>927.6</ele>
        <time>2019-04-28T09:47:42Z</time>
      </trkpt>
      <trkpt lat="45.63854" lon="4.59455">
        <ele>926.2</ele>
        <time>2019-04-28T09:47:47Z</time>
      </trkpt>
      <trkpt lat="45.63851" lon="4.59456">
        <ele>926.1</ele>
        <time>2019-04-28T09:47:48Z</time>
      </trkpt>
      <trkpt lat="45.63843" lon="4.59456">
        <ele>925.8</ele>
        <time>2019-04-28T09:47:51Z</time>
      </trkpt>
      <trkpt lat="45.63837" lon="4.59455">
        <ele>925.7</ele>
        <time>2019-04-28T09:47:53Z</time>
      </trkpt>
      <trkpt lat="45.63824" lon="4.59455">
        <ele>925.3</ele>
        <time>2019-04-28T09:47:57Z</time>
      </trkpt>
      <trkpt lat="45.63819" lon="4.59454">
        <ele>925.1</ele>
        <time>2019-04-28T09:47:59Z</time>
      </trkpt>
      <trkpt lat="45.63803" lon="4.59447">
        <ele>924.6</ele>
        <time>2019-04-28T09:48:04Z</time>
      </trkpt>
      <trkpt lat="45.638" lon="4.59444">
        <ele>924.5</ele>
        <time>2019-04-28T09:48:05Z</time>
      </trkpt>
      <trkpt lat="45.63788" lon="4.59429">
        <ele>923.8</ele>
        <time>2019-04-28T09:48:10Z</time>
      </trkpt>
      <trkpt lat="45.63778" lon="4.59412">
        <ele>923.1</ele>
        <time>2019-04-28T09:48:15Z</time>
      </trkpt>
      <trkpt lat="45.6377" lon="4.59399">
        <ele>922.2</ele>
        <time>2019-04-28T09:48:20Z</time>
      </trkpt>
      <trkpt lat="45.63763" lon="4.59389">
        <ele>921.5</ele>
        <time>2019-04-28T09:48:26Z</time>
      </trkpt>
      <trkpt lat="45.63761" lon="4.5939">
        <ele>921.5</ele>
        <time>2019-04-28T09:48:27Z</time>
      </trkpt>
      <trkpt lat="45.63755" lon="4.59393">
        <ele>921.4</ele>
        <time>2019-04-28T09:48:31Z</time>
      </trkpt>
      <trkpt lat="45.63756" lon="4.5939">
        <ele>921.3</ele>
        <time>2019-04-28T09:51:56Z</time>
      </trkpt>
      <trkpt lat="45.63756" lon="4.59388">
        <ele>921.3</ele>
        <time>2019-04-28T09:51:58Z</time>
      </trkpt>
      <trkpt lat="45.63755" lon="4.59385">
        <ele>921</ele>
        <time>2019-04-28T09:52:00Z</time>
      </trkpt>
      <trkpt lat="45.63752" lon="4.59381">
        <ele>920.2</ele>
        <time>2019-04-28T09:52:08Z</time>
      </trkpt>
      <trkpt lat="45.63748" lon="4.59379">
        <ele>919.7</ele>
        <time>2019-04-28T09:52:09Z</time>
      </trkpt>
      <trkpt lat="45.63728" lon="4.5936">
        <ele>916</ele>
        <time>2019-04-28T09:52:14Z</time>
      </trkpt>
      <trkpt lat="45.63723" lon="4.59354">
        <ele>915.1</ele>
        <time>2019-04-28T09:52:15Z</time>
      </trkpt>
      <trkpt lat="45.63716" lon="4.59333">
        <ele>911.9</ele>
        <time>2019-04-28T09:52:18Z</time>
      </trkpt>
      <trkpt lat="45.63713" lon="4.59321">
        <ele>910.1</ele>
        <time>2019-04-28T09:52:20Z</time>
      </trkpt>
      <trkpt lat="45.63707" lon="4.59311">
        <ele>908.1</ele>
        <time>2019-04-28T09:52:22Z</time>
      </trkpt>
      <trkpt lat="45.63703" lon="4.59304">
        <ele>907</ele>
        <time>2019-04-28T09:52:23Z</time>
      </trkpt>
      <trkpt lat="45.63694" lon="4.59284">
        <ele>903.3</ele>
        <time>2019-04-28T09:52:26Z</time>
      </trkpt>
      <trkpt lat="45.63688" lon="4.59271">
        <ele>901.1</ele>
        <time>2019-04-28T09:52:28Z</time>
      </trkpt>
      <trkpt lat="45.63682" lon="4.59259">
        <ele>899.1</ele>
        <time>2019-04-28T09:52:30Z</time>
      </trkpt>
      <trkpt lat="45.63677" lon="4.59244">
        <ele>896.6</ele>
        <time>2019-04-28T09:52:32Z</time>
      </trkpt>
      <trkpt lat="45.63676" lon="4.59237">
        <ele>895.6</ele>
        <time>2019-04-28T09:52:33Z</time>
      </trkpt>
      <trkpt lat="45.63674" lon="4.59229">
        <ele>894.5</ele>
        <time>2019-04-28T09:52:34Z</time>
      </trkpt>
      <trkpt lat="45.63671" lon="4.59222">
        <ele>893.4</ele>
        <time>2019-04-28T09:52:35Z</time>
      </trkpt>
      <trkpt lat="45.63667" lon="4.59218">
        <ele>892.4</ele>
        <time>2019-04-28T09:52:36Z</time>
      </trkpt>
      <trkpt lat="45.63664" lon="4.59213">
        <ele>891.7</ele>
        <time>2019-04-28T09:52:37Z</time>
      </trkpt>
      <trkpt lat="45.63661" lon="4.59207">
        <ele>891</ele>
        <time>2019-04-28T09:52:38Z</time>
      </trkpt>
      <trkpt lat="45.63657" lon="4.59195">
        <ele>889.5</ele>
        <time>2019-04-28T09:52:40Z</time>
      </trkpt>
      <trkpt lat="45.63655" lon="4.59189">
        <ele>889</ele>
        <time>2019-04-28T09:52:41Z</time>
      </trkpt>
      <trkpt lat="45.63652" lon="4.59185">
        <ele>888.5</ele>
        <time>2019-04-28T09:52:42Z</time>
      </trkpt>
      <trkpt lat="45.63645" lon="4.59184">
        <ele>887.6</ele>
        <time>2019-04-28T09:52:44Z</time>
      </trkpt>
      <trkpt lat="45.63636" lon="4.59191">
        <ele>886.8</ele>
        <time>2019-04-28T09:52:46Z</time>
      </trkpt>
      <trkpt lat="45.63631" lon="4.59198">
        <ele>886.2</ele>
        <time>2019-04-28T09:52:47Z</time>
      </trkpt>
      <trkpt lat="45.63627" lon="4.59204">
        <ele>885.8</ele>
        <time>2019-04-28T09:52:48Z</time>
      </trkpt>
      <trkpt lat="45.63622" lon="4.59211">
        <ele>885.5</ele>
        <time>2019-04-28T09:52:49Z</time>
      </trkpt>
      <trkpt lat="45.63612" lon="4.59222">
        <ele>884.9</ele>
        <time>2019-04-28T09:52:51Z</time>
      </trkpt>
      <trkpt lat="45.63607" lon="4.59227">
        <ele>884.7</ele>
        <time>2019-04-28T09:52:52Z</time>
      </trkpt>
      <trkpt lat="45.63597" lon="4.59239">
        <ele>884</ele>
        <time>2019-04-28T09:52:54Z</time>
      </trkpt>
      <trkpt lat="45.63581" lon="4.59255">
        <ele>882.6</ele>
        <time>2019-04-28T09:52:57Z</time>
      </trkpt>
      <trkpt lat="45.63575" lon="4.59261">
        <ele>881.7</ele>
        <time>2019-04-28T09:52:58Z</time>
      </trkpt>
      <trkpt lat="45.6357" lon="4.59268">
        <ele>881</ele>
        <time>2019-04-28T09:52:59Z</time>
      </trkpt>
      <trkpt lat="45.63566" lon="4.59276">
        <ele>880.4</ele>
        <time>2019-04-28T09:53:00Z</time>
      </trkpt>
      <trkpt lat="45.6356" lon="4.59293">
        <ele>879.2</ele>
        <time>2019-04-28T09:53:02Z</time>
      </trkpt>
      <trkpt lat="45.63557" lon="4.59301">
        <ele>878.5</ele>
        <time>2019-04-28T09:53:03Z</time>
      </trkpt>
      <trkpt lat="45.63555" lon="4.59309">
        <ele>877.6</ele>
        <time>2019-04-28T09:53:04Z</time>
      </trkpt>
      <trkpt lat="45.63549" lon="4.59326">
        <ele>875.5</ele>
        <time>2019-04-28T09:53:06Z</time>
      </trkpt>
      <trkpt lat="45.63546" lon="4.59336">
        <ele>874.3</ele>
        <time>2019-04-28T09:53:07Z</time>
      </trkpt>
      <trkpt lat="45.63543" lon="4.59344">
        <ele>873.3</ele>
        <time>2019-04-28T09:53:08Z</time>
      </trkpt>
      <trkpt lat="45.63539" lon="4.59353">
        <ele>872.3</ele>
        <time>2019-04-28T09:53:09Z</time>
      </trkpt>
      <trkpt lat="45.63534" lon="4.59368">
        <ele>870.2</ele>
        <time>2019-04-28T09:53:11Z</time>
      </trkpt>
      <trkpt lat="45.63531" lon="4.59375">
        <ele>869.2</ele>
        <time>2019-04-28T09:53:12Z</time>
      </trkpt>
      <trkpt lat="45.63528" lon="4.59382">
        <ele>868.3</ele>
        <time>2019-04-28T09:53:13Z</time>
      </trkpt>
      <trkpt lat="45.63525" lon="4.59388">
        <ele>867.4</ele>
        <time>2019-04-28T09:53:14Z</time>
      </trkpt>
      <trkpt lat="45.63521" lon="4.59395">
        <ele>866.4</ele>
        <time>2019-04-28T09:53:15Z</time>
      </trkpt>
      <trkpt lat="45.63517" lon="4.594">
        <ele>865.5</ele>
        <time>2019-04-28T09:53:16Z</time>
      </trkpt>
      <trkpt lat="45.63514" lon="4.59406">
        <ele>864.3</ele>
        <time>2019-04-28T09:53:17Z</time>
      </trkpt>
      <trkpt lat="45.63511" lon="4.59412">
        <ele>863.1</ele>
        <time>2019-04-28T09:53:18Z</time>
      </trkpt>
      <trkpt lat="45.63508" lon="4.5942">
        <ele>861.8</ele>
        <time>2019-04-28T09:53:19Z</time>
      </trkpt>
      <trkpt lat="45.63506" lon="4.59429">
        <ele>860.3</ele>
        <time>2019-04-28T09:53:20Z</time>
      </trkpt>
      <trkpt lat="45.63505" lon="4.59438">
        <ele>859.4</ele>
        <time>2019-04-28T09:53:21Z</time>
      </trkpt>
      <trkpt lat="45.63505" lon="4.59448">
        <ele>858.8</ele>
        <time>2019-04-28T09:53:22Z</time>
      </trkpt>
      <trkpt lat="45.63506" lon="4.59458">
        <ele>858.1</ele>
        <time>2019-04-28T09:53:23Z</time>
      </trkpt>
      <trkpt lat="45.63508" lon="4.59468">
        <ele>858</ele>
        <time>2019-04-28T09:53:24Z</time>
      </trkpt>
      <trkpt lat="45.63511" lon="4.59476">
        <ele>858.1</ele>
        <time>2019-04-28T09:53:25Z</time>
      </trkpt>
      <trkpt lat="45.63514" lon="4.59484">
        <ele>858.2</ele>
        <time>2019-04-28T09:53:26Z</time>
      </trkpt>
      <trkpt lat="45.63518" lon="4.59504">
        <ele>858.5</ele>
        <time>2019-04-28T09:53:29Z</time>
      </trkpt>
      <trkpt lat="45.63518" lon="4.59511">
        <ele>858.7</ele>
        <time>2019-04-28T09:53:30Z</time>
      </trkpt>
      <trkpt lat="45.63518" lon="4.59518">
        <ele>858.8</ele>
        <time>2019-04-28T09:53:31Z</time>
      </trkpt>
      <trkpt lat="45.63519" lon="4.59531">
        <ele>859.1</ele>
        <time>2019-04-28T09:53:33Z</time>
      </trkpt>
      <trkpt lat="45.6352" lon="4.59537">
        <ele>859.3</ele>
        <time>2019-04-28T09:53:34Z</time>
      </trkpt>
      <trkpt lat="45.63521" lon="4.59543">
        <ele>859.4</ele>
        <time>2019-04-28T09:53:35Z</time>
      </trkpt>
      <trkpt lat="45.63525" lon="4.5957">
        <ele>860.2</ele>
        <time>2019-04-28T09:53:40Z</time>
      </trkpt>
      <trkpt lat="45.63528" lon="4.5958">
        <ele>860.5</ele>
        <time>2019-04-28T09:53:42Z</time>
      </trkpt>
      <trkpt lat="45.63542" lon="4.59599">
        <ele>861</ele>
        <time>2019-04-28T09:53:47Z</time>
      </trkpt>
      <trkpt lat="45.63556" lon="4.59618">
        <ele>861.3</ele>
        <time>2019-04-28T09:53:52Z</time>
      </trkpt>
      <trkpt lat="45.63563" lon="4.59634">
        <ele>861.3</ele>
        <time>2019-04-28T09:53:55Z</time>
      </trkpt>
      <trkpt lat="45.63571" lon="4.59667">
        <ele>861</ele>
        <time>2019-04-28T09:54:02Z</time>
      </trkpt>
      <trkpt lat="45.63571" lon="4.59669">
        <ele>861.1</ele>
        <time>2019-04-28T09:54:03Z</time>
      </trkpt>
      <trkpt lat="45.6357" lon="4.59671">
        <ele>861.2</ele>
        <time>2019-04-28T09:54:04Z</time>
      </trkpt>
      <trkpt lat="45.63567" lon="4.59674">
        <ele>861.4</ele>
        <time>2019-04-28T09:54:06Z</time>
      </trkpt>
      <trkpt lat="45.63559" lon="4.59672">
        <ele>861.9</ele>
        <time>2019-04-28T09:54:11Z</time>
      </trkpt>
      <trkpt lat="45.63555" lon="4.59674">
        <ele>862.2</ele>
        <time>2019-04-28T09:54:13Z</time>
      </trkpt>
      <trkpt lat="45.63548" lon="4.59677">
        <ele>862.8</ele>
        <time>2019-04-28T09:54:17Z</time>
      </trkpt>
      <trkpt lat="45.63541" lon="4.59677">
        <ele>863.2</ele>
        <time>2019-04-28T09:54:21Z</time>
      </trkpt>
      <trkpt lat="45.63538" lon="4.59678">
        <ele>863.3</ele>
        <time>2019-04-28T09:54:23Z</time>
      </trkpt>
      <trkpt lat="45.63535" lon="4.59678">
        <ele>863.5</ele>
        <time>2019-04-28T09:54:25Z</time>
      </trkpt>
      <trkpt lat="45.63529" lon="4.59677">
        <ele>863.8</ele>
        <time>2019-04-28T09:54:29Z</time>
      </trkpt>
      <trkpt lat="45.63519" lon="4.59672">
        <ele>864.3</ele>
        <time>2019-04-28T09:54:35Z</time>
      </trkpt>
      <trkpt lat="45.63517" lon="4.59671">
        <ele>864.4</ele>
        <time>2019-04-28T09:54:36Z</time>
      </trkpt>
      <trkpt lat="45.63503" lon="4.59666">
        <ele>864.9</ele>
        <time>2019-04-28T09:54:43Z</time>
      </trkpt>
      <trkpt lat="45.63492" lon="4.59661">
        <ele>865.4</ele>
        <time>2019-04-28T09:54:49Z</time>
      </trkpt>
      <trkpt lat="45.63474" lon="4.59658">
        <ele>866</ele>
        <time>2019-04-28T09:54:56Z</time>
      </trkpt>
      <trkpt lat="45.63454" lon="4.59656">
        <ele>866.9</ele>
        <time>2019-04-28T09:55:04Z</time>
      </trkpt>
      <trkpt lat="45.63436" lon="4.59658">
        <ele>867.6</ele>
        <time>2019-04-28T09:55:11Z</time>
      </trkpt>
      <trkpt lat="45.63421" lon="4.5966">
        <ele>868.4</ele>
        <time>2019-04-28T09:55:17Z</time>
      </trkpt>
      <trkpt lat="45.63417" lon="4.59661">
        <ele>868.7</ele>
        <time>2019-04-28T09:55:19Z</time>
      </trkpt>
      <trkpt lat="45.63402" lon="4.59662">
        <ele>869.2</ele>
        <time>2019-04-28T09:55:25Z</time>
      </trkpt>
      <trkpt lat="45.63387" lon="4.59665">
        <ele>869.7</ele>
        <time>2019-04-28T09:55:31Z</time>
      </trkpt>
      <trkpt lat="45.63369" lon="4.59669">
        <ele>870.1</ele>
        <time>2019-04-28T09:55:38Z</time>
      </trkpt>
      <trkpt lat="45.63352" lon="4.59668">
        <ele>870.5</ele>
        <time>2019-04-28T09:55:43Z</time>
      </trkpt>
      <trkpt lat="45.63327" lon="4.59669">
        <ele>870.9</ele>
        <time>2019-04-28T09:55:50Z</time>
      </trkpt>
      <trkpt lat="45.63296" lon="4.59675">
        <ele>871.3</ele>
        <time>2019-04-28T09:55:58Z</time>
      </trkpt>
      <trkpt lat="45.63274" lon="4.5968">
        <ele>871.6</ele>
        <time>2019-04-28T09:56:04Z</time>
      </trkpt>
      <trkpt lat="45.63258" lon="4.59685">
        <ele>871.8</ele>
        <time>2019-04-28T09:56:08Z</time>
      </trkpt>
      <trkpt lat="45.63247" lon="4.59687">
        <ele>872</ele>
        <time>2019-04-28T09:56:11Z</time>
      </trkpt>
      <trkpt lat="45.63223" lon="4.59691">
        <ele>872.4</ele>
        <time>2019-04-28T09:56:17Z</time>
      </trkpt>
      <trkpt lat="45.63187" lon="4.59697">
        <ele>871.4</ele>
        <time>2019-04-28T09:56:24Z</time>
      </trkpt>
      <trkpt lat="45.63179" lon="4.59697">
        <ele>871.1</ele>
        <time>2019-04-28T09:56:26Z</time>
      </trkpt>
      <trkpt lat="45.63167" lon="4.59695">
        <ele>870.4</ele>
        <time>2019-04-28T09:56:29Z</time>
      </trkpt>
      <trkpt lat="45.63151" lon="4.59693">
        <ele>870</ele>
        <time>2019-04-28T09:56:33Z</time>
      </trkpt>
      <trkpt lat="45.63147" lon="4.59692">
        <ele>869.8</ele>
        <time>2019-04-28T09:56:34Z</time>
      </trkpt>
      <trkpt lat="45.63143" lon="4.59692">
        <ele>869.7</ele>
        <time>2019-04-28T09:56:35Z</time>
      </trkpt>
      <trkpt lat="45.63133" lon="4.59691">
        <ele>868.6</ele>
        <time>2019-04-28T09:56:37Z</time>
      </trkpt>
      <trkpt lat="45.63125" lon="4.59677">
        <ele>868</ele>
        <time>2019-04-28T09:56:40Z</time>
      </trkpt>
      <trkpt lat="45.63131" lon="4.59667">
        <ele>868.5</ele>
        <time>2019-04-28T09:56:42Z</time>
      </trkpt>
      <trkpt lat="45.6314" lon="4.59661">
        <ele>868.8</ele>
        <time>2019-04-28T09:56:44Z</time>
      </trkpt>
      <trkpt lat="45.63154" lon="4.5965">
        <ele>868.9</ele>
        <time>2019-04-28T09:56:47Z</time>
      </trkpt>
      <trkpt lat="45.63171" lon="4.59639">
        <ele>868.4</ele>
        <time>2019-04-28T09:56:50Z</time>
      </trkpt>
      <trkpt lat="45.63187" lon="4.59629">
        <ele>867</ele>
        <time>2019-04-28T09:56:53Z</time>
      </trkpt>
      <trkpt lat="45.63189" lon="4.59624">
        <ele>866.7</ele>
        <time>2019-04-28T09:56:54Z</time>
      </trkpt>
      <trkpt lat="45.63191" lon="4.59618">
        <ele>866.2</ele>
        <time>2019-04-28T09:56:56Z</time>
      </trkpt>
      <trkpt lat="45.63191" lon="4.59614">
        <ele>866</ele>
        <time>2019-04-28T09:56:57Z</time>
      </trkpt>
      <trkpt lat="45.63188" lon="4.59605">
        <ele>864.7</ele>
        <time>2019-04-28T09:56:59Z</time>
      </trkpt>
      <trkpt lat="45.63185" lon="4.596">
        <ele>864.2</ele>
        <time>2019-04-28T09:57:00Z</time>
      </trkpt>
      <trkpt lat="45.63167" lon="4.59578">
        <ele>862.7</ele>
        <time>2019-04-28T09:57:04Z</time>
      </trkpt>
      <trkpt lat="45.63163" lon="4.59572">
        <ele>862.4</ele>
        <time>2019-04-28T09:57:05Z</time>
      </trkpt>
      <trkpt lat="45.63142" lon="4.59538">
        <ele>861.3</ele>
        <time>2019-04-28T09:57:10Z</time>
      </trkpt>
      <trkpt lat="45.63121" lon="4.59514">
        <ele>860.3</ele>
        <time>2019-04-28T09:57:14Z</time>
      </trkpt>
      <trkpt lat="45.63115" lon="4.59511">
        <ele>860.1</ele>
        <time>2019-04-28T09:57:15Z</time>
      </trkpt>
      <trkpt lat="45.63093" lon="4.59515">
        <ele>859.4</ele>
        <time>2019-04-28T09:57:18Z</time>
      </trkpt>
      <trkpt lat="45.63087" lon="4.59522">
        <ele>859.5</ele>
        <time>2019-04-28T09:57:19Z</time>
      </trkpt>
      <trkpt lat="45.63076" lon="4.59539">
        <ele>859.6</ele>
        <time>2019-04-28T09:57:21Z</time>
      </trkpt>
      <trkpt lat="45.63069" lon="4.59561">
        <ele>859.6</ele>
        <time>2019-04-28T09:57:23Z</time>
      </trkpt>
      <trkpt lat="45.63066" lon="4.59573">
        <ele>859.6</ele>
        <time>2019-04-28T09:57:24Z</time>
      </trkpt>
      <trkpt lat="45.63056" lon="4.59608">
        <ele>859.6</ele>
        <time>2019-04-28T09:57:27Z</time>
      </trkpt>
      <trkpt lat="45.63045" lon="4.59644">
        <ele>859.5</ele>
        <time>2019-04-28T09:57:30Z</time>
      </trkpt>
      <trkpt lat="45.63034" lon="4.5968">
        <ele>859.2</ele>
        <time>2019-04-28T09:57:33Z</time>
      </trkpt>
      <trkpt lat="45.6303" lon="4.59692">
        <ele>859.1</ele>
        <time>2019-04-28T09:57:34Z</time>
      </trkpt>
      <trkpt lat="45.63014" lon="4.59742">
        <ele>858.6</ele>
        <time>2019-04-28T09:57:38Z</time>
      </trkpt>
      <trkpt lat="45.63009" lon="4.59767">
        <ele>858.3</ele>
        <time>2019-04-28T09:57:40Z</time>
      </trkpt>
      <trkpt lat="45.63007" lon="4.59781">
        <ele>858.2</ele>
        <time>2019-04-28T09:57:41Z</time>
      </trkpt>
      <trkpt lat="45.63008" lon="4.59806">
        <ele>858.2</ele>
        <time>2019-04-28T09:57:43Z</time>
      </trkpt>
      <trkpt lat="45.63009" lon="4.59818">
        <ele>858.1</ele>
        <time>2019-04-28T09:57:44Z</time>
      </trkpt>
      <trkpt lat="45.63011" lon="4.5983">
        <ele>858.3</ele>
        <time>2019-04-28T09:57:45Z</time>
      </trkpt>
      <trkpt lat="45.63014" lon="4.59854">
        <ele>858.5</ele>
        <time>2019-04-28T09:57:47Z</time>
      </trkpt>
      <trkpt lat="45.63016" lon="4.59863">
        <ele>858.5</ele>
        <time>2019-04-28T09:57:48Z</time>
      </trkpt>
      <trkpt lat="45.63017" lon="4.5988">
        <ele>858.8</ele>
        <time>2019-04-28T09:57:50Z</time>
      </trkpt>
      <trkpt lat="45.63019" lon="4.59895">
        <ele>858.9</ele>
        <time>2019-04-28T09:57:52Z</time>
      </trkpt>
      <trkpt lat="45.6302" lon="4.59904">
        <ele>858.8</ele>
        <time>2019-04-28T09:57:53Z</time>
      </trkpt>
      <trkpt lat="45.6302" lon="4.59912">
        <ele>858.7</ele>
        <time>2019-04-28T09:57:54Z</time>
      </trkpt>
      <trkpt lat="45.6302" lon="4.59922">
        <ele>858.7</ele>
        <time>2019-04-28T09:57:55Z</time>
      </trkpt>
      <trkpt lat="45.63017" lon="4.59941">
        <ele>857</ele>
        <time>2019-04-28T09:57:57Z</time>
      </trkpt>
      <trkpt lat="45.63012" lon="4.59959">
        <ele>855.6</ele>
        <time>2019-04-28T09:57:59Z</time>
      </trkpt>
      <trkpt lat="45.63009" lon="4.59968">
        <ele>854.8</ele>
        <time>2019-04-28T09:58:00Z</time>
      </trkpt>
      <trkpt lat="45.63002" lon="4.59988">
        <ele>853.1</ele>
        <time>2019-04-28T09:58:02Z</time>
      </trkpt>
      <trkpt lat="45.62994" lon="4.60007">
        <ele>851.3</ele>
        <time>2019-04-28T09:58:04Z</time>
      </trkpt>
      <trkpt lat="45.62988" lon="4.60023">
        <ele>850.4</ele>
        <time>2019-04-28T09:58:06Z</time>
      </trkpt>
      <trkpt lat="45.62983" lon="4.60036">
        <ele>849.3</ele>
        <time>2019-04-28T09:58:08Z</time>
      </trkpt>
      <trkpt lat="45.6298" lon="4.6004">
        <ele>848.7</ele>
        <time>2019-04-28T09:58:09Z</time>
      </trkpt>
      <trkpt lat="45.62977" lon="4.60043">
        <ele>847.9</ele>
        <time>2019-04-28T09:58:10Z</time>
      </trkpt>
      <trkpt lat="45.62974" lon="4.60044">
        <ele>847.5</ele>
        <time>2019-04-28T09:58:11Z</time>
      </trkpt>
      <trkpt lat="45.62972" lon="4.60045">
        <ele>847.2</ele>
        <time>2019-04-28T09:58:12Z</time>
      </trkpt>
      <trkpt lat="45.62967" lon="4.60047">
        <ele>846</ele>
        <time>2019-04-28T09:58:14Z</time>
      </trkpt>
      <trkpt lat="45.62964" lon="4.60048">
        <ele>846</ele>
        <time>2019-04-28T09:58:15Z</time>
      </trkpt>
      <trkpt lat="45.62957" lon="4.60052">
        <ele>844.5</ele>
        <time>2019-04-28T09:58:17Z</time>
      </trkpt>
      <trkpt lat="45.62954" lon="4.60056">
        <ele>844.3</ele>
        <time>2019-04-28T09:58:18Z</time>
      </trkpt>
      <trkpt lat="45.62952" lon="4.60062">
        <ele>844</ele>
        <time>2019-04-28T09:58:19Z</time>
      </trkpt>
      <trkpt lat="45.6295" lon="4.60068">
        <ele>843.8</ele>
        <time>2019-04-28T09:58:20Z</time>
      </trkpt>
      <trkpt lat="45.62943" lon="4.60081">
        <ele>843.6</ele>
        <time>2019-04-28T09:58:22Z</time>
      </trkpt>
      <trkpt lat="45.62938" lon="4.60095">
        <ele>843.6</ele>
        <time>2019-04-28T09:58:24Z</time>
      </trkpt>
      <trkpt lat="45.62927" lon="4.60118">
        <ele>842.8</ele>
        <time>2019-04-28T09:58:27Z</time>
      </trkpt>
      <trkpt lat="45.62919" lon="4.60134">
        <ele>841.5</ele>
        <time>2019-04-28T09:58:29Z</time>
      </trkpt>
      <trkpt lat="45.62912" lon="4.60151">
        <ele>839.9</ele>
        <time>2019-04-28T09:58:31Z</time>
      </trkpt>
      <trkpt lat="45.62894" lon="4.60188">
        <ele>838.6</ele>
        <time>2019-04-28T09:58:36Z</time>
      </trkpt>
      <trkpt lat="45.6289" lon="4.60196">
        <ele>838.6</ele>
        <time>2019-04-28T09:58:39Z</time>
      </trkpt>
      <trkpt lat="45.62881" lon="4.60218">
        <ele>838.7</ele>
        <time>2019-04-28T09:58:44Z</time>
      </trkpt>
      <trkpt lat="45.62863" lon="4.60235">
        <ele>839.2</ele>
        <time>2019-04-28T09:58:49Z</time>
      </trkpt>
      <trkpt lat="45.62859" lon="4.60238">
        <ele>839.3</ele>
        <time>2019-04-28T09:58:50Z</time>
      </trkpt>
      <trkpt lat="45.62854" lon="4.60239">
        <ele>839.6</ele>
        <time>2019-04-28T09:58:51Z</time>
      </trkpt>
      <trkpt lat="45.6285" lon="4.60241">
        <ele>839.8</ele>
        <time>2019-04-28T09:58:52Z</time>
      </trkpt>
      <trkpt lat="45.62841" lon="4.60244">
        <ele>840.3</ele>
        <time>2019-04-28T09:58:55Z</time>
      </trkpt>
      <trkpt lat="45.62834" lon="4.60245">
        <ele>840.6</ele>
        <time>2019-04-28T09:58:58Z</time>
      </trkpt>
      <trkpt lat="45.6283" lon="4.60247">
        <ele>840.9</ele>
        <time>2019-04-28T09:59:00Z</time>
      </trkpt>
      <trkpt lat="45.62829" lon="4.60248">
        <ele>841</ele>
        <time>2019-04-28T09:59:01Z</time>
      </trkpt>
      <trkpt lat="45.62825" lon="4.60249">
        <ele>841.1</ele>
        <time>2019-04-28T09:59:03Z</time>
      </trkpt>
      <trkpt lat="45.62821" lon="4.60252">
        <ele>841.5</ele>
        <time>2019-04-28T09:59:06Z</time>
      </trkpt>
      <trkpt lat="45.6282" lon="4.60251">
        <ele>841.6</ele>
        <time>2019-04-28T09:59:07Z</time>
      </trkpt>
      <trkpt lat="45.62819" lon="4.60251">
        <ele>841.7</ele>
        <time>2019-04-28T09:59:09Z</time>
      </trkpt>
      <trkpt lat="45.62818" lon="4.6025">
        <ele>841.8</ele>
        <time>2019-04-28T09:59:11Z</time>
      </trkpt>
      <trkpt lat="45.62815" lon="4.60253">
        <ele>842.2</ele>
        <time>2019-04-28T09:59:21Z</time>
      </trkpt>
      <trkpt lat="45.6281" lon="4.60256">
        <ele>842.7</ele>
        <time>2019-04-28T09:59:23Z</time>
      </trkpt>
      <trkpt lat="45.62808" lon="4.60257">
        <ele>842.9</ele>
        <time>2019-04-28T09:59:24Z</time>
      </trkpt>
      <trkpt lat="45.628" lon="4.6026">
        <ele>843.7</ele>
        <time>2019-04-28T09:59:28Z</time>
      </trkpt>
      <trkpt lat="45.62798" lon="4.60261">
        <ele>843.9</ele>
        <time>2019-04-28T09:59:29Z</time>
      </trkpt>
      <trkpt lat="45.62793" lon="4.60264">
        <ele>844.7</ele>
        <time>2019-04-28T09:59:32Z</time>
      </trkpt>
      <trkpt lat="45.62788" lon="4.60267">
        <ele>845.4</ele>
        <time>2019-04-28T09:59:35Z</time>
      </trkpt>
      <trkpt lat="45.62783" lon="4.6027">
        <ele>846.1</ele>
        <time>2019-04-28T09:59:38Z</time>
      </trkpt>
      <trkpt lat="45.62776" lon="4.60273">
        <ele>847.3</ele>
        <time>2019-04-28T09:59:42Z</time>
      </trkpt>
      <trkpt lat="45.62768" lon="4.60276">
        <ele>848.4</ele>
        <time>2019-04-28T09:59:46Z</time>
      </trkpt>
      <trkpt lat="45.62766" lon="4.60277">
        <ele>848.6</ele>
        <time>2019-04-28T09:59:47Z</time>
      </trkpt>
      <trkpt lat="45.62761" lon="4.6028">
        <ele>849.2</ele>
        <time>2019-04-28T09:59:50Z</time>
      </trkpt>
      <trkpt lat="45.62754" lon="4.60284">
        <ele>850.4</ele>
        <time>2019-04-28T09:59:54Z</time>
      </trkpt>
      <trkpt lat="45.62748" lon="4.60287">
        <ele>851.1</ele>
        <time>2019-04-28T09:59:57Z</time>
      </trkpt>
      <trkpt lat="45.62744" lon="4.6029">
        <ele>851.7</ele>
        <time>2019-04-28T10:00:00Z</time>
      </trkpt>
      <trkpt lat="45.62738" lon="4.60293">
        <ele>852.4</ele>
        <time>2019-04-28T10:00:04Z</time>
      </trkpt>
      <trkpt lat="45.62735" lon="4.60295">
        <ele>852.8</ele>
        <time>2019-04-28T10:00:06Z</time>
      </trkpt>
      <trkpt lat="45.62729" lon="4.603">
        <ele>853.5</ele>
        <time>2019-04-28T10:00:10Z</time>
      </trkpt>
      <trkpt lat="45.62722" lon="4.60306">
        <ele>854.5</ele>
        <time>2019-04-28T10:00:15Z</time>
      </trkpt>
      <trkpt lat="45.62715" lon="4.60313">
        <ele>855.4</ele>
        <time>2019-04-28T10:00:20Z</time>
      </trkpt>
      <trkpt lat="45.6271" lon="4.60319">
        <ele>856</ele>
        <time>2019-04-28T10:00:24Z</time>
      </trkpt>
      <trkpt lat="45.62706" lon="4.60325">
        <ele>856.5</ele>
        <time>2019-04-28T10:00:28Z</time>
      </trkpt>
      <trkpt lat="45.62702" lon="4.6033">
        <ele>857.1</ele>
        <time>2019-04-28T10:00:32Z</time>
      </trkpt>
      <trkpt lat="45.62701" lon="4.60331">
        <ele>857.2</ele>
        <time>2019-04-28T10:00:33Z</time>
      </trkpt>
      <trkpt lat="45.62702" lon="4.60332">
        <ele>857.3</ele>
        <time>2019-04-28T10:01:24Z</time>
      </trkpt>
      <trkpt lat="45.62704" lon="4.60329">
        <ele>857.5</ele>
        <time>2019-04-28T10:01:25Z</time>
      </trkpt>
      <trkpt lat="45.62712" lon="4.60316">
        <ele>856.2</ele>
        <time>2019-04-28T10:01:28Z</time>
      </trkpt>
      <trkpt lat="45.62717" lon="4.6031">
        <ele>855.7</ele>
        <time>2019-04-28T10:01:29Z</time>
      </trkpt>
      <trkpt lat="45.62722" lon="4.60305">
        <ele>855</ele>
        <time>2019-04-28T10:01:30Z</time>
      </trkpt>
      <trkpt lat="45.62736" lon="4.60295">
        <ele>853</ele>
        <time>2019-04-28T10:01:32Z</time>
      </trkpt>
      <trkpt lat="45.62744" lon="4.6029">
        <ele>852.1</ele>
        <time>2019-04-28T10:01:33Z</time>
      </trkpt>
      <trkpt lat="45.62752" lon="4.60286">
        <ele>850.9</ele>
        <time>2019-04-28T10:01:34Z</time>
      </trkpt>
      <trkpt lat="45.62761" lon="4.60281">
        <ele>849.5</ele>
        <time>2019-04-28T10:01:35Z</time>
      </trkpt>
      <trkpt lat="45.62777" lon="4.60272">
        <ele>847.1</ele>
        <time>2019-04-28T10:01:37Z</time>
      </trkpt>
      <trkpt lat="45.62794" lon="4.60263">
        <ele>844.5</ele>
        <time>2019-04-28T10:01:39Z</time>
      </trkpt>
      <trkpt lat="45.62811" lon="4.60255">
        <ele>842.6</ele>
        <time>2019-04-28T10:01:41Z</time>
      </trkpt>
      <trkpt lat="45.62828" lon="4.60248">
        <ele>841.1</ele>
        <time>2019-04-28T10:01:43Z</time>
      </trkpt>
      <trkpt lat="45.62836" lon="4.60245">
        <ele>840.7</ele>
        <time>2019-04-28T10:01:44Z</time>
      </trkpt>
      <trkpt lat="45.62845" lon="4.60241">
        <ele>840.2</ele>
        <time>2019-04-28T10:01:45Z</time>
      </trkpt>
      <trkpt lat="45.62853" lon="4.60238">
        <ele>839.7</ele>
        <time>2019-04-28T10:01:46Z</time>
      </trkpt>
      <trkpt lat="45.62861" lon="4.60234">
        <ele>839.3</ele>
        <time>2019-04-28T10:01:47Z</time>
      </trkpt>
      <trkpt lat="45.62869" lon="4.6023">
        <ele>839.1</ele>
        <time>2019-04-28T10:01:48Z</time>
      </trkpt>
      <trkpt lat="45.62875" lon="4.60225">
        <ele>839</ele>
        <time>2019-04-28T10:01:49Z</time>
      </trkpt>
      <trkpt lat="45.62879" lon="4.6022">
        <ele>838.9</ele>
        <time>2019-04-28T10:01:50Z</time>
      </trkpt>
      <trkpt lat="45.62883" lon="4.60215">
        <ele>838.8</ele>
        <time>2019-04-28T10:01:51Z</time>
      </trkpt>
      <trkpt lat="45.62887" lon="4.60205">
        <ele>838.6</ele>
        <time>2019-04-28T10:01:53Z</time>
      </trkpt>
      <trkpt lat="45.62889" lon="4.602">
        <ele>838.5</ele>
        <time>2019-04-28T10:01:54Z</time>
      </trkpt>
      <trkpt lat="45.62892" lon="4.60192">
        <ele>838.5</ele>
        <time>2019-04-28T10:01:56Z</time>
      </trkpt>
      <trkpt lat="45.62897" lon="4.60179">
        <ele>838.6</ele>
        <time>2019-04-28T10:01:59Z</time>
      </trkpt>
      <trkpt lat="45.62901" lon="4.60175">
        <ele>838.6</ele>
        <time>2019-04-28T10:02:01Z</time>
      </trkpt>
      <trkpt lat="45.62903" lon="4.60176">
        <ele>838.6</ele>
        <time>2019-04-28T10:02:02Z</time>
      </trkpt>
      <trkpt lat="45.62905" lon="4.60179">
        <ele>838.6</ele>
        <time>2019-04-28T10:02:08Z</time>
      </trkpt>
      <trkpt lat="45.62905" lon="4.60182">
        <ele>838.6</ele>
        <time>2019-04-28T10:02:09Z</time>
      </trkpt>
      <trkpt lat="45.62906" lon="4.60207">
        <ele>836.2</ele>
        <time>2019-04-28T10:02:14Z</time>
      </trkpt>
      <trkpt lat="45.62906" lon="4.60231">
        <ele>834.7</ele>
        <time>2019-04-28T10:02:17Z</time>
      </trkpt>
      <trkpt lat="45.62904" lon="4.6024">
        <ele>834.1</ele>
        <time>2019-04-28T10:02:18Z</time>
      </trkpt>
      <trkpt lat="45.62897" lon="4.60278">
        <ele>831.4</ele>
        <time>2019-04-28T10:02:23Z</time>
      </trkpt>
      <trkpt lat="45.62895" lon="4.60292">
        <ele>830</ele>
        <time>2019-04-28T10:02:25Z</time>
      </trkpt>
      <trkpt lat="45.62896" lon="4.60299">
        <ele>829.3</ele>
        <time>2019-04-28T10:02:26Z</time>
      </trkpt>
      <trkpt lat="45.62897" lon="4.60307">
        <ele>828.5</ele>
        <time>2019-04-28T10:02:27Z</time>
      </trkpt>
      <trkpt lat="45.62896" lon="4.60317">
        <ele>827.5</ele>
        <time>2019-04-28T10:02:28Z</time>
      </trkpt>
      <trkpt lat="45.62896" lon="4.60325">
        <ele>826.6</ele>
        <time>2019-04-28T10:02:29Z</time>
      </trkpt>
      <trkpt lat="45.62897" lon="4.60332">
        <ele>825.9</ele>
        <time>2019-04-28T10:02:30Z</time>
      </trkpt>
      <trkpt lat="45.62898" lon="4.60339">
        <ele>825.1</ele>
        <time>2019-04-28T10:02:31Z</time>
      </trkpt>
      <trkpt lat="45.62899" lon="4.60346">
        <ele>824.4</ele>
        <time>2019-04-28T10:02:32Z</time>
      </trkpt>
      <trkpt lat="45.62898" lon="4.60353">
        <ele>823.7</ele>
        <time>2019-04-28T10:02:33Z</time>
      </trkpt>
      <trkpt lat="45.62897" lon="4.60359">
        <ele>823.3</ele>
        <time>2019-04-28T10:02:34Z</time>
      </trkpt>
      <trkpt lat="45.62894" lon="4.60375">
        <ele>822.4</ele>
        <time>2019-04-28T10:02:36Z</time>
      </trkpt>
      <trkpt lat="45.62889" lon="4.60393">
        <ele>821.4</ele>
        <time>2019-04-28T10:02:38Z</time>
      </trkpt>
      <trkpt lat="45.62882" lon="4.60412">
        <ele>820.2</ele>
        <time>2019-04-28T10:02:40Z</time>
      </trkpt>
      <trkpt lat="45.62879" lon="4.60422">
        <ele>819.7</ele>
        <time>2019-04-28T10:02:41Z</time>
      </trkpt>
      <trkpt lat="45.62875" lon="4.60433">
        <ele>819.1</ele>
        <time>2019-04-28T10:02:42Z</time>
      </trkpt>
      <trkpt lat="45.62866" lon="4.60464">
        <ele>817.2</ele>
        <time>2019-04-28T10:02:45Z</time>
      </trkpt>
      <trkpt lat="45.62859" lon="4.60485">
        <ele>816</ele>
        <time>2019-04-28T10:02:47Z</time>
      </trkpt>
      <trkpt lat="45.62851" lon="4.60504">
        <ele>814.8</ele>
        <time>2019-04-28T10:02:49Z</time>
      </trkpt>
      <trkpt lat="45.62846" lon="4.60512">
        <ele>814.2</ele>
        <time>2019-04-28T10:02:50Z</time>
      </trkpt>
      <trkpt lat="45.6284" lon="4.60519">
        <ele>813.6</ele>
        <time>2019-04-28T10:02:51Z</time>
      </trkpt>
      <trkpt lat="45.62828" lon="4.60529">
        <ele>812.5</ele>
        <time>2019-04-28T10:02:53Z</time>
      </trkpt>
      <trkpt lat="45.62821" lon="4.60531">
        <ele>811.9</ele>
        <time>2019-04-28T10:02:54Z</time>
      </trkpt>
      <trkpt lat="45.62814" lon="4.60532">
        <ele>811.4</ele>
        <time>2019-04-28T10:02:55Z</time>
      </trkpt>
      <trkpt lat="45.62802" lon="4.60533">
        <ele>810.4</ele>
        <time>2019-04-28T10:02:57Z</time>
      </trkpt>
      <trkpt lat="45.62798" lon="4.60537">
        <ele>808.9</ele>
        <time>2019-04-28T10:02:58Z</time>
      </trkpt>
      <trkpt lat="45.62796" lon="4.60541">
        <ele>808.3</ele>
        <time>2019-04-28T10:02:59Z</time>
      </trkpt>
      <trkpt lat="45.62798" lon="4.60547">
        <ele>807.5</ele>
        <time>2019-04-28T10:03:01Z</time>
      </trkpt>
      <trkpt lat="45.62806" lon="4.60553">
        <ele>806.2</ele>
        <time>2019-04-28T10:03:03Z</time>
      </trkpt>
      <trkpt lat="45.62811" lon="4.60557">
        <ele>805.3</ele>
        <time>2019-04-28T10:03:04Z</time>
      </trkpt>
      <trkpt lat="45.62815" lon="4.6056">
        <ele>804.6</ele>
        <time>2019-04-28T10:03:05Z</time>
      </trkpt>
      <trkpt lat="45.62828" lon="4.60563">
        <ele>803</ele>
        <time>2019-04-28T10:03:07Z</time>
      </trkpt>
      <trkpt lat="45.62835" lon="4.60563">
        <ele>802.1</ele>
        <time>2019-04-28T10:03:08Z</time>
      </trkpt>
      <trkpt lat="45.62842" lon="4.60561">
        <ele>801.2</ele>
        <time>2019-04-28T10:03:09Z</time>
      </trkpt>
      <trkpt lat="45.62853" lon="4.60557">
        <ele>799.9</ele>
        <time>2019-04-28T10:03:11Z</time>
      </trkpt>
      <trkpt lat="45.62859" lon="4.60555">
        <ele>799.2</ele>
        <time>2019-04-28T10:03:12Z</time>
      </trkpt>
      <trkpt lat="45.62866" lon="4.60553">
        <ele>798.4</ele>
        <time>2019-04-28T10:03:13Z</time>
      </trkpt>
      <trkpt lat="45.6288" lon="4.60547">
        <ele>796.6</ele>
        <time>2019-04-28T10:03:15Z</time>
      </trkpt>
      <trkpt lat="45.62894" lon="4.60539">
        <ele>794.9</ele>
        <time>2019-04-28T10:03:17Z</time>
      </trkpt>
      <trkpt lat="45.62909" lon="4.60532">
        <ele>793.2</ele>
        <time>2019-04-28T10:03:19Z</time>
      </trkpt>
      <trkpt lat="45.62922" lon="4.60525">
        <ele>791.5</ele>
        <time>2019-04-28T10:03:21Z</time>
      </trkpt>
      <trkpt lat="45.62929" lon="4.60522">
        <ele>790.7</ele>
        <time>2019-04-28T10:03:22Z</time>
      </trkpt>
      <trkpt lat="45.62935" lon="4.60519">
        <ele>789.9</ele>
        <time>2019-04-28T10:03:23Z</time>
      </trkpt>
      <trkpt lat="45.62939" lon="4.60516">
        <ele>788.9</ele>
        <time>2019-04-28T10:03:24Z</time>
      </trkpt>
      <trkpt lat="45.62944" lon="4.60511">
        <ele>787.6</ele>
        <time>2019-04-28T10:03:25Z</time>
      </trkpt>
      <trkpt lat="45.62953" lon="4.605">
        <ele>785.1</ele>
        <time>2019-04-28T10:03:27Z</time>
      </trkpt>
      <trkpt lat="45.62961" lon="4.60485">
        <ele>783</ele>
        <time>2019-04-28T10:03:29Z</time>
      </trkpt>
      <trkpt lat="45.62968" lon="4.60475">
        <ele>782.1</ele>
        <time>2019-04-28T10:03:31Z</time>
      </trkpt>
      <trkpt lat="45.62974" lon="4.6047">
        <ele>781.3</ele>
        <time>2019-04-28T10:03:33Z</time>
      </trkpt>
      <trkpt lat="45.6298" lon="4.60467">
        <ele>780.5</ele>
        <time>2019-04-28T10:03:35Z</time>
      </trkpt>
      <trkpt lat="45.6299" lon="4.60461">
        <ele>779.5</ele>
        <time>2019-04-28T10:03:37Z</time>
      </trkpt>
      <trkpt lat="45.62996" lon="4.60459">
        <ele>779.3</ele>
        <time>2019-04-28T10:03:38Z</time>
      </trkpt>
      <trkpt lat="45.63002" lon="4.60456">
        <ele>779.2</ele>
        <time>2019-04-28T10:03:39Z</time>
      </trkpt>
      <trkpt lat="45.63013" lon="4.60451">
        <ele>779.3</ele>
        <time>2019-04-28T10:03:41Z</time>
      </trkpt>
      <trkpt lat="45.63018" lon="4.6045">
        <ele>779.4</ele>
        <time>2019-04-28T10:03:42Z</time>
      </trkpt>
      <trkpt lat="45.63024" lon="4.6045">
        <ele>779.6</ele>
        <time>2019-04-28T10:03:43Z</time>
      </trkpt>
      <trkpt lat="45.63029" lon="4.6045">
        <ele>779.8</ele>
        <time>2019-04-28T10:03:44Z</time>
      </trkpt>
      <trkpt lat="45.63037" lon="4.60448">
        <ele>780.1</ele>
        <time>2019-04-28T10:03:46Z</time>
      </trkpt>
      <trkpt lat="45.63047" lon="4.60448">
        <ele>780.5</ele>
        <time>2019-04-28T10:03:49Z</time>
      </trkpt>
      <trkpt lat="45.63063" lon="4.60457">
        <ele>781.2</ele>
        <time>2019-04-28T10:03:55Z</time>
      </trkpt>
      <trkpt lat="45.63076" lon="4.60469">
        <ele>781.7</ele>
        <time>2019-04-28T10:04:00Z</time>
      </trkpt>
      <trkpt lat="45.63082" lon="4.60477">
        <ele>782</ele>
        <time>2019-04-28T10:04:02Z</time>
      </trkpt>
      <trkpt lat="45.6309" lon="4.60488">
        <ele>782.4</ele>
        <time>2019-04-28T10:04:05Z</time>
      </trkpt>
      <trkpt lat="45.63108" lon="4.6051">
        <ele>781.9</ele>
        <time>2019-04-28T10:04:11Z</time>
      </trkpt>
      <trkpt lat="45.63118" lon="4.6053">
        <ele>777.6</ele>
        <time>2019-04-28T10:04:14Z</time>
      </trkpt>
      <trkpt lat="45.63122" lon="4.60539">
        <ele>774.3</ele>
        <time>2019-04-28T10:04:15Z</time>
      </trkpt>
      <trkpt lat="45.63125" lon="4.60548">
        <ele>772.2</ele>
        <time>2019-04-28T10:04:16Z</time>
      </trkpt>
      <trkpt lat="45.63133" lon="4.60566">
        <ele>768.2</ele>
        <time>2019-04-28T10:04:18Z</time>
      </trkpt>
      <trkpt lat="45.63142" lon="4.60582">
        <ele>768.7</ele>
        <time>2019-04-28T10:04:20Z</time>
      </trkpt>
      <trkpt lat="45.63149" lon="4.60589">
        <ele>768.9</ele>
        <time>2019-04-28T10:04:21Z</time>
      </trkpt>
      <trkpt lat="45.63161" lon="4.60603">
        <ele>767.4</ele>
        <time>2019-04-28T10:04:23Z</time>
      </trkpt>
      <trkpt lat="45.63169" lon="4.60619">
        <ele>768.1</ele>
        <time>2019-04-28T10:04:25Z</time>
      </trkpt>
      <trkpt lat="45.63171" lon="4.60627">
        <ele>766.8</ele>
        <time>2019-04-28T10:04:26Z</time>
      </trkpt>
      <trkpt lat="45.63175" lon="4.60642">
        <ele>752.6</ele>
        <time>2019-04-28T10:04:28Z</time>
      </trkpt>
      <trkpt lat="45.63176" lon="4.60656">
        <ele>738.1</ele>
        <time>2019-04-28T10:04:30Z</time>
      </trkpt>
      <trkpt lat="45.63176" lon="4.60672">
        <ele>737.2</ele>
        <time>2019-04-28T10:04:32Z</time>
      </trkpt>
      <trkpt lat="45.63178" lon="4.6069">
        <ele>736.2</ele>
        <time>2019-04-28T10:04:34Z</time>
      </trkpt>
      <trkpt lat="45.6318" lon="4.60698">
        <ele>735.7</ele>
        <time>2019-04-28T10:04:35Z</time>
      </trkpt>
      <trkpt lat="45.63183" lon="4.60707">
        <ele>735.2</ele>
        <time>2019-04-28T10:04:36Z</time>
      </trkpt>
      <trkpt lat="45.63187" lon="4.60727">
        <ele>734</ele>
        <time>2019-04-28T10:04:38Z</time>
      </trkpt>
      <trkpt lat="45.63192" lon="4.60747">
        <ele>732.7</ele>
        <time>2019-04-28T10:04:40Z</time>
      </trkpt>
      <trkpt lat="45.63196" lon="4.60758">
        <ele>732</ele>
        <time>2019-04-28T10:04:41Z</time>
      </trkpt>
      <trkpt lat="45.63207" lon="4.60793">
        <ele>730</ele>
        <time>2019-04-28T10:04:44Z</time>
      </trkpt>
      <trkpt lat="45.63212" lon="4.60805">
        <ele>729.3</ele>
        <time>2019-04-28T10:04:45Z</time>
      </trkpt>
      <trkpt lat="45.63217" lon="4.60816">
        <ele>728.6</ele>
        <time>2019-04-28T10:04:46Z</time>
      </trkpt>
      <trkpt lat="45.63227" lon="4.60841">
        <ele>726.9</ele>
        <time>2019-04-28T10:04:48Z</time>
      </trkpt>
      <trkpt lat="45.63232" lon="4.60855">
        <ele>725.9</ele>
        <time>2019-04-28T10:04:49Z</time>
      </trkpt>
      <trkpt lat="45.63236" lon="4.60868">
        <ele>724.9</ele>
        <time>2019-04-28T10:04:50Z</time>
      </trkpt>
      <trkpt lat="45.63245" lon="4.60897">
        <ele>722.6</ele>
        <time>2019-04-28T10:04:52Z</time>
      </trkpt>
      <trkpt lat="45.63255" lon="4.60926">
        <ele>720.1</ele>
        <time>2019-04-28T10:04:54Z</time>
      </trkpt>
      <trkpt lat="45.63261" lon="4.60942">
        <ele>718.9</ele>
        <time>2019-04-28T10:04:55Z</time>
      </trkpt>
      <trkpt lat="45.63267" lon="4.60957">
        <ele>717.8</ele>
        <time>2019-04-28T10:04:56Z</time>
      </trkpt>
      <trkpt lat="45.63279" lon="4.6099">
        <ele>715.7</ele>
        <time>2019-04-28T10:04:58Z</time>
      </trkpt>
      <trkpt lat="45.63284" lon="4.61006">
        <ele>714.6</ele>
        <time>2019-04-28T10:04:59Z</time>
      </trkpt>
      <trkpt lat="45.63289" lon="4.61019">
        <ele>713.3</ele>
        <time>2019-04-28T10:05:00Z</time>
      </trkpt>
      <trkpt lat="45.63292" lon="4.61032">
        <ele>712.3</ele>
        <time>2019-04-28T10:05:01Z</time>
      </trkpt>
      <trkpt lat="45.63294" lon="4.61045">
        <ele>711.3</ele>
        <time>2019-04-28T10:05:02Z</time>
      </trkpt>
      <trkpt lat="45.63296" lon="4.61056">
        <ele>710.6</ele>
        <time>2019-04-28T10:05:03Z</time>
      </trkpt>
      <trkpt lat="45.63298" lon="4.61066">
        <ele>709.8</ele>
        <time>2019-04-28T10:05:04Z</time>
      </trkpt>
      <trkpt lat="45.633" lon="4.61075">
        <ele>709.8</ele>
        <time>2019-04-28T10:05:05Z</time>
      </trkpt>
      <trkpt lat="45.63305" lon="4.61077">
        <ele>709.8</ele>
        <time>2019-04-28T10:05:06Z</time>
      </trkpt>
      <trkpt lat="45.6331" lon="4.6108">
        <ele>709.5</ele>
        <time>2019-04-28T10:05:07Z</time>
      </trkpt>
      <trkpt lat="45.63312" lon="4.61084">
        <ele>709.2</ele>
        <time>2019-04-28T10:05:08Z</time>
      </trkpt>
      <trkpt lat="45.63315" lon="4.61086">
        <ele>708.9</ele>
        <time>2019-04-28T10:05:09Z</time>
      </trkpt>
      <trkpt lat="45.63317" lon="4.61089">
        <ele>708.7</ele>
        <time>2019-04-28T10:05:10Z</time>
      </trkpt>
      <trkpt lat="45.63319" lon="4.61091">
        <ele>708.5</ele>
        <time>2019-04-28T10:05:11Z</time>
      </trkpt>
      <trkpt lat="45.63323" lon="4.61092">
        <ele>708.1</ele>
        <time>2019-04-28T10:05:13Z</time>
      </trkpt>
      <trkpt lat="45.63327" lon="4.61094">
        <ele>707.7</ele>
        <time>2019-04-28T10:05:15Z</time>
      </trkpt>
      <trkpt lat="45.6333" lon="4.61095">
        <ele>707.5</ele>
        <time>2019-04-28T10:05:16Z</time>
      </trkpt>
      <trkpt lat="45.63333" lon="4.61097">
        <ele>707.2</ele>
        <time>2019-04-28T10:05:17Z</time>
      </trkpt>
      <trkpt lat="45.63337" lon="4.611">
        <ele>706.7</ele>
        <time>2019-04-28T10:05:19Z</time>
      </trkpt>
      <trkpt lat="45.6334" lon="4.61103">
        <ele>706.5</ele>
        <time>2019-04-28T10:05:21Z</time>
      </trkpt>
      <trkpt lat="45.63343" lon="4.61105">
        <ele>706.1</ele>
        <time>2019-04-28T10:05:23Z</time>
      </trkpt>
      <trkpt lat="45.63348" lon="4.61107">
        <ele>706.4</ele>
        <time>2019-04-28T10:05:26Z</time>
      </trkpt>
      <trkpt lat="45.63345" lon="4.61102">
        <ele>706.7</ele>
        <time>2019-04-28T10:05:33Z</time>
      </trkpt>
      <trkpt lat="45.63341" lon="4.61097">
        <ele>707.1</ele>
        <time>2019-04-28T10:05:36Z</time>
      </trkpt>
      <trkpt lat="45.63338" lon="4.61091">
        <ele>707.5</ele>
        <time>2019-04-28T10:05:40Z</time>
      </trkpt>
      <trkpt lat="45.63336" lon="4.61086">
        <ele>707.7</ele>
        <time>2019-04-28T10:05:42Z</time>
      </trkpt>
      <trkpt lat="45.63333" lon="4.61079">
        <ele>708.2</ele>
        <time>2019-04-28T10:05:45Z</time>
      </trkpt>
      <trkpt lat="45.63327" lon="4.61072">
        <ele>708.8</ele>
        <time>2019-04-28T10:05:48Z</time>
      </trkpt>
      <trkpt lat="45.63314" lon="4.6106">
        <ele>709.6</ele>
        <time>2019-04-28T10:05:53Z</time>
      </trkpt>
      <trkpt lat="45.63311" lon="4.61056">
        <ele>709.4</ele>
        <time>2019-04-28T10:05:54Z</time>
      </trkpt>
      <trkpt lat="45.63296" lon="4.61038">
        <ele>708.3</ele>
        <time>2019-04-28T10:05:58Z</time>
      </trkpt>
      <trkpt lat="45.63289" lon="4.61027">
        <ele>707.6</ele>
        <time>2019-04-28T10:06:00Z</time>
      </trkpt>
      <trkpt lat="45.63275" lon="4.61005">
        <ele>706.4</ele>
        <time>2019-04-28T10:06:04Z</time>
      </trkpt>
      <trkpt lat="45.63262" lon="4.60987">
        <ele>705.1</ele>
        <time>2019-04-28T10:06:07Z</time>
      </trkpt>
      <trkpt lat="45.63252" lon="4.60975">
        <ele>704.3</ele>
        <time>2019-04-28T10:06:09Z</time>
      </trkpt>
      <trkpt lat="45.63247" lon="4.60968">
        <ele>703.8</ele>
        <time>2019-04-28T10:06:10Z</time>
      </trkpt>
      <trkpt lat="45.63226" lon="4.60944">
        <ele>701.7</ele>
        <time>2019-04-28T10:06:14Z</time>
      </trkpt>
      <trkpt lat="45.63221" lon="4.60938">
        <ele>701.1</ele>
        <time>2019-04-28T10:06:15Z</time>
      </trkpt>
      <trkpt lat="45.63212" lon="4.60926">
        <ele>699.7</ele>
        <time>2019-04-28T10:06:17Z</time>
      </trkpt>
      <trkpt lat="45.63195" lon="4.60908">
        <ele>697.3</ele>
        <time>2019-04-28T10:06:20Z</time>
      </trkpt>
      <trkpt lat="45.63189" lon="4.60902">
        <ele>696.6</ele>
        <time>2019-04-28T10:06:21Z</time>
      </trkpt>
      <trkpt lat="45.63184" lon="4.60895">
        <ele>695.5</ele>
        <time>2019-04-28T10:06:22Z</time>
      </trkpt>
      <trkpt lat="45.63172" lon="4.60875">
        <ele>693.9</ele>
        <time>2019-04-28T10:06:25Z</time>
      </trkpt>
      <trkpt lat="45.63168" lon="4.60869">
        <ele>693.1</ele>
        <time>2019-04-28T10:06:26Z</time>
      </trkpt>
      <trkpt lat="45.63163" lon="4.60864">
        <ele>692.1</ele>
        <time>2019-04-28T10:06:27Z</time>
      </trkpt>
      <trkpt lat="45.63157" lon="4.6086">
        <ele>691.4</ele>
        <time>2019-04-28T10:06:28Z</time>
      </trkpt>
      <trkpt lat="45.63146" lon="4.60851">
        <ele>689.9</ele>
        <time>2019-04-28T10:06:30Z</time>
      </trkpt>
      <trkpt lat="45.6314" lon="4.60846">
        <ele>689.2</ele>
        <time>2019-04-28T10:06:31Z</time>
      </trkpt>
      <trkpt lat="45.63119" lon="4.60827">
        <ele>687.3</ele>
        <time>2019-04-28T10:06:34Z</time>
      </trkpt>
      <trkpt lat="45.63105" lon="4.60814">
        <ele>686</ele>
        <time>2019-04-28T10:06:36Z</time>
      </trkpt>
      <trkpt lat="45.63093" lon="4.60799">
        <ele>684.9</ele>
        <time>2019-04-28T10:06:38Z</time>
      </trkpt>
      <trkpt lat="45.63088" lon="4.60791">
        <ele>684.5</ele>
        <time>2019-04-28T10:06:39Z</time>
      </trkpt>
      <trkpt lat="45.63084" lon="4.60786">
        <ele>684.3</ele>
        <time>2019-04-28T10:06:40Z</time>
      </trkpt>
      <trkpt lat="45.63081" lon="4.60781">
        <ele>684.1</ele>
        <time>2019-04-28T10:06:41Z</time>
      </trkpt>
      <trkpt lat="45.63078" lon="4.60777">
        <ele>683.9</ele>
        <time>2019-04-28T10:06:42Z</time>
      </trkpt>
      <trkpt lat="45.63071" lon="4.60772">
        <ele>683.6</ele>
        <time>2019-04-28T10:06:45Z</time>
      </trkpt>
      <trkpt lat="45.63067" lon="4.60771">
        <ele>683.5</ele>
        <time>2019-04-28T10:06:46Z</time>
      </trkpt>
      <trkpt lat="45.63064" lon="4.60771">
        <ele>683.3</ele>
        <time>2019-04-28T10:06:47Z</time>
      </trkpt>
      <trkpt lat="45.63055" lon="4.60773">
        <ele>682.8</ele>
        <time>2019-04-28T10:06:49Z</time>
      </trkpt>
      <trkpt lat="45.63051" lon="4.60774">
        <ele>682.7</ele>
        <time>2019-04-28T10:06:50Z</time>
      </trkpt>
      <trkpt lat="45.63038" lon="4.60774">
        <ele>682.2</ele>
        <time>2019-04-28T10:06:54Z</time>
      </trkpt>
      <trkpt lat="45.63018" lon="4.60779">
        <ele>681.7</ele>
        <time>2019-04-28T10:06:59Z</time>
      </trkpt>
      <trkpt lat="45.63015" lon="4.60782">
        <ele>681.7</ele>
        <time>2019-04-28T10:07:00Z</time>
      </trkpt>
      <trkpt lat="45.62999" lon="4.60801">
        <ele>681.8</ele>
        <time>2019-04-28T10:07:05Z</time>
      </trkpt>
      <trkpt lat="45.62984" lon="4.60821">
        <ele>682</ele>
        <time>2019-04-28T10:07:11Z</time>
      </trkpt>
      <trkpt lat="45.62977" lon="4.60836">
        <ele>682.2</ele>
        <time>2019-04-28T10:07:16Z</time>
      </trkpt>
      <trkpt lat="45.62973" lon="4.60858">
        <ele>682.3</ele>
        <time>2019-04-28T10:07:21Z</time>
      </trkpt>
      <trkpt lat="45.6297" lon="4.60889">
        <ele>681.9</ele>
        <time>2019-04-28T10:07:26Z</time>
      </trkpt>
      <trkpt lat="45.62969" lon="4.60895">
        <ele>681.7</ele>
        <time>2019-04-28T10:07:27Z</time>
      </trkpt>
      <trkpt lat="45.62965" lon="4.60931">
        <ele>680.4</ele>
        <time>2019-04-28T10:07:32Z</time>
      </trkpt>
      <trkpt lat="45.6296" lon="4.6097">
        <ele>678.8</ele>
        <time>2019-04-28T10:07:37Z</time>
      </trkpt>
      <trkpt lat="45.62955" lon="4.60999">
        <ele>678.1</ele>
        <time>2019-04-28T10:07:40Z</time>
      </trkpt>
      <trkpt lat="45.62944" lon="4.6106">
        <ele>676.8</ele>
        <time>2019-04-28T10:07:46Z</time>
      </trkpt>
      <trkpt lat="45.62933" lon="4.61096">
        <ele>676.1</ele>
        <time>2019-04-28T10:07:50Z</time>
      </trkpt>
      <trkpt lat="45.62916" lon="4.61149">
        <ele>674.3</ele>
        <time>2019-04-28T10:07:56Z</time>
      </trkpt>
      <trkpt lat="45.62905" lon="4.61203">
        <ele>672.2</ele>
        <time>2019-04-28T10:08:01Z</time>
      </trkpt>
      <trkpt lat="45.62902" lon="4.61213">
        <ele>671.8</ele>
        <time>2019-04-28T10:08:02Z</time>
      </trkpt>
      <trkpt lat="45.62899" lon="4.61222">
        <ele>671.5</ele>
        <time>2019-04-28T10:08:03Z</time>
      </trkpt>
      <trkpt lat="45.62888" lon="4.61247">
        <ele>670.1</ele>
        <time>2019-04-28T10:08:06Z</time>
      </trkpt>
      <trkpt lat="45.62879" lon="4.61277">
        <ele>668.2</ele>
        <time>2019-04-28T10:08:09Z</time>
      </trkpt>
      <trkpt lat="45.62871" lon="4.61308">
        <ele>665.7</ele>
        <time>2019-04-28T10:08:12Z</time>
      </trkpt>
      <trkpt lat="45.62866" lon="4.61329">
        <ele>663.2</ele>
        <time>2019-04-28T10:08:14Z</time>
      </trkpt>
      <trkpt lat="45.62856" lon="4.61372">
        <ele>659.2</ele>
        <time>2019-04-28T10:08:18Z</time>
      </trkpt>
      <trkpt lat="45.62832" lon="4.61445">
        <ele>653.1</ele>
        <time>2019-04-28T10:08:25Z</time>
      </trkpt>
      <trkpt lat="45.62824" lon="4.61465">
        <ele>651.6</ele>
        <time>2019-04-28T10:08:27Z</time>
      </trkpt>
      <trkpt lat="45.62812" lon="4.61495">
        <ele>648.6</ele>
        <time>2019-04-28T10:08:30Z</time>
      </trkpt>
      <trkpt lat="45.62809" lon="4.61506">
        <ele>647.7</ele>
        <time>2019-04-28T10:08:31Z</time>
      </trkpt>
      <trkpt lat="45.62803" lon="4.61531">
        <ele>646.4</ele>
        <time>2019-04-28T10:08:33Z</time>
      </trkpt>
      <trkpt lat="45.62799" lon="4.61543">
        <ele>645.8</ele>
        <time>2019-04-28T10:08:34Z</time>
      </trkpt>
      <trkpt lat="45.62795" lon="4.61555">
        <ele>645.2</ele>
        <time>2019-04-28T10:08:35Z</time>
      </trkpt>
      <trkpt lat="45.6279" lon="4.61564">
        <ele>644.7</ele>
        <time>2019-04-28T10:08:36Z</time>
      </trkpt>
      <trkpt lat="45.62786" lon="4.61573">
        <ele>644.1</ele>
        <time>2019-04-28T10:08:37Z</time>
      </trkpt>
      <trkpt lat="45.62782" lon="4.61581">
        <ele>643.6</ele>
        <time>2019-04-28T10:08:38Z</time>
      </trkpt>
      <trkpt lat="45.62776" lon="4.61587">
        <ele>643.2</ele>
        <time>2019-04-28T10:08:39Z</time>
      </trkpt>
      <trkpt lat="45.62769" lon="4.61592">
        <ele>642.7</ele>
        <time>2019-04-28T10:08:40Z</time>
      </trkpt>
      <trkpt lat="45.62763" lon="4.61598">
        <ele>642.3</ele>
        <time>2019-04-28T10:08:41Z</time>
      </trkpt>
      <trkpt lat="45.62757" lon="4.61603">
        <ele>641.9</ele>
        <time>2019-04-28T10:08:42Z</time>
      </trkpt>
      <trkpt lat="45.6275" lon="4.61605">
        <ele>641.4</ele>
        <time>2019-04-28T10:08:43Z</time>
      </trkpt>
      <trkpt lat="45.62738" lon="4.61609">
        <ele>640.6</ele>
        <time>2019-04-28T10:08:45Z</time>
      </trkpt>
      <trkpt lat="45.62733" lon="4.61611">
        <ele>640.2</ele>
        <time>2019-04-28T10:08:46Z</time>
      </trkpt>
      <trkpt lat="45.62727" lon="4.6161">
        <ele>639.7</ele>
        <time>2019-04-28T10:08:47Z</time>
      </trkpt>
      <trkpt lat="45.62722" lon="4.6161">
        <ele>639.3</ele>
        <time>2019-04-28T10:08:48Z</time>
      </trkpt>
      <trkpt lat="45.62718" lon="4.61608">
        <ele>638.9</ele>
        <time>2019-04-28T10:08:49Z</time>
      </trkpt>
      <trkpt lat="45.62713" lon="4.61607">
        <ele>638.5</ele>
        <time>2019-04-28T10:08:50Z</time>
      </trkpt>
      <trkpt lat="45.62701" lon="4.61603">
        <ele>637.6</ele>
        <time>2019-04-28T10:08:52Z</time>
      </trkpt>
      <trkpt lat="45.62687" lon="4.61597">
        <ele>636.4</ele>
        <time>2019-04-28T10:08:54Z</time>
      </trkpt>
      <trkpt lat="45.6268" lon="4.61593">
        <ele>635.5</ele>
        <time>2019-04-28T10:08:55Z</time>
      </trkpt>
      <trkpt lat="45.62665" lon="4.61584">
        <ele>632.9</ele>
        <time>2019-04-28T10:08:57Z</time>
      </trkpt>
      <trkpt lat="45.62653" lon="4.61577">
        <ele>631</ele>
        <time>2019-04-28T10:08:59Z</time>
      </trkpt>
      <trkpt lat="45.62649" lon="4.61574">
        <ele>630.4</ele>
        <time>2019-04-28T10:09:00Z</time>
      </trkpt>
      <trkpt lat="45.62645" lon="4.61572">
        <ele>629.9</ele>
        <time>2019-04-28T10:09:01Z</time>
      </trkpt>
      <trkpt lat="45.62641" lon="4.6157">
        <ele>629.3</ele>
        <time>2019-04-28T10:09:02Z</time>
      </trkpt>
      <trkpt lat="45.62634" lon="4.61566">
        <ele>627.8</ele>
        <time>2019-04-28T10:09:04Z</time>
      </trkpt>
      <trkpt lat="45.6263" lon="4.61567">
        <ele>627.1</ele>
        <time>2019-04-28T10:09:05Z</time>
      </trkpt>
      <trkpt lat="45.62628" lon="4.61569">
        <ele>626.5</ele>
        <time>2019-04-28T10:09:06Z</time>
      </trkpt>
      <trkpt lat="45.62626" lon="4.61578">
        <ele>625.2</ele>
        <time>2019-04-28T10:09:08Z</time>
      </trkpt>
      <trkpt lat="45.62624" lon="4.61581">
        <ele>624.6</ele>
        <time>2019-04-28T10:09:09Z</time>
      </trkpt>
      <trkpt lat="45.62622" lon="4.61584">
        <ele>624.1</ele>
        <time>2019-04-28T10:09:10Z</time>
      </trkpt>
      <trkpt lat="45.6262" lon="4.61585">
        <ele>623.7</ele>
        <time>2019-04-28T10:09:11Z</time>
      </trkpt>
      <trkpt lat="45.62618" lon="4.61584">
        <ele>623.6</ele>
        <time>2019-04-28T10:09:12Z</time>
      </trkpt>
      <trkpt lat="45.62616" lon="4.61582">
        <ele>623.6</ele>
        <time>2019-04-28T10:09:13Z</time>
      </trkpt>
      <trkpt lat="45.62614" lon="4.6158">
        <ele>623.7</ele>
        <time>2019-04-28T10:09:14Z</time>
      </trkpt>
      <trkpt lat="45.62611" lon="4.61577">
        <ele>623.7</ele>
        <time>2019-04-28T10:09:15Z</time>
      </trkpt>
      <trkpt lat="45.62609" lon="4.61573">
        <ele>623.8</ele>
        <time>2019-04-28T10:09:16Z</time>
      </trkpt>
      <trkpt lat="45.62605" lon="4.61565">
        <ele>624</ele>
        <time>2019-04-28T10:09:18Z</time>
      </trkpt>
      <trkpt lat="45.62601" lon="4.61559">
        <ele>624.2</ele>
        <time>2019-04-28T10:09:20Z</time>
      </trkpt>
      <trkpt lat="45.62595" lon="4.61551">
        <ele>624.4</ele>
        <time>2019-04-28T10:09:23Z</time>
      </trkpt>
      <trkpt lat="45.62591" lon="4.61546">
        <ele>624.5</ele>
        <time>2019-04-28T10:09:25Z</time>
      </trkpt>
      <trkpt lat="45.62579" lon="4.61536">
        <ele>624.8</ele>
        <time>2019-04-28T10:09:31Z</time>
      </trkpt>
      <trkpt lat="45.62569" lon="4.61533">
        <ele>625.1</ele>
        <time>2019-04-28T10:09:35Z</time>
      </trkpt>
      <trkpt lat="45.6256" lon="4.61533">
        <ele>625.5</ele>
        <time>2019-04-28T10:09:38Z</time>
      </trkpt>
      <trkpt lat="45.62551" lon="4.61532">
        <ele>625.8</ele>
        <time>2019-04-28T10:09:41Z</time>
      </trkpt>
      <trkpt lat="45.62538" lon="4.61533">
        <ele>626.2</ele>
        <time>2019-04-28T10:09:45Z</time>
      </trkpt>
      <trkpt lat="45.6252" lon="4.61538">
        <ele>626</ele>
        <time>2019-04-28T10:09:51Z</time>
      </trkpt>
      <trkpt lat="45.62506" lon="4.61545">
        <ele>625.1</ele>
        <time>2019-04-28T10:09:54Z</time>
      </trkpt>
      <trkpt lat="45.62492" lon="4.61553">
        <ele>623.9</ele>
        <time>2019-04-28T10:09:57Z</time>
      </trkpt>
      <trkpt lat="45.62487" lon="4.61556">
        <ele>623.4</ele>
        <time>2019-04-28T10:09:58Z</time>
      </trkpt>
      <trkpt lat="45.62467" lon="4.61568">
        <ele>621.4</ele>
        <time>2019-04-28T10:10:02Z</time>
      </trkpt>
      <trkpt lat="45.62461" lon="4.61571">
        <ele>621</ele>
        <time>2019-04-28T10:10:03Z</time>
      </trkpt>
      <trkpt lat="45.62434" lon="4.6159">
        <ele>620</ele>
        <time>2019-04-28T10:10:09Z</time>
      </trkpt>
      <trkpt lat="45.62421" lon="4.61598">
        <ele>619.9</ele>
        <time>2019-04-28T10:10:12Z</time>
      </trkpt>
      <trkpt lat="45.62412" lon="4.61598">
        <ele>620</ele>
        <time>2019-04-28T10:10:14Z</time>
      </trkpt>
      <trkpt lat="45.62387" lon="4.61595">
        <ele>620.8</ele>
        <time>2019-04-28T10:10:20Z</time>
      </trkpt>
      <trkpt lat="45.6238" lon="4.61593">
        <ele>621</ele>
        <time>2019-04-28T10:10:22Z</time>
      </trkpt>
      <trkpt lat="45.62372" lon="4.61591">
        <ele>621.2</ele>
        <time>2019-04-28T10:10:24Z</time>
      </trkpt>
      <trkpt lat="45.6236" lon="4.61585">
        <ele>621.7</ele>
        <time>2019-04-28T10:10:27Z</time>
      </trkpt>
      <trkpt lat="45.6235" lon="4.61579">
        <ele>622.3</ele>
        <time>2019-04-28T10:10:30Z</time>
      </trkpt>
      <trkpt lat="45.62343" lon="4.61575">
        <ele>622.8</ele>
        <time>2019-04-28T10:10:32Z</time>
      </trkpt>
      <trkpt lat="45.62334" lon="4.61567">
        <ele>623.8</ele>
        <time>2019-04-28T10:10:36Z</time>
      </trkpt>
      <trkpt lat="45.62331" lon="4.61565">
        <ele>624.1</ele>
        <time>2019-04-28T10:10:37Z</time>
      </trkpt>
      <trkpt lat="45.62326" lon="4.6156">
        <ele>624.7</ele>
        <time>2019-04-28T10:10:39Z</time>
      </trkpt>
      <trkpt lat="45.6232" lon="4.61554">
        <ele>625.1</ele>
        <time>2019-04-28T10:10:42Z</time>
      </trkpt>
      <trkpt lat="45.62319" lon="4.61548">
        <ele>625.9</ele>
        <time>2019-04-28T10:10:44Z</time>
      </trkpt>
      <trkpt lat="45.62317" lon="4.61539">
        <ele>627</ele>
        <time>2019-04-28T10:10:48Z</time>
      </trkpt>
      <trkpt lat="45.62316" lon="4.61537">
        <ele>627.2</ele>
        <time>2019-04-28T10:10:49Z</time>
      </trkpt>
      <trkpt lat="45.62313" lon="4.61528">
        <ele>628.4</ele>
        <time>2019-04-28T10:10:54Z</time>
      </trkpt>
      <trkpt lat="45.62312" lon="4.61523">
        <ele>629.1</ele>
        <time>2019-04-28T10:10:57Z</time>
      </trkpt>
      <trkpt lat="45.6231" lon="4.6152">
        <ele>629.8</ele>
        <time>2019-04-28T10:10:59Z</time>
      </trkpt>
      <trkpt lat="45.62304" lon="4.61512">
        <ele>631.4</ele>
        <time>2019-04-28T10:11:04Z</time>
      </trkpt>
      <trkpt lat="45.62303" lon="4.61511">
        <ele>631.6</ele>
        <time>2019-04-28T10:11:05Z</time>
      </trkpt>
      <trkpt lat="45.62299" lon="4.61502">
        <ele>633.2</ele>
        <time>2019-04-28T10:11:11Z</time>
      </trkpt>
      <trkpt lat="45.62294" lon="4.61496">
        <ele>634.5</ele>
        <time>2019-04-28T10:11:15Z</time>
      </trkpt>
      <trkpt lat="45.62291" lon="4.61492">
        <ele>635.6</ele>
        <time>2019-04-28T10:11:18Z</time>
      </trkpt>
      <trkpt lat="45.62288" lon="4.61487">
        <ele>636.6</ele>
        <time>2019-04-28T10:11:21Z</time>
      </trkpt>
      <trkpt lat="45.62286" lon="4.61483">
        <ele>638.1</ele>
        <time>2019-04-28T10:11:24Z</time>
      </trkpt>
      <trkpt lat="45.62283" lon="4.6148">
        <ele>638.9</ele>
        <time>2019-04-28T10:11:28Z</time>
      </trkpt>
      <trkpt lat="45.62283" lon="4.61477">
        <ele>639.4</ele>
        <time>2019-04-28T10:11:30Z</time>
      </trkpt>
      <trkpt lat="45.62283" lon="4.61471">
        <ele>640.5</ele>
        <time>2019-04-28T10:11:33Z</time>
      </trkpt>
      <trkpt lat="45.62282" lon="4.6147">
        <ele>640.8</ele>
        <time>2019-04-28T10:11:34Z</time>
      </trkpt>
      <trkpt lat="45.6228" lon="4.61467">
        <ele>641.5</ele>
        <time>2019-04-28T10:11:36Z</time>
      </trkpt>
      <trkpt lat="45.62275" lon="4.61461">
        <ele>643.2</ele>
        <time>2019-04-28T10:11:41Z</time>
      </trkpt>
      <trkpt lat="45.62272" lon="4.61454">
        <ele>644.5</ele>
        <time>2019-04-28T10:11:45Z</time>
      </trkpt>
      <trkpt lat="45.62266" lon="4.61447">
        <ele>646.1</ele>
        <time>2019-04-28T10:11:51Z</time>
      </trkpt>
      <trkpt lat="45.6226" lon="4.61438">
        <ele>647.4</ele>
        <time>2019-04-28T10:11:58Z</time>
      </trkpt>
      <trkpt lat="45.62259" lon="4.61438">
        <ele>647.6</ele>
        <time>2019-04-28T10:11:59Z</time>
      </trkpt>
      <trkpt lat="45.62253" lon="4.6143">
        <ele>648.6</ele>
        <time>2019-04-28T10:12:05Z</time>
      </trkpt>
      <trkpt lat="45.62251" lon="4.61428">
        <ele>649.1</ele>
        <time>2019-04-28T10:12:07Z</time>
      </trkpt>
      <trkpt lat="45.62241" lon="4.61419">
        <ele>650.7</ele>
        <time>2019-04-28T10:12:16Z</time>
      </trkpt>
      <trkpt lat="45.62237" lon="4.61415">
        <ele>651.2</ele>
        <time>2019-04-28T10:12:19Z</time>
      </trkpt>
      <trkpt lat="45.62226" lon="4.61407">
        <ele>652.4</ele>
        <time>2019-04-28T10:12:26Z</time>
      </trkpt>
      <trkpt lat="45.62216" lon="4.61402">
        <ele>653.6</ele>
        <time>2019-04-28T10:12:33Z</time>
      </trkpt>
      <trkpt lat="45.62209" lon="4.61398">
        <ele>654.5</ele>
        <time>2019-04-28T10:12:38Z</time>
      </trkpt>
      <trkpt lat="45.62206" lon="4.61396">
        <ele>655</ele>
        <time>2019-04-28T10:12:41Z</time>
      </trkpt>
      <trkpt lat="45.62199" lon="4.61391">
        <ele>655.9</ele>
        <time>2019-04-28T10:12:46Z</time>
      </trkpt>
      <trkpt lat="45.62198" lon="4.6139">
        <ele>656.1</ele>
        <time>2019-04-28T10:12:47Z</time>
      </trkpt>
      <trkpt lat="45.62193" lon="4.61383">
        <ele>656.9</ele>
        <time>2019-04-28T10:12:52Z</time>
      </trkpt>
      <trkpt lat="45.62189" lon="4.61376">
        <ele>657.5</ele>
        <time>2019-04-28T10:12:57Z</time>
      </trkpt>
      <trkpt lat="45.62188" lon="4.61372">
        <ele>657.7</ele>
        <time>2019-04-28T10:12:59Z</time>
      </trkpt>
      <trkpt lat="45.62184" lon="4.61366">
        <ele>658.1</ele>
        <time>2019-04-28T10:13:03Z</time>
      </trkpt>
      <trkpt lat="45.62175" lon="4.61352">
        <ele>658.8</ele>
        <time>2019-04-28T10:13:33Z</time>
      </trkpt>
      <trkpt lat="45.62168" lon="4.6135">
        <ele>659.2</ele>
        <time>2019-04-28T10:13:36Z</time>
      </trkpt>
      <trkpt lat="45.62166" lon="4.61349">
        <ele>659.2</ele>
        <time>2019-04-28T10:13:37Z</time>
      </trkpt>
      <trkpt lat="45.6216" lon="4.61344">
        <ele>659.5</ele>
        <time>2019-04-28T10:13:41Z</time>
      </trkpt>
      <trkpt lat="45.62159" lon="4.61342">
        <ele>659.7</ele>
        <time>2019-04-28T10:13:42Z</time>
      </trkpt>
      <trkpt lat="45.62159" lon="4.61341">
        <ele>659.8</ele>
        <time>2019-04-28T10:13:43Z</time>
      </trkpt>
      <trkpt lat="45.62149" lon="4.61324">
        <ele>661</ele>
        <time>2019-04-28T10:13:55Z</time>
      </trkpt>
      <trkpt lat="45.62147" lon="4.61321">
        <ele>661.2</ele>
        <time>2019-04-28T10:13:56Z</time>
      </trkpt>
      <trkpt lat="45.62129" lon="4.613">
        <ele>662.9</ele>
        <time>2019-04-28T10:14:10Z</time>
      </trkpt>
      <trkpt lat="45.62127" lon="4.61299">
        <ele>663</ele>
        <time>2019-04-28T10:14:11Z</time>
      </trkpt>
      <trkpt lat="45.62124" lon="4.61296">
        <ele>663.2</ele>
        <time>2019-04-28T10:14:13Z</time>
      </trkpt>
      <trkpt lat="45.62123" lon="4.61295">
        <ele>663.3</ele>
        <time>2019-04-28T10:14:14Z</time>
      </trkpt>
      <trkpt lat="45.62118" lon="4.61291">
        <ele>663.7</ele>
        <time>2019-04-28T10:14:17Z</time>
      </trkpt>
      <trkpt lat="45.62115" lon="4.61288">
        <ele>664</ele>
        <time>2019-04-28T10:14:19Z</time>
      </trkpt>
      <trkpt lat="45.62114" lon="4.61287">
        <ele>664.2</ele>
        <time>2019-04-28T10:14:20Z</time>
      </trkpt>
      <trkpt lat="45.62109" lon="4.61282">
        <ele>664.6</ele>
        <time>2019-04-28T10:14:23Z</time>
      </trkpt>
      <trkpt lat="45.62104" lon="4.61277">
        <ele>665.1</ele>
        <time>2019-04-28T10:14:26Z</time>
      </trkpt>
      <trkpt lat="45.62102" lon="4.61276">
        <ele>665.3</ele>
        <time>2019-04-28T10:14:27Z</time>
      </trkpt>
      <trkpt lat="45.62098" lon="4.61273">
        <ele>665.6</ele>
        <time>2019-04-28T10:14:30Z</time>
      </trkpt>
      <trkpt lat="45.62089" lon="4.61264">
        <ele>666.8</ele>
        <time>2019-04-28T10:14:38Z</time>
      </trkpt>
      <trkpt lat="45.6208" lon="4.61254">
        <ele>668</ele>
        <time>2019-04-28T10:14:47Z</time>
      </trkpt>
      <trkpt lat="45.62079" lon="4.61253">
        <ele>668.1</ele>
        <time>2019-04-28T10:14:48Z</time>
      </trkpt>
      <trkpt lat="45.62078" lon="4.61251">
        <ele>668.3</ele>
        <time>2019-04-28T10:14:49Z</time>
      </trkpt>
      <trkpt lat="45.62016" lon="4.61026">
        <ele>694.1</ele>
        <time>2019-04-28T10:19:30Z</time>
      </trkpt>
      <trkpt lat="45.62016" lon="4.61024">
        <ele>694.2</ele>
        <time>2019-04-28T10:19:31Z</time>
      </trkpt>
      <trkpt lat="45.62018" lon="4.61009">
        <ele>694.6</ele>
        <time>2019-04-28T10:19:37Z</time>
      </trkpt>
      <trkpt lat="45.62018" lon="4.61003">
        <ele>694.8</ele>
        <time>2019-04-28T10:19:39Z</time>
      </trkpt>
      <trkpt lat="45.62019" lon="4.61">
        <ele>694.9</ele>
        <time>2019-04-28T10:19:40Z</time>
      </trkpt>
      <trkpt lat="45.62024" lon="4.60992">
        <ele>695.2</ele>
        <time>2019-04-28T10:19:44Z</time>
      </trkpt>
      <trkpt lat="45.62025" lon="4.60989">
        <ele>695.3</ele>
        <time>2019-04-28T10:19:45Z</time>
      </trkpt>
      <trkpt lat="45.62027" lon="4.60981">
        <ele>695.7</ele>
        <time>2019-04-28T10:19:48Z</time>
      </trkpt>
      <trkpt lat="45.62028" lon="4.60978">
        <ele>695.9</ele>
        <time>2019-04-28T10:19:49Z</time>
      </trkpt>
      <trkpt lat="45.6203" lon="4.60972">
        <ele>696.2</ele>
        <time>2019-04-28T10:19:51Z</time>
      </trkpt>
      <trkpt lat="45.62031" lon="4.60966">
        <ele>696.5</ele>
        <time>2019-04-28T10:19:54Z</time>
      </trkpt>
      <trkpt lat="45.62033" lon="4.60964">
        <ele>696.6</ele>
        <time>2019-04-28T10:19:55Z</time>
      </trkpt>
      <trkpt lat="45.62034" lon="4.60959">
        <ele>696.9</ele>
        <time>2019-04-28T10:19:57Z</time>
      </trkpt>
      <trkpt lat="45.62036" lon="4.60951">
        <ele>697.4</ele>
        <time>2019-04-28T10:20:00Z</time>
      </trkpt>
      <trkpt lat="45.62049" lon="4.60921">
        <ele>699.6</ele>
        <time>2019-04-28T10:20:18Z</time>
      </trkpt>
      <trkpt lat="45.62048" lon="4.60906">
        <ele>700.6</ele>
        <time>2019-04-28T10:20:58Z</time>
      </trkpt>
      <trkpt lat="45.62045" lon="4.60899">
        <ele>701</ele>
        <time>2019-04-28T10:21:00Z</time>
      </trkpt>
      <trkpt lat="45.62027" lon="4.60883">
        <ele>700.9</ele>
        <time>2019-04-28T10:21:21Z</time>
      </trkpt>
      <trkpt lat="45.62024" lon="4.60883">
        <ele>700.8</ele>
        <time>2019-04-28T10:21:22Z</time>
      </trkpt>
      <trkpt lat="45.62016" lon="4.60885">
        <ele>700.3</ele>
        <time>2019-04-28T10:21:27Z</time>
      </trkpt>
      <trkpt lat="45.61996" lon="4.60892">
        <ele>699.7</ele>
        <time>2019-04-28T10:21:38Z</time>
      </trkpt>
      <trkpt lat="45.6198" lon="4.60902">
        <ele>699.5</ele>
        <time>2019-04-28T10:21:43Z</time>
      </trkpt>
      <trkpt lat="45.61972" lon="4.60905">
        <ele>699.5</ele>
        <time>2019-04-28T10:21:45Z</time>
      </trkpt>
      <trkpt lat="45.61963" lon="4.60908">
        <ele>699.9</ele>
        <time>2019-04-28T10:21:48Z</time>
      </trkpt>
      <trkpt lat="45.61957" lon="4.6091">
        <ele>700.5</ele>
        <time>2019-04-28T10:21:50Z</time>
      </trkpt>
      <trkpt lat="45.61947" lon="4.6091">
        <ele>701.9</ele>
        <time>2019-04-28T10:21:52Z</time>
      </trkpt>
      <trkpt lat="45.61923" lon="4.60917">
        <ele>699.1</ele>
        <time>2019-04-28T10:21:58Z</time>
      </trkpt>
      <trkpt lat="45.61911" lon="4.60932">
        <ele>695.8</ele>
        <time>2019-04-28T10:22:01Z</time>
      </trkpt>
      <trkpt lat="45.61904" lon="4.60941">
        <ele>692.7</ele>
        <time>2019-04-28T10:22:03Z</time>
      </trkpt>
      <trkpt lat="45.61892" lon="4.60956">
        <ele>689.6</ele>
        <time>2019-04-28T10:22:06Z</time>
      </trkpt>
      <trkpt lat="45.61886" lon="4.60959">
        <ele>688.9</ele>
        <time>2019-04-28T10:22:07Z</time>
      </trkpt>
      <trkpt lat="45.6188" lon="4.6096">
        <ele>689.3</ele>
        <time>2019-04-28T10:22:08Z</time>
      </trkpt>
      <trkpt lat="45.61861" lon="4.60962">
        <ele>690.3</ele>
        <time>2019-04-28T10:22:12Z</time>
      </trkpt>
      <trkpt lat="45.61856" lon="4.60962">
        <ele>690.9</ele>
        <time>2019-04-28T10:22:13Z</time>
      </trkpt>
      <trkpt lat="45.61846" lon="4.60961">
        <ele>691.7</ele>
        <time>2019-04-28T10:22:15Z</time>
      </trkpt>
      <trkpt lat="45.61834" lon="4.6096">
        <ele>692.5</ele>
        <time>2019-04-28T10:22:18Z</time>
      </trkpt>
      <trkpt lat="45.61826" lon="4.60961">
        <ele>693.2</ele>
        <time>2019-04-28T10:22:20Z</time>
      </trkpt>
      <trkpt lat="45.61814" lon="4.60961">
        <ele>693.9</ele>
        <time>2019-04-28T10:22:23Z</time>
      </trkpt>
      <trkpt lat="45.61794" lon="4.6096">
        <ele>694.9</ele>
        <time>2019-04-28T10:22:28Z</time>
      </trkpt>
      <trkpt lat="45.61789" lon="4.6096">
        <ele>695.3</ele>
        <time>2019-04-28T10:22:29Z</time>
      </trkpt>
      <trkpt lat="45.61767" lon="4.60961">
        <ele>696.4</ele>
        <time>2019-04-28T10:22:33Z</time>
      </trkpt>
      <trkpt lat="45.61761" lon="4.60961">
        <ele>696.9</ele>
        <time>2019-04-28T10:22:34Z</time>
      </trkpt>
      <trkpt lat="45.61746" lon="4.60972">
        <ele>694</ele>
        <time>2019-04-28T10:22:37Z</time>
      </trkpt>
      <trkpt lat="45.61742" lon="4.60977">
        <ele>693.2</ele>
        <time>2019-04-28T10:22:38Z</time>
      </trkpt>
      <trkpt lat="45.61739" lon="4.60982">
        <ele>692.4</ele>
        <time>2019-04-28T10:22:39Z</time>
      </trkpt>
      <trkpt lat="45.61725" lon="4.61003">
        <ele>687.4</ele>
        <time>2019-04-28T10:22:43Z</time>
      </trkpt>
      <trkpt lat="45.61718" lon="4.61013">
        <ele>686.9</ele>
        <time>2019-04-28T10:22:45Z</time>
      </trkpt>
      <trkpt lat="45.61702" lon="4.61033">
        <ele>686</ele>
        <time>2019-04-28T10:22:50Z</time>
      </trkpt>
      <trkpt lat="45.61691" lon="4.61044">
        <ele>684.5</ele>
        <time>2019-04-28T10:22:54Z</time>
      </trkpt>
      <trkpt lat="45.61684" lon="4.61052">
        <ele>685.5</ele>
        <time>2019-04-28T10:22:57Z</time>
      </trkpt>
      <trkpt lat="45.61677" lon="4.61067">
        <ele>685.4</ele>
        <time>2019-04-28T10:23:01Z</time>
      </trkpt>
      <trkpt lat="45.61677" lon="4.61072">
        <ele>686</ele>
        <time>2019-04-28T10:23:02Z</time>
      </trkpt>
      <trkpt lat="45.61674" lon="4.61084">
        <ele>686.7</ele>
        <time>2019-04-28T10:23:04Z</time>
      </trkpt>
      <trkpt lat="45.61665" lon="4.61108">
        <ele>685.2</ele>
        <time>2019-04-28T10:23:07Z</time>
      </trkpt>
      <trkpt lat="45.61658" lon="4.61127">
        <ele>683.6</ele>
        <time>2019-04-28T10:23:09Z</time>
      </trkpt>
      <trkpt lat="45.61649" lon="4.61165">
        <ele>681.8</ele>
        <time>2019-04-28T10:23:13Z</time>
      </trkpt>
      <trkpt lat="45.61646" lon="4.61174">
        <ele>681.1</ele>
        <time>2019-04-28T10:23:14Z</time>
      </trkpt>
      <trkpt lat="45.61643" lon="4.61183">
        <ele>679.9</ele>
        <time>2019-04-28T10:23:15Z</time>
      </trkpt>
      <trkpt lat="45.61633" lon="4.61212">
        <ele>676.9</ele>
        <time>2019-04-28T10:23:18Z</time>
      </trkpt>
      <trkpt lat="45.61623" lon="4.61238">
        <ele>675.8</ele>
        <time>2019-04-28T10:23:21Z</time>
      </trkpt>
      <trkpt lat="45.61617" lon="4.61255">
        <ele>676</ele>
        <time>2019-04-28T10:23:23Z</time>
      </trkpt>
      <trkpt lat="45.61614" lon="4.61265">
        <ele>675.8</ele>
        <time>2019-04-28T10:23:24Z</time>
      </trkpt>
      <trkpt lat="45.61605" lon="4.61301">
        <ele>675</ele>
        <time>2019-04-28T10:23:28Z</time>
      </trkpt>
      <trkpt lat="45.61603" lon="4.6131">
        <ele>675.3</ele>
        <time>2019-04-28T10:23:29Z</time>
      </trkpt>
      <trkpt lat="45.61591" lon="4.61356">
        <ele>672.9</ele>
        <time>2019-04-28T10:23:34Z</time>
      </trkpt>
      <trkpt lat="45.61589" lon="4.61365">
        <ele>672.5</ele>
        <time>2019-04-28T10:23:35Z</time>
      </trkpt>
      <trkpt lat="45.61575" lon="4.61404">
        <ele>669.6</ele>
        <time>2019-04-28T10:23:39Z</time>
      </trkpt>
      <trkpt lat="45.6157" lon="4.61414">
        <ele>668.9</ele>
        <time>2019-04-28T10:23:40Z</time>
      </trkpt>
      <trkpt lat="45.61555" lon="4.61435">
        <ele>667.2</ele>
        <time>2019-04-28T10:23:43Z</time>
      </trkpt>
      <trkpt lat="45.61549" lon="4.61441">
        <ele>665.9</ele>
        <time>2019-04-28T10:23:44Z</time>
      </trkpt>
      <trkpt lat="45.61543" lon="4.61445">
        <ele>664.7</ele>
        <time>2019-04-28T10:23:45Z</time>
      </trkpt>
      <trkpt lat="45.6153" lon="4.61447">
        <ele>662.6</ele>
        <time>2019-04-28T10:23:47Z</time>
      </trkpt>
      <trkpt lat="45.61523" lon="4.61448">
        <ele>660.4</ele>
        <time>2019-04-28T10:23:48Z</time>
      </trkpt>
      <trkpt lat="45.61518" lon="4.61447">
        <ele>660.7</ele>
        <time>2019-04-28T10:23:49Z</time>
      </trkpt>
      <trkpt lat="45.61509" lon="4.61448">
        <ele>659.8</ele>
        <time>2019-04-28T10:23:51Z</time>
      </trkpt>
      <trkpt lat="45.61497" lon="4.61454">
        <ele>659.2</ele>
        <time>2019-04-28T10:23:53Z</time>
      </trkpt>
      <trkpt lat="45.6149" lon="4.61459">
        <ele>657.2</ele>
        <time>2019-04-28T10:23:54Z</time>
      </trkpt>
      <trkpt lat="45.61484" lon="4.61464">
        <ele>654.8</ele>
        <time>2019-04-28T10:23:55Z</time>
      </trkpt>
      <trkpt lat="45.61481" lon="4.61468">
        <ele>653.4</ele>
        <time>2019-04-28T10:23:56Z</time>
      </trkpt>
      <trkpt lat="45.61478" lon="4.61472">
        <ele>651.9</ele>
        <time>2019-04-28T10:23:57Z</time>
      </trkpt>
      <trkpt lat="45.61475" lon="4.61475">
        <ele>650.9</ele>
        <time>2019-04-28T10:23:58Z</time>
      </trkpt>
      <trkpt lat="45.61472" lon="4.61477">
        <ele>650.3</ele>
        <time>2019-04-28T10:23:59Z</time>
      </trkpt>
      <trkpt lat="45.61468" lon="4.61481">
        <ele>649.1</ele>
        <time>2019-04-28T10:24:01Z</time>
      </trkpt>
      <trkpt lat="45.61463" lon="4.61484">
        <ele>647.1</ele>
        <time>2019-04-28T10:24:03Z</time>
      </trkpt>
      <trkpt lat="45.61458" lon="4.61486">
        <ele>645.6</ele>
        <time>2019-04-28T10:24:04Z</time>
      </trkpt>
      <trkpt lat="45.61454" lon="4.61489">
        <ele>644.2</ele>
        <time>2019-04-28T10:24:05Z</time>
      </trkpt>
      <trkpt lat="45.61445" lon="4.61493">
        <ele>642.3</ele>
        <time>2019-04-28T10:24:07Z</time>
      </trkpt>
      <trkpt lat="45.61441" lon="4.61492">
        <ele>641.2</ele>
        <time>2019-04-28T10:24:08Z</time>
      </trkpt>
      <trkpt lat="45.61438" lon="4.61488">
        <ele>640.4</ele>
        <time>2019-04-28T10:24:09Z</time>
      </trkpt>
      <trkpt lat="45.61432" lon="4.61474">
        <ele>640.3</ele>
        <time>2019-04-28T10:24:10Z</time>
      </trkpt>
      <trkpt lat="45.61428" lon="4.61464">
        <ele>640.9</ele>
        <time>2019-04-28T10:24:11Z</time>
      </trkpt>
      <trkpt lat="45.61425" lon="4.61456">
        <ele>641.1</ele>
        <time>2019-04-28T10:24:12Z</time>
      </trkpt>
      <trkpt lat="45.61422" lon="4.61447">
        <ele>640.6</ele>
        <time>2019-04-28T10:24:13Z</time>
      </trkpt>
      <trkpt lat="45.61418" lon="4.61439">
        <ele>639.9</ele>
        <time>2019-04-28T10:24:14Z</time>
      </trkpt>
      <trkpt lat="45.61413" lon="4.61433">
        <ele>638.9</ele>
        <time>2019-04-28T10:24:15Z</time>
      </trkpt>
      <trkpt lat="45.61408" lon="4.61427">
        <ele>637.9</ele>
        <time>2019-04-28T10:24:16Z</time>
      </trkpt>
      <trkpt lat="45.614" lon="4.61415">
        <ele>636.2</ele>
        <time>2019-04-28T10:24:18Z</time>
      </trkpt>
      <trkpt lat="45.61395" lon="4.61408">
        <ele>634.9</ele>
        <time>2019-04-28T10:24:19Z</time>
      </trkpt>
      <trkpt lat="45.61389" lon="4.61403">
        <ele>633.6</ele>
        <time>2019-04-28T10:24:20Z</time>
      </trkpt>
      <trkpt lat="45.61382" lon="4.61397">
        <ele>631.9</ele>
        <time>2019-04-28T10:24:21Z</time>
      </trkpt>
      <trkpt lat="45.61376" lon="4.61391">
        <ele>630.4</ele>
        <time>2019-04-28T10:24:22Z</time>
      </trkpt>
      <trkpt lat="45.6137" lon="4.61384">
        <ele>628.8</ele>
        <time>2019-04-28T10:24:23Z</time>
      </trkpt>
      <trkpt lat="45.61365" lon="4.61377">
        <ele>627.8</ele>
        <time>2019-04-28T10:24:24Z</time>
      </trkpt>
      <trkpt lat="45.61361" lon="4.61371">
        <ele>626</ele>
        <time>2019-04-28T10:24:25Z</time>
      </trkpt>
      <trkpt lat="45.61356" lon="4.61366">
        <ele>625.1</ele>
        <time>2019-04-28T10:24:26Z</time>
      </trkpt>
      <trkpt lat="45.61352" lon="4.61361">
        <ele>624.4</ele>
        <time>2019-04-28T10:24:27Z</time>
      </trkpt>
      <trkpt lat="45.61348" lon="4.61356">
        <ele>623</ele>
        <time>2019-04-28T10:24:28Z</time>
      </trkpt>
      <trkpt lat="45.61344" lon="4.61352">
        <ele>621.4</ele>
        <time>2019-04-28T10:24:29Z</time>
      </trkpt>
      <trkpt lat="45.6134" lon="4.61348">
        <ele>619.9</ele>
        <time>2019-04-28T10:24:30Z</time>
      </trkpt>
      <trkpt lat="45.61336" lon="4.61345">
        <ele>618.7</ele>
        <time>2019-04-28T10:24:31Z</time>
      </trkpt>
      <trkpt lat="45.61332" lon="4.61341">
        <ele>617.4</ele>
        <time>2019-04-28T10:24:32Z</time>
      </trkpt>
      <trkpt lat="45.61328" lon="4.61336">
        <ele>616.7</ele>
        <time>2019-04-28T10:24:33Z</time>
      </trkpt>
      <trkpt lat="45.61324" lon="4.61332">
        <ele>615.8</ele>
        <time>2019-04-28T10:24:34Z</time>
      </trkpt>
      <trkpt lat="45.6132" lon="4.61329">
        <ele>614.9</ele>
        <time>2019-04-28T10:24:35Z</time>
      </trkpt>
      <trkpt lat="45.61317" lon="4.61325">
        <ele>613.9</ele>
        <time>2019-04-28T10:24:36Z</time>
      </trkpt>
      <trkpt lat="45.61314" lon="4.61322">
        <ele>612.9</ele>
        <time>2019-04-28T10:24:37Z</time>
      </trkpt>
      <trkpt lat="45.6131" lon="4.61319">
        <ele>611.8</ele>
        <time>2019-04-28T10:24:38Z</time>
      </trkpt>
      <trkpt lat="45.61308" lon="4.61316">
        <ele>610.8</ele>
        <time>2019-04-28T10:24:39Z</time>
      </trkpt>
      <trkpt lat="45.61304" lon="4.61312">
        <ele>609.6</ele>
        <time>2019-04-28T10:24:40Z</time>
      </trkpt>
      <trkpt lat="45.61301" lon="4.61308">
        <ele>608.9</ele>
        <time>2019-04-28T10:24:41Z</time>
      </trkpt>
      <trkpt lat="45.61298" lon="4.61304">
        <ele>608.3</ele>
        <time>2019-04-28T10:24:42Z</time>
      </trkpt>
      <trkpt lat="45.61295" lon="4.61299">
        <ele>607.5</ele>
        <time>2019-04-28T10:24:43Z</time>
      </trkpt>
      <trkpt lat="45.61292" lon="4.61296">
        <ele>606.9</ele>
        <time>2019-04-28T10:24:44Z</time>
      </trkpt>
      <trkpt lat="45.61289" lon="4.61291">
        <ele>606.5</ele>
        <time>2019-04-28T10:24:45Z</time>
      </trkpt>
      <trkpt lat="45.61286" lon="4.61284">
        <ele>605.5</ele>
        <time>2019-04-28T10:24:46Z</time>
      </trkpt>
      <trkpt lat="45.61282" lon="4.61277">
        <ele>604.7</ele>
        <time>2019-04-28T10:24:47Z</time>
      </trkpt>
      <trkpt lat="45.61279" lon="4.61269">
        <ele>604</ele>
        <time>2019-04-28T10:24:48Z</time>
      </trkpt>
      <trkpt lat="45.61276" lon="4.61262">
        <ele>603</ele>
        <time>2019-04-28T10:24:49Z</time>
      </trkpt>
      <trkpt lat="45.61272" lon="4.61255">
        <ele>602.1</ele>
        <time>2019-04-28T10:24:50Z</time>
      </trkpt>
      <trkpt lat="45.61266" lon="4.6125">
        <ele>601.1</ele>
        <time>2019-04-28T10:24:51Z</time>
      </trkpt>
      <trkpt lat="45.6126" lon="4.61246">
        <ele>600.1</ele>
        <time>2019-04-28T10:24:52Z</time>
      </trkpt>
      <trkpt lat="45.61253" lon="4.61243">
        <ele>599</ele>
        <time>2019-04-28T10:24:53Z</time>
      </trkpt>
      <trkpt lat="45.61245" lon="4.61239">
        <ele>597.6</ele>
        <time>2019-04-28T10:24:54Z</time>
      </trkpt>
      <trkpt lat="45.61237" lon="4.61235">
        <ele>596.6</ele>
        <time>2019-04-28T10:24:55Z</time>
      </trkpt>
      <trkpt lat="45.6123" lon="4.61228">
        <ele>596.4</ele>
        <time>2019-04-28T10:24:56Z</time>
      </trkpt>
      <trkpt lat="45.61224" lon="4.61223">
        <ele>596.3</ele>
        <time>2019-04-28T10:24:57Z</time>
      </trkpt>
      <trkpt lat="45.61209" lon="4.61215">
        <ele>596</ele>
        <time>2019-04-28T10:24:59Z</time>
      </trkpt>
      <trkpt lat="45.61196" lon="4.6121">
        <ele>595.5</ele>
        <time>2019-04-28T10:25:01Z</time>
      </trkpt>
      <trkpt lat="45.61191" lon="4.61209">
        <ele>595.3</ele>
        <time>2019-04-28T10:25:02Z</time>
      </trkpt>
      <trkpt lat="45.61186" lon="4.61209">
        <ele>595.1</ele>
        <time>2019-04-28T10:25:03Z</time>
      </trkpt>
      <trkpt lat="45.61176" lon="4.6121">
        <ele>594.8</ele>
        <time>2019-04-28T10:25:05Z</time>
      </trkpt>
      <trkpt lat="45.61171" lon="4.61211">
        <ele>594.6</ele>
        <time>2019-04-28T10:25:06Z</time>
      </trkpt>
      <trkpt lat="45.61159" lon="4.61211">
        <ele>594.3</ele>
        <time>2019-04-28T10:25:08Z</time>
      </trkpt>
      <trkpt lat="45.61147" lon="4.61209">
        <ele>594.1</ele>
        <time>2019-04-28T10:25:10Z</time>
      </trkpt>
      <trkpt lat="45.61135" lon="4.61211">
        <ele>593.8</ele>
        <time>2019-04-28T10:25:12Z</time>
      </trkpt>
      <trkpt lat="45.61128" lon="4.61212">
        <ele>593.7</ele>
        <time>2019-04-28T10:25:13Z</time>
      </trkpt>
      <trkpt lat="45.61117" lon="4.61215">
        <ele>594.1</ele>
        <time>2019-04-28T10:25:15Z</time>
      </trkpt>
      <trkpt lat="45.61108" lon="4.6122">
        <ele>594.3</ele>
        <time>2019-04-28T10:25:17Z</time>
      </trkpt>
      <trkpt lat="45.61096" lon="4.61232">
        <ele>594.4</ele>
        <time>2019-04-28T10:25:22Z</time>
      </trkpt>
      <trkpt lat="45.61078" lon="4.61245">
        <ele>594.8</ele>
        <time>2019-04-28T10:25:28Z</time>
      </trkpt>
      <trkpt lat="45.61063" lon="4.61247">
        <ele>595.7</ele>
        <time>2019-04-28T10:25:34Z</time>
      </trkpt>
      <trkpt lat="45.61061" lon="4.61246">
        <ele>595.8</ele>
        <time>2019-04-28T10:25:35Z</time>
      </trkpt>
      <trkpt lat="45.61052" lon="4.61245">
        <ele>596.4</ele>
        <time>2019-04-28T10:25:40Z</time>
      </trkpt>
      <trkpt lat="45.6105" lon="4.61245">
        <ele>596.6</ele>
        <time>2019-04-28T10:25:41Z</time>
      </trkpt>
      <trkpt lat="45.61046" lon="4.61245">
        <ele>596.9</ele>
        <time>2019-04-28T10:25:43Z</time>
      </trkpt>
      <trkpt lat="45.6104" lon="4.61244">
        <ele>597.4</ele>
        <time>2019-04-28T10:25:46Z</time>
      </trkpt>
      <trkpt lat="45.61036" lon="4.61243">
        <ele>597.7</ele>
        <time>2019-04-28T10:25:49Z</time>
      </trkpt>
      <trkpt lat="45.61034" lon="4.61242">
        <ele>597.8</ele>
        <time>2019-04-28T10:25:50Z</time>
      </trkpt>
      <trkpt lat="45.61032" lon="4.61239">
        <ele>598</ele>
        <time>2019-04-28T10:25:52Z</time>
      </trkpt>
      <trkpt lat="45.61028" lon="4.61235">
        <ele>598.3</ele>
        <time>2019-04-28T10:25:56Z</time>
      </trkpt>
      <trkpt lat="45.61027" lon="4.61235">
        <ele>598.3</ele>
        <time>2019-04-28T10:25:57Z</time>
      </trkpt>
      <trkpt lat="45.61024" lon="4.61237">
        <ele>598.3</ele>
        <time>2019-04-28T10:26:55Z</time>
      </trkpt>
      <trkpt lat="45.6102" lon="4.61237">
        <ele>598.4</ele>
        <time>2019-04-28T10:26:57Z</time>
      </trkpt>
      <trkpt lat="45.6101" lon="4.61239">
        <ele>598.6</ele>
        <time>2019-04-28T10:27:02Z</time>
      </trkpt>
      <trkpt lat="45.61008" lon="4.6124">
        <ele>598.6</ele>
        <time>2019-04-28T10:27:03Z</time>
      </trkpt>
      <trkpt lat="45.60992" lon="4.61246">
        <ele>598.8</ele>
        <time>2019-04-28T10:27:10Z</time>
      </trkpt>
      <trkpt lat="45.60986" lon="4.61248">
        <ele>598.9</ele>
        <time>2019-04-28T10:27:12Z</time>
      </trkpt>
      <trkpt lat="45.60974" lon="4.61246">
        <ele>599</ele>
        <time>2019-04-28T10:27:16Z</time>
      </trkpt>
      <trkpt lat="45.60958" lon="4.61238">
        <ele>599.1</ele>
        <time>2019-04-28T10:27:22Z</time>
      </trkpt>
      <trkpt lat="45.60954" lon="4.61236">
        <ele>599.1</ele>
        <time>2019-04-28T10:27:24Z</time>
      </trkpt>
      <trkpt lat="45.6094" lon="4.61226">
        <ele>599.4</ele>
        <time>2019-04-28T10:27:31Z</time>
      </trkpt>
      <trkpt lat="45.6092" lon="4.61218">
        <ele>599.9</ele>
        <time>2019-04-28T10:27:37Z</time>
      </trkpt>
      <trkpt lat="45.60902" lon="4.61203">
        <ele>600.7</ele>
        <time>2019-04-28T10:27:44Z</time>
      </trkpt>
      <trkpt lat="45.60889" lon="4.61182">
        <ele>601.5</ele>
        <time>2019-04-28T10:27:51Z</time>
      </trkpt>
      <trkpt lat="45.60882" lon="4.61162">
        <ele>602.1</ele>
        <time>2019-04-28T10:27:57Z</time>
      </trkpt>
      <trkpt lat="45.60873" lon="4.6114">
        <ele>602.6</ele>
        <time>2019-04-28T10:28:03Z</time>
      </trkpt>
      <trkpt lat="45.60866" lon="4.61123">
        <ele>602.6</ele>
        <time>2019-04-28T10:28:08Z</time>
      </trkpt>
      <trkpt lat="45.60853" lon="4.61093">
        <ele>602.2</ele>
        <time>2019-04-28T10:28:15Z</time>
      </trkpt>
      <trkpt lat="45.60846" lon="4.61069">
        <ele>601.7</ele>
        <time>2019-04-28T10:28:20Z</time>
      </trkpt>
      <trkpt lat="45.60842" lon="4.61057">
        <ele>601.3</ele>
        <time>2019-04-28T10:28:22Z</time>
      </trkpt>
      <trkpt lat="45.6084" lon="4.61045">
        <ele>600.9</ele>
        <time>2019-04-28T10:28:24Z</time>
      </trkpt>
      <trkpt lat="45.60837" lon="4.61029">
        <ele>600.3</ele>
        <time>2019-04-28T10:28:27Z</time>
      </trkpt>
      <trkpt lat="45.60836" lon="4.61025">
        <ele>600.2</ele>
        <time>2019-04-28T10:28:28Z</time>
      </trkpt>
      <trkpt lat="45.60833" lon="4.6101">
        <ele>599.1</ele>
        <time>2019-04-28T10:28:32Z</time>
      </trkpt>
      <trkpt lat="45.6083" lon="4.60995">
        <ele>597.2</ele>
        <time>2019-04-28T10:28:35Z</time>
      </trkpt>
      <trkpt lat="45.60829" lon="4.60988">
        <ele>596.6</ele>
        <time>2019-04-28T10:28:36Z</time>
      </trkpt>
      <trkpt lat="45.60828" lon="4.60975">
        <ele>595.5</ele>
        <time>2019-04-28T10:28:38Z</time>
      </trkpt>
      <trkpt lat="45.60827" lon="4.60973">
        <ele>595.2</ele>
        <time>2019-04-28T10:28:39Z</time>
      </trkpt>
      <trkpt lat="45.60825" lon="4.60972">
        <ele>595</ele>
        <time>2019-04-28T10:28:40Z</time>
      </trkpt>
      <trkpt lat="45.60822" lon="4.60974">
        <ele>594.6</ele>
        <time>2019-04-28T10:28:41Z</time>
      </trkpt>
      <trkpt lat="45.60819" lon="4.60984">
        <ele>593.8</ele>
        <time>2019-04-28T10:28:43Z</time>
      </trkpt>
      <trkpt lat="45.60814" lon="4.60998">
        <ele>592.1</ele>
        <time>2019-04-28T10:28:45Z</time>
      </trkpt>
      <trkpt lat="45.6081" lon="4.61006">
        <ele>592.1</ele>
        <time>2019-04-28T10:28:47Z</time>
      </trkpt>
      <trkpt lat="45.60808" lon="4.61007">
        <ele>592.1</ele>
        <time>2019-04-28T10:28:49Z</time>
      </trkpt>
      <trkpt lat="45.60807" lon="4.61007">
        <ele>592.1</ele>
        <time>2019-04-28T10:28:50Z</time>
      </trkpt>
      <trkpt lat="45.60806" lon="4.61007">
        <ele>592.1</ele>
        <time>2019-04-28T10:28:51Z</time>
      </trkpt>
      <trkpt lat="45.60817" lon="4.60977">
        <ele>593.6</ele>
        <time>2019-04-28T10:30:14Z</time>
      </trkpt>
      <trkpt lat="45.60815" lon="4.60973">
        <ele>592.9</ele>
        <time>2019-04-28T10:30:15Z</time>
      </trkpt>
      <trkpt lat="45.60808" lon="4.60959">
        <ele>589.7</ele>
        <time>2019-04-28T10:30:18Z</time>
      </trkpt>
      <trkpt lat="45.60804" lon="4.60954">
        <ele>588.3</ele>
        <time>2019-04-28T10:30:19Z</time>
      </trkpt>
      <trkpt lat="45.60801" lon="4.60949">
        <ele>587.1</ele>
        <time>2019-04-28T10:30:20Z</time>
      </trkpt>
      <trkpt lat="45.60795" lon="4.60939">
        <ele>584.8</ele>
        <time>2019-04-28T10:30:22Z</time>
      </trkpt>
      <trkpt lat="45.6079" lon="4.60929">
        <ele>582.8</ele>
        <time>2019-04-28T10:30:24Z</time>
      </trkpt>
      <trkpt lat="45.60784" lon="4.6092">
        <ele>580.9</ele>
        <time>2019-04-28T10:30:26Z</time>
      </trkpt>
      <trkpt lat="45.60777" lon="4.60907">
        <ele>578.6</ele>
        <time>2019-04-28T10:30:28Z</time>
      </trkpt>
      <trkpt lat="45.6077" lon="4.60894">
        <ele>576.1</ele>
        <time>2019-04-28T10:30:30Z</time>
      </trkpt>
      <trkpt lat="45.60765" lon="4.60887">
        <ele>575.9</ele>
        <time>2019-04-28T10:30:31Z</time>
      </trkpt>
      <trkpt lat="45.6076" lon="4.60877">
        <ele>574.9</ele>
        <time>2019-04-28T10:30:32Z</time>
      </trkpt>
      <trkpt lat="45.60756" lon="4.60865">
        <ele>574.2</ele>
        <time>2019-04-28T10:30:33Z</time>
      </trkpt>
      <trkpt lat="45.60753" lon="4.60852">
        <ele>573.5</ele>
        <time>2019-04-28T10:30:34Z</time>
      </trkpt>
      <trkpt lat="45.6075" lon="4.60839">
        <ele>573</ele>
        <time>2019-04-28T10:30:35Z</time>
      </trkpt>
      <trkpt lat="45.60748" lon="4.60827">
        <ele>572.5</ele>
        <time>2019-04-28T10:30:37Z</time>
      </trkpt>
      <trkpt lat="45.60744" lon="4.60809">
        <ele>571.1</ele>
        <time>2019-04-28T10:30:39Z</time>
      </trkpt>
      <trkpt lat="45.60742" lon="4.60803">
        <ele>570.5</ele>
        <time>2019-04-28T10:30:40Z</time>
      </trkpt>
      <trkpt lat="45.6074" lon="4.60795">
        <ele>569.8</ele>
        <time>2019-04-28T10:30:41Z</time>
      </trkpt>
      <trkpt lat="45.60738" lon="4.60788">
        <ele>570.3</ele>
        <time>2019-04-28T10:30:42Z</time>
      </trkpt>
      <trkpt lat="45.60738" lon="4.6078">
        <ele>571.1</ele>
        <time>2019-04-28T10:30:43Z</time>
      </trkpt>
      <trkpt lat="45.60737" lon="4.60772">
        <ele>571.9</ele>
        <time>2019-04-28T10:30:44Z</time>
      </trkpt>
      <trkpt lat="45.60736" lon="4.60756">
        <ele>573.5</ele>
        <time>2019-04-28T10:30:46Z</time>
      </trkpt>
      <trkpt lat="45.60733" lon="4.60739">
        <ele>575.4</ele>
        <time>2019-04-28T10:30:48Z</time>
      </trkpt>
      <trkpt lat="45.6073" lon="4.60731">
        <ele>575.7</ele>
        <time>2019-04-28T10:30:49Z</time>
      </trkpt>
      <trkpt lat="45.60714" lon="4.60718">
        <ele>575.6</ele>
        <time>2019-04-28T10:30:52Z</time>
      </trkpt>
      <trkpt lat="45.60695" lon="4.60722">
        <ele>573.6</ele>
        <time>2019-04-28T10:30:55Z</time>
      </trkpt>
      <trkpt lat="45.60672" lon="4.60736">
        <ele>571</ele>
        <time>2019-04-28T10:30:59Z</time>
      </trkpt>
      <trkpt lat="45.60667" lon="4.60741">
        <ele>570.8</ele>
        <time>2019-04-28T10:31:00Z</time>
      </trkpt>
      <trkpt lat="45.60642" lon="4.6076">
        <ele>570</ele>
        <time>2019-04-28T10:31:05Z</time>
      </trkpt>
      <trkpt lat="45.60637" lon="4.60763">
        <ele>569.7</ele>
        <time>2019-04-28T10:31:06Z</time>
      </trkpt>
      <trkpt lat="45.60624" lon="4.60767">
        <ele>569</ele>
        <time>2019-04-28T10:31:08Z</time>
      </trkpt>
      <trkpt lat="45.60611" lon="4.60768">
        <ele>568.3</ele>
        <time>2019-04-28T10:31:10Z</time>
      </trkpt>
      <trkpt lat="45.60597" lon="4.60768">
        <ele>567.7</ele>
        <time>2019-04-28T10:31:12Z</time>
      </trkpt>
      <trkpt lat="45.60574" lon="4.6076">
        <ele>566.8</ele>
        <time>2019-04-28T10:31:15Z</time>
      </trkpt>
      <trkpt lat="45.60555" lon="4.60741">
        <ele>565.7</ele>
        <time>2019-04-28T10:31:18Z</time>
      </trkpt>
      <trkpt lat="45.60549" lon="4.60732">
        <ele>565.2</ele>
        <time>2019-04-28T10:31:19Z</time>
      </trkpt>
      <trkpt lat="45.60544" lon="4.60724">
        <ele>564.7</ele>
        <time>2019-04-28T10:31:20Z</time>
      </trkpt>
      <trkpt lat="45.60539" lon="4.60715">
        <ele>564.1</ele>
        <time>2019-04-28T10:31:21Z</time>
      </trkpt>
      <trkpt lat="45.60521" lon="4.60687">
        <ele>562.2</ele>
        <time>2019-04-28T10:31:24Z</time>
      </trkpt>
      <trkpt lat="45.60508" lon="4.60669">
        <ele>560.9</ele>
        <time>2019-04-28T10:31:26Z</time>
      </trkpt>
      <trkpt lat="45.60502" lon="4.60659">
        <ele>560.3</ele>
        <time>2019-04-28T10:31:27Z</time>
      </trkpt>
      <trkpt lat="45.60489" lon="4.6064">
        <ele>559.3</ele>
        <time>2019-04-28T10:31:29Z</time>
      </trkpt>
      <trkpt lat="45.60475" lon="4.6062">
        <ele>558.3</ele>
        <time>2019-04-28T10:31:31Z</time>
      </trkpt>
      <trkpt lat="45.60462" lon="4.606">
        <ele>557.4</ele>
        <time>2019-04-28T10:31:33Z</time>
      </trkpt>
      <trkpt lat="45.60455" lon="4.6059">
        <ele>557.1</ele>
        <time>2019-04-28T10:31:34Z</time>
      </trkpt>
      <trkpt lat="45.60448" lon="4.6058">
        <ele>556.8</ele>
        <time>2019-04-28T10:31:35Z</time>
      </trkpt>
      <trkpt lat="45.60434" lon="4.60559">
        <ele>555.9</ele>
        <time>2019-04-28T10:31:37Z</time>
      </trkpt>
      <trkpt lat="45.6042" lon="4.60539">
        <ele>554.7</ele>
        <time>2019-04-28T10:31:39Z</time>
      </trkpt>
      <trkpt lat="45.60399" lon="4.60508">
        <ele>553</ele>
        <time>2019-04-28T10:31:42Z</time>
      </trkpt>
      <trkpt lat="45.60392" lon="4.60498">
        <ele>552.4</ele>
        <time>2019-04-28T10:31:43Z</time>
      </trkpt>
      <trkpt lat="45.60385" lon="4.60487">
        <ele>551.7</ele>
        <time>2019-04-28T10:31:44Z</time>
      </trkpt>
      <trkpt lat="45.60371" lon="4.60466">
        <ele>550.4</ele>
        <time>2019-04-28T10:31:46Z</time>
      </trkpt>
      <trkpt lat="45.60356" lon="4.60446">
        <ele>549.5</ele>
        <time>2019-04-28T10:31:48Z</time>
      </trkpt>
      <trkpt lat="45.60342" lon="4.60426">
        <ele>549</ele>
        <time>2019-04-28T10:31:50Z</time>
      </trkpt>
      <trkpt lat="45.60328" lon="4.60406">
        <ele>548.4</ele>
        <time>2019-04-28T10:31:52Z</time>
      </trkpt>
      <trkpt lat="45.6031" lon="4.60375">
        <ele>547.3</ele>
        <time>2019-04-28T10:31:55Z</time>
      </trkpt>
      <trkpt lat="45.60301" lon="4.60353">
        <ele>546.7</ele>
        <time>2019-04-28T10:31:57Z</time>
      </trkpt>
      <trkpt lat="45.60297" lon="4.60341">
        <ele>546.5</ele>
        <time>2019-04-28T10:31:58Z</time>
      </trkpt>
      <trkpt lat="45.60281" lon="4.60298">
        <ele>546.3</ele>
        <time>2019-04-28T10:32:02Z</time>
      </trkpt>
      <trkpt lat="45.60275" lon="4.60291">
        <ele>546.3</ele>
        <time>2019-04-28T10:32:03Z</time>
      </trkpt>
      <trkpt lat="45.60254" lon="4.60286">
        <ele>546.3</ele>
        <time>2019-04-28T10:32:06Z</time>
      </trkpt>
      <trkpt lat="45.60237" lon="4.60299">
        <ele>547</ele>
        <time>2019-04-28T10:32:09Z</time>
      </trkpt>
      <trkpt lat="45.60223" lon="4.60317">
        <ele>547.6</ele>
        <time>2019-04-28T10:32:12Z</time>
      </trkpt>
      <trkpt lat="45.60215" lon="4.6033">
        <ele>548</ele>
        <time>2019-04-28T10:32:14Z</time>
      </trkpt>
      <trkpt lat="45.60201" lon="4.6035">
        <ele>548.6</ele>
        <time>2019-04-28T10:32:17Z</time>
      </trkpt>
      <trkpt lat="45.60187" lon="4.60369">
        <ele>549</ele>
        <time>2019-04-28T10:32:20Z</time>
      </trkpt>
      <trkpt lat="45.60178" lon="4.60382">
        <ele>549.2</ele>
        <time>2019-04-28T10:32:22Z</time>
      </trkpt>
      <trkpt lat="45.60173" lon="4.60389">
        <ele>549.2</ele>
        <time>2019-04-28T10:32:23Z</time>
      </trkpt>
      <trkpt lat="45.6016" lon="4.60404">
        <ele>549.2</ele>
        <time>2019-04-28T10:32:26Z</time>
      </trkpt>
      <trkpt lat="45.60156" lon="4.60408">
        <ele>549.1</ele>
        <time>2019-04-28T10:32:27Z</time>
      </trkpt>
      <trkpt lat="45.60148" lon="4.60415">
        <ele>548.9</ele>
        <time>2019-04-28T10:32:29Z</time>
      </trkpt>
      <trkpt lat="45.60133" lon="4.60418">
        <ele>548.5</ele>
        <time>2019-04-28T10:32:32Z</time>
      </trkpt>
      <trkpt lat="45.60124" lon="4.60417">
        <ele>548.2</ele>
        <time>2019-04-28T10:32:34Z</time>
      </trkpt>
      <trkpt lat="45.60119" lon="4.60416">
        <ele>548</ele>
        <time>2019-04-28T10:32:35Z</time>
      </trkpt>
      <trkpt lat="45.6011" lon="4.60413">
        <ele>547.6</ele>
        <time>2019-04-28T10:32:38Z</time>
      </trkpt>
    </trkseg>
  </trk>
</gpx>